<?xml version='1.0' encoding='UTF-8'?><gpx version="1.1" creator="JPX - https://github.com/jenetics/jpx" xmlns="http://www.topografix.com/GPX/1/1"><trk><trkseg><trkpt lat="42.5050007" lon="12.3218476"><ele>192.0</ele><time>2026-04-04T11:40:32.471Z</time></trkpt><trkpt lat="42.5048894" lon="12.321915"><ele>192.0</ele><time>2026-04-04T11:40:34.464Z</time></trkpt><trkpt lat="42.5047728" lon="12.3219162"><ele>192.0</ele><time>2026-04-04T11:40:36.461Z</time></trkpt><trkpt lat="42.5047178" lon="12.3218717"><ele>192.0</ele><time>2026-04-04T11:40:38.124Z</time></trkpt><trkpt lat="42.504642" lon="12.3218118"><ele>192.0</ele><time>2026-04-04T11:40:39.463Z</time></trkpt><trkpt lat="42.5046605" lon="12.3216951"><ele>192.0</ele><time>2026-04-04T11:40:42.45Z</time></trkpt><trkpt lat="42.5047354" lon="12.3216586"><ele>192.0</ele><time>2026-04-04T11:40:43.46Z</time></trkpt><trkpt lat="42.5048141" lon="12.3216153"><ele>192.0</ele><time>2026-04-04T11:40:44.465Z</time></trkpt><trkpt lat="42.504902" lon="12.3215685"><ele>192.0</ele><time>2026-04-04T11:40:46.249Z</time></trkpt><trkpt lat="42.5050722" lon="12.3214744"><ele>192.0</ele><time>2026-04-04T11:40:47.464Z</time></trkpt><trkpt lat="42.5051398" lon="12.321427"><ele>192.0</ele><time>2026-04-04T11:40:48.474Z</time></trkpt><trkpt lat="42.5052051" lon="12.3213872"><ele>192.0</ele><time>2026-04-04T11:40:49.467Z</time></trkpt><trkpt lat="42.5053111" lon="12.3213678"><ele>192.0</ele><time>2026-04-04T11:40:51.476Z</time></trkpt><trkpt lat="42.5054059" lon="12.3214997"><ele>192.0</ele><time>2026-04-04T11:40:53.471Z</time></trkpt><trkpt lat="42.5054477" lon="12.3216041"><ele>192.0</ele><time>2026-04-04T11:40:55.142Z</time></trkpt><trkpt lat="42.5055672" lon="12.3218359"><ele>193.16666666666666</ele><time>2026-04-04T11:40:56.457Z</time></trkpt><trkpt lat="42.5056433" lon="12.3219183"><ele>194.33333333333331</ele><time>2026-04-04T11:40:57.464Z</time></trkpt><trkpt lat="42.5057154" lon="12.321953"><ele>195.5</ele><time>2026-04-04T11:40:58.469Z</time></trkpt><trkpt lat="42.5057785" lon="12.3219487"><ele>196.66666666666666</ele><time>2026-04-04T11:40:59.456Z</time></trkpt><trkpt lat="42.5058389" lon="12.322004"><ele>197.83333333333331</ele><time>2026-04-04T11:41:02.463Z</time></trkpt><trkpt lat="42.5057476" lon="12.3220979"><ele>199.0</ele><time>2026-04-04T11:41:04.466Z</time></trkpt><trkpt lat="42.5056578" lon="12.3221442"><ele>199.0</ele><time>2026-04-04T11:41:05.468Z</time></trkpt><trkpt lat="42.5055584" lon="12.3222043"><ele>199.0</ele><time>2026-04-04T11:41:06.452Z</time></trkpt><trkpt lat="42.5054445" lon="12.3222714"><ele>199.0</ele><time>2026-04-04T11:41:07.458Z</time></trkpt><trkpt lat="42.5053175" lon="12.3223535"><ele>199.0</ele><time>2026-04-04T11:41:08.462Z</time></trkpt><trkpt lat="42.505197" lon="12.3224395"><ele>201.0</ele><time>2026-04-04T11:41:09.47Z</time></trkpt><trkpt lat="42.5050813" lon="12.3225391"><ele>203.0</ele><time>2026-04-04T11:41:10.463Z</time></trkpt><trkpt lat="42.5049665" lon="12.3226559"><ele>205.0</ele><time>2026-04-04T11:41:12.154Z</time></trkpt><trkpt lat="42.504743" lon="12.3229196"><ele>205.0</ele><time>2026-04-04T11:41:13.451Z</time></trkpt><trkpt lat="42.5046302" lon="12.3230566"><ele>205.0</ele><time>2026-04-04T11:41:14.461Z</time></trkpt><trkpt lat="42.5045252" lon="12.3231854"><ele>205.0</ele><time>2026-04-04T11:41:15.473Z</time></trkpt><trkpt lat="42.5044374" lon="12.3233076"><ele>205.0</ele><time>2026-04-04T11:41:16.467Z</time></trkpt><trkpt lat="42.5043602" lon="12.3234391"><ele>205.5</ele><time>2026-04-04T11:41:17.463Z</time></trkpt><trkpt lat="42.5043088" lon="12.3235958"><ele>206.0</ele><time>2026-04-04T11:41:18.472Z</time></trkpt><trkpt lat="42.5042921" lon="12.3237682"><ele>206.5</ele><time>2026-04-04T11:41:19.446Z</time></trkpt><trkpt lat="42.5043105" lon="12.3239625"><ele>207.0</ele><time>2026-04-04T11:41:20.452Z</time></trkpt><trkpt lat="42.5043501" lon="12.3241457"><ele>206.8</ele><time>2026-04-04T11:41:21.471Z</time></trkpt><trkpt lat="42.5043803" lon="12.3243031"><ele>206.6</ele><time>2026-04-04T11:41:22.473Z</time></trkpt><trkpt lat="42.50439" lon="12.3244464"><ele>206.4</ele><time>2026-04-04T11:41:23.463Z</time></trkpt><trkpt lat="42.5043913" lon="12.3245799"><ele>206.20000000000002</ele><time>2026-04-04T11:41:24.473Z</time></trkpt><trkpt lat="42.5043958" lon="12.3247101"><ele>206.0</ele><time>2026-04-04T11:41:25.455Z</time></trkpt><trkpt lat="42.5044093" lon="12.3248384"><ele>206.00000000000003</ele><time>2026-04-04T11:41:26.472Z</time></trkpt><trkpt lat="42.5044275" lon="12.3249627"><ele>206.0</ele><time>2026-04-04T11:41:27.473Z</time></trkpt><trkpt lat="42.5044418" lon="12.3250809"><ele>206.0</ele><time>2026-04-04T11:41:28.471Z</time></trkpt><trkpt lat="42.5044426" lon="12.3251886"><ele>206.0</ele><time>2026-04-04T11:41:29.469Z</time></trkpt><trkpt lat="42.5044405" lon="12.3252833"><ele>206.00000000000003</ele><time>2026-04-04T11:41:30.476Z</time></trkpt><trkpt lat="42.5044469" lon="12.3253799"><ele>206.0</ele><time>2026-04-04T11:41:31.465Z</time></trkpt><trkpt lat="42.5044877" lon="12.3254746"><ele>206.00000000000003</ele><time>2026-04-04T11:41:32.471Z</time></trkpt><trkpt lat="42.504553" lon="12.325549"><ele>206.0</ele><time>2026-04-04T11:41:33.458Z</time></trkpt><trkpt lat="42.5046363" lon="12.3256219"><ele>206.0</ele><time>2026-04-04T11:41:34.467Z</time></trkpt><trkpt lat="42.5047155" lon="12.3256901"><ele>206.0</ele><time>2026-04-04T11:41:35.47Z</time></trkpt><trkpt lat="42.5047689" lon="12.325765"><ele>206.00000000000003</ele><time>2026-04-04T11:41:36.464Z</time></trkpt><trkpt lat="42.5047986" lon="12.3258782"><ele>206.0</ele><time>2026-04-04T11:41:37.457Z</time></trkpt><trkpt lat="42.5047996" lon="12.3260169"><ele>205.20000000000002</ele><time>2026-04-04T11:41:38.459Z</time></trkpt><trkpt lat="42.5048018" lon="12.3261562"><ele>204.4</ele><time>2026-04-04T11:41:39.463Z</time></trkpt><trkpt lat="42.5048128" lon="12.3262929"><ele>203.6</ele><time>2026-04-04T11:41:40.462Z</time></trkpt><trkpt lat="42.5048572" lon="12.3264347"><ele>202.8</ele><time>2026-04-04T11:41:41.47Z</time></trkpt><trkpt lat="42.5049319" lon="12.3265716"><ele>202.0</ele><time>2026-04-04T11:41:42.471Z</time></trkpt><trkpt lat="42.5050255" lon="12.3266994"><ele>202.0</ele><time>2026-04-04T11:41:43.461Z</time></trkpt><trkpt lat="42.5051174" lon="12.32682"><ele>202.0</ele><time>2026-04-04T11:41:44.471Z</time></trkpt><trkpt lat="42.5051908" lon="12.3269195"><ele>202.0</ele><time>2026-04-04T11:41:45.464Z</time></trkpt><trkpt lat="42.5052556" lon="12.3270154"><ele>202.0</ele><time>2026-04-04T11:41:46.462Z</time></trkpt><trkpt lat="42.5053065" lon="12.3271181"><ele>202.0</ele><time>2026-04-04T11:41:47.473Z</time></trkpt><trkpt lat="42.505336" lon="12.3272438"><ele>199.39999999999998</ele><time>2026-04-04T11:41:48.473Z</time></trkpt><trkpt lat="42.5053442" lon="12.3273911"><ele>196.79999999999998</ele><time>2026-04-04T11:41:49.46Z</time></trkpt><trkpt lat="42.5053391" lon="12.3275445"><ele>194.2</ele><time>2026-04-04T11:41:50.453Z</time></trkpt><trkpt lat="42.5053153" lon="12.3276951"><ele>191.6</ele><time>2026-04-04T11:41:51.459Z</time></trkpt><trkpt lat="42.5053018" lon="12.3278292"><ele>189.0</ele><time>2026-04-04T11:41:52.463Z</time></trkpt><trkpt lat="42.5053017" lon="12.3279666"><ele>188.79999999999998</ele><time>2026-04-04T11:41:53.466Z</time></trkpt><trkpt lat="42.5053276" lon="12.328121"><ele>188.6</ele><time>2026-04-04T11:41:54.481Z</time></trkpt><trkpt lat="42.5053745" lon="12.3282655"><ele>188.4</ele><time>2026-04-04T11:41:55.464Z</time></trkpt><trkpt lat="42.5054293" lon="12.3283963"><ele>188.2</ele><time>2026-04-04T11:41:56.482Z</time></trkpt><trkpt lat="42.5054793" lon="12.3285187"><ele>188.0</ele><time>2026-04-04T11:41:57.478Z</time></trkpt><trkpt lat="42.5055258" lon="12.3286327"><ele>191.4</ele><time>2026-04-04T11:41:58.482Z</time></trkpt><trkpt lat="42.5055572" lon="12.3287602"><ele>194.8</ele><time>2026-04-04T11:41:59.468Z</time></trkpt><trkpt lat="42.5055706" lon="12.3289073"><ele>198.2</ele><time>2026-04-04T11:42:00.485Z</time></trkpt><trkpt lat="42.5055831" lon="12.3290606"><ele>201.6</ele><time>2026-04-04T11:42:01.471Z</time></trkpt><trkpt lat="42.5055995" lon="12.3292145"><ele>205.0</ele><time>2026-04-04T11:42:02.472Z</time></trkpt><trkpt lat="42.5056169" lon="12.3293663"><ele>205.2</ele><time>2026-04-04T11:42:03.453Z</time></trkpt><trkpt lat="42.5056389" lon="12.3295097"><ele>205.4</ele><time>2026-04-04T11:42:04.473Z</time></trkpt><trkpt lat="42.5056758" lon="12.3296301"><ele>205.60000000000002</ele><time>2026-04-04T11:42:05.474Z</time></trkpt><trkpt lat="42.5057215" lon="12.3297542"><ele>205.8</ele><time>2026-04-04T11:42:06.467Z</time></trkpt><trkpt lat="42.5057682" lon="12.3299128"><ele>206.0</ele><time>2026-04-04T11:42:07.474Z</time></trkpt><trkpt lat="42.5058004" lon="12.3300775"><ele>206.8</ele><time>2026-04-04T11:42:08.47Z</time></trkpt><trkpt lat="42.5058422" lon="12.3302307"><ele>207.60000000000002</ele><time>2026-04-04T11:42:09.462Z</time></trkpt><trkpt lat="42.5058981" lon="12.3303656"><ele>208.4</ele><time>2026-04-04T11:42:10.476Z</time></trkpt><trkpt lat="42.505943" lon="12.3304903"><ele>209.2</ele><time>2026-04-04T11:42:11.462Z</time></trkpt><trkpt lat="42.5059599" lon="12.3306012"><ele>210.0</ele><time>2026-04-04T11:42:12.479Z</time></trkpt><trkpt lat="42.5059561" lon="12.3306947"><ele>210.25</ele><time>2026-04-04T11:42:13.474Z</time></trkpt><trkpt lat="42.5058806" lon="12.3308245"><ele>210.5</ele><time>2026-04-04T11:42:15.474Z</time></trkpt><trkpt lat="42.5057899" lon="12.3308987"><ele>210.75</ele><time>2026-04-04T11:42:16.472Z</time></trkpt><trkpt lat="42.505683" lon="12.3309754"><ele>211.0</ele><time>2026-04-04T11:42:17.482Z</time></trkpt><trkpt lat="42.5055652" lon="12.3310272"><ele>211.0</ele><time>2026-04-04T11:42:18.469Z</time></trkpt><trkpt lat="42.5054639" lon="12.3310664"><ele>211.0</ele><time>2026-04-04T11:42:19.474Z</time></trkpt><trkpt lat="42.505375" lon="12.3311089"><ele>211.0</ele><time>2026-04-04T11:42:20.471Z</time></trkpt><trkpt lat="42.5053117" lon="12.3311933"><ele>211.0</ele><time>2026-04-04T11:42:21.474Z</time></trkpt><trkpt lat="42.5052745" lon="12.3313214"><ele>211.0</ele><time>2026-04-04T11:42:22.468Z</time></trkpt><trkpt lat="42.5052541" lon="12.3314854"><ele>207.25</ele><time>2026-04-04T11:42:23.462Z</time></trkpt><trkpt lat="42.5052641" lon="12.3316528"><ele>203.5</ele><time>2026-04-04T11:42:24.482Z</time></trkpt><trkpt lat="42.5052939" lon="12.3318107"><ele>199.75</ele><time>2026-04-04T11:42:25.465Z</time></trkpt><trkpt lat="42.5053146" lon="12.3319656"><ele>196.0</ele><time>2026-04-04T11:42:26.473Z</time></trkpt><trkpt lat="42.5053333" lon="12.3321246"><ele>197.20000000000002</ele><time>2026-04-04T11:42:27.462Z</time></trkpt><trkpt lat="42.5053726" lon="12.3322622"><ele>198.4</ele><time>2026-04-04T11:42:28.468Z</time></trkpt><trkpt lat="42.5054133" lon="12.332372"><ele>199.6</ele><time>2026-04-04T11:42:29.463Z</time></trkpt><trkpt lat="42.5054354" lon="12.3324743"><ele>200.8</ele><time>2026-04-04T11:42:31.158Z</time></trkpt><trkpt lat="42.5053939" lon="12.3326991"><ele>202.0</ele><time>2026-04-04T11:42:32.465Z</time></trkpt><trkpt lat="42.5053395" lon="12.3328364"><ele>202.0</ele><time>2026-04-04T11:42:33.451Z</time></trkpt><trkpt lat="42.5052663" lon="12.332976"><ele>202.0</ele><time>2026-04-04T11:42:34.451Z</time></trkpt><trkpt lat="42.505202" lon="12.3331034"><ele>202.0</ele><time>2026-04-04T11:42:35.459Z</time></trkpt><trkpt lat="42.5051488" lon="12.3331986"><ele>202.0</ele><time>2026-04-04T11:42:36.47Z</time></trkpt><trkpt lat="42.5051103" lon="12.3332747"><ele>202.0</ele><time>2026-04-04T11:42:37.457Z</time></trkpt><trkpt lat="42.5050358" lon="12.3333534"><ele>202.0</ele><time>2026-04-04T11:42:39.474Z</time></trkpt><trkpt lat="42.5049555" lon="12.3332997"><ele>202.0</ele><time>2026-04-04T11:42:41.473Z</time></trkpt><trkpt lat="42.5049194" lon="12.3332206"><ele>202.0</ele><time>2026-04-04T11:42:42.467Z</time></trkpt><trkpt lat="42.5048894" lon="12.3330947"><ele>202.0</ele><time>2026-04-04T11:42:43.452Z</time></trkpt><trkpt lat="42.5048595" lon="12.3329582"><ele>202.0</ele><time>2026-04-04T11:42:44.473Z</time></trkpt><trkpt lat="42.5048074" lon="12.3328384"><ele>201.99999999999997</ele><time>2026-04-04T11:42:45.464Z</time></trkpt><trkpt lat="42.5047432" lon="12.3327344"><ele>202.0</ele><time>2026-04-04T11:42:46.463Z</time></trkpt><trkpt lat="42.5046712" lon="12.3326577"><ele>202.0</ele><time>2026-04-04T11:42:47.476Z</time></trkpt><trkpt lat="42.5045926" lon="12.3326105"><ele>202.0</ele><time>2026-04-04T11:42:48.452Z</time></trkpt><trkpt lat="42.5045133" lon="12.3326032"><ele>201.99999999999997</ele><time>2026-04-04T11:42:49.472Z</time></trkpt><trkpt lat="42.5044388" lon="12.3326287"><ele>202.0</ele><time>2026-04-04T11:42:50.473Z</time></trkpt><trkpt lat="42.5043725" lon="12.3326753"><ele>200.66666666666666</ele><time>2026-04-04T11:42:51.463Z</time></trkpt><trkpt lat="42.5043142" lon="12.3327576"><ele>199.33333333333331</ele><time>2026-04-04T11:42:52.47Z</time></trkpt><trkpt lat="42.5042593" lon="12.3328691"><ele>198.0</ele><time>2026-04-04T11:42:53.47Z</time></trkpt><trkpt lat="42.5042133" lon="12.3329659"><ele>196.66666666666669</ele><time>2026-04-04T11:42:54.475Z</time></trkpt><trkpt lat="42.5041612" lon="12.3330183"><ele>195.33333333333334</ele><time>2026-04-04T11:42:55.474Z</time></trkpt><trkpt lat="42.5040976" lon="12.3330101"><ele>194.0</ele><time>2026-04-04T11:42:56.465Z</time></trkpt><trkpt lat="42.5040233" lon="12.3329673"><ele>194.0</ele><time>2026-04-04T11:42:57.464Z</time></trkpt><trkpt lat="42.5039587" lon="12.3329142"><ele>194.0</ele><time>2026-04-04T11:42:58.471Z</time></trkpt><trkpt lat="42.5038393" lon="12.3329101"><ele>194.0</ele><time>2026-04-04T11:43:00.473Z</time></trkpt><trkpt lat="42.5037751" lon="12.3329704"><ele>194.0</ele><time>2026-04-04T11:43:01.473Z</time></trkpt><trkpt lat="42.503701" lon="12.3330553"><ele>194.0</ele><time>2026-04-04T11:43:02.466Z</time></trkpt><trkpt lat="42.5036187" lon="12.3331348"><ele>195.0</ele><time>2026-04-04T11:43:03.479Z</time></trkpt><trkpt lat="42.503526" lon="12.3331969"><ele>196.0</ele><time>2026-04-04T11:43:04.471Z</time></trkpt><trkpt lat="42.5034257" lon="12.3332268"><ele>197.0</ele><time>2026-04-04T11:43:05.467Z</time></trkpt><trkpt lat="42.5033149" lon="12.3332211"><ele>198.0</ele><time>2026-04-04T11:43:06.475Z</time></trkpt><trkpt lat="42.5032124" lon="12.3331897"><ele>199.0</ele><time>2026-04-04T11:43:07.473Z</time></trkpt><trkpt lat="42.5031281" lon="12.3331234"><ele>196.99999999999997</ele><time>2026-04-04T11:43:08.472Z</time></trkpt><trkpt lat="42.5030563" lon="12.3330444"><ele>195.0</ele><time>2026-04-04T11:43:09.472Z</time></trkpt><trkpt lat="42.5029882" lon="12.3329763"><ele>193.0</ele><time>2026-04-04T11:43:10.475Z</time></trkpt><trkpt lat="42.5029207" lon="12.332944"><ele>191.0</ele><time>2026-04-04T11:43:11.474Z</time></trkpt><trkpt lat="42.5028467" lon="12.3329482"><ele>189.0</ele><time>2026-04-04T11:43:12.477Z</time></trkpt><trkpt lat="42.5027562" lon="12.3329797"><ele>187.0</ele><time>2026-04-04T11:43:13.467Z</time></trkpt><trkpt lat="42.5026465" lon="12.3330227"><ele>188.0</ele><time>2026-04-04T11:43:14.479Z</time></trkpt><trkpt lat="42.5025282" lon="12.3330636"><ele>189.0</ele><time>2026-04-04T11:43:15.467Z</time></trkpt><trkpt lat="42.5024054" lon="12.3331006"><ele>190.0</ele><time>2026-04-04T11:43:16.468Z</time></trkpt><trkpt lat="42.5022903" lon="12.333141"><ele>191.0</ele><time>2026-04-04T11:43:17.47Z</time></trkpt><trkpt lat="42.5021802" lon="12.3331762"><ele>189.0</ele><time>2026-04-04T11:43:18.469Z</time></trkpt><trkpt lat="42.5020693" lon="12.3332057"><ele>187.0</ele><time>2026-04-04T11:43:19.477Z</time></trkpt><trkpt lat="42.5019471" lon="12.3332291"><ele>185.0</ele><time>2026-04-04T11:43:20.477Z</time></trkpt><trkpt lat="42.5018194" lon="12.3332559"><ele>183.0</ele><time>2026-04-04T11:43:21.474Z</time></trkpt><trkpt lat="42.5016961" lon="12.3332845"><ele>183.0</ele><time>2026-04-04T11:43:22.463Z</time></trkpt><trkpt lat="42.5015754" lon="12.3333033"><ele>183.0</ele><time>2026-04-04T11:43:23.47Z</time></trkpt><trkpt lat="42.5014578" lon="12.3333001"><ele>183.0</ele><time>2026-04-04T11:43:24.464Z</time></trkpt><trkpt lat="42.5013293" lon="12.3332768"><ele>183.0</ele><time>2026-04-04T11:43:25.48Z</time></trkpt><trkpt lat="42.5011999" lon="12.33325"><ele>182.25</ele><time>2026-04-04T11:43:26.473Z</time></trkpt><trkpt lat="42.5010719" lon="12.3332204"><ele>181.5</ele><time>2026-04-04T11:43:27.47Z</time></trkpt><trkpt lat="42.5009515" lon="12.3332073"><ele>180.75</ele><time>2026-04-04T11:43:28.453Z</time></trkpt><trkpt lat="42.5008357" lon="12.3331856"><ele>180.0</ele><time>2026-04-04T11:43:29.476Z</time></trkpt><trkpt lat="42.50073" lon="12.3331643"><ele>180.0</ele><time>2026-04-04T11:43:30.472Z</time></trkpt><trkpt lat="42.5006458" lon="12.333156"><ele>180.0</ele><time>2026-04-04T11:43:31.469Z</time></trkpt><trkpt lat="42.5005754" lon="12.3331647"><ele>180.0</ele><time>2026-04-04T11:43:32.484Z</time></trkpt><trkpt lat="42.5005251" lon="12.3332226"><ele>180.0</ele><time>2026-04-04T11:43:33.466Z</time></trkpt><trkpt lat="42.5004873" lon="12.333329"><ele>180.0</ele><time>2026-04-04T11:43:34.477Z</time></trkpt><trkpt lat="42.5004624" lon="12.3334679"><ele>180.0</ele><time>2026-04-04T11:43:35.461Z</time></trkpt><trkpt lat="42.5004284" lon="12.3336344"><ele>178.25</ele><time>2026-04-04T11:43:36.463Z</time></trkpt><trkpt lat="42.5003927" lon="12.3338041"><ele>176.5</ele><time>2026-04-04T11:43:37.465Z</time></trkpt><trkpt lat="42.500357" lon="12.333952"><ele>174.75</ele><time>2026-04-04T11:43:38.47Z</time></trkpt><trkpt lat="42.5003144" lon="12.3341032"><ele>173.0</ele><time>2026-04-04T11:43:39.477Z</time></trkpt><trkpt lat="42.5002459" lon="12.3342449"><ele>176.5</ele><time>2026-04-04T11:43:40.469Z</time></trkpt><trkpt lat="42.5001571" lon="12.3343506"><ele>180.0</ele><time>2026-04-04T11:43:42.243Z</time></trkpt><trkpt lat="42.4999831" lon="12.3344923"><ele>183.5</ele><time>2026-04-04T11:43:43.453Z</time></trkpt><trkpt lat="42.4998872" lon="12.3345489"><ele>187.0</ele><time>2026-04-04T11:43:44.461Z</time></trkpt><trkpt lat="42.499779" lon="12.3346007"><ele>187.0</ele><time>2026-04-04T11:43:45.462Z</time></trkpt><trkpt lat="42.4996688" lon="12.3346604"><ele>187.0</ele><time>2026-04-04T11:43:46.465Z</time></trkpt><trkpt lat="42.4995412" lon="12.3347021"><ele>187.0</ele><time>2026-04-04T11:43:47.464Z</time></trkpt><trkpt lat="42.499405" lon="12.3347351"><ele>187.0</ele><time>2026-04-04T11:43:48.454Z</time></trkpt><trkpt lat="42.499284" lon="12.3347764"><ele>188.25</ele><time>2026-04-04T11:43:49.474Z</time></trkpt><trkpt lat="42.4991863" lon="12.3348494"><ele>189.5</ele><time>2026-04-04T11:43:50.47Z</time></trkpt><trkpt lat="42.4991132" lon="12.33496"><ele>190.75</ele><time>2026-04-04T11:43:51.473Z</time></trkpt><trkpt lat="42.4990549" lon="12.3351099"><ele>192.0</ele><time>2026-04-04T11:43:52.475Z</time></trkpt><trkpt lat="42.4989989" lon="12.3352735"><ele>192.0</ele><time>2026-04-04T11:43:53.467Z</time></trkpt><trkpt lat="42.4989354" lon="12.3354467"><ele>192.0</ele><time>2026-04-04T11:43:54.475Z</time></trkpt><trkpt lat="42.4988651" lon="12.3356207"><ele>192.0</ele><time>2026-04-04T11:43:55.464Z</time></trkpt><trkpt lat="42.498789" lon="12.3358012"><ele>192.0</ele><time>2026-04-04T11:43:56.468Z</time></trkpt><trkpt lat="42.4987155" lon="12.3359708"><ele>191.39999999999998</ele><time>2026-04-04T11:43:57.469Z</time></trkpt><trkpt lat="42.4986387" lon="12.3361025"><ele>190.79999999999998</ele><time>2026-04-04T11:43:58.466Z</time></trkpt><trkpt lat="42.4985684" lon="12.3362092"><ele>190.2</ele><time>2026-04-04T11:43:59.475Z</time></trkpt><trkpt lat="42.4985111" lon="12.3362958"><ele>189.6</ele><time>2026-04-04T11:44:00.473Z</time></trkpt><trkpt lat="42.4984616" lon="12.3363657"><ele>189.0</ele><time>2026-04-04T11:44:01.465Z</time></trkpt><trkpt lat="42.498446" lon="12.3365314"><ele>190.79999999999998</ele><time>2026-04-04T11:44:03.474Z</time></trkpt><trkpt lat="42.4984924" lon="12.3366088"><ele>192.6</ele><time>2026-04-04T11:44:04.476Z</time></trkpt><trkpt lat="42.4985558" lon="12.3366752"><ele>194.4</ele><time>2026-04-04T11:44:05.477Z</time></trkpt><trkpt lat="42.4986494" lon="12.3367298"><ele>196.2</ele><time>2026-04-04T11:44:06.47Z</time></trkpt><trkpt lat="42.4987638" lon="12.3367683"><ele>198.0</ele><time>2026-04-04T11:44:07.478Z</time></trkpt><trkpt lat="42.4988892" lon="12.336779"><ele>200.25</ele><time>2026-04-04T11:44:08.472Z</time></trkpt><trkpt lat="42.4990252" lon="12.3367827"><ele>202.5</ele><time>2026-04-04T11:44:09.465Z</time></trkpt><trkpt lat="42.4991643" lon="12.3367928"><ele>204.75</ele><time>2026-04-04T11:44:10.48Z</time></trkpt><trkpt lat="42.4993154" lon="12.3368254"><ele>207.0</ele><time>2026-04-04T11:44:11.472Z</time></trkpt><trkpt lat="42.4994522" lon="12.3368525"><ele>207.0</ele><time>2026-04-04T11:44:12.481Z</time></trkpt><trkpt lat="42.4995693" lon="12.3368511"><ele>207.0</ele><time>2026-04-04T11:44:13.47Z</time></trkpt><trkpt lat="42.4996865" lon="12.3368133"><ele>207.0</ele><time>2026-04-04T11:44:14.467Z</time></trkpt><trkpt lat="42.4997973" lon="12.3367414"><ele>207.0</ele><time>2026-04-04T11:44:15.451Z</time></trkpt><trkpt lat="42.4999041" lon="12.3366446"><ele>208.75</ele><time>2026-04-04T11:44:16.451Z</time></trkpt><trkpt lat="42.5000087" lon="12.336542"><ele>210.5</ele><time>2026-04-04T11:44:17.457Z</time></trkpt><trkpt lat="42.5001227" lon="12.3364606"><ele>212.25</ele><time>2026-04-04T11:44:18.462Z</time></trkpt><trkpt lat="42.5002542" lon="12.3364112"><ele>214.0</ele><time>2026-04-04T11:44:19.453Z</time></trkpt><trkpt lat="42.5003877" lon="12.3363772"><ele>217.0</ele><time>2026-04-04T11:44:20.455Z</time></trkpt><trkpt lat="42.5005166" lon="12.336349"><ele>220.0</ele><time>2026-04-04T11:44:21.457Z</time></trkpt><trkpt lat="42.5006399" lon="12.3363333"><ele>223.0</ele><time>2026-04-04T11:44:22.454Z</time></trkpt><trkpt lat="42.5007464" lon="12.3363448"><ele>226.0</ele><time>2026-04-04T11:44:23.47Z</time></trkpt><trkpt lat="42.5008337" lon="12.33638"><ele>226.20000000000002</ele><time>2026-04-04T11:44:24.476Z</time></trkpt><trkpt lat="42.5009086" lon="12.3364822"><ele>226.40000000000003</ele><time>2026-04-04T11:44:25.462Z</time></trkpt><trkpt lat="42.5009764" lon="12.3366096"><ele>226.6</ele><time>2026-04-04T11:44:26.471Z</time></trkpt><trkpt lat="42.5010312" lon="12.336741"><ele>226.8</ele><time>2026-04-04T11:44:27.462Z</time></trkpt><trkpt lat="42.5010761" lon="12.3368494"><ele>227.0</ele><time>2026-04-04T11:44:28.476Z</time></trkpt><trkpt lat="42.5011271" lon="12.3369297"><ele>227.0</ele><time>2026-04-04T11:44:29.468Z</time></trkpt><trkpt lat="42.5011913" lon="12.336977"><ele>227.00000000000003</ele><time>2026-04-04T11:44:30.476Z</time></trkpt><trkpt lat="42.5012599" lon="12.3369759"><ele>227.0</ele><time>2026-04-04T11:44:31.473Z</time></trkpt><trkpt lat="42.5013182" lon="12.3369282"><ele>227.0</ele><time>2026-04-04T11:44:32.464Z</time></trkpt><trkpt lat="42.5013666" lon="12.3368502"><ele>227.00000000000003</ele><time>2026-04-04T11:44:33.473Z</time></trkpt><trkpt lat="42.5014149" lon="12.3367719"><ele>227.0</ele><time>2026-04-04T11:44:34.469Z</time></trkpt><trkpt lat="42.5014831" lon="12.3367493"><ele>227.0</ele><time>2026-04-04T11:44:35.463Z</time></trkpt><trkpt lat="42.5015729" lon="12.3367975"><ele>231.5</ele><time>2026-04-04T11:44:36.467Z</time></trkpt><trkpt lat="42.5016686" lon="12.3368837"><ele>236.0</ele><time>2026-04-04T11:44:37.466Z</time></trkpt><trkpt lat="42.5017582" lon="12.3369766"><ele>240.5</ele><time>2026-04-04T11:44:38.458Z</time></trkpt><trkpt lat="42.5018646" lon="12.3370639"><ele>245.0</ele><time>2026-04-04T11:44:39.457Z</time></trkpt><trkpt lat="42.5019791" lon="12.337154"><ele>247.4</ele><time>2026-04-04T11:44:40.462Z</time></trkpt><trkpt lat="42.5020844" lon="12.3372431"><ele>249.8</ele><time>2026-04-04T11:44:41.465Z</time></trkpt><trkpt lat="42.5021695" lon="12.3373291"><ele>252.2</ele><time>2026-04-04T11:44:42.459Z</time></trkpt><trkpt lat="42.5022416" lon="12.3374003"><ele>254.6</ele><time>2026-04-04T11:44:43.476Z</time></trkpt><trkpt lat="42.5023163" lon="12.3374684"><ele>257.0</ele><time>2026-04-04T11:44:44.469Z</time></trkpt><trkpt lat="42.5023934" lon="12.3375268"><ele>257.0</ele><time>2026-04-04T11:44:45.47Z</time></trkpt><trkpt lat="42.502478" lon="12.3375841"><ele>257.0</ele><time>2026-04-04T11:44:46.469Z</time></trkpt><trkpt lat="42.5025693" lon="12.3376265"><ele>257.0</ele><time>2026-04-04T11:44:47.465Z</time></trkpt><trkpt lat="42.5026741" lon="12.3376482"><ele>257.0</ele><time>2026-04-04T11:44:48.473Z</time></trkpt><trkpt lat="42.502788" lon="12.337643"><ele>257.0</ele><time>2026-04-04T11:44:50.399Z</time></trkpt><trkpt lat="42.5030172" lon="12.3375958"><ele>258.8</ele><time>2026-04-04T11:44:51.469Z</time></trkpt><trkpt lat="42.5031336" lon="12.3375665"><ele>260.6</ele><time>2026-04-04T11:44:52.467Z</time></trkpt><trkpt lat="42.5032378" lon="12.3375414"><ele>262.40000000000003</ele><time>2026-04-04T11:44:53.477Z</time></trkpt><trkpt lat="42.503326" lon="12.3375221"><ele>264.2</ele><time>2026-04-04T11:44:54.462Z</time></trkpt><trkpt lat="42.5034204" lon="12.3375197"><ele>266.0</ele><time>2026-04-04T11:44:55.463Z</time></trkpt><trkpt lat="42.503513" lon="12.3375482"><ele>266.0</ele><time>2026-04-04T11:44:56.463Z</time></trkpt><trkpt lat="42.5036037" lon="12.3376131"><ele>266.0</ele><time>2026-04-04T11:44:57.459Z</time></trkpt><trkpt lat="42.5036886" lon="12.3376877"><ele>266.0</ele><time>2026-04-04T11:44:58.465Z</time></trkpt><trkpt lat="42.503785" lon="12.3377741"><ele>266.0</ele><time>2026-04-04T11:44:59.467Z</time></trkpt><trkpt lat="42.503885" lon="12.3378618"><ele>266.0</ele><time>2026-04-04T11:45:00.479Z</time></trkpt><trkpt lat="42.5039891" lon="12.3379357"><ele>266.6</ele><time>2026-04-04T11:45:01.465Z</time></trkpt><trkpt lat="42.5040898" lon="12.338006"><ele>267.20000000000005</ele><time>2026-04-04T11:45:02.47Z</time></trkpt><trkpt lat="42.5041816" lon="12.3380719"><ele>267.79999999999995</ele><time>2026-04-04T11:45:03.473Z</time></trkpt><trkpt lat="42.5042649" lon="12.3381421"><ele>268.4</ele><time>2026-04-04T11:45:04.469Z</time></trkpt><trkpt lat="42.5043504" lon="12.3382166"><ele>269.0</ele><time>2026-04-04T11:45:05.471Z</time></trkpt><trkpt lat="42.5044388" lon="12.3383041"><ele>271.5</ele><time>2026-04-04T11:45:06.477Z</time></trkpt><trkpt lat="42.5045311" lon="12.3384323"><ele>274.0</ele><time>2026-04-04T11:45:07.459Z</time></trkpt><trkpt lat="42.5046271" lon="12.3385792"><ele>276.5</ele><time>2026-04-04T11:45:08.465Z</time></trkpt><trkpt lat="42.5047259" lon="12.3387333"><ele>279.0</ele><time>2026-04-04T11:45:09.47Z</time></trkpt><trkpt lat="42.5048338" lon="12.3388922"><ele>283.25</ele><time>2026-04-04T11:45:10.468Z</time></trkpt><trkpt lat="42.5049283" lon="12.3390309"><ele>287.5</ele><time>2026-04-04T11:45:11.463Z</time></trkpt><trkpt lat="42.5050109" lon="12.3391473"><ele>291.75</ele><time>2026-04-04T11:45:12.48Z</time></trkpt><trkpt lat="42.5050815" lon="12.339266"><ele>296.0</ele><time>2026-04-04T11:45:13.467Z</time></trkpt><trkpt lat="42.5051471" lon="12.3393844"><ele>296.0</ele><time>2026-04-04T11:45:14.467Z</time></trkpt><trkpt lat="42.5052165" lon="12.3395069"><ele>296.0</ele><time>2026-04-04T11:45:15.469Z</time></trkpt><trkpt lat="42.5052964" lon="12.339641"><ele>296.0</ele><time>2026-04-04T11:45:16.471Z</time></trkpt><trkpt lat="42.5053824" lon="12.3397724"><ele>296.0</ele><time>2026-04-04T11:45:17.46Z</time></trkpt><trkpt lat="42.50547" lon="12.3399082"><ele>298.0</ele><time>2026-04-04T11:45:18.466Z</time></trkpt><trkpt lat="42.5055574" lon="12.3400489"><ele>300.0</ele><time>2026-04-04T11:45:19.478Z</time></trkpt><trkpt lat="42.5056431" lon="12.3401928"><ele>302.0</ele><time>2026-04-04T11:45:20.466Z</time></trkpt><trkpt lat="42.505721" lon="12.3403289"><ele>304.0</ele><time>2026-04-04T11:45:21.461Z</time></trkpt><trkpt lat="42.5058003" lon="12.3404691"><ele>303.75</ele><time>2026-04-04T11:45:22.463Z</time></trkpt><trkpt lat="42.5058802" lon="12.3406215"><ele>303.5</ele><time>2026-04-04T11:45:23.465Z</time></trkpt><trkpt lat="42.5059586" lon="12.3407758"><ele>303.25</ele><time>2026-04-04T11:45:24.474Z</time></trkpt><trkpt lat="42.5060385" lon="12.3409241"><ele>303.0</ele><time>2026-04-04T11:45:25.465Z</time></trkpt><trkpt lat="42.5061088" lon="12.341063"><ele>303.0</ele><time>2026-04-04T11:45:26.475Z</time></trkpt><trkpt lat="42.5061716" lon="12.3411871"><ele>303.0</ele><time>2026-04-04T11:45:27.469Z</time></trkpt><trkpt lat="42.5062332" lon="12.3413054"><ele>303.0</ele><time>2026-04-04T11:45:28.469Z</time></trkpt><trkpt lat="42.5062938" lon="12.3414296"><ele>303.0</ele><time>2026-04-04T11:45:29.475Z</time></trkpt><trkpt lat="42.5063644" lon="12.3415604"><ele>303.0</ele><time>2026-04-04T11:45:30.48Z</time></trkpt><trkpt lat="42.5064454" lon="12.3416897"><ele>303.25</ele><time>2026-04-04T11:45:31.465Z</time></trkpt><trkpt lat="42.5065398" lon="12.341818"><ele>303.5</ele><time>2026-04-04T11:45:32.47Z</time></trkpt><trkpt lat="42.5066345" lon="12.3419437"><ele>303.75</ele><time>2026-04-04T11:45:33.461Z</time></trkpt><trkpt lat="42.5067157" lon="12.3420619"><ele>304.0</ele><time>2026-04-04T11:45:34.474Z</time></trkpt><trkpt lat="42.5067927" lon="12.3421798"><ele>304.0</ele><time>2026-04-04T11:45:35.478Z</time></trkpt><trkpt lat="42.5068668" lon="12.3422966"><ele>304.0</ele><time>2026-04-04T11:45:36.465Z</time></trkpt><trkpt lat="42.5069394" lon="12.342416"><ele>304.0</ele><time>2026-04-04T11:45:37.466Z</time></trkpt><trkpt lat="42.5070125" lon="12.3425405"><ele>304.0</ele><time>2026-04-04T11:45:38.465Z</time></trkpt><trkpt lat="42.5070847" lon="12.3426741"><ele>303.75</ele><time>2026-04-04T11:45:39.461Z</time></trkpt><trkpt lat="42.5071627" lon="12.3428116"><ele>303.5</ele><time>2026-04-04T11:45:40.461Z</time></trkpt><trkpt lat="42.5072508" lon="12.3429459"><ele>303.25</ele><time>2026-04-04T11:45:41.479Z</time></trkpt><trkpt lat="42.5073328" lon="12.3430707"><ele>303.0</ele><time>2026-04-04T11:45:42.473Z</time></trkpt><trkpt lat="42.5074124" lon="12.3431826"><ele>303.8</ele><time>2026-04-04T11:45:43.464Z</time></trkpt><trkpt lat="42.5074877" lon="12.3432802"><ele>304.6</ele><time>2026-04-04T11:45:44.478Z</time></trkpt><trkpt lat="42.5075605" lon="12.3433671"><ele>305.4</ele><time>2026-04-04T11:45:45.478Z</time></trkpt><trkpt lat="42.50762" lon="12.3434691"><ele>306.2</ele><time>2026-04-04T11:45:46.479Z</time></trkpt><trkpt lat="42.5076677" lon="12.3436077"><ele>307.0</ele><time>2026-04-04T11:45:47.475Z</time></trkpt><trkpt lat="42.5077218" lon="12.3437794"><ele>306.3333333333333</ele><time>2026-04-04T11:45:48.479Z</time></trkpt><trkpt lat="42.507773" lon="12.3439788"><ele>305.6666666666667</ele><time>2026-04-04T11:45:49.476Z</time></trkpt><trkpt lat="42.5078207" lon="12.3441904"><ele>305.0</ele><time>2026-04-04T11:45:50.475Z</time></trkpt><trkpt lat="42.507864" lon="12.3443832"><ele>305.0</ele><time>2026-04-04T11:45:51.47Z</time></trkpt><trkpt lat="42.5079085" lon="12.3445556"><ele>305.0</ele><time>2026-04-04T11:45:52.481Z</time></trkpt><trkpt lat="42.5079584" lon="12.3447101"><ele>305.0</ele><time>2026-04-04T11:45:53.483Z</time></trkpt><trkpt lat="42.5080041" lon="12.3448479"><ele>305.0</ele><time>2026-04-04T11:45:54.448Z</time></trkpt><trkpt lat="42.5080511" lon="12.3449761"><ele>304.8</ele><time>2026-04-04T11:45:55.484Z</time></trkpt><trkpt lat="42.5080838" lon="12.3450836"><ele>304.6</ele><time>2026-04-04T11:45:56.485Z</time></trkpt><trkpt lat="42.5081163" lon="12.3451881"><ele>304.4</ele><time>2026-04-04T11:45:57.463Z</time></trkpt><trkpt lat="42.5081539" lon="12.3453011"><ele>304.2</ele><time>2026-04-04T11:45:58.481Z</time></trkpt><trkpt lat="42.5082026" lon="12.3454312"><ele>304.0</ele><time>2026-04-04T11:45:59.476Z</time></trkpt><trkpt lat="42.5082575" lon="12.3455723"><ele>304.0</ele><time>2026-04-04T11:46:00.472Z</time></trkpt><trkpt lat="42.508319" lon="12.345725"><ele>304.0</ele><time>2026-04-04T11:46:01.482Z</time></trkpt><trkpt lat="42.5083805" lon="12.3458824"><ele>304.0</ele><time>2026-04-04T11:46:02.475Z</time></trkpt><trkpt lat="42.5084446" lon="12.3460536"><ele>304.0</ele><time>2026-04-04T11:46:03.47Z</time></trkpt><trkpt lat="42.5085085" lon="12.3462202"><ele>303.25</ele><time>2026-04-04T11:46:04.473Z</time></trkpt><trkpt lat="42.5085682" lon="12.3463849"><ele>302.5</ele><time>2026-04-04T11:46:05.478Z</time></trkpt><trkpt lat="42.5086201" lon="12.3465615"><ele>301.75</ele><time>2026-04-04T11:46:06.471Z</time></trkpt><trkpt lat="42.5086661" lon="12.3467642"><ele>301.0</ele><time>2026-04-04T11:46:07.484Z</time></trkpt><trkpt lat="42.5086968" lon="12.3469643"><ele>301.0</ele><time>2026-04-04T11:46:08.483Z</time></trkpt><trkpt lat="42.5087236" lon="12.3471513"><ele>301.0</ele><time>2026-04-04T11:46:09.479Z</time></trkpt><trkpt lat="42.508746" lon="12.3473223"><ele>301.0</ele><time>2026-04-04T11:46:10.474Z</time></trkpt><trkpt lat="42.5087684" lon="12.3474719"><ele>301.0</ele><time>2026-04-04T11:46:11.473Z</time></trkpt><trkpt lat="42.508798" lon="12.3476014"><ele>301.5</ele><time>2026-04-04T11:46:12.474Z</time></trkpt><trkpt lat="42.5088383" lon="12.3477403"><ele>302.0</ele><time>2026-04-04T11:46:13.473Z</time></trkpt><trkpt lat="42.5088902" lon="12.3478851"><ele>302.5</ele><time>2026-04-04T11:46:14.474Z</time></trkpt><trkpt lat="42.5089596" lon="12.3480468"><ele>303.0</ele><time>2026-04-04T11:46:15.477Z</time></trkpt><trkpt lat="42.5090299" lon="12.348207"><ele>303.0</ele><time>2026-04-04T11:46:16.479Z</time></trkpt><trkpt lat="42.5090915" lon="12.3483659"><ele>303.0</ele><time>2026-04-04T11:46:17.48Z</time></trkpt><trkpt lat="42.5091464" lon="12.3485347"><ele>303.0</ele><time>2026-04-04T11:46:18.476Z</time></trkpt><trkpt lat="42.5091821" lon="12.3487134"><ele>303.0</ele><time>2026-04-04T11:46:19.472Z</time></trkpt><trkpt lat="42.5091917" lon="12.3489066"><ele>302.25</ele><time>2026-04-04T11:46:20.472Z</time></trkpt><trkpt lat="42.5091832" lon="12.3491104"><ele>301.5</ele><time>2026-04-04T11:46:21.467Z</time></trkpt><trkpt lat="42.5091818" lon="12.3493071"><ele>300.75</ele><time>2026-04-04T11:46:22.468Z</time></trkpt><trkpt lat="42.509191" lon="12.3494989"><ele>300.0</ele><time>2026-04-04T11:46:23.474Z</time></trkpt><trkpt lat="42.5092085" lon="12.3496922"><ele>298.75</ele><time>2026-04-04T11:46:24.471Z</time></trkpt><trkpt lat="42.509231" lon="12.349889"><ele>297.5</ele><time>2026-04-04T11:46:25.472Z</time></trkpt><trkpt lat="42.509251" lon="12.3500851"><ele>296.25</ele><time>2026-04-04T11:46:26.475Z</time></trkpt><trkpt lat="42.5092733" lon="12.3502832"><ele>295.0</ele><time>2026-04-04T11:46:27.483Z</time></trkpt><trkpt lat="42.5093075" lon="12.3504878"><ele>294.66666666666663</ele><time>2026-04-04T11:46:28.467Z</time></trkpt><trkpt lat="42.5093542" lon="12.3506945"><ele>294.3333333333333</ele><time>2026-04-04T11:46:29.459Z</time></trkpt><trkpt lat="42.5094062" lon="12.3509051"><ele>294.0</ele><time>2026-04-04T11:46:30.472Z</time></trkpt><trkpt lat="42.5094504" lon="12.3511218"><ele>294.0</ele><time>2026-04-04T11:46:31.466Z</time></trkpt><trkpt lat="42.5094932" lon="12.3513335"><ele>294.0</ele><time>2026-04-04T11:46:32.474Z</time></trkpt><trkpt lat="42.5095388" lon="12.3515147"><ele>294.0</ele><time>2026-04-04T11:46:33.461Z</time></trkpt><trkpt lat="42.5095854" lon="12.351676"><ele>294.0</ele><time>2026-04-04T11:46:34.474Z</time></trkpt><trkpt lat="42.509629" lon="12.3518339"><ele>294.8</ele><time>2026-04-04T11:46:35.471Z</time></trkpt><trkpt lat="42.5096655" lon="12.3519708"><ele>295.59999999999997</ele><time>2026-04-04T11:46:36.47Z</time></trkpt><trkpt lat="42.5096985" lon="12.3520973"><ele>296.4</ele><time>2026-04-04T11:46:37.479Z</time></trkpt><trkpt lat="42.5097303" lon="12.3522216"><ele>297.2</ele><time>2026-04-04T11:46:38.478Z</time></trkpt><trkpt lat="42.5097668" lon="12.3523431"><ele>298.0</ele><time>2026-04-04T11:46:39.474Z</time></trkpt><trkpt lat="42.5098021" lon="12.3524656"><ele>298.0</ele><time>2026-04-04T11:46:40.45Z</time></trkpt><trkpt lat="42.5098318" lon="12.3525876"><ele>298.0</ele><time>2026-04-04T11:46:41.452Z</time></trkpt><trkpt lat="42.5098468" lon="12.3527125"><ele>298.0</ele><time>2026-04-04T11:46:42.469Z</time></trkpt><trkpt lat="42.509841" lon="12.3528418"><ele>298.0</ele><time>2026-04-04T11:46:43.472Z</time></trkpt><trkpt lat="42.5098273" lon="12.3529675"><ele>298.0</ele><time>2026-04-04T11:46:44.471Z</time></trkpt><trkpt lat="42.5098081" lon="12.3530676"><ele>298.3333333333333</ele><time>2026-04-04T11:46:45.472Z</time></trkpt><trkpt lat="42.5097883" lon="12.3531573"><ele>298.66666666666663</ele><time>2026-04-04T11:46:46.474Z</time></trkpt><trkpt lat="42.509797" lon="12.3532662"><ele>299.0</ele><time>2026-04-04T11:46:47.465Z</time></trkpt><trkpt lat="42.5098216" lon="12.3533864"><ele>299.3333333333333</ele><time>2026-04-04T11:46:48.473Z</time></trkpt><trkpt lat="42.5098563" lon="12.3535157"><ele>299.6666666666667</ele><time>2026-04-04T11:46:49.469Z</time></trkpt><trkpt lat="42.5098898" lon="12.3536469"><ele>300.0</ele><time>2026-04-04T11:46:50.469Z</time></trkpt><trkpt lat="42.5099252" lon="12.3537767"><ele>299.6</ele><time>2026-04-04T11:46:51.473Z</time></trkpt><trkpt lat="42.5099635" lon="12.3538979"><ele>299.2</ele><time>2026-04-04T11:46:52.471Z</time></trkpt><trkpt lat="42.5100045" lon="12.3540125"><ele>298.8</ele><time>2026-04-04T11:46:53.47Z</time></trkpt><trkpt lat="42.5100531" lon="12.3541301"><ele>298.4</ele><time>2026-04-04T11:46:54.477Z</time></trkpt><trkpt lat="42.5101028" lon="12.3542379"><ele>298.0</ele><time>2026-04-04T11:46:55.472Z</time></trkpt><trkpt lat="42.5101469" lon="12.3543394"><ele>298.0</ele><time>2026-04-04T11:46:56.453Z</time></trkpt><trkpt lat="42.5101854" lon="12.354444"><ele>298.0</ele><time>2026-04-04T11:46:57.477Z</time></trkpt><trkpt lat="42.5102203" lon="12.3545498"><ele>298.0</ele><time>2026-04-04T11:46:58.474Z</time></trkpt><trkpt lat="42.5102529" lon="12.3546534"><ele>298.0</ele><time>2026-04-04T11:46:59.467Z</time></trkpt><trkpt lat="42.510286" lon="12.3547504"><ele>298.0</ele><time>2026-04-04T11:47:00.472Z</time></trkpt><trkpt lat="42.5103148" lon="12.3548451"><ele>298.0</ele><time>2026-04-04T11:47:01.472Z</time></trkpt><trkpt lat="42.5103424" lon="12.3549257"><ele>297.75</ele><time>2026-04-04T11:47:02.479Z</time></trkpt><trkpt lat="42.5103919" lon="12.3550788"><ele>297.5</ele><time>2026-04-04T11:47:04.471Z</time></trkpt><trkpt lat="42.5104725" lon="12.3552917"><ele>297.25</ele><time>2026-04-04T11:47:07.466Z</time></trkpt><trkpt lat="42.5104999" lon="12.3553829"><ele>297.0</ele><time>2026-04-04T11:47:08.47Z</time></trkpt><trkpt lat="42.5105305" lon="12.3554798"><ele>298.3333333333333</ele><time>2026-04-04T11:47:09.472Z</time></trkpt><trkpt lat="42.5105666" lon="12.3555804"><ele>299.6666666666667</ele><time>2026-04-04T11:47:10.471Z</time></trkpt><trkpt lat="42.5106098" lon="12.3556868"><ele>301.0</ele><time>2026-04-04T11:47:11.471Z</time></trkpt><trkpt lat="42.510644" lon="12.355787"><ele>302.33333333333337</ele><time>2026-04-04T11:47:12.474Z</time></trkpt><trkpt lat="42.5106757" lon="12.3558843"><ele>303.6666666666667</ele><time>2026-04-04T11:47:13.478Z</time></trkpt><trkpt lat="42.510709" lon="12.3559994"><ele>305.0</ele><time>2026-04-04T11:47:14.476Z</time></trkpt><trkpt lat="42.5107475" lon="12.3561192"><ele>305.0</ele><time>2026-04-04T11:47:15.465Z</time></trkpt><trkpt lat="42.5107825" lon="12.3562302"><ele>305.0</ele><time>2026-04-04T11:47:16.48Z</time></trkpt><trkpt lat="42.510814" lon="12.3563297"><ele>305.0</ele><time>2026-04-04T11:47:17.468Z</time></trkpt><trkpt lat="42.51084" lon="12.3564256"><ele>305.0</ele><time>2026-04-04T11:47:18.467Z</time></trkpt><trkpt lat="42.5108618" lon="12.3565215"><ele>305.0</ele><time>2026-04-04T11:47:19.479Z</time></trkpt><trkpt lat="42.5108869" lon="12.3566112"><ele>305.0</ele><time>2026-04-04T11:47:20.477Z</time></trkpt><trkpt lat="42.5109187" lon="12.3566944"><ele>303.83333333333337</ele><time>2026-04-04T11:47:21.465Z</time></trkpt><trkpt lat="42.5109571" lon="12.3567861"><ele>302.6666666666667</ele><time>2026-04-04T11:47:22.479Z</time></trkpt><trkpt lat="42.5110084" lon="12.3568854"><ele>301.5</ele><time>2026-04-04T11:47:23.473Z</time></trkpt><trkpt lat="42.511068" lon="12.3569716"><ele>300.3333333333333</ele><time>2026-04-04T11:47:24.478Z</time></trkpt><trkpt lat="42.5111287" lon="12.3570578"><ele>299.16666666666663</ele><time>2026-04-04T11:47:25.479Z</time></trkpt><trkpt lat="42.5111818" lon="12.3571462"><ele>298.0</ele><time>2026-04-04T11:47:26.477Z</time></trkpt><trkpt lat="42.5112225" lon="12.3572404"><ele>297.66666666666663</ele><time>2026-04-04T11:47:27.484Z</time></trkpt><trkpt lat="42.5112638" lon="12.357351"><ele>297.3333333333333</ele><time>2026-04-04T11:47:28.474Z</time></trkpt><trkpt lat="42.5113029" lon="12.3574688"><ele>297.0</ele><time>2026-04-04T11:47:29.473Z</time></trkpt><trkpt lat="42.5113432" lon="12.3575751"><ele>296.6666666666667</ele><time>2026-04-04T11:47:30.471Z</time></trkpt><trkpt lat="42.5113836" lon="12.3576628"><ele>296.33333333333337</ele><time>2026-04-04T11:47:31.474Z</time></trkpt><trkpt lat="42.5114223" lon="12.357746"><ele>296.0</ele><time>2026-04-04T11:47:32.457Z</time></trkpt><trkpt lat="42.511466" lon="12.3578305"><ele>296.0</ele><time>2026-04-04T11:47:33.459Z</time></trkpt><trkpt lat="42.5115286" lon="12.3579334"><ele>296.0</ele><time>2026-04-04T11:47:34.465Z</time></trkpt><trkpt lat="42.5115963" lon="12.3580456"><ele>296.0</ele><time>2026-04-04T11:47:35.465Z</time></trkpt><trkpt lat="42.5116617" lon="12.3581708"><ele>296.0</ele><time>2026-04-04T11:47:36.467Z</time></trkpt><trkpt lat="42.5117291" lon="12.3583135"><ele>296.0</ele><time>2026-04-04T11:47:37.473Z</time></trkpt><trkpt lat="42.5117877" lon="12.3584503"><ele>294.2</ele><time>2026-04-04T11:47:38.463Z</time></trkpt><trkpt lat="42.5118435" lon="12.3585861"><ele>292.40000000000003</ele><time>2026-04-04T11:47:39.469Z</time></trkpt><trkpt lat="42.5118986" lon="12.3587176"><ele>290.6</ele><time>2026-04-04T11:47:40.465Z</time></trkpt><trkpt lat="42.511954" lon="12.358849"><ele>288.8</ele><time>2026-04-04T11:47:41.457Z</time></trkpt><trkpt lat="42.5120045" lon="12.358971"><ele>287.0</ele><time>2026-04-04T11:47:42.473Z</time></trkpt><trkpt lat="42.5120598" lon="12.3590699"><ele>287.6666666666667</ele><time>2026-04-04T11:47:43.478Z</time></trkpt><trkpt lat="42.5121132" lon="12.3591678"><ele>288.33333333333337</ele><time>2026-04-04T11:47:44.471Z</time></trkpt><trkpt lat="42.5121672" lon="12.3592668"><ele>289.0</ele><time>2026-04-04T11:47:45.476Z</time></trkpt><trkpt lat="42.5122246" lon="12.3593635"><ele>289.6666666666667</ele><time>2026-04-04T11:47:46.466Z</time></trkpt><trkpt lat="42.512278" lon="12.359448"><ele>290.3333333333333</ele><time>2026-04-04T11:47:47.481Z</time></trkpt><trkpt lat="42.5123239" lon="12.3595276"><ele>291.0</ele><time>2026-04-04T11:47:48.472Z</time></trkpt><trkpt lat="42.5123729" lon="12.3596036"><ele>291.0</ele><time>2026-04-04T11:47:49.474Z</time></trkpt><trkpt lat="42.51242" lon="12.3596731"><ele>291.0</ele><time>2026-04-04T11:47:50.472Z</time></trkpt><trkpt lat="42.5124983" lon="12.3597813"><ele>291.0</ele><time>2026-04-04T11:47:52.47Z</time></trkpt><trkpt lat="42.5126141" lon="12.3598113"><ele>291.0</ele><time>2026-04-04T11:47:54.451Z</time></trkpt><trkpt lat="42.5126932" lon="12.3597941"><ele>291.0</ele><time>2026-04-04T11:47:55.47Z</time></trkpt><trkpt lat="42.5127807" lon="12.359749"><ele>291.0</ele><time>2026-04-04T11:47:56.453Z</time></trkpt><trkpt lat="42.5128737" lon="12.3596918"><ele>291.0</ele><time>2026-04-04T11:47:57.465Z</time></trkpt><trkpt lat="42.5129713" lon="12.3596406"><ele>291.0</ele><time>2026-04-04T11:47:58.473Z</time></trkpt><trkpt lat="42.5130759" lon="12.3596041"><ele>291.0</ele><time>2026-04-04T11:47:59.463Z</time></trkpt><trkpt lat="42.5131892" lon="12.3595792"><ele>291.0</ele><time>2026-04-04T11:48:00.471Z</time></trkpt><trkpt lat="42.5132985" lon="12.3595496"><ele>291.75</ele><time>2026-04-04T11:48:01.466Z</time></trkpt><trkpt lat="42.5134141" lon="12.3595054"><ele>292.5</ele><time>2026-04-04T11:48:02.464Z</time></trkpt><trkpt lat="42.5135418" lon="12.359453"><ele>293.25</ele><time>2026-04-04T11:48:03.475Z</time></trkpt><trkpt lat="42.5136714" lon="12.359387"><ele>294.0</ele><time>2026-04-04T11:48:04.469Z</time></trkpt><trkpt lat="42.5137827" lon="12.3593353"><ele>295.0</ele><time>2026-04-04T11:48:05.476Z</time></trkpt><trkpt lat="42.5138775" lon="12.359285"><ele>296.0</ele><time>2026-04-04T11:48:06.472Z</time></trkpt><trkpt lat="42.5139665" lon="12.3592302"><ele>297.0</ele><time>2026-04-04T11:48:07.474Z</time></trkpt><trkpt lat="42.5140584" lon="12.3591796"><ele>298.0</ele><time>2026-04-04T11:48:08.471Z</time></trkpt><trkpt lat="42.5141519" lon="12.3591405"><ele>299.0</ele><time>2026-04-04T11:48:09.463Z</time></trkpt><trkpt lat="42.5142463" lon="12.3591188"><ele>299.0</ele><time>2026-04-04T11:48:10.476Z</time></trkpt><trkpt lat="42.5143386" lon="12.3591099"><ele>299.0</ele><time>2026-04-04T11:48:11.467Z</time></trkpt><trkpt lat="42.5144273" lon="12.3590923"><ele>299.0</ele><time>2026-04-04T11:48:12.472Z</time></trkpt><trkpt lat="42.5145065" lon="12.3590578"><ele>299.0</ele><time>2026-04-04T11:48:13.472Z</time></trkpt><trkpt lat="42.5145782" lon="12.3590156"><ele>299.0</ele><time>2026-04-04T11:48:15.181Z</time></trkpt><trkpt lat="42.5146871" lon="12.3589574"><ele>299.6666666666667</ele><time>2026-04-04T11:48:16.472Z</time></trkpt><trkpt lat="42.5147493" lon="12.3589224"><ele>300.33333333333337</ele><time>2026-04-04T11:48:18.473Z</time></trkpt><trkpt lat="42.5148105" lon="12.3589847"><ele>301.0</ele><time>2026-04-04T11:48:21.468Z</time></trkpt><trkpt lat="42.5148541" lon="12.3591504"><ele>301.6666666666667</ele><time>2026-04-04T11:48:23.459Z</time></trkpt><trkpt lat="42.5149167" lon="12.3591963"><ele>302.3333333333333</ele><time>2026-04-04T11:48:24.472Z</time></trkpt><trkpt lat="42.5150042" lon="12.3591985"><ele>303.0</ele><time>2026-04-04T11:48:25.48Z</time></trkpt><trkpt lat="42.5151082" lon="12.3591621"><ele>303.0</ele><time>2026-04-04T11:48:26.482Z</time></trkpt><trkpt lat="42.5152138" lon="12.3590905"><ele>303.0</ele><time>2026-04-04T11:48:27.468Z</time></trkpt><trkpt lat="42.5153147" lon="12.3590059"><ele>303.0</ele><time>2026-04-04T11:48:28.479Z</time></trkpt><trkpt lat="42.5154317" lon="12.3589251"><ele>303.0</ele><time>2026-04-04T11:48:29.48Z</time></trkpt><trkpt lat="42.5155528" lon="12.3588436"><ele>302.5</ele><time>2026-04-04T11:48:30.473Z</time></trkpt><trkpt lat="42.5156786" lon="12.3587597"><ele>302.0</ele><time>2026-04-04T11:48:31.472Z</time></trkpt><trkpt lat="42.5158085" lon="12.3586722"><ele>301.5</ele><time>2026-04-04T11:48:32.48Z</time></trkpt><trkpt lat="42.5159352" lon="12.3585914"><ele>301.0</ele><time>2026-04-04T11:48:33.477Z</time></trkpt><trkpt lat="42.5160556" lon="12.3585091"><ele>301.0</ele><time>2026-04-04T11:48:34.473Z</time></trkpt><trkpt lat="42.5161764" lon="12.3584209"><ele>301.0</ele><time>2026-04-04T11:48:35.472Z</time></trkpt><trkpt lat="42.5163024" lon="12.3583305"><ele>301.0</ele><time>2026-04-04T11:48:36.483Z</time></trkpt><trkpt lat="42.5164298" lon="12.3582389"><ele>301.0</ele><time>2026-04-04T11:48:37.47Z</time></trkpt><trkpt lat="42.5165593" lon="12.3581496"><ele>301.0</ele><time>2026-04-04T11:48:38.474Z</time></trkpt><trkpt lat="42.5166912" lon="12.3580566"><ele>301.0</ele><time>2026-04-04T11:48:39.487Z</time></trkpt><trkpt lat="42.5168241" lon="12.3579653"><ele>301.0</ele><time>2026-04-04T11:48:40.483Z</time></trkpt><trkpt lat="42.5169594" lon="12.3578701"><ele>300.0</ele><time>2026-04-04T11:48:41.472Z</time></trkpt><trkpt lat="42.5170963" lon="12.3577745"><ele>299.0</ele><time>2026-04-04T11:48:42.483Z</time></trkpt><trkpt lat="42.5172232" lon="12.3576906"><ele>298.0</ele><time>2026-04-04T11:48:43.477Z</time></trkpt><trkpt lat="42.5173427" lon="12.3576082"><ele>297.0</ele><time>2026-04-04T11:48:44.478Z</time></trkpt><trkpt lat="42.5174646" lon="12.3575301"><ele>297.0</ele><time>2026-04-04T11:48:45.478Z</time></trkpt><trkpt lat="42.5175844" lon="12.3574479"><ele>297.0</ele><time>2026-04-04T11:48:46.474Z</time></trkpt><trkpt lat="42.5177059" lon="12.3573657"><ele>297.0</ele><time>2026-04-04T11:48:47.474Z</time></trkpt><trkpt lat="42.517829" lon="12.3572805"><ele>297.0</ele><time>2026-04-04T11:48:48.47Z</time></trkpt><trkpt lat="42.5179513" lon="12.357195"><ele>296.75</ele><time>2026-04-04T11:48:49.47Z</time></trkpt><trkpt lat="42.5180759" lon="12.35711"><ele>296.5</ele><time>2026-04-04T11:48:50.477Z</time></trkpt><trkpt lat="42.5182048" lon="12.3570223"><ele>296.25</ele><time>2026-04-04T11:48:51.47Z</time></trkpt><trkpt lat="42.5183343" lon="12.3569362"><ele>296.0</ele><time>2026-04-04T11:48:52.464Z</time></trkpt><trkpt lat="42.5184675" lon="12.3568522"><ele>296.0</ele><time>2026-04-04T11:48:53.471Z</time></trkpt><trkpt lat="42.5186054" lon="12.3567633"><ele>296.0</ele><time>2026-04-04T11:48:54.483Z</time></trkpt><trkpt lat="42.5187386" lon="12.3566721"><ele>296.0</ele><time>2026-04-04T11:48:55.475Z</time></trkpt><trkpt lat="42.5188745" lon="12.3565752"><ele>295.75</ele><time>2026-04-04T11:48:56.468Z</time></trkpt><trkpt lat="42.5190092" lon="12.3564867"><ele>295.5</ele><time>2026-04-04T11:48:57.476Z</time></trkpt><trkpt lat="42.5191275" lon="12.3564022"><ele>295.25</ele><time>2026-04-04T11:48:58.474Z</time></trkpt><trkpt lat="42.5192341" lon="12.356332"><ele>295.0</ele><time>2026-04-04T11:48:59.471Z</time></trkpt><trkpt lat="42.5193327" lon="12.3562656"><ele>295.0</ele><time>2026-04-04T11:49:00.48Z</time></trkpt><trkpt lat="42.5194227" lon="12.3562124"><ele>295.0</ele><time>2026-04-04T11:49:01.472Z</time></trkpt><trkpt lat="42.519497" lon="12.3561623"><ele>295.0</ele><time>2026-04-04T11:49:02.479Z</time></trkpt><trkpt lat="42.5195581" lon="12.3561194"><ele>295.0</ele><time>2026-04-04T11:49:03.478Z</time></trkpt><trkpt lat="42.5196511" lon="12.3561185"><ele>295.0</ele><time>2026-04-04T11:49:05.466Z</time></trkpt><trkpt lat="42.5197519" lon="12.356273"><ele>295.5</ele><time>2026-04-04T11:49:07.459Z</time></trkpt><trkpt lat="42.5198052" lon="12.3564042"><ele>296.0</ele><time>2026-04-04T11:49:08.466Z</time></trkpt><trkpt lat="42.5198732" lon="12.3565553"><ele>296.5</ele><time>2026-04-04T11:49:09.481Z</time></trkpt><trkpt lat="42.5199502" lon="12.3567096"><ele>297.0</ele><time>2026-04-04T11:49:10.475Z</time></trkpt><trkpt lat="42.5200187" lon="12.3568488"><ele>297.0</ele><time>2026-04-04T11:49:11.476Z</time></trkpt><trkpt lat="42.5200834" lon="12.3569785"><ele>297.0</ele><time>2026-04-04T11:49:12.483Z</time></trkpt><trkpt lat="42.5201435" lon="12.3571063"><ele>297.0</ele><time>2026-04-04T11:49:13.475Z</time></trkpt><trkpt lat="42.5201953" lon="12.3572185"><ele>297.0</ele><time>2026-04-04T11:49:14.472Z</time></trkpt><trkpt lat="42.520247" lon="12.3573247"><ele>297.0</ele><time>2026-04-04T11:49:15.47Z</time></trkpt><trkpt lat="42.5203013" lon="12.3574357"><ele>296.8</ele><time>2026-04-04T11:49:16.48Z</time></trkpt><trkpt lat="42.5203698" lon="12.3575667"><ele>296.6</ele><time>2026-04-04T11:49:17.469Z</time></trkpt><trkpt lat="42.5204367" lon="12.3576973"><ele>296.40000000000003</ele><time>2026-04-04T11:49:18.479Z</time></trkpt><trkpt lat="42.5205001" lon="12.3578093"><ele>296.2</ele><time>2026-04-04T11:49:19.478Z</time></trkpt><trkpt lat="42.5205506" lon="12.3579109"><ele>296.0</ele><time>2026-04-04T11:49:20.478Z</time></trkpt><trkpt lat="42.5205977" lon="12.358"><ele>296.2</ele><time>2026-04-04T11:49:21.476Z</time></trkpt><trkpt lat="42.5206385" lon="12.3580745"><ele>296.40000000000003</ele><time>2026-04-04T11:49:23.307Z</time></trkpt><trkpt lat="42.5206838" lon="12.3581821"><ele>296.6</ele><time>2026-04-04T11:49:24.473Z</time></trkpt><trkpt lat="42.5207188" lon="12.3582754"><ele>296.8</ele><time>2026-04-04T11:49:26.471Z</time></trkpt><trkpt lat="42.5207708" lon="12.3584204"><ele>297.0</ele><time>2026-04-04T11:49:28.456Z</time></trkpt><trkpt lat="42.5208286" lon="12.3585488"><ele>297.0</ele><time>2026-04-04T11:49:29.467Z</time></trkpt><trkpt lat="42.5209011" lon="12.3586962"><ele>297.0</ele><time>2026-04-04T11:49:30.454Z</time></trkpt><trkpt lat="42.520972" lon="12.3588498"><ele>297.0</ele><time>2026-04-04T11:49:31.457Z</time></trkpt><trkpt lat="42.521031" lon="12.3589939"><ele>297.0</ele><time>2026-04-04T11:49:32.475Z</time></trkpt><trkpt lat="42.521086" lon="12.3591119"><ele>297.3333333333333</ele><time>2026-04-04T11:49:33.466Z</time></trkpt><trkpt lat="42.5211249" lon="12.3591986"><ele>297.6666666666667</ele><time>2026-04-04T11:49:34.478Z</time></trkpt><trkpt lat="42.5211741" lon="12.3592802"><ele>298.0</ele><time>2026-04-04T11:49:36.476Z</time></trkpt><trkpt lat="42.5212234" lon="12.3593706"><ele>298.33333333333337</ele><time>2026-04-04T11:49:39.475Z</time></trkpt><trkpt lat="42.521288" lon="12.3595221"><ele>298.6666666666667</ele><time>2026-04-04T11:49:41.477Z</time></trkpt><trkpt lat="42.5213281" lon="12.3596079"><ele>299.0</ele><time>2026-04-04T11:49:42.466Z</time></trkpt><trkpt lat="42.5213766" lon="12.3596971"><ele>298.59999999999997</ele><time>2026-04-04T11:49:43.472Z</time></trkpt><trkpt lat="42.5214305" lon="12.3598015"><ele>298.2</ele><time>2026-04-04T11:49:44.473Z</time></trkpt><trkpt lat="42.5214907" lon="12.3599222"><ele>297.79999999999995</ele><time>2026-04-04T11:49:45.472Z</time></trkpt><trkpt lat="42.5215552" lon="12.3600511"><ele>297.4</ele><time>2026-04-04T11:49:46.465Z</time></trkpt><trkpt lat="42.5216146" lon="12.360175"><ele>297.0</ele><time>2026-04-04T11:49:47.471Z</time></trkpt><trkpt lat="42.521668" lon="12.3602946"><ele>297.0</ele><time>2026-04-04T11:49:48.468Z</time></trkpt><trkpt lat="42.5217186" lon="12.3604089"><ele>297.0</ele><time>2026-04-04T11:49:49.475Z</time></trkpt><trkpt lat="42.5217674" lon="12.3605134"><ele>297.0</ele><time>2026-04-04T11:49:50.475Z</time></trkpt><trkpt lat="42.5218159" lon="12.3606174"><ele>297.0</ele><time>2026-04-04T11:49:51.468Z</time></trkpt><trkpt lat="42.5218636" lon="12.3607242"><ele>297.0</ele><time>2026-04-04T11:49:52.47Z</time></trkpt><trkpt lat="42.5219123" lon="12.3608375"><ele>297.0</ele><time>2026-04-04T11:49:53.466Z</time></trkpt><trkpt lat="42.5219667" lon="12.3609519"><ele>297.0</ele><time>2026-04-04T11:49:54.475Z</time></trkpt><trkpt lat="42.5220265" lon="12.3610715"><ele>297.0</ele><time>2026-04-04T11:49:55.472Z</time></trkpt><trkpt lat="42.5220829" lon="12.3611931"><ele>297.0</ele><time>2026-04-04T11:49:56.471Z</time></trkpt><trkpt lat="42.5221396" lon="12.3613197"><ele>297.0</ele><time>2026-04-04T11:49:57.48Z</time></trkpt><trkpt lat="42.5221958" lon="12.3614398"><ele>297.0</ele><time>2026-04-04T11:49:58.482Z</time></trkpt><trkpt lat="42.5222515" lon="12.3615401"><ele>297.0</ele><time>2026-04-04T11:49:59.478Z</time></trkpt><trkpt lat="42.5222987" lon="12.3616266"><ele>297.0</ele><time>2026-04-04T11:50:00.459Z</time></trkpt><trkpt lat="42.5223437" lon="12.3617352"><ele>297.0</ele><time>2026-04-04T11:50:02.484Z</time></trkpt><trkpt lat="42.522383" lon="12.361826"><ele>297.0</ele><time>2026-04-04T11:50:04.47Z</time></trkpt><trkpt lat="42.5224189" lon="12.3618978"><ele>297.0</ele><time>2026-04-04T11:50:05.482Z</time></trkpt><trkpt lat="42.5224665" lon="12.3619929"><ele>297.0</ele><time>2026-04-04T11:50:06.474Z</time></trkpt><trkpt lat="42.5225304" lon="12.362121"><ele>297.0</ele><time>2026-04-04T11:50:07.469Z</time></trkpt><trkpt lat="42.5226001" lon="12.3622584"><ele>297.0</ele><time>2026-04-04T11:50:08.462Z</time></trkpt><trkpt lat="42.5226748" lon="12.3624138"><ele>297.0</ele><time>2026-04-04T11:50:09.465Z</time></trkpt><trkpt lat="42.5227516" lon="12.36258"><ele>297.75</ele><time>2026-04-04T11:50:10.477Z</time></trkpt><trkpt lat="42.5228246" lon="12.3627367"><ele>298.5</ele><time>2026-04-04T11:50:11.474Z</time></trkpt><trkpt lat="42.5228969" lon="12.3628898"><ele>299.25</ele><time>2026-04-04T11:50:12.478Z</time></trkpt><trkpt lat="42.5229699" lon="12.3630396"><ele>300.0</ele><time>2026-04-04T11:50:13.451Z</time></trkpt><trkpt lat="42.5230393" lon="12.3631978"><ele>300.0</ele><time>2026-04-04T11:50:14.45Z</time></trkpt><trkpt lat="42.5231217" lon="12.363369"><ele>300.0</ele><time>2026-04-04T11:50:15.474Z</time></trkpt><trkpt lat="42.5232095" lon="12.3635505"><ele>300.0</ele><time>2026-04-04T11:50:16.472Z</time></trkpt><trkpt lat="42.5232959" lon="12.3637217"><ele>301.0</ele><time>2026-04-04T11:50:17.477Z</time></trkpt><trkpt lat="42.5233779" lon="12.3638878"><ele>302.0</ele><time>2026-04-04T11:50:18.475Z</time></trkpt><trkpt lat="42.5234603" lon="12.3640546"><ele>303.0</ele><time>2026-04-04T11:50:19.474Z</time></trkpt><trkpt lat="42.5235383" lon="12.3642182"><ele>304.0</ele><time>2026-04-04T11:50:20.475Z</time></trkpt><trkpt lat="42.5236077" lon="12.3643697"><ele>304.0</ele><time>2026-04-04T11:50:21.478Z</time></trkpt><trkpt lat="42.5236736" lon="12.3645252"><ele>304.0</ele><time>2026-04-04T11:50:22.471Z</time></trkpt><trkpt lat="42.5237394" lon="12.364678"><ele>304.0</ele><time>2026-04-04T11:50:23.462Z</time></trkpt><trkpt lat="42.5238091" lon="12.3648256"><ele>304.0</ele><time>2026-04-04T11:50:24.478Z</time></trkpt><trkpt lat="42.5238768" lon="12.3649759"><ele>305.5</ele><time>2026-04-04T11:50:25.474Z</time></trkpt><trkpt lat="42.523946" lon="12.3651268"><ele>307.0</ele><time>2026-04-04T11:50:26.479Z</time></trkpt><trkpt lat="42.5240194" lon="12.3652816"><ele>308.5</ele><time>2026-04-04T11:50:27.461Z</time></trkpt><trkpt lat="42.5240921" lon="12.3654327"><ele>310.0</ele><time>2026-04-04T11:50:28.478Z</time></trkpt><trkpt lat="42.5241629" lon="12.3655817"><ele>311.0</ele><time>2026-04-04T11:50:29.481Z</time></trkpt><trkpt lat="42.5242292" lon="12.3657319"><ele>312.0</ele><time>2026-04-04T11:50:30.456Z</time></trkpt><trkpt lat="42.5242954" lon="12.3658814"><ele>313.0</ele><time>2026-04-04T11:50:32.223Z</time></trkpt><trkpt lat="42.5244178" lon="12.3661522"><ele>313.0</ele><time>2026-04-04T11:50:33.477Z</time></trkpt><trkpt lat="42.5244791" lon="12.3662905"><ele>313.0</ele><time>2026-04-04T11:50:34.47Z</time></trkpt><trkpt lat="42.5245542" lon="12.3664306"><ele>313.0</ele><time>2026-04-04T11:50:35.464Z</time></trkpt><trkpt lat="42.5246361" lon="12.3665637"><ele>313.0</ele><time>2026-04-04T11:50:36.474Z</time></trkpt><trkpt lat="42.5247065" lon="12.3666803"><ele>314.25</ele><time>2026-04-04T11:50:37.455Z</time></trkpt><trkpt lat="42.5247648" lon="12.3667972"><ele>315.5</ele><time>2026-04-04T11:50:38.461Z</time></trkpt><trkpt lat="42.5248206" lon="12.3669333"><ele>316.75</ele><time>2026-04-04T11:50:39.469Z</time></trkpt><trkpt lat="42.5248906" lon="12.3670865"><ele>318.0</ele><time>2026-04-04T11:50:40.478Z</time></trkpt><trkpt lat="42.524965" lon="12.3672334"><ele>318.8</ele><time>2026-04-04T11:50:41.482Z</time></trkpt><trkpt lat="42.5250288" lon="12.3673631"><ele>319.6</ele><time>2026-04-04T11:50:42.474Z</time></trkpt><trkpt lat="42.5250845" lon="12.3674861"><ele>320.40000000000003</ele><time>2026-04-04T11:50:43.462Z</time></trkpt><trkpt lat="42.5251275" lon="12.367603"><ele>321.20000000000005</ele><time>2026-04-04T11:50:44.475Z</time></trkpt><trkpt lat="42.5251735" lon="12.367716"><ele>322.0</ele><time>2026-04-04T11:50:45.475Z</time></trkpt><trkpt lat="42.5252243" lon="12.3678209"><ele>322.0</ele><time>2026-04-04T11:50:46.466Z</time></trkpt><trkpt lat="42.5252801" lon="12.3679185"><ele>322.0</ele><time>2026-04-04T11:50:47.469Z</time></trkpt><trkpt lat="42.5253351" lon="12.3680304"><ele>322.0</ele><time>2026-04-04T11:50:48.47Z</time></trkpt><trkpt lat="42.5253982" lon="12.368153"><ele>322.0</ele><time>2026-04-04T11:50:49.479Z</time></trkpt><trkpt lat="42.5254612" lon="12.3682695"><ele>322.0</ele><time>2026-04-04T11:50:50.472Z</time></trkpt><trkpt lat="42.5255246" lon="12.3683843"><ele>322.75</ele><time>2026-04-04T11:50:51.479Z</time></trkpt><trkpt lat="42.5255921" lon="12.3685113"><ele>323.5</ele><time>2026-04-04T11:50:52.47Z</time></trkpt><trkpt lat="42.5256558" lon="12.3686433"><ele>324.25</ele><time>2026-04-04T11:50:53.481Z</time></trkpt><trkpt lat="42.5257223" lon="12.3687841"><ele>325.0</ele><time>2026-04-04T11:50:54.479Z</time></trkpt><trkpt lat="42.5257906" lon="12.3689225"><ele>325.5</ele><time>2026-04-04T11:50:55.467Z</time></trkpt><trkpt lat="42.5258614" lon="12.3690626"><ele>326.0</ele><time>2026-04-04T11:50:56.472Z</time></trkpt><trkpt lat="42.5259328" lon="12.369195"><ele>326.5</ele><time>2026-04-04T11:50:57.477Z</time></trkpt><trkpt lat="42.5260141" lon="12.3693203"><ele>327.0</ele><time>2026-04-04T11:50:58.474Z</time></trkpt><trkpt lat="42.5261065" lon="12.3694305"><ele>327.0</ele><time>2026-04-04T11:50:59.461Z</time></trkpt><trkpt lat="42.5261994" lon="12.3695244"><ele>327.0</ele><time>2026-04-04T11:51:00.482Z</time></trkpt><trkpt lat="42.5263015" lon="12.3696015"><ele>327.0</ele><time>2026-04-04T11:51:01.476Z</time></trkpt><trkpt lat="42.5264099" lon="12.3696793"><ele>327.0</ele><time>2026-04-04T11:51:02.479Z</time></trkpt><trkpt lat="42.526521" lon="12.3697604"><ele>326.8333333333333</ele><time>2026-04-04T11:51:03.477Z</time></trkpt><trkpt lat="42.5266225" lon="12.3698282"><ele>326.6666666666667</ele><time>2026-04-04T11:51:04.472Z</time></trkpt><trkpt lat="42.5267127" lon="12.3698859"><ele>326.5</ele><time>2026-04-04T11:51:05.467Z</time></trkpt><trkpt lat="42.5267974" lon="12.3699462"><ele>326.33333333333337</ele><time>2026-04-04T11:51:06.475Z</time></trkpt><trkpt lat="42.5268671" lon="12.3699871"><ele>326.1666666666667</ele><time>2026-04-04T11:51:07.469Z</time></trkpt><trkpt lat="42.5269248" lon="12.3700213"><ele>326.0</ele><time>2026-04-04T11:51:08.484Z</time></trkpt><trkpt lat="42.5270301" lon="12.3700856"><ele>326.4</ele><time>2026-04-04T11:51:10.481Z</time></trkpt><trkpt lat="42.5270868" lon="12.3701332"><ele>326.8</ele><time>2026-04-04T11:51:11.485Z</time></trkpt><trkpt lat="42.5271495" lon="12.3701985"><ele>327.2</ele><time>2026-04-04T11:51:12.487Z</time></trkpt><trkpt lat="42.5272163" lon="12.3702615"><ele>327.59999999999997</ele><time>2026-04-04T11:51:13.48Z</time></trkpt><trkpt lat="42.5273117" lon="12.3703286"><ele>328.0</ele><time>2026-04-04T11:51:14.476Z</time></trkpt><trkpt lat="42.5274415" lon="12.3704183"><ele>328.0</ele><time>2026-04-04T11:51:15.468Z</time></trkpt><trkpt lat="42.5275797" lon="12.3705146"><ele>328.0</ele><time>2026-04-04T11:51:16.479Z</time></trkpt><trkpt lat="42.5277016" lon="12.3706061"><ele>328.0</ele><time>2026-04-04T11:51:17.477Z</time></trkpt><trkpt lat="42.5278106" lon="12.3706827"><ele>328.0</ele><time>2026-04-04T11:51:18.479Z</time></trkpt><trkpt lat="42.52791" lon="12.3707552"><ele>328.5</ele><time>2026-04-04T11:51:19.48Z</time></trkpt><trkpt lat="42.527997" lon="12.3708136"><ele>329.0</ele><time>2026-04-04T11:51:20.477Z</time></trkpt><trkpt lat="42.5280759" lon="12.3708747"><ele>329.5</ele><time>2026-04-04T11:51:21.472Z</time></trkpt><trkpt lat="42.5281374" lon="12.3709257"><ele>330.0</ele><time>2026-04-04T11:51:22.474Z</time></trkpt><trkpt lat="42.528212" lon="12.3710096"><ele>330.5</ele><time>2026-04-04T11:51:24.476Z</time></trkpt><trkpt lat="42.5282791" lon="12.3710807"><ele>331.0</ele><time>2026-04-04T11:51:26.486Z</time></trkpt><trkpt lat="42.5283846" lon="12.3712094"><ele>331.0</ele><time>2026-04-04T11:51:28.465Z</time></trkpt><trkpt lat="42.5284555" lon="12.3713173"><ele>331.0</ele><time>2026-04-04T11:51:29.484Z</time></trkpt><trkpt lat="42.5285188" lon="12.3714252"><ele>331.0</ele><time>2026-04-04T11:51:30.476Z</time></trkpt><trkpt lat="42.5285764" lon="12.3715347"><ele>331.0</ele><time>2026-04-04T11:51:31.48Z</time></trkpt><trkpt lat="42.5286334" lon="12.3716416"><ele>331.0</ele><time>2026-04-04T11:51:32.471Z</time></trkpt><trkpt lat="42.5286902" lon="12.37174"><ele>331.6</ele><time>2026-04-04T11:51:33.472Z</time></trkpt><trkpt lat="42.5287507" lon="12.3718254"><ele>332.20000000000005</ele><time>2026-04-04T11:51:34.477Z</time></trkpt><trkpt lat="42.5288174" lon="12.3718892"><ele>332.79999999999995</ele><time>2026-04-04T11:51:35.469Z</time></trkpt><trkpt lat="42.5288774" lon="12.3719404"><ele>333.4</ele><time>2026-04-04T11:51:36.47Z</time></trkpt><trkpt lat="42.5289497" lon="12.3720415"><ele>334.0</ele><time>2026-04-04T11:51:38.473Z</time></trkpt><trkpt lat="42.528954" lon="12.372204"><ele>334.0</ele><time>2026-04-04T11:51:40.456Z</time></trkpt><trkpt lat="42.5289507" lon="12.3723005"><ele>334.0</ele><time>2026-04-04T11:51:41.482Z</time></trkpt><trkpt lat="42.5289444" lon="12.3724068"><ele>334.0</ele><time>2026-04-04T11:51:42.471Z</time></trkpt><trkpt lat="42.5289419" lon="12.3725169"><ele>334.0</ele><time>2026-04-04T11:51:43.473Z</time></trkpt><trkpt lat="42.5289372" lon="12.3726334"><ele>334.0</ele><time>2026-04-04T11:51:44.478Z</time></trkpt><trkpt lat="42.5289315" lon="12.3727532"><ele>334.0</ele><time>2026-04-04T11:51:45.478Z</time></trkpt><trkpt lat="42.5289381" lon="12.3728764"><ele>334.0</ele><time>2026-04-04T11:51:46.47Z</time></trkpt><trkpt lat="42.5289576" lon="12.3729915"><ele>334.0</ele><time>2026-04-04T11:51:47.481Z</time></trkpt><trkpt lat="42.5289793" lon="12.373093"><ele>334.0</ele><time>2026-04-04T11:51:48.477Z</time></trkpt><trkpt lat="42.5290262" lon="12.3732199"><ele>334.0</ele><time>2026-04-04T11:51:50.477Z</time></trkpt><trkpt lat="42.5291021" lon="12.3733867"><ele>334.0</ele><time>2026-04-04T11:51:52.471Z</time></trkpt><trkpt lat="42.5291447" lon="12.3734936"><ele>333.42857142857144</ele><time>2026-04-04T11:51:53.475Z</time></trkpt><trkpt lat="42.5291859" lon="12.3736023"><ele>332.8571428571429</ele><time>2026-04-04T11:51:54.48Z</time></trkpt><trkpt lat="42.5292206" lon="12.3737"><ele>332.28571428571433</ele><time>2026-04-04T11:51:55.484Z</time></trkpt><trkpt lat="42.5292504" lon="12.3737865"><ele>331.7142857142857</ele><time>2026-04-04T11:51:56.481Z</time></trkpt><trkpt lat="42.5292791" lon="12.373871"><ele>331.14285714285717</ele><time>2026-04-04T11:51:57.467Z</time></trkpt><trkpt lat="42.5293058" lon="12.3739489"><ele>330.5714285714286</ele><time>2026-04-04T11:51:58.471Z</time></trkpt><trkpt lat="42.529341" lon="12.3740321"><ele>330.0</ele><time>2026-04-04T11:51:59.467Z</time></trkpt><trkpt lat="42.5293788" lon="12.3741105"><ele>330.0</ele><time>2026-04-04T11:52:00.482Z</time></trkpt><trkpt lat="42.5294205" lon="12.3741892"><ele>330.0</ele><time>2026-04-04T11:52:01.454Z</time></trkpt><trkpt lat="42.5294653" lon="12.3742669"><ele>330.0</ele><time>2026-04-04T11:52:02.473Z</time></trkpt><trkpt lat="42.5295089" lon="12.3743314"><ele>330.0</ele><time>2026-04-04T11:52:03.474Z</time></trkpt><trkpt lat="42.5295721" lon="12.3744404"><ele>330.0</ele><time>2026-04-04T11:52:05.483Z</time></trkpt><trkpt lat="42.5296186" lon="12.3745543"><ele>330.0</ele><time>2026-04-04T11:52:07.474Z</time></trkpt><trkpt lat="42.5296625" lon="12.3746941"><ele>332.4</ele><time>2026-04-04T11:52:09.468Z</time></trkpt><trkpt lat="42.5297153" lon="12.3748485"><ele>334.8</ele><time>2026-04-04T11:52:11.472Z</time></trkpt><trkpt lat="42.5297491" lon="12.3749277"><ele>337.20000000000005</ele><time>2026-04-04T11:52:12.476Z</time></trkpt><trkpt lat="42.5297752" lon="12.3750085"><ele>339.6</ele><time>2026-04-04T11:52:13.464Z</time></trkpt><trkpt lat="42.5298108" lon="12.3751583"><ele>342.0</ele><time>2026-04-04T11:52:15.474Z</time></trkpt><trkpt lat="42.5298348" lon="12.3753224"><ele>342.0</ele><time>2026-04-04T11:52:17.478Z</time></trkpt><trkpt lat="42.5298466" lon="12.3754148"><ele>342.0</ele><time>2026-04-04T11:52:18.473Z</time></trkpt><trkpt lat="42.5298572" lon="12.3755199"><ele>342.0</ele><time>2026-04-04T11:52:19.467Z</time></trkpt><trkpt lat="42.5298876" lon="12.3756503"><ele>342.0</ele><time>2026-04-04T11:52:20.478Z</time></trkpt><trkpt lat="42.5299354" lon="12.3757991"><ele>342.0</ele><time>2026-04-04T11:52:21.475Z</time></trkpt><trkpt lat="42.529992" lon="12.3759459"><ele>342.0</ele><time>2026-04-04T11:52:22.468Z</time></trkpt><trkpt lat="42.5300644" lon="12.3760794"><ele>342.0</ele><time>2026-04-04T11:52:23.477Z</time></trkpt><trkpt lat="42.5301502" lon="12.3762021"><ele>342.0</ele><time>2026-04-04T11:52:24.479Z</time></trkpt><trkpt lat="42.5302519" lon="12.3763279"><ele>342.0</ele><time>2026-04-04T11:52:25.482Z</time></trkpt><trkpt lat="42.5303612" lon="12.3764504"><ele>341.0</ele><time>2026-04-04T11:52:26.471Z</time></trkpt><trkpt lat="42.5304832" lon="12.3765824"><ele>340.0</ele><time>2026-04-04T11:52:27.482Z</time></trkpt><trkpt lat="42.5306058" lon="12.3767168"><ele>339.0</ele><time>2026-04-04T11:52:28.472Z</time></trkpt><trkpt lat="42.5307159" lon="12.3768414"><ele>339.0</ele><time>2026-04-04T11:52:29.476Z</time></trkpt><trkpt lat="42.5308119" lon="12.3769574"><ele>339.0</ele><time>2026-04-04T11:52:30.48Z</time></trkpt><trkpt lat="42.5308984" lon="12.3770905"><ele>339.0</ele><time>2026-04-04T11:52:31.474Z</time></trkpt><trkpt lat="42.5309819" lon="12.3772205"><ele>339.0</ele><time>2026-04-04T11:52:32.473Z</time></trkpt><trkpt lat="42.5310773" lon="12.3773314"><ele>338.25</ele><time>2026-04-04T11:52:33.474Z</time></trkpt><trkpt lat="42.5311823" lon="12.377432"><ele>337.5</ele><time>2026-04-04T11:52:34.473Z</time></trkpt><trkpt lat="42.5313058" lon="12.3775218"><ele>336.75</ele><time>2026-04-04T11:52:35.45Z</time></trkpt><trkpt lat="42.5314519" lon="12.3775956"><ele>336.0</ele><time>2026-04-04T11:52:36.462Z</time></trkpt><trkpt lat="42.5316071" lon="12.3776564"><ele>336.0</ele><time>2026-04-04T11:52:37.467Z</time></trkpt><trkpt lat="42.5317457" lon="12.3777177"><ele>336.0</ele><time>2026-04-04T11:52:38.465Z</time></trkpt><trkpt lat="42.5318699" lon="12.3777822"><ele>336.0</ele><time>2026-04-04T11:52:39.479Z</time></trkpt><trkpt lat="42.5319893" lon="12.3778546"><ele>336.0</ele><time>2026-04-04T11:52:40.466Z</time></trkpt><trkpt lat="42.5320999" lon="12.37793"><ele>334.6</ele><time>2026-04-04T11:52:41.463Z</time></trkpt><trkpt lat="42.5322093" lon="12.3779989"><ele>333.20000000000005</ele><time>2026-04-04T11:52:42.471Z</time></trkpt><trkpt lat="42.532308" lon="12.3780578"><ele>331.79999999999995</ele><time>2026-04-04T11:52:43.464Z</time></trkpt><trkpt lat="42.5323785" lon="12.3781227"><ele>330.4</ele><time>2026-04-04T11:52:44.479Z</time></trkpt><trkpt lat="42.5324516" lon="12.3782118"><ele>329.0</ele><time>2026-04-04T11:52:45.465Z</time></trkpt><trkpt lat="42.5325399" lon="12.378299"><ele>329.0</ele><time>2026-04-04T11:52:46.463Z</time></trkpt><trkpt lat="42.5326427" lon="12.378387"><ele>329.0</ele><time>2026-04-04T11:52:47.47Z</time></trkpt><trkpt lat="42.5327469" lon="12.3784623"><ele>329.0</ele><time>2026-04-04T11:52:48.473Z</time></trkpt><trkpt lat="42.5328492" lon="12.378535"><ele>329.0</ele><time>2026-04-04T11:52:49.469Z</time></trkpt><trkpt lat="42.5329521" lon="12.3786114"><ele>330.0</ele><time>2026-04-04T11:52:50.466Z</time></trkpt><trkpt lat="42.5330541" lon="12.3786886"><ele>331.0</ele><time>2026-04-04T11:52:51.472Z</time></trkpt><trkpt lat="42.5331543" lon="12.3787695"><ele>332.0</ele><time>2026-04-04T11:52:52.471Z</time></trkpt><trkpt lat="42.5332587" lon="12.3788481"><ele>333.0</ele><time>2026-04-04T11:52:53.477Z</time></trkpt><trkpt lat="42.5333684" lon="12.3789152"><ele>333.0</ele><time>2026-04-04T11:52:54.468Z</time></trkpt><trkpt lat="42.5334584" lon="12.3789589"><ele>333.0</ele><time>2026-04-04T11:52:55.472Z</time></trkpt><trkpt lat="42.5335282" lon="12.3789864"><ele>333.0</ele><time>2026-04-04T11:52:56.469Z</time></trkpt><trkpt lat="42.533604" lon="12.3790292"><ele>333.0</ele><time>2026-04-04T11:52:57.475Z</time></trkpt><trkpt lat="42.5336906" lon="12.3790931"><ele>333.0</ele><time>2026-04-04T11:52:58.465Z</time></trkpt><trkpt lat="42.5337939" lon="12.3791606"><ele>334.0</ele><time>2026-04-04T11:52:59.463Z</time></trkpt><trkpt lat="42.5338896" lon="12.3792175"><ele>335.0</ele><time>2026-04-04T11:53:00.478Z</time></trkpt><trkpt lat="42.5339772" lon="12.37926"><ele>336.0</ele><time>2026-04-04T11:53:01.464Z</time></trkpt><trkpt lat="42.5340608" lon="12.3793035"><ele>337.0</ele><time>2026-04-04T11:53:02.451Z</time></trkpt><trkpt lat="42.5341475" lon="12.3793316"><ele>338.0</ele><time>2026-04-04T11:53:03.473Z</time></trkpt><trkpt lat="42.5342383" lon="12.3793286"><ele>338.0</ele><time>2026-04-04T11:53:04.465Z</time></trkpt><trkpt lat="42.5343281" lon="12.3793143"><ele>338.0</ele><time>2026-04-04T11:53:05.472Z</time></trkpt><trkpt lat="42.5344305" lon="12.3792985"><ele>338.0</ele><time>2026-04-04T11:53:06.465Z</time></trkpt><trkpt lat="42.5345369" lon="12.3792907"><ele>338.0</ele><time>2026-04-04T11:53:07.469Z</time></trkpt><trkpt lat="42.534634" lon="12.3792879"><ele>338.0</ele><time>2026-04-04T11:53:08.464Z</time></trkpt><trkpt lat="42.5347273" lon="12.3792815"><ele>338.59999999999997</ele><time>2026-04-04T11:53:09.478Z</time></trkpt><trkpt lat="42.5348212" lon="12.3792847"><ele>339.2</ele><time>2026-04-04T11:53:10.468Z</time></trkpt><trkpt lat="42.5348968" lon="12.3792857"><ele>339.8</ele><time>2026-04-04T11:53:11.461Z</time></trkpt><trkpt lat="42.5349599" lon="12.379278"><ele>340.4</ele><time>2026-04-04T11:53:12.475Z</time></trkpt><trkpt lat="42.5350756" lon="12.3792292"><ele>341.0</ele><time>2026-04-04T11:53:14.477Z</time></trkpt><trkpt lat="42.5351951" lon="12.3792343"><ele>341.0</ele><time>2026-04-04T11:53:16.476Z</time></trkpt><trkpt lat="42.5353015" lon="12.3793081"><ele>341.0</ele><time>2026-04-04T11:53:18.474Z</time></trkpt><trkpt lat="42.5353551" lon="12.3793649"><ele>341.0</ele><time>2026-04-04T11:53:20.453Z</time></trkpt><trkpt lat="42.5354337" lon="12.3794077"><ele>341.0</ele><time>2026-04-04T11:53:23.466Z</time></trkpt><trkpt lat="42.5355283" lon="12.3793687"><ele>341.0</ele><time>2026-04-04T11:53:25.468Z</time></trkpt><trkpt lat="42.5356089" lon="12.3793438"><ele>342.8</ele><time>2026-04-04T11:53:26.467Z</time></trkpt><trkpt lat="42.5356979" lon="12.3793179"><ele>344.6</ele><time>2026-04-04T11:53:27.462Z</time></trkpt><trkpt lat="42.5358015" lon="12.3792916"><ele>346.4</ele><time>2026-04-04T11:53:28.463Z</time></trkpt><trkpt lat="42.5359164" lon="12.3792667"><ele>348.2</ele><time>2026-04-04T11:53:29.471Z</time></trkpt><trkpt lat="42.5360381" lon="12.3792477"><ele>350.0</ele><time>2026-04-04T11:53:30.468Z</time></trkpt><trkpt lat="42.5361672" lon="12.3792393"><ele>351.25</ele><time>2026-04-04T11:53:31.468Z</time></trkpt><trkpt lat="42.5363022" lon="12.379232"><ele>352.5</ele><time>2026-04-04T11:53:32.462Z</time></trkpt><trkpt lat="42.53644" lon="12.3792245"><ele>353.75</ele><time>2026-04-04T11:53:33.455Z</time></trkpt><trkpt lat="42.5365782" lon="12.37922"><ele>355.0</ele><time>2026-04-04T11:53:34.466Z</time></trkpt><trkpt lat="42.5367241" lon="12.3792228"><ele>355.0</ele><time>2026-04-04T11:53:35.471Z</time></trkpt><trkpt lat="42.53688" lon="12.3792313"><ele>355.0</ele><time>2026-04-04T11:53:36.466Z</time></trkpt><trkpt lat="42.5370271" lon="12.3792442"><ele>355.0</ele><time>2026-04-04T11:53:37.462Z</time></trkpt><trkpt lat="42.537163" lon="12.3792543"><ele>355.0</ele><time>2026-04-04T11:53:38.47Z</time></trkpt><trkpt lat="42.5373028" lon="12.3792706"><ele>355.75</ele><time>2026-04-04T11:53:39.463Z</time></trkpt><trkpt lat="42.5374412" lon="12.379283"><ele>356.5</ele><time>2026-04-04T11:53:40.466Z</time></trkpt><trkpt lat="42.5375746" lon="12.3792964"><ele>357.25</ele><time>2026-04-04T11:53:41.465Z</time></trkpt><trkpt lat="42.5377096" lon="12.3793126"><ele>358.0</ele><time>2026-04-04T11:53:42.465Z</time></trkpt><trkpt lat="42.5378381" lon="12.3793294"><ele>358.59999999999997</ele><time>2026-04-04T11:53:43.471Z</time></trkpt><trkpt lat="42.5379492" lon="12.3793444"><ele>359.2</ele><time>2026-04-04T11:53:44.465Z</time></trkpt><trkpt lat="42.5380506" lon="12.3793562"><ele>359.8</ele><time>2026-04-04T11:53:45.468Z</time></trkpt><trkpt lat="42.5381553" lon="12.3793258"><ele>360.4</ele><time>2026-04-04T11:53:46.461Z</time></trkpt><trkpt lat="42.5382715" lon="12.3792751"><ele>361.0</ele><time>2026-04-04T11:53:47.466Z</time></trkpt><trkpt lat="42.538376" lon="12.3791866"><ele>361.0</ele><time>2026-04-04T11:53:48.468Z</time></trkpt><trkpt lat="42.5384608" lon="12.3790533"><ele>361.0</ele><time>2026-04-04T11:53:49.467Z</time></trkpt><trkpt lat="42.5385169" lon="12.3789"><ele>361.0</ele><time>2026-04-04T11:53:50.471Z</time></trkpt><trkpt lat="42.5385554" lon="12.3787167"><ele>361.0</ele><time>2026-04-04T11:53:51.467Z</time></trkpt><trkpt lat="42.5385852" lon="12.3784979"><ele>361.66666666666663</ele><time>2026-04-04T11:53:52.461Z</time></trkpt><trkpt lat="42.5386135" lon="12.3782659"><ele>362.3333333333333</ele><time>2026-04-04T11:53:53.467Z</time></trkpt><trkpt lat="42.5386462" lon="12.3780239"><ele>363.0</ele><time>2026-04-04T11:53:54.474Z</time></trkpt><trkpt lat="42.5386743" lon="12.3777728"><ele>363.6666666666667</ele><time>2026-04-04T11:53:55.474Z</time></trkpt><trkpt lat="42.5386999" lon="12.3775308"><ele>364.33333333333337</ele><time>2026-04-04T11:53:56.466Z</time></trkpt><trkpt lat="42.5387269" lon="12.3773072"><ele>365.0</ele><time>2026-04-04T11:53:58.262Z</time></trkpt><trkpt lat="42.5387746" lon="12.3769231"><ele>365.75</ele><time>2026-04-04T11:53:59.477Z</time></trkpt><trkpt lat="42.538807" lon="12.3767378"><ele>366.5</ele><time>2026-04-04T11:54:00.47Z</time></trkpt><trkpt lat="42.5388359" lon="12.3765479"><ele>367.25</ele><time>2026-04-04T11:54:01.479Z</time></trkpt><trkpt lat="42.5388569" lon="12.3763453"><ele>368.0</ele><time>2026-04-04T11:54:02.468Z</time></trkpt><trkpt lat="42.5388754" lon="12.3761523"><ele>368.0</ele><time>2026-04-04T11:54:03.475Z</time></trkpt><trkpt lat="42.5388935" lon="12.3759674"><ele>368.0</ele><time>2026-04-04T11:54:04.475Z</time></trkpt><trkpt lat="42.5389154" lon="12.3757824"><ele>368.0</ele><time>2026-04-04T11:54:05.472Z</time></trkpt><trkpt lat="42.5389431" lon="12.3756071"><ele>368.0</ele><time>2026-04-04T11:54:06.481Z</time></trkpt><trkpt lat="42.5389671" lon="12.3754394"><ele>367.75</ele><time>2026-04-04T11:54:07.478Z</time></trkpt><trkpt lat="42.5389846" lon="12.375279"><ele>367.5</ele><time>2026-04-04T11:54:08.477Z</time></trkpt><trkpt lat="42.5389959" lon="12.375111"><ele>367.25</ele><time>2026-04-04T11:54:09.478Z</time></trkpt><trkpt lat="42.539014" lon="12.3749395"><ele>367.0</ele><time>2026-04-04T11:54:10.479Z</time></trkpt><trkpt lat="42.5390327" lon="12.374763"><ele>368.0</ele><time>2026-04-04T11:54:11.475Z</time></trkpt><trkpt lat="42.5390542" lon="12.3745818"><ele>369.0</ele><time>2026-04-04T11:54:12.469Z</time></trkpt><trkpt lat="42.539076" lon="12.3744002"><ele>370.0</ele><time>2026-04-04T11:54:13.48Z</time></trkpt><trkpt lat="42.5391038" lon="12.3742161"><ele>371.0</ele><time>2026-04-04T11:54:14.471Z</time></trkpt><trkpt lat="42.5391288" lon="12.3740257"><ele>371.5</ele><time>2026-04-04T11:54:15.478Z</time></trkpt><trkpt lat="42.539151" lon="12.3738322"><ele>372.0</ele><time>2026-04-04T11:54:16.452Z</time></trkpt><trkpt lat="42.5391763" lon="12.3736353"><ele>372.5</ele><time>2026-04-04T11:54:17.466Z</time></trkpt><trkpt lat="42.5392055" lon="12.3734358"><ele>373.0</ele><time>2026-04-04T11:54:18.461Z</time></trkpt><trkpt lat="42.5392287" lon="12.3732368"><ele>373.0</ele><time>2026-04-04T11:54:19.472Z</time></trkpt><trkpt lat="42.539249" lon="12.3730335"><ele>373.0</ele><time>2026-04-04T11:54:20.478Z</time></trkpt><trkpt lat="42.5392731" lon="12.3728378"><ele>373.0</ele><time>2026-04-04T11:54:21.474Z</time></trkpt><trkpt lat="42.5392965" lon="12.3726426"><ele>373.0</ele><time>2026-04-04T11:54:22.477Z</time></trkpt><trkpt lat="42.5393205" lon="12.3724492"><ele>372.75</ele><time>2026-04-04T11:54:23.486Z</time></trkpt><trkpt lat="42.5393462" lon="12.3722655"><ele>372.5</ele><time>2026-04-04T11:54:24.483Z</time></trkpt><trkpt lat="42.5393748" lon="12.3720898"><ele>372.25</ele><time>2026-04-04T11:54:25.48Z</time></trkpt><trkpt lat="42.5393987" lon="12.3719042"><ele>372.0</ele><time>2026-04-04T11:54:26.482Z</time></trkpt><trkpt lat="42.5394178" lon="12.371717"><ele>372.0</ele><time>2026-04-04T11:54:27.469Z</time></trkpt><trkpt lat="42.5394319" lon="12.3715403"><ele>372.0</ele><time>2026-04-04T11:54:28.481Z</time></trkpt><trkpt lat="42.5394416" lon="12.3713696"><ele>372.0</ele><time>2026-04-04T11:54:29.479Z</time></trkpt><trkpt lat="42.5394577" lon="12.3712028"><ele>372.0</ele><time>2026-04-04T11:54:30.479Z</time></trkpt><trkpt lat="42.5394835" lon="12.3710395"><ele>372.0</ele><time>2026-04-04T11:54:31.464Z</time></trkpt><trkpt lat="42.5395099" lon="12.3708735"><ele>372.0</ele><time>2026-04-04T11:54:32.46Z</time></trkpt><trkpt lat="42.5395319" lon="12.3707045"><ele>372.0</ele><time>2026-04-04T11:54:33.465Z</time></trkpt><trkpt lat="42.5395541" lon="12.3705336"><ele>372.0</ele><time>2026-04-04T11:54:34.468Z</time></trkpt><trkpt lat="42.5395803" lon="12.3703548"><ele>371.75</ele><time>2026-04-04T11:54:35.475Z</time></trkpt><trkpt lat="42.5396096" lon="12.3701725"><ele>371.5</ele><time>2026-04-04T11:54:36.465Z</time></trkpt><trkpt lat="42.5396359" lon="12.3699851"><ele>371.25</ele><time>2026-04-04T11:54:37.469Z</time></trkpt><trkpt lat="42.5396585" lon="12.3698015"><ele>371.0</ele><time>2026-04-04T11:54:38.48Z</time></trkpt><trkpt lat="42.5396823" lon="12.3696336"><ele>369.75</ele><time>2026-04-04T11:54:39.474Z</time></trkpt><trkpt lat="42.5397047" lon="12.3694644"><ele>368.5</ele><time>2026-04-04T11:54:40.475Z</time></trkpt><trkpt lat="42.5397289" lon="12.3692991"><ele>367.25</ele><time>2026-04-04T11:54:41.456Z</time></trkpt><trkpt lat="42.5397503" lon="12.3691359"><ele>366.0</ele><time>2026-04-04T11:54:42.479Z</time></trkpt><trkpt lat="42.5397718" lon="12.3689744"><ele>364.75</ele><time>2026-04-04T11:54:43.483Z</time></trkpt><trkpt lat="42.5397927" lon="12.3688075"><ele>363.5</ele><time>2026-04-04T11:54:44.482Z</time></trkpt><trkpt lat="42.5398084" lon="12.3686383"><ele>362.25</ele><time>2026-04-04T11:54:45.483Z</time></trkpt><trkpt lat="42.5398263" lon="12.3684754"><ele>361.0</ele><time>2026-04-04T11:54:46.474Z</time></trkpt><trkpt lat="42.5398445" lon="12.3683101"><ele>361.0</ele><time>2026-04-04T11:54:47.471Z</time></trkpt><trkpt lat="42.5398626" lon="12.3681428"><ele>361.0</ele><time>2026-04-04T11:54:48.481Z</time></trkpt><trkpt lat="42.5398824" lon="12.3679735"><ele>361.0</ele><time>2026-04-04T11:54:49.48Z</time></trkpt><trkpt lat="42.5398909" lon="12.3677915"><ele>361.0</ele><time>2026-04-04T11:54:50.486Z</time></trkpt><trkpt lat="42.5398965" lon="12.3676023"><ele>360.5</ele><time>2026-04-04T11:54:51.485Z</time></trkpt><trkpt lat="42.5399066" lon="12.3674032"><ele>360.0</ele><time>2026-04-04T11:54:52.48Z</time></trkpt><trkpt lat="42.539918" lon="12.3672074"><ele>359.5</ele><time>2026-04-04T11:54:53.455Z</time></trkpt><trkpt lat="42.5399272" lon="12.3670237"><ele>359.0</ele><time>2026-04-04T11:54:54.481Z</time></trkpt><trkpt lat="42.5399364" lon="12.3668482"><ele>359.0</ele><time>2026-04-04T11:54:55.479Z</time></trkpt><trkpt lat="42.5399402" lon="12.3666734"><ele>359.0</ele><time>2026-04-04T11:54:56.471Z</time></trkpt><trkpt lat="42.5399421" lon="12.3664912"><ele>359.0</ele><time>2026-04-04T11:54:57.48Z</time></trkpt><trkpt lat="42.539946" lon="12.366303"><ele>359.0</ele><time>2026-04-04T11:54:58.482Z</time></trkpt><trkpt lat="42.5399539" lon="12.366093"><ele>357.0</ele><time>2026-04-04T11:54:59.475Z</time></trkpt><trkpt lat="42.5399563" lon="12.3658694"><ele>355.0</ele><time>2026-04-04T11:55:00.476Z</time></trkpt><trkpt lat="42.5399623" lon="12.3656594"><ele>353.0</ele><time>2026-04-04T11:55:01.457Z</time></trkpt><trkpt lat="42.5399605" lon="12.3654646"><ele>351.75</ele><time>2026-04-04T11:55:02.458Z</time></trkpt><trkpt lat="42.5399561" lon="12.3652882"><ele>350.5</ele><time>2026-04-04T11:55:03.471Z</time></trkpt><trkpt lat="42.5399486" lon="12.3651215"><ele>349.25</ele><time>2026-04-04T11:55:04.458Z</time></trkpt><trkpt lat="42.539928" lon="12.3649725"><ele>348.0</ele><time>2026-04-04T11:55:05.474Z</time></trkpt><trkpt lat="42.5398969" lon="12.3648265"><ele>348.5</ele><time>2026-04-04T11:55:06.481Z</time></trkpt><trkpt lat="42.5398321" lon="12.3646742"><ele>349.0</ele><time>2026-04-04T11:55:07.481Z</time></trkpt><trkpt lat="42.5397375" lon="12.3645372"><ele>349.5</ele><time>2026-04-04T11:55:08.481Z</time></trkpt><trkpt lat="42.5396263" lon="12.3644114"><ele>350.0</ele><time>2026-04-04T11:55:09.454Z</time></trkpt><trkpt lat="42.5395038" lon="12.364296"><ele>350.6666666666667</ele><time>2026-04-04T11:55:10.469Z</time></trkpt><trkpt lat="42.5393751" lon="12.3641783"><ele>351.3333333333333</ele><time>2026-04-04T11:55:11.469Z</time></trkpt><trkpt lat="42.5392441" lon="12.3640548"><ele>352.0</ele><time>2026-04-04T11:55:12.482Z</time></trkpt><trkpt lat="42.5391056" lon="12.3639331"><ele>354.0</ele><time>2026-04-04T11:55:13.479Z</time></trkpt><trkpt lat="42.5389635" lon="12.363806"><ele>356.0</ele><time>2026-04-04T11:55:14.479Z</time></trkpt><trkpt lat="42.5388332" lon="12.3636852"><ele>358.0</ele><time>2026-04-04T11:55:15.484Z</time></trkpt><trkpt lat="42.5387181" lon="12.3635803"><ele>357.5</ele><time>2026-04-04T11:55:16.482Z</time></trkpt><trkpt lat="42.538606" lon="12.3634822"><ele>357.0</ele><time>2026-04-04T11:55:17.478Z</time></trkpt><trkpt lat="42.5384965" lon="12.363397"><ele>356.5</ele><time>2026-04-04T11:55:18.483Z</time></trkpt><trkpt lat="42.5383981" lon="12.3633182"><ele>356.0</ele><time>2026-04-04T11:55:19.475Z</time></trkpt><trkpt lat="42.5382859" lon="12.3632347"><ele>356.0</ele><time>2026-04-04T11:55:20.481Z</time></trkpt><trkpt lat="42.538157" lon="12.3631271"><ele>356.0</ele><time>2026-04-04T11:55:21.478Z</time></trkpt><trkpt lat="42.5380359" lon="12.3630152"><ele>356.0</ele><time>2026-04-04T11:55:22.48Z</time></trkpt><trkpt lat="42.5379369" lon="12.3629067"><ele>356.0</ele><time>2026-04-04T11:55:23.482Z</time></trkpt><trkpt lat="42.5378405" lon="12.3627918"><ele>355.5</ele><time>2026-04-04T11:55:24.474Z</time></trkpt><trkpt lat="42.5377495" lon="12.3626681"><ele>355.0</ele><time>2026-04-04T11:55:25.483Z</time></trkpt><trkpt lat="42.5376658" lon="12.362527"><ele>354.5</ele><time>2026-04-04T11:55:26.481Z</time></trkpt><trkpt lat="42.5375977" lon="12.3623568"><ele>354.0</ele><time>2026-04-04T11:55:27.483Z</time></trkpt><trkpt lat="42.5375526" lon="12.3621487"><ele>353.0</ele><time>2026-04-04T11:55:28.482Z</time></trkpt><trkpt lat="42.5375116" lon="12.3619215"><ele>352.0</ele><time>2026-04-04T11:55:29.48Z</time></trkpt><trkpt lat="42.5374788" lon="12.3617106"><ele>351.0</ele><time>2026-04-04T11:55:30.452Z</time></trkpt><trkpt lat="42.5374465" lon="12.361528"><ele>351.0</ele><time>2026-04-04T11:55:31.466Z</time></trkpt><trkpt lat="42.5374216" lon="12.3613714"><ele>351.0</ele><time>2026-04-04T11:55:32.479Z</time></trkpt><trkpt lat="42.537395" lon="12.3612372"><ele>351.0</ele><time>2026-04-04T11:55:33.469Z</time></trkpt><trkpt lat="42.5373746" lon="12.3611177"><ele>351.0</ele><time>2026-04-04T11:55:34.479Z</time></trkpt><trkpt lat="42.5373612" lon="12.3610172"><ele>351.0</ele><time>2026-04-04T11:55:35.478Z</time></trkpt><trkpt lat="42.5373572" lon="12.360931"><ele>350.25</ele><time>2026-04-04T11:55:36.476Z</time></trkpt><trkpt lat="42.5373788" lon="12.3607951"><ele>349.5</ele><time>2026-04-04T11:55:38.476Z</time></trkpt><trkpt lat="42.537488" lon="12.3606865"><ele>348.75</ele><time>2026-04-04T11:55:40.477Z</time></trkpt><trkpt lat="42.537585" lon="12.3606364"><ele>348.0</ele><time>2026-04-04T11:55:41.477Z</time></trkpt><trkpt lat="42.5376908" lon="12.3605727"><ele>347.75</ele><time>2026-04-04T11:55:42.471Z</time></trkpt><trkpt lat="42.5378" lon="12.3604968"><ele>347.5</ele><time>2026-04-04T11:55:43.474Z</time></trkpt><trkpt lat="42.5379171" lon="12.3604194"><ele>347.25</ele><time>2026-04-04T11:55:44.479Z</time></trkpt><trkpt lat="42.5380341" lon="12.3603329"><ele>347.0</ele><time>2026-04-04T11:55:45.474Z</time></trkpt><trkpt lat="42.538149" lon="12.3602423"><ele>347.0</ele><time>2026-04-04T11:55:46.458Z</time></trkpt><trkpt lat="42.5382678" lon="12.3601527"><ele>347.0</ele><time>2026-04-04T11:55:47.464Z</time></trkpt><trkpt lat="42.538392" lon="12.3600614"><ele>347.0</ele><time>2026-04-04T11:55:48.465Z</time></trkpt><trkpt lat="42.5385176" lon="12.3599698"><ele>347.0</ele><time>2026-04-04T11:55:49.476Z</time></trkpt><trkpt lat="42.5386469" lon="12.3598839"><ele>347.5</ele><time>2026-04-04T11:55:50.474Z</time></trkpt><trkpt lat="42.5387767" lon="12.3597926"><ele>348.0</ele><time>2026-04-04T11:55:51.464Z</time></trkpt><trkpt lat="42.5389008" lon="12.3597004"><ele>348.5</ele><time>2026-04-04T11:55:52.473Z</time></trkpt><trkpt lat="42.5390211" lon="12.3596106"><ele>349.0</ele><time>2026-04-04T11:55:53.476Z</time></trkpt><trkpt lat="42.539143" lon="12.359523"><ele>349.0</ele><time>2026-04-04T11:55:54.478Z</time></trkpt><trkpt lat="42.5392644" lon="12.3594398"><ele>349.0</ele><time>2026-04-04T11:55:55.465Z</time></trkpt><trkpt lat="42.5393841" lon="12.3593513"><ele>349.0</ele><time>2026-04-04T11:55:56.48Z</time></trkpt><trkpt lat="42.5395048" lon="12.3592626"><ele>349.0</ele><time>2026-04-04T11:55:57.478Z</time></trkpt><trkpt lat="42.5396276" lon="12.359173"><ele>350.0</ele><time>2026-04-04T11:55:58.479Z</time></trkpt><trkpt lat="42.5397486" lon="12.3590871"><ele>351.0</ele><time>2026-04-04T11:55:59.48Z</time></trkpt><trkpt lat="42.5398721" lon="12.3590006"><ele>352.0</ele><time>2026-04-04T11:56:00.481Z</time></trkpt><trkpt lat="42.5399929" lon="12.3589101"><ele>353.0</ele><time>2026-04-04T11:56:01.478Z</time></trkpt><trkpt lat="42.5401185" lon="12.3588192"><ele>353.0</ele><time>2026-04-04T11:56:02.48Z</time></trkpt><trkpt lat="42.5402428" lon="12.3587299"><ele>353.0</ele><time>2026-04-04T11:56:03.482Z</time></trkpt><trkpt lat="42.5403682" lon="12.3586408"><ele>353.0</ele><time>2026-04-04T11:56:04.472Z</time></trkpt><trkpt lat="42.5404894" lon="12.3585468"><ele>353.0</ele><time>2026-04-04T11:56:05.48Z</time></trkpt><trkpt lat="42.5406122" lon="12.3584515"><ele>354.75</ele><time>2026-04-04T11:56:06.482Z</time></trkpt><trkpt lat="42.540738" lon="12.3583591"><ele>356.5</ele><time>2026-04-04T11:56:07.474Z</time></trkpt><trkpt lat="42.5408668" lon="12.3582703"><ele>358.25</ele><time>2026-04-04T11:56:08.482Z</time></trkpt><trkpt lat="42.5409951" lon="12.3581775"><ele>360.0</ele><time>2026-04-04T11:56:09.479Z</time></trkpt><trkpt lat="42.5411275" lon="12.3580878"><ele>361.25</ele><time>2026-04-04T11:56:10.482Z</time></trkpt><trkpt lat="42.5412573" lon="12.3579923"><ele>362.5</ele><time>2026-04-04T11:56:11.48Z</time></trkpt><trkpt lat="42.5413867" lon="12.3578983"><ele>363.75</ele><time>2026-04-04T11:56:12.475Z</time></trkpt><trkpt lat="42.5415212" lon="12.3578012"><ele>365.0</ele><time>2026-04-04T11:56:13.482Z</time></trkpt><trkpt lat="42.5416619" lon="12.3576982"><ele>365.0</ele><time>2026-04-04T11:56:14.479Z</time></trkpt><trkpt lat="42.5418042" lon="12.3575985"><ele>365.0</ele><time>2026-04-04T11:56:15.478Z</time></trkpt><trkpt lat="42.5419493" lon="12.3575001"><ele>365.0</ele><time>2026-04-04T11:56:16.474Z</time></trkpt><trkpt lat="42.5420919" lon="12.3574075"><ele>367.0</ele><time>2026-04-04T11:56:17.464Z</time></trkpt><trkpt lat="42.5422323" lon="12.3573155"><ele>369.0</ele><time>2026-04-04T11:56:18.467Z</time></trkpt><trkpt lat="42.542374" lon="12.3572263"><ele>371.0</ele><time>2026-04-04T11:56:19.476Z</time></trkpt><trkpt lat="42.5425121" lon="12.3571451"><ele>371.0</ele><time>2026-04-04T11:56:20.474Z</time></trkpt><trkpt lat="42.5426471" lon="12.3570655"><ele>371.0</ele><time>2026-04-04T11:56:21.476Z</time></trkpt><trkpt lat="42.5427748" lon="12.3569902"><ele>371.0</ele><time>2026-04-04T11:56:22.475Z</time></trkpt><trkpt lat="42.5428916" lon="12.356918"><ele>371.0</ele><time>2026-04-04T11:56:23.461Z</time></trkpt><trkpt lat="42.5429917" lon="12.3568524"><ele>372.5</ele><time>2026-04-04T11:56:24.482Z</time></trkpt><trkpt lat="42.5430865" lon="12.3567997"><ele>374.0</ele><time>2026-04-04T11:56:25.478Z</time></trkpt><trkpt lat="42.5431715" lon="12.3567545"><ele>375.5</ele><time>2026-04-04T11:56:26.48Z</time></trkpt><trkpt lat="42.5432486" lon="12.3567129"><ele>377.0</ele><time>2026-04-04T11:56:27.483Z</time></trkpt><trkpt lat="42.5433185" lon="12.3566762"><ele>378.5</ele><time>2026-04-04T11:56:28.482Z</time></trkpt><trkpt lat="42.5433783" lon="12.3566322"><ele>380.0</ele><time>2026-04-04T11:56:29.483Z</time></trkpt><trkpt lat="42.5434292" lon="12.3565819"><ele>380.0</ele><time>2026-04-04T11:56:30.48Z</time></trkpt><trkpt lat="42.5434871" lon="12.3564715"><ele>380.0</ele><time>2026-04-04T11:56:32.477Z</time></trkpt><trkpt lat="42.5434331" lon="12.356335"><ele>380.0</ele><time>2026-04-04T11:56:34.479Z</time></trkpt><trkpt lat="42.5433594" lon="12.3562907"><ele>380.0</ele><time>2026-04-04T11:56:35.464Z</time></trkpt><trkpt lat="42.5432658" lon="12.3562603"><ele>380.0</ele><time>2026-04-04T11:56:36.463Z</time></trkpt><trkpt lat="42.5431768" lon="12.3562101"><ele>378.83333333333337</ele><time>2026-04-04T11:56:37.473Z</time></trkpt><trkpt lat="42.5431148" lon="12.356137"><ele>377.6666666666667</ele><time>2026-04-04T11:56:38.464Z</time></trkpt><trkpt lat="42.5430744" lon="12.3560389"><ele>376.5</ele><time>2026-04-04T11:56:39.475Z</time></trkpt><trkpt lat="42.5430628" lon="12.3559298"><ele>375.3333333333333</ele><time>2026-04-04T11:56:40.473Z</time></trkpt><trkpt lat="42.5430766" lon="12.3558088"><ele>374.16666666666663</ele><time>2026-04-04T11:56:41.473Z</time></trkpt><trkpt lat="42.5431131" lon="12.3556798"><ele>373.0</ele><time>2026-04-04T11:56:42.474Z</time></trkpt><trkpt lat="42.543167" lon="12.3555434"><ele>372.0</ele><time>2026-04-04T11:56:43.448Z</time></trkpt><trkpt lat="42.5432416" lon="12.3554179"><ele>371.0</ele><time>2026-04-04T11:56:44.467Z</time></trkpt><trkpt lat="42.5433264" lon="12.3552992"><ele>370.0</ele><time>2026-04-04T11:56:45.477Z</time></trkpt><trkpt lat="42.5434212" lon="12.3551746"><ele>369.0</ele><time>2026-04-04T11:56:46.46Z</time></trkpt><trkpt lat="42.5435164" lon="12.3550475"><ele>369.0</ele><time>2026-04-04T11:56:47.484Z</time></trkpt><trkpt lat="42.5436136" lon="12.354915"><ele>369.0</ele><time>2026-04-04T11:56:48.474Z</time></trkpt><trkpt lat="42.5437091" lon="12.3547793"><ele>369.0</ele><time>2026-04-04T11:56:49.475Z</time></trkpt><trkpt lat="42.5438093" lon="12.3546413"><ele>369.0</ele><time>2026-04-04T11:56:50.478Z</time></trkpt><trkpt lat="42.5439103" lon="12.3545044"><ele>369.75</ele><time>2026-04-04T11:56:51.471Z</time></trkpt><trkpt lat="42.5440114" lon="12.3543637"><ele>370.5</ele><time>2026-04-04T11:56:52.471Z</time></trkpt><trkpt lat="42.5441133" lon="12.3542272"><ele>371.25</ele><time>2026-04-04T11:56:53.471Z</time></trkpt><trkpt lat="42.5442148" lon="12.3540875"><ele>372.0</ele><time>2026-04-04T11:56:54.482Z</time></trkpt><trkpt lat="42.5443154" lon="12.3539494"><ele>372.0</ele><time>2026-04-04T11:56:55.455Z</time></trkpt><trkpt lat="42.5444106" lon="12.3538151"><ele>372.0</ele><time>2026-04-04T11:56:56.467Z</time></trkpt><trkpt lat="42.544506" lon="12.3536965"><ele>372.0</ele><time>2026-04-04T11:56:57.468Z</time></trkpt><trkpt lat="42.5445977" lon="12.3535738"><ele>372.0</ele><time>2026-04-04T11:56:58.479Z</time></trkpt><trkpt lat="42.5446932" lon="12.3534522"><ele>372.0</ele><time>2026-04-04T11:56:59.47Z</time></trkpt><trkpt lat="42.5447912" lon="12.3533279"><ele>372.0</ele><time>2026-04-04T11:57:00.481Z</time></trkpt><trkpt lat="42.5448842" lon="12.353202"><ele>372.0</ele><time>2026-04-04T11:57:01.484Z</time></trkpt><trkpt lat="42.5449819" lon="12.3530747"><ele>372.0</ele><time>2026-04-04T11:57:02.479Z</time></trkpt><trkpt lat="42.545078" lon="12.3529492"><ele>370.5</ele><time>2026-04-04T11:57:03.479Z</time></trkpt><trkpt lat="42.5451733" lon="12.3528264"><ele>369.0</ele><time>2026-04-04T11:57:04.485Z</time></trkpt><trkpt lat="42.5452716" lon="12.352699"><ele>367.5</ele><time>2026-04-04T11:57:05.467Z</time></trkpt><trkpt lat="42.5453735" lon="12.3525652"><ele>366.0</ele><time>2026-04-04T11:57:06.472Z</time></trkpt><trkpt lat="42.5454749" lon="12.3524346"><ele>366.0</ele><time>2026-04-04T11:57:07.484Z</time></trkpt><trkpt lat="42.5455782" lon="12.3523039"><ele>366.0</ele><time>2026-04-04T11:57:08.476Z</time></trkpt><trkpt lat="42.5456791" lon="12.3521702"><ele>366.0</ele><time>2026-04-04T11:57:09.468Z</time></trkpt><trkpt lat="42.5457808" lon="12.3520374"><ele>366.0</ele><time>2026-04-04T11:57:10.463Z</time></trkpt><trkpt lat="42.5458798" lon="12.3518998"><ele>365.0</ele><time>2026-04-04T11:57:11.467Z</time></trkpt><trkpt lat="42.5459847" lon="12.3517655"><ele>364.0</ele><time>2026-04-04T11:57:12.468Z</time></trkpt><trkpt lat="42.54609" lon="12.3516301"><ele>363.0</ele><time>2026-04-04T11:57:13.468Z</time></trkpt><trkpt lat="42.5462003" lon="12.3514928"><ele>362.0</ele><time>2026-04-04T11:57:14.475Z</time></trkpt><trkpt lat="42.5463037" lon="12.3513551"><ele>361.75</ele><time>2026-04-04T11:57:15.469Z</time></trkpt><trkpt lat="42.5463986" lon="12.3512292"><ele>361.5</ele><time>2026-04-04T11:57:16.477Z</time></trkpt><trkpt lat="42.5464913" lon="12.3511108"><ele>361.25</ele><time>2026-04-04T11:57:17.47Z</time></trkpt><trkpt lat="42.5465848" lon="12.350988"><ele>361.0</ele><time>2026-04-04T11:57:18.478Z</time></trkpt><trkpt lat="42.5466844" lon="12.3508575"><ele>361.0</ele><time>2026-04-04T11:57:19.47Z</time></trkpt><trkpt lat="42.5467835" lon="12.3507228"><ele>361.0</ele><time>2026-04-04T11:57:20.468Z</time></trkpt><trkpt lat="42.5468848" lon="12.3505887"><ele>361.0</ele><time>2026-04-04T11:57:21.468Z</time></trkpt><trkpt lat="42.5469883" lon="12.3504606"><ele>361.0</ele><time>2026-04-04T11:57:22.477Z</time></trkpt><trkpt lat="42.5470925" lon="12.3503288"><ele>359.75</ele><time>2026-04-04T11:57:23.468Z</time></trkpt><trkpt lat="42.5471945" lon="12.3501889"><ele>358.5</ele><time>2026-04-04T11:57:24.473Z</time></trkpt><trkpt lat="42.547298" lon="12.3500501"><ele>357.25</ele><time>2026-04-04T11:57:25.472Z</time></trkpt><trkpt lat="42.5474035" lon="12.3499096"><ele>356.0</ele><time>2026-04-04T11:57:26.477Z</time></trkpt><trkpt lat="42.5475098" lon="12.3497703"><ele>355.75</ele><time>2026-04-04T11:57:27.478Z</time></trkpt><trkpt lat="42.5476137" lon="12.3496323"><ele>355.5</ele><time>2026-04-04T11:57:28.472Z</time></trkpt><trkpt lat="42.5477178" lon="12.3494978"><ele>355.25</ele><time>2026-04-04T11:57:29.474Z</time></trkpt><trkpt lat="42.5478227" lon="12.3493666"><ele>355.0</ele><time>2026-04-04T11:57:30.481Z</time></trkpt><trkpt lat="42.5479326" lon="12.3492361"><ele>355.3333333333333</ele><time>2026-04-04T11:57:31.482Z</time></trkpt><trkpt lat="42.548046" lon="12.3491003"><ele>355.6666666666667</ele><time>2026-04-04T11:57:32.476Z</time></trkpt><trkpt lat="42.5481606" lon="12.3489495"><ele>356.0</ele><time>2026-04-04T11:57:33.478Z</time></trkpt><trkpt lat="42.5482773" lon="12.3488041"><ele>356.0</ele><time>2026-04-04T11:57:34.477Z</time></trkpt><trkpt lat="42.5483906" lon="12.3486504"><ele>356.0</ele><time>2026-04-04T11:57:35.482Z</time></trkpt><trkpt lat="42.5485033" lon="12.348494"><ele>356.0</ele><time>2026-04-04T11:57:36.482Z</time></trkpt><trkpt lat="42.5486159" lon="12.3483378"><ele>356.33333333333337</ele><time>2026-04-04T11:57:37.471Z</time></trkpt><trkpt lat="42.5487327" lon="12.3481799"><ele>356.6666666666667</ele><time>2026-04-04T11:57:38.474Z</time></trkpt><trkpt lat="42.5488537" lon="12.348026"><ele>357.0</ele><time>2026-04-04T11:57:39.48Z</time></trkpt><trkpt lat="42.5489692" lon="12.3478829"><ele>357.0</ele><time>2026-04-04T11:57:40.477Z</time></trkpt><trkpt lat="42.5490772" lon="12.3477475"><ele>357.0</ele><time>2026-04-04T11:57:41.48Z</time></trkpt><trkpt lat="42.5491952" lon="12.3476137"><ele>357.0</ele><time>2026-04-04T11:57:42.48Z</time></trkpt><trkpt lat="42.5493204" lon="12.347487"><ele>357.0</ele><time>2026-04-04T11:57:43.489Z</time></trkpt><trkpt lat="42.5494417" lon="12.347365"><ele>357.0</ele><time>2026-04-04T11:57:44.484Z</time></trkpt><trkpt lat="42.5495567" lon="12.3472559"><ele>357.0</ele><time>2026-04-04T11:57:45.476Z</time></trkpt><trkpt lat="42.5496681" lon="12.3471524"><ele>357.0</ele><time>2026-04-04T11:57:46.474Z</time></trkpt><trkpt lat="42.5497805" lon="12.347048"><ele>355.75</ele><time>2026-04-04T11:57:47.482Z</time></trkpt><trkpt lat="42.5498985" lon="12.346946"><ele>354.5</ele><time>2026-04-04T11:57:48.483Z</time></trkpt><trkpt lat="42.5500138" lon="12.3468503"><ele>353.25</ele><time>2026-04-04T11:57:49.48Z</time></trkpt><trkpt lat="42.550128" lon="12.3467693"><ele>352.0</ele><time>2026-04-04T11:57:50.472Z</time></trkpt><trkpt lat="42.5502434" lon="12.3466969"><ele>352.0</ele><time>2026-04-04T11:57:51.483Z</time></trkpt><trkpt lat="42.5503595" lon="12.3466283"><ele>352.0</ele><time>2026-04-04T11:57:52.485Z</time></trkpt><trkpt lat="42.5504871" lon="12.3465567"><ele>352.0</ele><time>2026-04-04T11:57:53.48Z</time></trkpt><trkpt lat="42.5506184" lon="12.3464848"><ele>352.0</ele><time>2026-04-04T11:57:54.479Z</time></trkpt><trkpt lat="42.5507558" lon="12.3464194"><ele>351.25</ele><time>2026-04-04T11:57:55.476Z</time></trkpt><trkpt lat="42.5508943" lon="12.346348"><ele>350.5</ele><time>2026-04-04T11:57:56.472Z</time></trkpt><trkpt lat="42.5510294" lon="12.3462736"><ele>349.75</ele><time>2026-04-04T11:57:57.483Z</time></trkpt><trkpt lat="42.5511551" lon="12.3461969"><ele>349.0</ele><time>2026-04-04T11:57:58.48Z</time></trkpt><trkpt lat="42.551284" lon="12.3461268"><ele>349.0</ele><time>2026-04-04T11:57:59.479Z</time></trkpt><trkpt lat="42.5514122" lon="12.3460621"><ele>349.0</ele><time>2026-04-04T11:58:00.477Z</time></trkpt><trkpt lat="42.5515395" lon="12.345999"><ele>349.0</ele><time>2026-04-04T11:58:01.485Z</time></trkpt><trkpt lat="42.5516699" lon="12.3459322"><ele>349.0</ele><time>2026-04-04T11:58:02.481Z</time></trkpt><trkpt lat="42.5518046" lon="12.3458713"><ele>349.0</ele><time>2026-04-04T11:58:03.477Z</time></trkpt><trkpt lat="42.5519418" lon="12.3458165"><ele>349.0</ele><time>2026-04-04T11:58:04.482Z</time></trkpt><trkpt lat="42.5520831" lon="12.3457623"><ele>349.0</ele><time>2026-04-04T11:58:05.477Z</time></trkpt><trkpt lat="42.5522239" lon="12.3457146"><ele>349.0</ele><time>2026-04-04T11:58:06.48Z</time></trkpt><trkpt lat="42.5523585" lon="12.3456701"><ele>349.25</ele><time>2026-04-04T11:58:07.48Z</time></trkpt><trkpt lat="42.5524919" lon="12.3456299"><ele>349.5</ele><time>2026-04-04T11:58:08.479Z</time></trkpt><trkpt lat="42.5526266" lon="12.345596"><ele>349.75</ele><time>2026-04-04T11:58:09.475Z</time></trkpt><trkpt lat="42.5527646" lon="12.3455646"><ele>350.0</ele><time>2026-04-04T11:58:10.455Z</time></trkpt><trkpt lat="42.5529048" lon="12.3455284"><ele>350.0</ele><time>2026-04-04T11:58:11.454Z</time></trkpt><trkpt lat="42.5530455" lon="12.3454853"><ele>350.0</ele><time>2026-04-04T11:58:12.456Z</time></trkpt><trkpt lat="42.5531846" lon="12.3454315"><ele>350.0</ele><time>2026-04-04T11:58:13.453Z</time></trkpt><trkpt lat="42.5533238" lon="12.3453769"><ele>350.0</ele><time>2026-04-04T11:58:14.46Z</time></trkpt><trkpt lat="42.5534608" lon="12.3453248"><ele>350.0</ele><time>2026-04-04T11:58:15.457Z</time></trkpt><trkpt lat="42.553594" lon="12.3452747"><ele>350.0</ele><time>2026-04-04T11:58:16.454Z</time></trkpt><trkpt lat="42.553715" lon="12.3452341"><ele>350.0</ele><time>2026-04-04T11:58:17.478Z</time></trkpt><trkpt lat="42.5538245" lon="12.3452186"><ele>350.0</ele><time>2026-04-04T11:58:18.477Z</time></trkpt><trkpt lat="42.5539323" lon="12.3452206"><ele>349.75</ele><time>2026-04-04T11:58:19.48Z</time></trkpt><trkpt lat="42.5540513" lon="12.345235"><ele>349.5</ele><time>2026-04-04T11:58:20.484Z</time></trkpt><trkpt lat="42.5541745" lon="12.3452716"><ele>349.25</ele><time>2026-04-04T11:58:21.466Z</time></trkpt><trkpt lat="42.5542994" lon="12.3453293"><ele>349.0</ele><time>2026-04-04T11:58:22.462Z</time></trkpt><trkpt lat="42.5544308" lon="12.345395"><ele>348.0</ele><time>2026-04-04T11:58:23.474Z</time></trkpt><trkpt lat="42.5545557" lon="12.3454674"><ele>347.0</ele><time>2026-04-04T11:58:24.483Z</time></trkpt><trkpt lat="42.5546744" lon="12.3455296"><ele>346.0</ele><time>2026-04-04T11:58:25.484Z</time></trkpt><trkpt lat="42.5547899" lon="12.3455779"><ele>345.0</ele><time>2026-04-04T11:58:26.488Z</time></trkpt><trkpt lat="42.5548964" lon="12.3456048"><ele>344.3333333333333</ele><time>2026-04-04T11:58:28.301Z</time></trkpt><trkpt lat="42.555129" lon="12.3456258"><ele>343.66666666666663</ele><time>2026-04-04T11:58:29.47Z</time></trkpt><trkpt lat="42.5552636" lon="12.3456178"><ele>343.0</ele><time>2026-04-04T11:58:30.476Z</time></trkpt><trkpt lat="42.5554007" lon="12.3456003"><ele>342.0</ele><time>2026-04-04T11:58:31.473Z</time></trkpt><trkpt lat="42.5555391" lon="12.3455757"><ele>341.0</ele><time>2026-04-04T11:58:32.479Z</time></trkpt><trkpt lat="42.555677" lon="12.3455565"><ele>340.0</ele><time>2026-04-04T11:58:33.476Z</time></trkpt><trkpt lat="42.5558171" lon="12.3455347"><ele>339.0</ele><time>2026-04-04T11:58:34.477Z</time></trkpt><trkpt lat="42.5559595" lon="12.3455132"><ele>338.25</ele><time>2026-04-04T11:58:35.475Z</time></trkpt><trkpt lat="42.5561028" lon="12.3454911"><ele>337.5</ele><time>2026-04-04T11:58:36.479Z</time></trkpt><trkpt lat="42.5562501" lon="12.3454685"><ele>336.75</ele><time>2026-04-04T11:58:37.474Z</time></trkpt><trkpt lat="42.5564042" lon="12.3454427"><ele>336.0</ele><time>2026-04-04T11:58:38.475Z</time></trkpt><trkpt lat="42.5565575" lon="12.3454249"><ele>334.25</ele><time>2026-04-04T11:58:39.478Z</time></trkpt><trkpt lat="42.5567105" lon="12.3454061"><ele>332.5</ele><time>2026-04-04T11:58:40.474Z</time></trkpt><trkpt lat="42.5568604" lon="12.3453851"><ele>330.75</ele><time>2026-04-04T11:58:41.462Z</time></trkpt><trkpt lat="42.5570003" lon="12.3453681"><ele>329.0</ele><time>2026-04-04T11:58:42.465Z</time></trkpt><trkpt lat="42.5571338" lon="12.3453592"><ele>328.0</ele><time>2026-04-04T11:58:43.464Z</time></trkpt><trkpt lat="42.5572757" lon="12.3453631"><ele>327.0</ele><time>2026-04-04T11:58:44.471Z</time></trkpt><trkpt lat="42.557422" lon="12.3453804"><ele>326.0</ele><time>2026-04-04T11:58:45.478Z</time></trkpt><trkpt lat="42.5575675" lon="12.3453989"><ele>325.0</ele><time>2026-04-04T11:58:46.47Z</time></trkpt><trkpt lat="42.5577166" lon="12.3454235"><ele>325.0</ele><time>2026-04-04T11:58:47.48Z</time></trkpt><trkpt lat="42.5578582" lon="12.3454493"><ele>325.0</ele><time>2026-04-04T11:58:48.476Z</time></trkpt><trkpt lat="42.5579986" lon="12.3454524"><ele>325.0</ele><time>2026-04-04T11:58:49.478Z</time></trkpt><trkpt lat="42.5581505" lon="12.3454302"><ele>325.0</ele><time>2026-04-04T11:58:50.467Z</time></trkpt><trkpt lat="42.5583009" lon="12.3454013"><ele>324.75</ele><time>2026-04-04T11:58:51.478Z</time></trkpt><trkpt lat="42.5584456" lon="12.3453645"><ele>324.5</ele><time>2026-04-04T11:58:52.48Z</time></trkpt><trkpt lat="42.5585917" lon="12.3453239"><ele>324.25</ele><time>2026-04-04T11:58:53.471Z</time></trkpt><trkpt lat="42.5587356" lon="12.345276"><ele>324.0</ele><time>2026-04-04T11:58:54.476Z</time></trkpt><trkpt lat="42.5588758" lon="12.3452232"><ele>324.0</ele><time>2026-04-04T11:58:55.477Z</time></trkpt><trkpt lat="42.5590168" lon="12.3451822"><ele>324.0</ele><time>2026-04-04T11:58:56.473Z</time></trkpt><trkpt lat="42.5591609" lon="12.3451476"><ele>324.0</ele><time>2026-04-04T11:58:57.477Z</time></trkpt><trkpt lat="42.5593078" lon="12.3451143"><ele>324.0</ele><time>2026-04-04T11:58:58.471Z</time></trkpt><trkpt lat="42.5594571" lon="12.3450813"><ele>324.25</ele><time>2026-04-04T11:58:59.475Z</time></trkpt><trkpt lat="42.5595985" lon="12.3450542"><ele>324.5</ele><time>2026-04-04T11:59:00.469Z</time></trkpt><trkpt lat="42.5597292" lon="12.345041"><ele>324.75</ele><time>2026-04-04T11:59:01.472Z</time></trkpt><trkpt lat="42.5598478" lon="12.3450278"><ele>325.0</ele><time>2026-04-04T11:59:02.477Z</time></trkpt><trkpt lat="42.5599656" lon="12.3450187"><ele>325.0</ele><time>2026-04-04T11:59:03.474Z</time></trkpt><trkpt lat="42.5600891" lon="12.3450102"><ele>325.0</ele><time>2026-04-04T11:59:04.475Z</time></trkpt><trkpt lat="42.5602222" lon="12.3449988"><ele>325.0</ele><time>2026-04-04T11:59:05.472Z</time></trkpt><trkpt lat="42.5603562" lon="12.3449894"><ele>325.0</ele><time>2026-04-04T11:59:06.475Z</time></trkpt><trkpt lat="42.5605004" lon="12.3449791"><ele>325.0</ele><time>2026-04-04T11:59:07.465Z</time></trkpt><trkpt lat="42.5606469" lon="12.3449691"><ele>325.0</ele><time>2026-04-04T11:59:08.476Z</time></trkpt><trkpt lat="42.5607957" lon="12.3449621"><ele>325.0</ele><time>2026-04-04T11:59:09.471Z</time></trkpt><trkpt lat="42.5609479" lon="12.3449539"><ele>325.0</ele><time>2026-04-04T11:59:10.48Z</time></trkpt><trkpt lat="42.5611" lon="12.3449401"><ele>326.3333333333333</ele><time>2026-04-04T11:59:11.46Z</time></trkpt><trkpt lat="42.5612535" lon="12.3449302"><ele>327.6666666666667</ele><time>2026-04-04T11:59:12.477Z</time></trkpt><trkpt lat="42.5614136" lon="12.3449181"><ele>329.0</ele><time>2026-04-04T11:59:13.478Z</time></trkpt><trkpt lat="42.5615746" lon="12.3449071"><ele>329.0</ele><time>2026-04-04T11:59:14.467Z</time></trkpt><trkpt lat="42.5617395" lon="12.3448957"><ele>329.0</ele><time>2026-04-04T11:59:15.467Z</time></trkpt><trkpt lat="42.5619083" lon="12.3448815"><ele>329.0</ele><time>2026-04-04T11:59:16.464Z</time></trkpt><trkpt lat="42.5620759" lon="12.3448686"><ele>329.6666666666667</ele><time>2026-04-04T11:59:17.472Z</time></trkpt><trkpt lat="42.5622463" lon="12.3448569"><ele>330.3333333333333</ele><time>2026-04-04T11:59:18.478Z</time></trkpt><trkpt lat="42.5624188" lon="12.3448445"><ele>331.0</ele><time>2026-04-04T11:59:19.479Z</time></trkpt><trkpt lat="42.5625872" lon="12.3448381"><ele>331.0</ele><time>2026-04-04T11:59:20.476Z</time></trkpt><trkpt lat="42.5627484" lon="12.3448301"><ele>331.0</ele><time>2026-04-04T11:59:21.465Z</time></trkpt><trkpt lat="42.562904" lon="12.3448232"><ele>331.0</ele><time>2026-04-04T11:59:22.476Z</time></trkpt><trkpt lat="42.5630563" lon="12.3448162"><ele>332.3333333333333</ele><time>2026-04-04T11:59:23.477Z</time></trkpt><trkpt lat="42.5632125" lon="12.3448056"><ele>333.6666666666667</ele><time>2026-04-04T11:59:24.476Z</time></trkpt><trkpt lat="42.563366" lon="12.3447936"><ele>335.0</ele><time>2026-04-04T11:59:25.477Z</time></trkpt><trkpt lat="42.5635101" lon="12.344772"><ele>335.0</ele><time>2026-04-04T11:59:26.469Z</time></trkpt><trkpt lat="42.5636475" lon="12.3447368"><ele>335.0</ele><time>2026-04-04T11:59:27.466Z</time></trkpt><trkpt lat="42.5637856" lon="12.3446849"><ele>335.0</ele><time>2026-04-04T11:59:28.466Z</time></trkpt><trkpt lat="42.5639262" lon="12.3446144"><ele>335.0</ele><time>2026-04-04T11:59:29.466Z</time></trkpt><trkpt lat="42.5640674" lon="12.3445289"><ele>333.0</ele><time>2026-04-04T11:59:30.471Z</time></trkpt><trkpt lat="42.564211" lon="12.3444323"><ele>331.0</ele><time>2026-04-04T11:59:31.475Z</time></trkpt><trkpt lat="42.5643513" lon="12.3443477"><ele>329.0</ele><time>2026-04-04T11:59:32.464Z</time></trkpt><trkpt lat="42.5644796" lon="12.3442651"><ele>330.6666666666667</ele><time>2026-04-04T11:59:33.463Z</time></trkpt><trkpt lat="42.5646029" lon="12.344191"><ele>332.3333333333333</ele><time>2026-04-04T11:59:34.473Z</time></trkpt><trkpt lat="42.5647294" lon="12.3441223"><ele>334.0</ele><time>2026-04-04T11:59:36.387Z</time></trkpt><trkpt lat="42.5650018" lon="12.3440249"><ele>334.0</ele><time>2026-04-04T11:59:37.473Z</time></trkpt><trkpt lat="42.5651545" lon="12.3439867"><ele>334.0</ele><time>2026-04-04T11:59:38.468Z</time></trkpt><trkpt lat="42.565315" lon="12.3439458"><ele>334.0</ele><time>2026-04-04T11:59:39.471Z</time></trkpt><trkpt lat="42.5654702" lon="12.3439063"><ele>331.75</ele><time>2026-04-04T11:59:40.463Z</time></trkpt><trkpt lat="42.5656064" lon="12.3438524"><ele>329.5</ele><time>2026-04-04T11:59:41.469Z</time></trkpt><trkpt lat="42.5657335" lon="12.3437965"><ele>327.25</ele><time>2026-04-04T11:59:42.47Z</time></trkpt><trkpt lat="42.5658615" lon="12.3437279"><ele>325.0</ele><time>2026-04-04T11:59:43.475Z</time></trkpt><trkpt lat="42.5659918" lon="12.3436451"><ele>325.0</ele><time>2026-04-04T11:59:44.474Z</time></trkpt><trkpt lat="42.5661111" lon="12.343575"><ele>325.0</ele><time>2026-04-04T11:59:45.479Z</time></trkpt><trkpt lat="42.5662279" lon="12.3435067"><ele>325.0</ele><time>2026-04-04T11:59:46.465Z</time></trkpt><trkpt lat="42.5663429" lon="12.3434402"><ele>325.0</ele><time>2026-04-04T11:59:47.471Z</time></trkpt><trkpt lat="42.5664511" lon="12.3433763"><ele>326.0</ele><time>2026-04-04T11:59:48.486Z</time></trkpt><trkpt lat="42.5665656" lon="12.3433112"><ele>327.0</ele><time>2026-04-04T11:59:49.464Z</time></trkpt><trkpt lat="42.5666785" lon="12.3432454"><ele>328.0</ele><time>2026-04-04T11:59:50.481Z</time></trkpt><trkpt lat="42.5667966" lon="12.3431815"><ele>329.0</ele><time>2026-04-04T11:59:51.47Z</time></trkpt><trkpt lat="42.5669153" lon="12.3431207"><ele>329.5</ele><time>2026-04-04T11:59:52.479Z</time></trkpt><trkpt lat="42.5670385" lon="12.3430566"><ele>330.0</ele><time>2026-04-04T11:59:53.469Z</time></trkpt><trkpt lat="42.5671531" lon="12.3429918"><ele>330.5</ele><time>2026-04-04T11:59:54.479Z</time></trkpt><trkpt lat="42.5672605" lon="12.3429346"><ele>331.0</ele><time>2026-04-04T11:59:55.471Z</time></trkpt><trkpt lat="42.5673574" lon="12.3428857"><ele>331.0</ele><time>2026-04-04T11:59:56.477Z</time></trkpt><trkpt lat="42.5674429" lon="12.3428419"><ele>331.0</ele><time>2026-04-04T11:59:57.478Z</time></trkpt><trkpt lat="42.5675232" lon="12.3428034"><ele>331.0</ele><time>2026-04-04T11:59:58.477Z</time></trkpt><trkpt lat="42.5675959" lon="12.3427668"><ele>331.0</ele><time>2026-04-04T11:59:59.474Z</time></trkpt><trkpt lat="42.5676668" lon="12.3427267"><ele>331.0</ele><time>2026-04-04T12:00:00.474Z</time></trkpt><trkpt lat="42.567741" lon="12.3426807"><ele>331.0</ele><time>2026-04-04T12:00:01.471Z</time></trkpt><trkpt lat="42.5678125" lon="12.3426283"><ele>332.3333333333333</ele><time>2026-04-04T12:00:02.482Z</time></trkpt><trkpt lat="42.5678815" lon="12.3425664"><ele>333.66666666666663</ele><time>2026-04-04T12:00:03.47Z</time></trkpt><trkpt lat="42.5679347" lon="12.3424879"><ele>335.0</ele><time>2026-04-04T12:00:04.475Z</time></trkpt><trkpt lat="42.5679731" lon="12.3424047"><ele>336.3333333333333</ele><time>2026-04-04T12:00:05.475Z</time></trkpt><trkpt lat="42.5680032" lon="12.3423295"><ele>337.6666666666667</ele><time>2026-04-04T12:00:06.478Z</time></trkpt><trkpt lat="42.5680316" lon="12.3422064"><ele>339.0</ele><time>2026-04-04T12:00:08.467Z</time></trkpt><trkpt lat="42.5679714" lon="12.342093"><ele>340.25</ele><time>2026-04-04T12:00:10.455Z</time></trkpt><trkpt lat="42.5679133" lon="12.341994"><ele>341.5</ele><time>2026-04-04T12:00:11.47Z</time></trkpt><trkpt lat="42.5678597" lon="12.3418625"><ele>342.75</ele><time>2026-04-04T12:00:12.478Z</time></trkpt><trkpt lat="42.5677923" lon="12.3417015"><ele>344.0</ele><time>2026-04-04T12:00:13.461Z</time></trkpt><trkpt lat="42.5677135" lon="12.3415405"><ele>343.0</ele><time>2026-04-04T12:00:14.47Z</time></trkpt><trkpt lat="42.567626" lon="12.3413771"><ele>342.0</ele><time>2026-04-04T12:00:15.463Z</time></trkpt><trkpt lat="42.5675391" lon="12.3412222"><ele>341.0</ele><time>2026-04-04T12:00:16.468Z</time></trkpt><trkpt lat="42.5674627" lon="12.3410865"><ele>340.0</ele><time>2026-04-04T12:00:17.453Z</time></trkpt><trkpt lat="42.5673798" lon="12.3409521"><ele>340.0</ele><time>2026-04-04T12:00:18.475Z</time></trkpt><trkpt lat="42.5672829" lon="12.3408088"><ele>340.0</ele><time>2026-04-04T12:00:19.479Z</time></trkpt><trkpt lat="42.5671787" lon="12.3406728"><ele>340.0</ele><time>2026-04-04T12:00:20.481Z</time></trkpt><trkpt lat="42.5670755" lon="12.340547"><ele>340.0</ele><time>2026-04-04T12:00:21.477Z</time></trkpt><trkpt lat="42.5669656" lon="12.3404224"><ele>338.0</ele><time>2026-04-04T12:00:22.479Z</time></trkpt><trkpt lat="42.5668623" lon="12.3403039"><ele>336.0</ele><time>2026-04-04T12:00:23.474Z</time></trkpt><trkpt lat="42.5667684" lon="12.3401948"><ele>334.0</ele><time>2026-04-04T12:00:24.477Z</time></trkpt><trkpt lat="42.566685" lon="12.340099"><ele>332.0</ele><time>2026-04-04T12:00:25.474Z</time></trkpt><trkpt lat="42.5666113" lon="12.3400039"><ele>332.0</ele><time>2026-04-04T12:00:26.46Z</time></trkpt><trkpt lat="42.56655" lon="12.339897"><ele>332.0</ele><time>2026-04-04T12:00:27.481Z</time></trkpt><trkpt lat="42.5665088" lon="12.3397798"><ele>332.0</ele><time>2026-04-04T12:00:28.478Z</time></trkpt><trkpt lat="42.5664881" lon="12.3396522"><ele>332.0</ele><time>2026-04-04T12:00:29.463Z</time></trkpt><trkpt lat="42.5664937" lon="12.3395124"><ele>332.0</ele><time>2026-04-04T12:00:30.483Z</time></trkpt><trkpt lat="42.5665255" lon="12.339355"><ele>330.75</ele><time>2026-04-04T12:00:31.478Z</time></trkpt><trkpt lat="42.5665805" lon="12.3391848"><ele>329.5</ele><time>2026-04-04T12:00:32.474Z</time></trkpt><trkpt lat="42.5666439" lon="12.3390161"><ele>328.25</ele><time>2026-04-04T12:00:33.474Z</time></trkpt><trkpt lat="42.566702" lon="12.3388552"><ele>327.0</ele><time>2026-04-04T12:00:34.478Z</time></trkpt><trkpt lat="42.5667559" lon="12.3387055"><ele>325.8</ele><time>2026-04-04T12:00:35.481Z</time></trkpt><trkpt lat="42.5667912" lon="12.3385613"><ele>324.6</ele><time>2026-04-04T12:00:36.479Z</time></trkpt><trkpt lat="42.5668137" lon="12.3384144"><ele>323.40000000000003</ele><time>2026-04-04T12:00:37.473Z</time></trkpt><trkpt lat="42.5668172" lon="12.3382735"><ele>322.20000000000005</ele><time>2026-04-04T12:00:38.477Z</time></trkpt><trkpt lat="42.5668089" lon="12.3381403"><ele>321.0</ele><time>2026-04-04T12:00:39.471Z</time></trkpt><trkpt lat="42.5667795" lon="12.338027"><ele>320.8</ele><time>2026-04-04T12:00:40.47Z</time></trkpt><trkpt lat="42.5667307" lon="12.3379305"><ele>320.6</ele><time>2026-04-04T12:00:41.476Z</time></trkpt><trkpt lat="42.5666597" lon="12.3378358"><ele>320.4</ele><time>2026-04-04T12:00:42.461Z</time></trkpt><trkpt lat="42.566583" lon="12.3377414"><ele>320.2</ele><time>2026-04-04T12:00:43.471Z</time></trkpt><trkpt lat="42.5665015" lon="12.3376436"><ele>320.0</ele><time>2026-04-04T12:00:44.463Z</time></trkpt><trkpt lat="42.5663067" lon="12.337423"><ele>320.0</ele><time>2026-04-04T12:00:47.474Z</time></trkpt><trkpt lat="42.5662244" lon="12.3373634"><ele>320.0</ele><time>2026-04-04T12:00:49.474Z</time></trkpt><trkpt lat="42.5661517" lon="12.3373769"><ele>320.0</ele><time>2026-04-04T12:00:52.463Z</time></trkpt><trkpt lat="42.5661192" lon="12.3372665"><ele>320.0</ele><time>2026-04-04T12:02:59.461Z</time></trkpt><trkpt lat="42.5660467" lon="12.3371125"><ele>320.0</ele><time>2026-04-04T12:03:01.46Z</time></trkpt><trkpt lat="42.5659714" lon="12.3369965"><ele>317.0</ele><time>2026-04-04T12:03:02.464Z</time></trkpt><trkpt lat="42.5658712" lon="12.3368669"><ele>314.0</ele><time>2026-04-04T12:03:03.466Z</time></trkpt><trkpt lat="42.565748" lon="12.3367464"><ele>311.0</ele><time>2026-04-04T12:03:04.458Z</time></trkpt><trkpt lat="42.5656135" lon="12.3366267"><ele>311.0</ele><time>2026-04-04T12:03:05.471Z</time></trkpt><trkpt lat="42.565481" lon="12.3365195"><ele>311.0</ele><time>2026-04-04T12:03:06.474Z</time></trkpt><trkpt lat="42.5653526" lon="12.3364366"><ele>311.0</ele><time>2026-04-04T12:03:07.463Z</time></trkpt><trkpt lat="42.5652381" lon="12.3363636"><ele>311.0</ele><time>2026-04-04T12:03:08.467Z</time></trkpt><trkpt lat="42.5651357" lon="12.3363009"><ele>309.33333333333337</ele><time>2026-04-04T12:03:09.47Z</time></trkpt><trkpt lat="42.5650451" lon="12.3362505"><ele>307.6666666666667</ele><time>2026-04-04T12:03:10.469Z</time></trkpt><trkpt lat="42.5649673" lon="12.3361929"><ele>306.0</ele><time>2026-04-04T12:03:11.467Z</time></trkpt><trkpt lat="42.564909" lon="12.3361238"><ele>304.3333333333333</ele><time>2026-04-04T12:03:12.461Z</time></trkpt><trkpt lat="42.5648628" lon="12.3360409"><ele>302.66666666666663</ele><time>2026-04-04T12:03:13.465Z</time></trkpt><trkpt lat="42.5648324" lon="12.3359426"><ele>301.0</ele><time>2026-04-04T12:03:14.47Z</time></trkpt><trkpt lat="42.5648159" lon="12.3358341"><ele>301.0</ele><time>2026-04-04T12:03:15.462Z</time></trkpt><trkpt lat="42.564808" lon="12.3357243"><ele>301.0</ele><time>2026-04-04T12:03:16.47Z</time></trkpt><trkpt lat="42.5648139" lon="12.335615"><ele>301.0</ele><time>2026-04-04T12:03:17.47Z</time></trkpt><trkpt lat="42.5648407" lon="12.3355045"><ele>301.0</ele><time>2026-04-04T12:03:18.46Z</time></trkpt><trkpt lat="42.5648892" lon="12.3353918"><ele>301.0</ele><time>2026-04-04T12:03:19.465Z</time></trkpt><trkpt lat="42.5649654" lon="12.3352693"><ele>299.5</ele><time>2026-04-04T12:03:20.471Z</time></trkpt><trkpt lat="42.5650529" lon="12.3351493"><ele>298.0</ele><time>2026-04-04T12:03:21.467Z</time></trkpt><trkpt lat="42.5651516" lon="12.335022"><ele>296.5</ele><time>2026-04-04T12:03:22.45Z</time></trkpt><trkpt lat="42.5652504" lon="12.3348956"><ele>295.0</ele><time>2026-04-04T12:03:23.453Z</time></trkpt><trkpt lat="42.5653381" lon="12.3347779"><ele>294.75</ele><time>2026-04-04T12:03:24.461Z</time></trkpt><trkpt lat="42.565418" lon="12.3346543"><ele>294.5</ele><time>2026-04-04T12:03:25.463Z</time></trkpt><trkpt lat="42.5654905" lon="12.3345217"><ele>294.25</ele><time>2026-04-04T12:03:26.466Z</time></trkpt><trkpt lat="42.565554" lon="12.3343763"><ele>294.0</ele><time>2026-04-04T12:03:27.468Z</time></trkpt><trkpt lat="42.5656066" lon="12.3342134"><ele>294.0</ele><time>2026-04-04T12:03:28.469Z</time></trkpt><trkpt lat="42.5656408" lon="12.3340382"><ele>294.0</ele><time>2026-04-04T12:03:29.464Z</time></trkpt><trkpt lat="42.5656587" lon="12.3338636"><ele>294.0</ele><time>2026-04-04T12:03:30.458Z</time></trkpt><trkpt lat="42.5656629" lon="12.333685"><ele>294.0</ele><time>2026-04-04T12:03:31.471Z</time></trkpt><trkpt lat="42.5656543" lon="12.3334962"><ele>295.3333333333333</ele><time>2026-04-04T12:03:32.474Z</time></trkpt><trkpt lat="42.5656389" lon="12.3333042"><ele>296.66666666666663</ele><time>2026-04-04T12:03:33.472Z</time></trkpt><trkpt lat="42.565624" lon="12.3330984"><ele>298.0</ele><time>2026-04-04T12:03:34.474Z</time></trkpt><trkpt lat="42.5656068" lon="12.3328821"><ele>298.3333333333333</ele><time>2026-04-04T12:03:35.469Z</time></trkpt><trkpt lat="42.5655928" lon="12.3326587"><ele>298.6666666666667</ele><time>2026-04-04T12:03:36.462Z</time></trkpt><trkpt lat="42.5655779" lon="12.3324245"><ele>299.0</ele><time>2026-04-04T12:03:37.478Z</time></trkpt><trkpt lat="42.5655614" lon="12.3321991"><ele>299.5</ele><time>2026-04-04T12:03:38.455Z</time></trkpt><trkpt lat="42.5655459" lon="12.3320035"><ele>300.0</ele><time>2026-04-04T12:03:39.477Z</time></trkpt><trkpt lat="42.5655348" lon="12.3318182"><ele>300.5</ele><time>2026-04-04T12:03:40.479Z</time></trkpt><trkpt lat="42.5655185" lon="12.3316362"><ele>301.0</ele><time>2026-04-04T12:03:41.478Z</time></trkpt><trkpt lat="42.5654976" lon="12.3314496"><ele>302.5</ele><time>2026-04-04T12:03:42.476Z</time></trkpt><trkpt lat="42.5654756" lon="12.3312747"><ele>304.0</ele><time>2026-04-04T12:03:43.473Z</time></trkpt><trkpt lat="42.5654528" lon="12.3311144"><ele>305.5</ele><time>2026-04-04T12:03:44.483Z</time></trkpt><trkpt lat="42.5654307" lon="12.330962"><ele>307.0</ele><time>2026-04-04T12:03:45.483Z</time></trkpt><trkpt lat="42.56541" lon="12.3308153"><ele>307.0</ele><time>2026-04-04T12:03:46.464Z</time></trkpt><trkpt lat="42.5653896" lon="12.3306667"><ele>307.0</ele><time>2026-04-04T12:03:47.466Z</time></trkpt><trkpt lat="42.5653708" lon="12.3305138"><ele>307.0</ele><time>2026-04-04T12:03:48.479Z</time></trkpt><trkpt lat="42.5653535" lon="12.330367"><ele>307.0</ele><time>2026-04-04T12:03:49.468Z</time></trkpt><trkpt lat="42.5653357" lon="12.330227"><ele>307.0</ele><time>2026-04-04T12:03:50.458Z</time></trkpt><trkpt lat="42.5653201" lon="12.3300977"><ele>305.6</ele><time>2026-04-04T12:03:51.472Z</time></trkpt><trkpt lat="42.5653049" lon="12.3299637"><ele>304.2</ele><time>2026-04-04T12:03:52.475Z</time></trkpt><trkpt lat="42.5652886" lon="12.3298242"><ele>302.8</ele><time>2026-04-04T12:03:53.469Z</time></trkpt><trkpt lat="42.5652671" lon="12.329676"><ele>301.4</ele><time>2026-04-04T12:03:54.482Z</time></trkpt><trkpt lat="42.565247" lon="12.329518"><ele>300.0</ele><time>2026-04-04T12:03:55.468Z</time></trkpt><trkpt lat="42.5652236" lon="12.3293611"><ele>299.8</ele><time>2026-04-04T12:03:56.462Z</time></trkpt><trkpt lat="42.5651984" lon="12.329215"><ele>299.6</ele><time>2026-04-04T12:03:57.473Z</time></trkpt><trkpt lat="42.565178" lon="12.3290799"><ele>299.4</ele><time>2026-04-04T12:03:58.47Z</time></trkpt><trkpt lat="42.5651583" lon="12.3289481"><ele>299.2</ele><time>2026-04-04T12:03:59.465Z</time></trkpt><trkpt lat="42.5651397" lon="12.328819"><ele>299.0</ele><time>2026-04-04T12:04:00.457Z</time></trkpt><trkpt lat="42.5651248" lon="12.3286921"><ele>299.0</ele><time>2026-04-04T12:04:01.463Z</time></trkpt><trkpt lat="42.5651092" lon="12.3285661"><ele>299.0</ele><time>2026-04-04T12:04:02.457Z</time></trkpt><trkpt lat="42.5650951" lon="12.328437"><ele>299.0</ele><time>2026-04-04T12:04:04.229Z</time></trkpt><trkpt lat="42.5650676" lon="12.3281897"><ele>299.0</ele><time>2026-04-04T12:04:05.462Z</time></trkpt><trkpt lat="42.565052" lon="12.3280739"><ele>299.0</ele><time>2026-04-04T12:04:06.459Z</time></trkpt><trkpt lat="42.5650334" lon="12.3279708"><ele>299.0</ele><time>2026-04-04T12:04:07.456Z</time></trkpt><trkpt lat="42.5650021" lon="12.3278729"><ele>299.0</ele><time>2026-04-04T12:04:08.454Z</time></trkpt><trkpt lat="42.5649647" lon="12.3277749"><ele>299.0</ele><time>2026-04-04T12:04:09.455Z</time></trkpt><trkpt lat="42.5649207" lon="12.3276754"><ele>299.0</ele><time>2026-04-04T12:04:10.454Z</time></trkpt><trkpt lat="42.5648631" lon="12.3275802"><ele>299.0</ele><time>2026-04-04T12:04:11.451Z</time></trkpt><trkpt lat="42.5647875" lon="12.3274908"><ele>299.0</ele><time>2026-04-04T12:04:12.459Z</time></trkpt><trkpt lat="42.5646931" lon="12.3274099"><ele>299.0</ele><time>2026-04-04T12:04:13.472Z</time></trkpt><trkpt lat="42.5645754" lon="12.3273275"><ele>299.0</ele><time>2026-04-04T12:04:14.466Z</time></trkpt><trkpt lat="42.5644445" lon="12.3272474"><ele>299.0</ele><time>2026-04-04T12:04:15.479Z</time></trkpt><trkpt lat="42.564308" lon="12.3271666"><ele>296.6666666666667</ele><time>2026-04-04T12:04:16.463Z</time></trkpt><trkpt lat="42.5641541" lon="12.3270787"><ele>294.3333333333333</ele><time>2026-04-04T12:04:17.462Z</time></trkpt><trkpt lat="42.5640057" lon="12.3269963"><ele>292.0</ele><time>2026-04-04T12:04:18.465Z</time></trkpt><trkpt lat="42.5638696" lon="12.3269213"><ele>292.0</ele><time>2026-04-04T12:04:19.459Z</time></trkpt><trkpt lat="42.5637421" lon="12.3268493"><ele>292.0</ele><time>2026-04-04T12:04:20.473Z</time></trkpt><trkpt lat="42.5636155" lon="12.3267762"><ele>292.0</ele><time>2026-04-04T12:04:21.458Z</time></trkpt><trkpt lat="42.563486" lon="12.3266941"><ele>292.0</ele><time>2026-04-04T12:04:22.467Z</time></trkpt><trkpt lat="42.5633531" lon="12.326612"><ele>291.0</ele><time>2026-04-04T12:04:23.457Z</time></trkpt><trkpt lat="42.5632277" lon="12.3265364"><ele>290.0</ele><time>2026-04-04T12:04:24.467Z</time></trkpt><trkpt lat="42.5631075" lon="12.3264715"><ele>289.0</ele><time>2026-04-04T12:04:25.475Z</time></trkpt><trkpt lat="42.562992" lon="12.3264179"><ele>288.0</ele><time>2026-04-04T12:04:26.462Z</time></trkpt><trkpt lat="42.5628739" lon="12.3263798"><ele>287.0</ele><time>2026-04-04T12:04:27.474Z</time></trkpt><trkpt lat="42.5627473" lon="12.3263595"><ele>286.0</ele><time>2026-04-04T12:04:28.467Z</time></trkpt><trkpt lat="42.5626077" lon="12.3263665"><ele>285.0</ele><time>2026-04-04T12:04:29.476Z</time></trkpt><trkpt lat="42.5624597" lon="12.3263934"><ele>284.0</ele><time>2026-04-04T12:04:30.469Z</time></trkpt><trkpt lat="42.5623064" lon="12.3264242"><ele>284.0</ele><time>2026-04-04T12:04:31.48Z</time></trkpt><trkpt lat="42.5621411" lon="12.3264602"><ele>284.0</ele><time>2026-04-04T12:04:32.484Z</time></trkpt><trkpt lat="42.5619695" lon="12.3264971"><ele>284.0</ele><time>2026-04-04T12:04:33.466Z</time></trkpt><trkpt lat="42.5617875" lon="12.3265324"><ele>281.6666666666667</ele><time>2026-04-04T12:04:34.467Z</time></trkpt><trkpt lat="42.5616118" lon="12.3265634"><ele>279.3333333333333</ele><time>2026-04-04T12:04:35.464Z</time></trkpt><trkpt lat="42.5614467" lon="12.3265897"><ele>277.0</ele><time>2026-04-04T12:04:36.474Z</time></trkpt><trkpt lat="42.56129" lon="12.3266153"><ele>276.0</ele><time>2026-04-04T12:04:37.464Z</time></trkpt><trkpt lat="42.5611395" lon="12.3266374"><ele>275.0</ele><time>2026-04-04T12:04:38.473Z</time></trkpt><trkpt lat="42.5609896" lon="12.3266563"><ele>274.0</ele><time>2026-04-04T12:04:39.473Z</time></trkpt><trkpt lat="42.5608314" lon="12.3266753"><ele>274.0</ele><time>2026-04-04T12:04:40.475Z</time></trkpt><trkpt lat="42.5606622" lon="12.3267027"><ele>274.0</ele><time>2026-04-04T12:04:41.476Z</time></trkpt><trkpt lat="42.5604901" lon="12.3267365"><ele>274.0</ele><time>2026-04-04T12:04:42.475Z</time></trkpt><trkpt lat="42.5603343" lon="12.3267661"><ele>272.75</ele><time>2026-04-04T12:04:43.472Z</time></trkpt><trkpt lat="42.5601917" lon="12.3267821"><ele>271.5</ele><time>2026-04-04T12:04:44.464Z</time></trkpt><trkpt lat="42.5600606" lon="12.3267969"><ele>270.25</ele><time>2026-04-04T12:04:45.461Z</time></trkpt><trkpt lat="42.5599224" lon="12.3268046"><ele>269.0</ele><time>2026-04-04T12:04:46.46Z</time></trkpt><trkpt lat="42.5597775" lon="12.3268105"><ele>269.0</ele><time>2026-04-04T12:04:47.467Z</time></trkpt><trkpt lat="42.5596314" lon="12.3268033"><ele>269.0</ele><time>2026-04-04T12:04:48.471Z</time></trkpt><trkpt lat="42.5594803" lon="12.3267717"><ele>269.0</ele><time>2026-04-04T12:04:49.473Z</time></trkpt><trkpt lat="42.5593295" lon="12.3267213"><ele>270.33333333333337</ele><time>2026-04-04T12:04:50.472Z</time></trkpt><trkpt lat="42.5591809" lon="12.3266471"><ele>271.6666666666667</ele><time>2026-04-04T12:04:51.466Z</time></trkpt><trkpt lat="42.5590284" lon="12.3265501"><ele>273.0</ele><time>2026-04-04T12:04:52.475Z</time></trkpt><trkpt lat="42.5588839" lon="12.3264307"><ele>274.75</ele><time>2026-04-04T12:04:53.455Z</time></trkpt><trkpt lat="42.5587579" lon="12.3263085"><ele>276.5</ele><time>2026-04-04T12:04:54.469Z</time></trkpt><trkpt lat="42.5586404" lon="12.3262073"><ele>278.25</ele><time>2026-04-04T12:04:55.465Z</time></trkpt><trkpt lat="42.5585085" lon="12.3261229"><ele>280.0</ele><time>2026-04-04T12:04:56.455Z</time></trkpt><trkpt lat="42.5583638" lon="12.3260835"><ele>281.0</ele><time>2026-04-04T12:04:57.456Z</time></trkpt><trkpt lat="42.5582296" lon="12.3260719"><ele>282.0</ele><time>2026-04-04T12:04:58.457Z</time></trkpt><trkpt lat="42.5581072" lon="12.3260898"><ele>283.0</ele><time>2026-04-04T12:04:59.463Z</time></trkpt><trkpt lat="42.5579845" lon="12.326134"><ele>284.0</ele><time>2026-04-04T12:05:00.477Z</time></trkpt><trkpt lat="42.5578654" lon="12.3262113"><ele>285.6666666666667</ele><time>2026-04-04T12:05:01.456Z</time></trkpt><trkpt lat="42.5577405" lon="12.3263318"><ele>287.3333333333333</ele><time>2026-04-04T12:05:02.475Z</time></trkpt><trkpt lat="42.5576008" lon="12.3264846"><ele>289.0</ele><time>2026-04-04T12:05:03.48Z</time></trkpt><trkpt lat="42.5574553" lon="12.3266633"><ele>289.0</ele><time>2026-04-04T12:05:04.481Z</time></trkpt><trkpt lat="42.5573011" lon="12.3268484"><ele>289.0</ele><time>2026-04-04T12:05:05.484Z</time></trkpt><trkpt lat="42.557158" lon="12.3270088"><ele>289.0</ele><time>2026-04-04T12:05:06.485Z</time></trkpt><trkpt lat="42.5570363" lon="12.3271409"><ele>291.25</ele><time>2026-04-04T12:05:07.477Z</time></trkpt><trkpt lat="42.5569245" lon="12.3272594"><ele>293.5</ele><time>2026-04-04T12:05:08.483Z</time></trkpt><trkpt lat="42.5568112" lon="12.3273717"><ele>295.75</ele><time>2026-04-04T12:05:09.473Z</time></trkpt><trkpt lat="42.5566995" lon="12.3274709"><ele>298.0</ele><time>2026-04-04T12:05:10.477Z</time></trkpt><trkpt lat="42.5565877" lon="12.3275342"><ele>298.0</ele><time>2026-04-04T12:05:11.472Z</time></trkpt><trkpt lat="42.5564595" lon="12.3275522"><ele>298.0</ele><time>2026-04-04T12:05:12.463Z</time></trkpt><trkpt lat="42.556322" lon="12.3275451"><ele>298.0</ele><time>2026-04-04T12:05:13.48Z</time></trkpt><trkpt lat="42.556177" lon="12.327513"><ele>298.0</ele><time>2026-04-04T12:05:14.475Z</time></trkpt><trkpt lat="42.5560242" lon="12.3274599"><ele>298.75</ele><time>2026-04-04T12:05:15.479Z</time></trkpt><trkpt lat="42.555888" lon="12.3273934"><ele>299.5</ele><time>2026-04-04T12:05:16.476Z</time></trkpt><trkpt lat="42.5557606" lon="12.3273416"><ele>300.25</ele><time>2026-04-04T12:05:17.47Z</time></trkpt><trkpt lat="42.5556373" lon="12.3273223"><ele>301.0</ele><time>2026-04-04T12:05:18.482Z</time></trkpt><trkpt lat="42.5555132" lon="12.3273398"><ele>301.0</ele><time>2026-04-04T12:05:19.476Z</time></trkpt><trkpt lat="42.5553881" lon="12.3273693"><ele>301.0</ele><time>2026-04-04T12:05:20.48Z</time></trkpt><trkpt lat="42.555275" lon="12.3274061"><ele>301.0</ele><time>2026-04-04T12:05:21.484Z</time></trkpt><trkpt lat="42.5551788" lon="12.3274389"><ele>301.0</ele><time>2026-04-04T12:05:22.479Z</time></trkpt><trkpt lat="42.5550983" lon="12.3274533"><ele>301.0</ele><time>2026-04-04T12:05:23.476Z</time></trkpt><trkpt lat="42.5550247" lon="12.3274414"><ele>301.2</ele><time>2026-04-04T12:05:24.484Z</time></trkpt><trkpt lat="42.5549595" lon="12.3274155"><ele>301.40000000000003</ele><time>2026-04-04T12:05:25.47Z</time></trkpt><trkpt lat="42.5548696" lon="12.3273377"><ele>301.6</ele><time>2026-04-04T12:05:27.487Z</time></trkpt><trkpt lat="42.5548332" lon="12.3272347"><ele>301.8</ele><time>2026-04-04T12:05:29.484Z</time></trkpt><trkpt lat="42.554836" lon="12.327106"><ele>302.0</ele><time>2026-04-04T12:05:31.475Z</time></trkpt><trkpt lat="42.5548909" lon="12.3269384"><ele>303.8</ele><time>2026-04-04T12:05:33.466Z</time></trkpt><trkpt lat="42.5549477" lon="12.3268573"><ele>305.6</ele><time>2026-04-04T12:05:34.48Z</time></trkpt><trkpt lat="42.555023" lon="12.3267954"><ele>307.40000000000003</ele><time>2026-04-04T12:05:35.477Z</time></trkpt><trkpt lat="42.5551144" lon="12.3267537"><ele>309.2</ele><time>2026-04-04T12:05:36.482Z</time></trkpt><trkpt lat="42.5552208" lon="12.3267244"><ele>311.0</ele><time>2026-04-04T12:05:37.481Z</time></trkpt><trkpt lat="42.5553415" lon="12.3266857"><ele>311.0</ele><time>2026-04-04T12:05:38.481Z</time></trkpt><trkpt lat="42.5554565" lon="12.3266293"><ele>311.0</ele><time>2026-04-04T12:05:39.483Z</time></trkpt><trkpt lat="42.5555523" lon="12.3265587"><ele>311.0</ele><time>2026-04-04T12:05:40.484Z</time></trkpt><trkpt lat="42.5556362" lon="12.3264728"><ele>311.0</ele><time>2026-04-04T12:05:41.483Z</time></trkpt><trkpt lat="42.555718" lon="12.3263665"><ele>313.25</ele><time>2026-04-04T12:05:42.48Z</time></trkpt><trkpt lat="42.5557844" lon="12.3262416"><ele>315.5</ele><time>2026-04-04T12:05:43.477Z</time></trkpt><trkpt lat="42.5558348" lon="12.3261006"><ele>317.75</ele><time>2026-04-04T12:05:44.48Z</time></trkpt><trkpt lat="42.5558731" lon="12.3259398"><ele>320.0</ele><time>2026-04-04T12:05:45.477Z</time></trkpt><trkpt lat="42.5558889" lon="12.3257844"><ele>320.0</ele><time>2026-04-04T12:05:46.474Z</time></trkpt><trkpt lat="42.5559017" lon="12.3256386"><ele>320.0</ele><time>2026-04-04T12:05:47.474Z</time></trkpt><trkpt lat="42.5559158" lon="12.3254881"><ele>320.0</ele><time>2026-04-04T12:05:48.477Z</time></trkpt><trkpt lat="42.5559294" lon="12.3253426"><ele>320.0</ele><time>2026-04-04T12:05:49.48Z</time></trkpt><trkpt lat="42.5559461" lon="12.325197"><ele>320.0</ele><time>2026-04-04T12:05:50.485Z</time></trkpt><trkpt lat="42.5559618" lon="12.325043"><ele>320.4</ele><time>2026-04-04T12:05:51.485Z</time></trkpt><trkpt lat="42.5559784" lon="12.3248893"><ele>320.8</ele><time>2026-04-04T12:05:52.473Z</time></trkpt><trkpt lat="42.5559944" lon="12.3247446"><ele>321.20000000000005</ele><time>2026-04-04T12:05:53.472Z</time></trkpt><trkpt lat="42.5560169" lon="12.3246166"><ele>321.6</ele><time>2026-04-04T12:05:54.481Z</time></trkpt><trkpt lat="42.5560544" lon="12.3244959"><ele>322.0</ele><time>2026-04-04T12:05:55.488Z</time></trkpt><trkpt lat="42.5561081" lon="12.3243654"><ele>322.0</ele><time>2026-04-04T12:05:56.479Z</time></trkpt><trkpt lat="42.5561701" lon="12.3242423"><ele>322.0</ele><time>2026-04-04T12:05:57.479Z</time></trkpt><trkpt lat="42.5562309" lon="12.3241309"><ele>322.0</ele><time>2026-04-04T12:05:58.485Z</time></trkpt><trkpt lat="42.5562869" lon="12.3240351"><ele>322.0</ele><time>2026-04-04T12:05:59.486Z</time></trkpt><trkpt lat="42.5563423" lon="12.3239484"><ele>322.0</ele><time>2026-04-04T12:06:00.486Z</time></trkpt><trkpt lat="42.5563908" lon="12.3238707"><ele>322.0</ele><time>2026-04-04T12:06:01.482Z</time></trkpt><trkpt lat="42.5564308" lon="12.3237943"><ele>322.0</ele><time>2026-04-04T12:06:02.486Z</time></trkpt><trkpt lat="42.5564768" lon="12.3237308"><ele>322.0</ele><time>2026-04-04T12:06:03.484Z</time></trkpt><trkpt lat="42.5565288" lon="12.3236818"><ele>322.0</ele><time>2026-04-04T12:06:04.476Z</time></trkpt><trkpt lat="42.5565976" lon="12.3236574"><ele>322.0</ele><time>2026-04-04T12:06:05.484Z</time></trkpt><trkpt lat="42.556689" lon="12.3236475"><ele>322.0</ele><time>2026-04-04T12:06:06.482Z</time></trkpt><trkpt lat="42.5568047" lon="12.3236441"><ele>322.0</ele><time>2026-04-04T12:06:07.486Z</time></trkpt><trkpt lat="42.5569296" lon="12.3236489"><ele>322.0</ele><time>2026-04-04T12:06:08.474Z</time></trkpt><trkpt lat="42.557065" lon="12.3236506"><ele>322.0</ele><time>2026-04-04T12:06:09.485Z</time></trkpt><trkpt lat="42.5571999" lon="12.3236381"><ele>322.0</ele><time>2026-04-04T12:06:10.482Z</time></trkpt><trkpt lat="42.5573327" lon="12.3236133"><ele>321.25</ele><time>2026-04-04T12:06:11.48Z</time></trkpt><trkpt lat="42.5574685" lon="12.3235894"><ele>320.5</ele><time>2026-04-04T12:06:12.482Z</time></trkpt><trkpt lat="42.557609" lon="12.3235742"><ele>319.75</ele><time>2026-04-04T12:06:13.484Z</time></trkpt><trkpt lat="42.5577575" lon="12.323552"><ele>319.0</ele><time>2026-04-04T12:06:14.479Z</time></trkpt><trkpt lat="42.5579159" lon="12.3235268"><ele>317.0</ele><time>2026-04-04T12:06:15.479Z</time></trkpt><trkpt lat="42.5580829" lon="12.3235098"><ele>315.0</ele><time>2026-04-04T12:06:16.483Z</time></trkpt><trkpt lat="42.5582436" lon="12.3234925"><ele>313.0</ele><time>2026-04-04T12:06:17.479Z</time></trkpt><trkpt lat="42.5583888" lon="12.3234733"><ele>313.0</ele><time>2026-04-04T12:06:18.481Z</time></trkpt><trkpt lat="42.5585259" lon="12.3234489"><ele>313.0</ele><time>2026-04-04T12:06:19.483Z</time></trkpt><trkpt lat="42.5586519" lon="12.3234266"><ele>313.0</ele><time>2026-04-04T12:06:20.483Z</time></trkpt><trkpt lat="42.5587762" lon="12.3233986"><ele>313.0</ele><time>2026-04-04T12:06:21.466Z</time></trkpt><trkpt lat="42.5589119" lon="12.323352"><ele>312.3333333333333</ele><time>2026-04-04T12:06:22.481Z</time></trkpt><trkpt lat="42.5590472" lon="12.3232786"><ele>311.6666666666667</ele><time>2026-04-04T12:06:23.473Z</time></trkpt><trkpt lat="42.5591776" lon="12.3231782"><ele>311.0</ele><time>2026-04-04T12:06:24.485Z</time></trkpt><trkpt lat="42.5593061" lon="12.3230623"><ele>311.33333333333337</ele><time>2026-04-04T12:06:25.472Z</time></trkpt><trkpt lat="42.5594328" lon="12.3229424"><ele>311.6666666666667</ele><time>2026-04-04T12:06:26.48Z</time></trkpt><trkpt lat="42.5595585" lon="12.3228124"><ele>312.0</ele><time>2026-04-04T12:06:27.481Z</time></trkpt><trkpt lat="42.5596831" lon="12.3226824"><ele>312.0</ele><time>2026-04-04T12:06:28.479Z</time></trkpt><trkpt lat="42.5598016" lon="12.3225666"><ele>312.0</ele><time>2026-04-04T12:06:29.481Z</time></trkpt><trkpt lat="42.5599118" lon="12.3224582"><ele>312.0</ele><time>2026-04-04T12:06:30.48Z</time></trkpt><trkpt lat="42.5600291" lon="12.3223623"><ele>312.0</ele><time>2026-04-04T12:06:31.479Z</time></trkpt><trkpt lat="42.5601603" lon="12.3222765"><ele>310.25</ele><time>2026-04-04T12:06:32.485Z</time></trkpt><trkpt lat="42.5602994" lon="12.322197"><ele>308.5</ele><time>2026-04-04T12:06:33.485Z</time></trkpt><trkpt lat="42.5604357" lon="12.322127"><ele>306.75</ele><time>2026-04-04T12:06:34.479Z</time></trkpt><trkpt lat="42.5605618" lon="12.3220624"><ele>305.0</ele><time>2026-04-04T12:06:35.482Z</time></trkpt><trkpt lat="42.5606861" lon="12.3219992"><ele>305.0</ele><time>2026-04-04T12:06:36.482Z</time></trkpt><trkpt lat="42.5608107" lon="12.3219262"><ele>305.0</ele><time>2026-04-04T12:06:37.472Z</time></trkpt><trkpt lat="42.5609306" lon="12.3218618"><ele>305.0</ele><time>2026-04-04T12:06:38.477Z</time></trkpt><trkpt lat="42.5610404" lon="12.3217987"><ele>305.0</ele><time>2026-04-04T12:06:39.468Z</time></trkpt><trkpt lat="42.5611443" lon="12.3217434"><ele>305.6666666666667</ele><time>2026-04-04T12:06:40.481Z</time></trkpt><trkpt lat="42.5612364" lon="12.3216851"><ele>306.33333333333337</ele><time>2026-04-04T12:06:41.48Z</time></trkpt><trkpt lat="42.5613194" lon="12.3216338"><ele>307.0</ele><time>2026-04-04T12:06:42.483Z</time></trkpt><trkpt lat="42.561391" lon="12.3215863"><ele>307.6666666666667</ele><time>2026-04-04T12:06:43.483Z</time></trkpt><trkpt lat="42.561454" lon="12.3215206"><ele>308.3333333333333</ele><time>2026-04-04T12:06:44.473Z</time></trkpt><trkpt lat="42.5615101" lon="12.3214267"><ele>309.0</ele><time>2026-04-04T12:06:45.463Z</time></trkpt><trkpt lat="42.5615638" lon="12.3213264"><ele>309.0</ele><time>2026-04-04T12:06:46.467Z</time></trkpt><trkpt lat="42.5616145" lon="12.3212413"><ele>309.0</ele><time>2026-04-04T12:06:47.485Z</time></trkpt><trkpt lat="42.5616677" lon="12.3211647"><ele>309.0</ele><time>2026-04-04T12:06:48.477Z</time></trkpt><trkpt lat="42.5617132" lon="12.3210932"><ele>309.0</ele><time>2026-04-04T12:06:49.484Z</time></trkpt><trkpt lat="42.5617533" lon="12.3210212"><ele>309.0</ele><time>2026-04-04T12:06:50.476Z</time></trkpt><trkpt lat="42.5618202" lon="12.3208714"><ele>309.0</ele><time>2026-04-04T12:06:52.481Z</time></trkpt><trkpt lat="42.5618591" lon="12.3207694"><ele>309.0</ele><time>2026-04-04T12:06:53.485Z</time></trkpt><trkpt lat="42.561901" lon="12.3206525"><ele>309.0</ele><time>2026-04-04T12:06:54.455Z</time></trkpt><trkpt lat="42.5619402" lon="12.3205284"><ele>309.0</ele><time>2026-04-04T12:06:55.467Z</time></trkpt><trkpt lat="42.5619772" lon="12.3203938"><ele>309.0</ele><time>2026-04-04T12:06:56.478Z</time></trkpt><trkpt lat="42.5620178" lon="12.3202553"><ele>309.0</ele><time>2026-04-04T12:06:57.48Z</time></trkpt><trkpt lat="42.5620593" lon="12.3201132"><ele>310.75</ele><time>2026-04-04T12:06:58.48Z</time></trkpt><trkpt lat="42.5621036" lon="12.3199708"><ele>312.5</ele><time>2026-04-04T12:06:59.471Z</time></trkpt><trkpt lat="42.5621494" lon="12.3198241"><ele>314.25</ele><time>2026-04-04T12:07:00.476Z</time></trkpt><trkpt lat="42.5621962" lon="12.3196762"><ele>316.0</ele><time>2026-04-04T12:07:01.479Z</time></trkpt><trkpt lat="42.5622461" lon="12.3195259"><ele>316.0</ele><time>2026-04-04T12:07:02.482Z</time></trkpt><trkpt lat="42.562297" lon="12.3193795"><ele>316.0</ele><time>2026-04-04T12:07:03.473Z</time></trkpt><trkpt lat="42.5623425" lon="12.3192357"><ele>316.0</ele><time>2026-04-04T12:07:04.48Z</time></trkpt><trkpt lat="42.562384" lon="12.3191022"><ele>316.0</ele><time>2026-04-04T12:07:05.483Z</time></trkpt><trkpt lat="42.5624257" lon="12.3189755"><ele>316.0</ele><time>2026-04-04T12:07:06.479Z</time></trkpt><trkpt lat="42.5624734" lon="12.3188393"><ele>316.5</ele><time>2026-04-04T12:07:07.48Z</time></trkpt><trkpt lat="42.56253" lon="12.3186896"><ele>317.0</ele><time>2026-04-04T12:07:08.484Z</time></trkpt><trkpt lat="42.5625895" lon="12.3185285"><ele>317.5</ele><time>2026-04-04T12:07:09.483Z</time></trkpt><trkpt lat="42.5626501" lon="12.3183641"><ele>318.0</ele><time>2026-04-04T12:07:10.482Z</time></trkpt><trkpt lat="42.5627065" lon="12.3181926"><ele>319.0</ele><time>2026-04-04T12:07:11.482Z</time></trkpt><trkpt lat="42.5627455" lon="12.3180084"><ele>320.0</ele><time>2026-04-04T12:07:12.476Z</time></trkpt><trkpt lat="42.562763" lon="12.3178017"><ele>321.0</ele><time>2026-04-04T12:07:13.478Z</time></trkpt><trkpt lat="42.5627669" lon="12.317581"><ele>321.0</ele><time>2026-04-04T12:07:14.486Z</time></trkpt><trkpt lat="42.5627741" lon="12.3173805"><ele>321.0</ele><time>2026-04-04T12:07:15.473Z</time></trkpt><trkpt lat="42.562783" lon="12.3172086"><ele>321.0</ele><time>2026-04-04T12:07:16.474Z</time></trkpt><trkpt lat="42.5627946" lon="12.3170571"><ele>321.0</ele><time>2026-04-04T12:07:17.482Z</time></trkpt><trkpt lat="42.5628065" lon="12.3169265"><ele>321.0</ele><time>2026-04-04T12:07:18.485Z</time></trkpt><trkpt lat="42.562823" lon="12.3168175"><ele>321.0</ele><time>2026-04-04T12:07:19.482Z</time></trkpt><trkpt lat="42.5628347" lon="12.3167132"><ele>321.0</ele><time>2026-04-04T12:07:20.478Z</time></trkpt><trkpt lat="42.562834" lon="12.3166004"><ele>321.0</ele><time>2026-04-04T12:07:21.472Z</time></trkpt><trkpt lat="42.5628364" lon="12.3164745"><ele>321.0</ele><time>2026-04-04T12:07:22.484Z</time></trkpt><trkpt lat="42.5628265" lon="12.3163223"><ele>321.0</ele><time>2026-04-04T12:07:23.483Z</time></trkpt><trkpt lat="42.562807" lon="12.3161713"><ele>320.6</ele><time>2026-04-04T12:07:24.473Z</time></trkpt><trkpt lat="42.5627911" lon="12.3160345"><ele>320.20000000000005</ele><time>2026-04-04T12:07:25.484Z</time></trkpt><trkpt lat="42.5627872" lon="12.3159003"><ele>319.79999999999995</ele><time>2026-04-04T12:07:26.474Z</time></trkpt><trkpt lat="42.5627997" lon="12.3157475"><ele>319.4</ele><time>2026-04-04T12:07:27.475Z</time></trkpt><trkpt lat="42.5628185" lon="12.315582"><ele>319.0</ele><time>2026-04-04T12:07:28.479Z</time></trkpt><trkpt lat="42.5628355" lon="12.3154192"><ele>322.0</ele><time>2026-04-04T12:07:30.279Z</time></trkpt><trkpt lat="42.5628678" lon="12.3151179"><ele>325.0</ele><time>2026-04-04T12:07:31.466Z</time></trkpt><trkpt lat="42.5628912" lon="12.3149695"><ele>328.0</ele><time>2026-04-04T12:07:32.478Z</time></trkpt><trkpt lat="42.5629177" lon="12.3148141"><ele>327.75</ele><time>2026-04-04T12:07:33.46Z</time></trkpt><trkpt lat="42.5629593" lon="12.3146563"><ele>327.5</ele><time>2026-04-04T12:07:34.464Z</time></trkpt><trkpt lat="42.5630348" lon="12.3145052"><ele>327.25</ele><time>2026-04-04T12:07:35.472Z</time></trkpt><trkpt lat="42.5631285" lon="12.314366"><ele>327.0</ele><time>2026-04-04T12:07:36.474Z</time></trkpt><trkpt lat="42.5632082" lon="12.3142377"><ele>327.0</ele><time>2026-04-04T12:07:37.464Z</time></trkpt><trkpt lat="42.5632563" lon="12.3141184"><ele>327.0</ele><time>2026-04-04T12:07:38.469Z</time></trkpt><trkpt lat="42.5632703" lon="12.314"><ele>327.0</ele><time>2026-04-04T12:07:39.487Z</time></trkpt><trkpt lat="42.563253" lon="12.3138758"><ele>327.0</ele><time>2026-04-04T12:07:40.472Z</time></trkpt><trkpt lat="42.5632023" lon="12.3137597"><ele>327.0</ele><time>2026-04-04T12:07:41.473Z</time></trkpt><trkpt lat="42.5631244" lon="12.3136566"><ele>326.0</ele><time>2026-04-04T12:07:42.467Z</time></trkpt><trkpt lat="42.5630212" lon="12.3135539"><ele>325.0</ele><time>2026-04-04T12:07:43.471Z</time></trkpt><trkpt lat="42.5629045" lon="12.3134395"><ele>324.0</ele><time>2026-04-04T12:07:44.476Z</time></trkpt><trkpt lat="42.5627963" lon="12.313316"><ele>323.0</ele><time>2026-04-04T12:07:45.468Z</time></trkpt><trkpt lat="42.5626946" lon="12.3131948"><ele>323.0</ele><time>2026-04-04T12:07:46.464Z</time></trkpt><trkpt lat="42.5625933" lon="12.313079"><ele>323.0</ele><time>2026-04-04T12:07:47.468Z</time></trkpt><trkpt lat="42.5624993" lon="12.3129683"><ele>323.0</ele><time>2026-04-04T12:07:48.464Z</time></trkpt><trkpt lat="42.5624014" lon="12.312853"><ele>323.0</ele><time>2026-04-04T12:07:49.462Z</time></trkpt><trkpt lat="42.5623057" lon="12.3127381"><ele>322.0</ele><time>2026-04-04T12:07:50.482Z</time></trkpt><trkpt lat="42.5622093" lon="12.3126304"><ele>321.0</ele><time>2026-04-04T12:07:51.468Z</time></trkpt><trkpt lat="42.5621178" lon="12.3125278"><ele>320.0</ele><time>2026-04-04T12:07:52.481Z</time></trkpt><trkpt lat="42.5620329" lon="12.3124301"><ele>319.0</ele><time>2026-04-04T12:07:53.479Z</time></trkpt><trkpt lat="42.5619463" lon="12.3123307"><ele>320.0</ele><time>2026-04-04T12:07:54.482Z</time></trkpt><trkpt lat="42.5618541" lon="12.3122261"><ele>321.0</ele><time>2026-04-04T12:07:55.482Z</time></trkpt><trkpt lat="42.5617585" lon="12.3121108"><ele>322.0</ele><time>2026-04-04T12:07:56.473Z</time></trkpt><trkpt lat="42.5616529" lon="12.3119736"><ele>323.0</ele><time>2026-04-04T12:07:57.481Z</time></trkpt><trkpt lat="42.5615468" lon="12.3118161"><ele>323.0</ele><time>2026-04-04T12:07:58.474Z</time></trkpt><trkpt lat="42.5614371" lon="12.3116496"><ele>323.0</ele><time>2026-04-04T12:07:59.478Z</time></trkpt><trkpt lat="42.5613395" lon="12.3114882"><ele>323.0</ele><time>2026-04-04T12:08:00.47Z</time></trkpt><trkpt lat="42.5612445" lon="12.3113315"><ele>322.0</ele><time>2026-04-04T12:08:01.477Z</time></trkpt><trkpt lat="42.5611388" lon="12.3111945"><ele>321.0</ele><time>2026-04-04T12:08:02.482Z</time></trkpt><trkpt lat="42.561021" lon="12.3110705"><ele>320.0</ele><time>2026-04-04T12:08:03.471Z</time></trkpt><trkpt lat="42.5608975" lon="12.3109363"><ele>320.0</ele><time>2026-04-04T12:08:04.48Z</time></trkpt><trkpt lat="42.560779" lon="12.3108035"><ele>320.0</ele><time>2026-04-04T12:08:05.463Z</time></trkpt><trkpt lat="42.5606712" lon="12.3106853"><ele>320.0</ele><time>2026-04-04T12:08:06.484Z</time></trkpt><trkpt lat="42.5605845" lon="12.3105723"><ele>320.0</ele><time>2026-04-04T12:08:07.469Z</time></trkpt><trkpt lat="42.5605026" lon="12.3104589"><ele>319.0</ele><time>2026-04-04T12:08:08.478Z</time></trkpt><trkpt lat="42.5604192" lon="12.3103395"><ele>318.0</ele><time>2026-04-04T12:08:09.483Z</time></trkpt><trkpt lat="42.5603326" lon="12.3102314"><ele>317.0</ele><time>2026-04-04T12:08:10.472Z</time></trkpt><trkpt lat="42.5602454" lon="12.3101354"><ele>316.0</ele><time>2026-04-04T12:08:11.465Z</time></trkpt><trkpt lat="42.5601629" lon="12.3100419"><ele>316.0</ele><time>2026-04-04T12:08:12.464Z</time></trkpt><trkpt lat="42.5600929" lon="12.3099403"><ele>316.0</ele><time>2026-04-04T12:08:13.472Z</time></trkpt><trkpt lat="42.5600329" lon="12.3098258"><ele>316.0</ele><time>2026-04-04T12:08:14.454Z</time></trkpt><trkpt lat="42.5599763" lon="12.3097005"><ele>316.0</ele><time>2026-04-04T12:08:15.463Z</time></trkpt><trkpt lat="42.559921" lon="12.3095672"><ele>316.0</ele><time>2026-04-04T12:08:16.478Z</time></trkpt><trkpt lat="42.5598672" lon="12.3094442"><ele>315.0</ele><time>2026-04-04T12:08:17.475Z</time></trkpt><trkpt lat="42.5598122" lon="12.3093204"><ele>314.0</ele><time>2026-04-04T12:08:18.48Z</time></trkpt><trkpt lat="42.5597585" lon="12.3091949"><ele>313.0</ele><time>2026-04-04T12:08:19.457Z</time></trkpt><trkpt lat="42.5597076" lon="12.3090746"><ele>312.0</ele><time>2026-04-04T12:08:20.478Z</time></trkpt><trkpt lat="42.559668" lon="12.3089576"><ele>311.0</ele><time>2026-04-04T12:08:21.482Z</time></trkpt><trkpt lat="42.5596324" lon="12.3088394"><ele>309.0</ele><time>2026-04-04T12:08:22.474Z</time></trkpt><trkpt lat="42.5596077" lon="12.308726"><ele>307.0</ele><time>2026-04-04T12:08:23.484Z</time></trkpt><trkpt lat="42.5596011" lon="12.3086162"><ele>305.0</ele><time>2026-04-04T12:08:24.471Z</time></trkpt><trkpt lat="42.5596182" lon="12.3085122"><ele>303.0</ele><time>2026-04-04T12:08:25.481Z</time></trkpt><trkpt lat="42.5596521" lon="12.3084164"><ele>301.0</ele><time>2026-04-04T12:08:26.471Z</time></trkpt><trkpt lat="42.5597112" lon="12.3083263"><ele>299.0</ele><time>2026-04-04T12:08:27.476Z</time></trkpt><trkpt lat="42.5597915" lon="12.3082465"><ele>299.0</ele><time>2026-04-04T12:08:28.47Z</time></trkpt><trkpt lat="42.5598829" lon="12.3081688"><ele>299.0</ele><time>2026-04-04T12:08:29.478Z</time></trkpt><trkpt lat="42.5599821" lon="12.308093"><ele>299.0</ele><time>2026-04-04T12:08:30.47Z</time></trkpt><trkpt lat="42.5600984" lon="12.3080253"><ele>299.0</ele><time>2026-04-04T12:08:31.472Z</time></trkpt><trkpt lat="42.5602274" lon="12.3079633"><ele>295.25</ele><time>2026-04-04T12:08:32.466Z</time></trkpt><trkpt lat="42.5603579" lon="12.3079067"><ele>291.5</ele><time>2026-04-04T12:08:33.478Z</time></trkpt><trkpt lat="42.5604776" lon="12.3078588"><ele>287.75</ele><time>2026-04-04T12:08:34.459Z</time></trkpt><trkpt lat="42.5605906" lon="12.3078099"><ele>284.0</ele><time>2026-04-04T12:08:35.475Z</time></trkpt><trkpt lat="42.5606989" lon="12.3077587"><ele>284.0</ele><time>2026-04-04T12:08:36.475Z</time></trkpt><trkpt lat="42.5608075" lon="12.3076985"><ele>284.0</ele><time>2026-04-04T12:08:37.462Z</time></trkpt><trkpt lat="42.5609143" lon="12.307627"><ele>284.0</ele><time>2026-04-04T12:08:38.457Z</time></trkpt><trkpt lat="42.5610208" lon="12.3075444"><ele>284.0</ele><time>2026-04-04T12:08:39.479Z</time></trkpt><trkpt lat="42.5611213" lon="12.3074407"><ele>283.0</ele><time>2026-04-04T12:08:40.466Z</time></trkpt><trkpt lat="42.5612071" lon="12.3073234"><ele>282.0</ele><time>2026-04-04T12:08:41.475Z</time></trkpt><trkpt lat="42.5612825" lon="12.307204"><ele>281.0</ele><time>2026-04-04T12:08:42.468Z</time></trkpt><trkpt lat="42.5613508" lon="12.3070781"><ele>280.0</ele><time>2026-04-04T12:08:43.458Z</time></trkpt><trkpt lat="42.5614082" lon="12.3069411"><ele>280.0</ele><time>2026-04-04T12:08:44.475Z</time></trkpt><trkpt lat="42.5614581" lon="12.30679"><ele>280.0</ele><time>2026-04-04T12:08:45.474Z</time></trkpt><trkpt lat="42.5615093" lon="12.3066329"><ele>280.0</ele><time>2026-04-04T12:08:46.47Z</time></trkpt><trkpt lat="42.5615567" lon="12.3064784"><ele>280.0</ele><time>2026-04-04T12:08:47.47Z</time></trkpt><trkpt lat="42.5616026" lon="12.3063332"><ele>276.8</ele><time>2026-04-04T12:08:48.474Z</time></trkpt><trkpt lat="42.5616451" lon="12.3061861"><ele>273.6</ele><time>2026-04-04T12:08:49.465Z</time></trkpt><trkpt lat="42.5616918" lon="12.3060515"><ele>270.4</ele><time>2026-04-04T12:08:50.47Z</time></trkpt><trkpt lat="42.5617468" lon="12.305918"><ele>267.2</ele><time>2026-04-04T12:08:51.48Z</time></trkpt><trkpt lat="42.5618088" lon="12.3057932"><ele>264.0</ele><time>2026-04-04T12:08:52.474Z</time></trkpt><trkpt lat="42.5618719" lon="12.3056776"><ele>265.2</ele><time>2026-04-04T12:08:53.463Z</time></trkpt><trkpt lat="42.5619331" lon="12.3055644"><ele>266.4</ele><time>2026-04-04T12:08:54.451Z</time></trkpt><trkpt lat="42.5619898" lon="12.3054502"><ele>267.6</ele><time>2026-04-04T12:08:55.463Z</time></trkpt><trkpt lat="42.5620452" lon="12.3053328"><ele>268.8</ele><time>2026-04-04T12:08:56.468Z</time></trkpt><trkpt lat="42.5620897" lon="12.305219"><ele>270.0</ele><time>2026-04-04T12:08:57.472Z</time></trkpt><trkpt lat="42.5621196" lon="12.3051145"><ele>270.0</ele><time>2026-04-04T12:08:58.471Z</time></trkpt><trkpt lat="42.562142" lon="12.3050141"><ele>270.0</ele><time>2026-04-04T12:08:59.467Z</time></trkpt><trkpt lat="42.5621626" lon="12.3049082"><ele>270.0</ele><time>2026-04-04T12:09:00.466Z</time></trkpt><trkpt lat="42.5621807" lon="12.3048153"><ele>270.0</ele><time>2026-04-04T12:09:01.473Z</time></trkpt><trkpt lat="42.5621393" lon="12.3046422"><ele>270.0</ele><time>2026-04-04T12:09:03.477Z</time></trkpt><trkpt lat="42.56207" lon="12.3045436"><ele>263.5</ele><time>2026-04-04T12:09:04.476Z</time></trkpt><trkpt lat="42.5620014" lon="12.3044282"><ele>257.0</ele><time>2026-04-04T12:09:05.474Z</time></trkpt><trkpt lat="42.5619277" lon="12.3042936"><ele>250.5</ele><time>2026-04-04T12:09:06.482Z</time></trkpt><trkpt lat="42.5618508" lon="12.3041504"><ele>244.0</ele><time>2026-04-04T12:09:07.479Z</time></trkpt><trkpt lat="42.5617709" lon="12.3040083"><ele>243.25</ele><time>2026-04-04T12:09:08.463Z</time></trkpt><trkpt lat="42.561699" lon="12.3038578"><ele>242.5</ele><time>2026-04-04T12:09:09.483Z</time></trkpt><trkpt lat="42.5616295" lon="12.3037188"><ele>241.75</ele><time>2026-04-04T12:09:10.476Z</time></trkpt><trkpt lat="42.5615706" lon="12.3035953"><ele>241.0</ele><time>2026-04-04T12:09:11.474Z</time></trkpt><trkpt lat="42.5615293" lon="12.3034877"><ele>240.99999999999997</ele><time>2026-04-04T12:09:12.478Z</time></trkpt><trkpt lat="42.5615037" lon="12.3033917"><ele>241.0</ele><time>2026-04-04T12:09:13.471Z</time></trkpt><trkpt lat="42.5615003" lon="12.3032916"><ele>241.0</ele><time>2026-04-04T12:09:14.481Z</time></trkpt><trkpt lat="42.5615198" lon="12.3031829"><ele>241.0</ele><time>2026-04-04T12:09:15.47Z</time></trkpt><trkpt lat="42.5615404" lon="12.3030947"><ele>240.99999999999997</ele><time>2026-04-04T12:09:16.469Z</time></trkpt><trkpt lat="42.5614783" lon="12.3029738"><ele>241.0</ele><time>2026-04-04T12:09:18.475Z</time></trkpt><trkpt lat="42.5613901" lon="12.3029358"><ele>239.20000000000002</ele><time>2026-04-04T12:09:19.47Z</time></trkpt><trkpt lat="42.5612866" lon="12.3028995"><ele>237.40000000000003</ele><time>2026-04-04T12:09:20.469Z</time></trkpt><trkpt lat="42.5611999" lon="12.3028695"><ele>235.6</ele><time>2026-04-04T12:09:21.481Z</time></trkpt><trkpt lat="42.5611313" lon="12.3028609"><ele>233.8</ele><time>2026-04-04T12:09:22.476Z</time></trkpt><trkpt lat="42.561029" lon="12.3029516"><ele>232.0</ele><time>2026-04-04T12:09:24.468Z</time></trkpt><trkpt lat="42.5609746" lon="12.3030343"><ele>230.2</ele><time>2026-04-04T12:09:25.464Z</time></trkpt><trkpt lat="42.5609223" lon="12.3031199"><ele>228.39999999999998</ele><time>2026-04-04T12:09:26.466Z</time></trkpt><trkpt lat="42.5608707" lon="12.3031808"><ele>226.60000000000002</ele><time>2026-04-04T12:09:27.47Z</time></trkpt><trkpt lat="42.5607686" lon="12.3032347"><ele>224.8</ele><time>2026-04-04T12:09:29.464Z</time></trkpt><trkpt lat="42.5606545" lon="12.3031712"><ele>223.0</ele><time>2026-04-04T12:09:31.483Z</time></trkpt><trkpt lat="42.5605927" lon="12.3031024"><ele>222.57142857142856</ele><time>2026-04-04T12:09:32.448Z</time></trkpt><trkpt lat="42.5605337" lon="12.3030306"><ele>222.14285714285714</ele><time>2026-04-04T12:09:33.479Z</time></trkpt><trkpt lat="42.5604807" lon="12.302963"><ele>221.71428571428572</ele><time>2026-04-04T12:09:34.476Z</time></trkpt><trkpt lat="42.5604271" lon="12.3028992"><ele>221.28571428571428</ele><time>2026-04-04T12:09:35.477Z</time></trkpt><trkpt lat="42.5603687" lon="12.3028371"><ele>220.85714285714286</ele><time>2026-04-04T12:09:36.473Z</time></trkpt><trkpt lat="42.5603092" lon="12.3027812"><ele>220.42857142857142</ele><time>2026-04-04T12:09:37.474Z</time></trkpt><trkpt lat="42.5602481" lon="12.3027297"><ele>220.0</ele><time>2026-04-04T12:09:38.478Z</time></trkpt><trkpt lat="42.5601835" lon="12.3026768"><ele>216.85714285714283</ele><time>2026-04-04T12:09:39.476Z</time></trkpt><trkpt lat="42.5601207" lon="12.3026182"><ele>213.71428571428572</ele><time>2026-04-04T12:09:40.478Z</time></trkpt><trkpt lat="42.5600565" lon="12.3025532"><ele>210.57142857142856</ele><time>2026-04-04T12:09:41.478Z</time></trkpt><trkpt lat="42.559994" lon="12.3024886"><ele>207.42857142857142</ele><time>2026-04-04T12:09:42.478Z</time></trkpt><trkpt lat="42.5599342" lon="12.3024268"><ele>204.28571428571428</ele><time>2026-04-04T12:09:43.469Z</time></trkpt><trkpt lat="42.5598787" lon="12.3023666"><ele>201.14285714285714</ele><time>2026-04-04T12:09:44.478Z</time></trkpt><trkpt lat="42.5598309" lon="12.3023085"><ele>198.0</ele><time>2026-04-04T12:09:45.479Z</time></trkpt><trkpt lat="42.5597325" lon="12.3022044"><ele>196.0</ele><time>2026-04-04T12:09:47.473Z</time></trkpt><trkpt lat="42.5596724" lon="12.3021418"><ele>194.0</ele><time>2026-04-04T12:09:49.28Z</time></trkpt><trkpt lat="42.5595361" lon="12.301992"><ele>192.0</ele><time>2026-04-04T12:09:50.468Z</time></trkpt><trkpt lat="42.5594612" lon="12.3019051"><ele>190.0</ele><time>2026-04-04T12:09:51.463Z</time></trkpt><trkpt lat="42.5593854" lon="12.3018114"><ele>187.25</ele><time>2026-04-04T12:09:52.479Z</time></trkpt><trkpt lat="42.5593094" lon="12.3017179"><ele>184.5</ele><time>2026-04-04T12:09:53.476Z</time></trkpt><trkpt lat="42.5592275" lon="12.3016239"><ele>181.75</ele><time>2026-04-04T12:09:54.478Z</time></trkpt><trkpt lat="42.5591391" lon="12.3015217"><ele>179.0</ele><time>2026-04-04T12:09:55.463Z</time></trkpt><trkpt lat="42.5590377" lon="12.3014186"><ele>177.25</ele><time>2026-04-04T12:09:56.475Z</time></trkpt><trkpt lat="42.5589328" lon="12.3013201"><ele>175.5</ele><time>2026-04-04T12:09:57.473Z</time></trkpt><trkpt lat="42.5588276" lon="12.3012208"><ele>173.75</ele><time>2026-04-04T12:09:58.476Z</time></trkpt><trkpt lat="42.5587246" lon="12.3011182"><ele>172.0</ele><time>2026-04-04T12:09:59.464Z</time></trkpt><trkpt lat="42.5586143" lon="12.3010018"><ele>170.75</ele><time>2026-04-04T12:10:00.462Z</time></trkpt><trkpt lat="42.558498" lon="12.3008792"><ele>169.5</ele><time>2026-04-04T12:10:01.48Z</time></trkpt><trkpt lat="42.5583908" lon="12.3007647"><ele>168.25</ele><time>2026-04-04T12:10:02.479Z</time></trkpt><trkpt lat="42.5582976" lon="12.3006685"><ele>167.0</ele><time>2026-04-04T12:10:03.469Z</time></trkpt><trkpt lat="42.5582133" lon="12.3005823"><ele>167.0</ele><time>2026-04-04T12:10:04.475Z</time></trkpt><trkpt lat="42.558138" lon="12.3005193"><ele>167.0</ele><time>2026-04-04T12:10:05.47Z</time></trkpt><trkpt lat="42.5580792" lon="12.3004732"><ele>167.0</ele><time>2026-04-04T12:10:06.484Z</time></trkpt><trkpt lat="42.5579888" lon="12.3004427"><ele>167.0</ele><time>2026-04-04T12:10:08.478Z</time></trkpt><trkpt lat="42.5579128" lon="12.300455"><ele>167.0</ele><time>2026-04-04T12:10:10.478Z</time></trkpt><trkpt lat="42.5578061" lon="12.3005167"><ele>167.0</ele><time>2026-04-04T12:10:12.471Z</time></trkpt><trkpt lat="42.5577487" lon="12.3005522"><ele>166.2</ele><time>2026-04-04T12:10:13.465Z</time></trkpt><trkpt lat="42.557679" lon="12.3005631"><ele>165.39999999999998</ele><time>2026-04-04T12:10:14.466Z</time></trkpt><trkpt lat="42.5575809" lon="12.3005541"><ele>164.60000000000002</ele><time>2026-04-04T12:10:15.484Z</time></trkpt><trkpt lat="42.557478" lon="12.300549"><ele>163.8</ele><time>2026-04-04T12:10:16.479Z</time></trkpt><trkpt lat="42.5573822" lon="12.3005708"><ele>163.0</ele><time>2026-04-04T12:10:17.471Z</time></trkpt><trkpt lat="42.5572946" lon="12.3005971"><ele>162.8</ele><time>2026-04-04T12:10:18.476Z</time></trkpt><trkpt lat="42.5571983" lon="12.3006265"><ele>162.60000000000002</ele><time>2026-04-04T12:10:19.479Z</time></trkpt><trkpt lat="42.5570994" lon="12.300654"><ele>162.39999999999998</ele><time>2026-04-04T12:10:20.479Z</time></trkpt><trkpt lat="42.5569897" lon="12.3006623"><ele>162.2</ele><time>2026-04-04T12:10:21.478Z</time></trkpt><trkpt lat="42.5568714" lon="12.3006608"><ele>162.0</ele><time>2026-04-04T12:10:22.486Z</time></trkpt><trkpt lat="42.5567587" lon="12.300667"><ele>161.6</ele><time>2026-04-04T12:10:23.478Z</time></trkpt><trkpt lat="42.5566738" lon="12.3006941"><ele>161.2</ele><time>2026-04-04T12:10:24.475Z</time></trkpt><trkpt lat="42.5565852" lon="12.3007648"><ele>160.8</ele><time>2026-04-04T12:10:26.481Z</time></trkpt><trkpt lat="42.5565119" lon="12.3008521"><ele>160.4</ele><time>2026-04-04T12:10:28.48Z</time></trkpt><trkpt lat="42.5564362" lon="12.3009619"><ele>160.0</ele><time>2026-04-04T12:10:30.474Z</time></trkpt><trkpt lat="42.556396" lon="12.3010285"><ele>160.0</ele><time>2026-04-04T12:10:31.467Z</time></trkpt><trkpt lat="42.556349" lon="12.3011062"><ele>160.0</ele><time>2026-04-04T12:10:32.482Z</time></trkpt><trkpt lat="42.5563075" lon="12.3011915"><ele>160.0</ele><time>2026-04-04T12:10:33.469Z</time></trkpt><trkpt lat="42.5562681" lon="12.3012741"><ele>160.0</ele><time>2026-04-04T12:10:34.469Z</time></trkpt><trkpt lat="42.5562301" lon="12.3013646"><ele>160.0</ele><time>2026-04-04T12:10:35.475Z</time></trkpt><trkpt lat="42.5561842" lon="12.3014505"><ele>160.0</ele><time>2026-04-04T12:10:36.482Z</time></trkpt><trkpt lat="42.5561343" lon="12.3015326"><ele>161.8</ele><time>2026-04-04T12:10:37.47Z</time></trkpt><trkpt lat="42.5560683" lon="12.3015986"><ele>163.6</ele><time>2026-04-04T12:10:38.481Z</time></trkpt><trkpt lat="42.5559829" lon="12.3016438"><ele>165.39999999999998</ele><time>2026-04-04T12:10:39.48Z</time></trkpt><trkpt lat="42.5558743" lon="12.3016727"><ele>167.2</ele><time>2026-04-04T12:10:40.482Z</time></trkpt><trkpt lat="42.5557498" lon="12.3016873"><ele>169.0</ele><time>2026-04-04T12:10:41.483Z</time></trkpt><trkpt lat="42.5556191" lon="12.301684"><ele>169.0</ele><time>2026-04-04T12:10:42.477Z</time></trkpt><trkpt lat="42.5554852" lon="12.3016745"><ele>169.0</ele><time>2026-04-04T12:10:43.478Z</time></trkpt><trkpt lat="42.5553602" lon="12.3016672"><ele>169.0</ele><time>2026-04-04T12:10:44.475Z</time></trkpt><trkpt lat="42.5552407" lon="12.3016715"><ele>169.0</ele><time>2026-04-04T12:10:45.48Z</time></trkpt><trkpt lat="42.5551431" lon="12.3016968"><ele>170.39999999999998</ele><time>2026-04-04T12:10:46.479Z</time></trkpt><trkpt lat="42.5550726" lon="12.301747"><ele>171.8</ele><time>2026-04-04T12:10:47.474Z</time></trkpt><trkpt lat="42.5550256" lon="12.3018376"><ele>173.2</ele><time>2026-04-04T12:10:48.475Z</time></trkpt><trkpt lat="42.554997" lon="12.301953"><ele>174.60000000000002</ele><time>2026-04-04T12:10:49.473Z</time></trkpt><trkpt lat="42.5549957" lon="12.3020941"><ele>176.0</ele><time>2026-04-04T12:10:50.468Z</time></trkpt><trkpt lat="42.5550074" lon="12.3022655"><ele>176.75</ele><time>2026-04-04T12:10:51.476Z</time></trkpt><trkpt lat="42.555019" lon="12.302453"><ele>177.5</ele><time>2026-04-04T12:10:52.45Z</time></trkpt><trkpt lat="42.5550285" lon="12.3026427"><ele>178.25</ele><time>2026-04-04T12:10:53.465Z</time></trkpt><trkpt lat="42.5550385" lon="12.3028151"><ele>179.0</ele><time>2026-04-04T12:10:54.454Z</time></trkpt><trkpt lat="42.5550481" lon="12.3029431"><ele>179.0</ele><time>2026-04-04T12:10:55.47Z</time></trkpt><trkpt lat="42.5550288" lon="12.3030475"><ele>179.0</ele><time>2026-04-04T12:10:56.475Z</time></trkpt><trkpt lat="42.5549819" lon="12.3031479"><ele>179.0</ele><time>2026-04-04T12:10:57.471Z</time></trkpt><trkpt lat="42.5549265" lon="12.3032391"><ele>179.0</ele><time>2026-04-04T12:10:58.472Z</time></trkpt><trkpt lat="42.5548827" lon="12.3033233"><ele>179.0</ele><time>2026-04-04T12:10:59.462Z</time></trkpt><trkpt lat="42.5548411" lon="12.3034032"><ele>179.0</ele><time>2026-04-04T12:11:00.474Z</time></trkpt><trkpt lat="42.5547989" lon="12.3034689"><ele>179.5</ele><time>2026-04-04T12:11:01.462Z</time></trkpt><trkpt lat="42.5546922" lon="12.3035304"><ele>180.0</ele><time>2026-04-04T12:11:03.47Z</time></trkpt><trkpt lat="42.5546267" lon="12.3035554"><ele>180.5</ele><time>2026-04-04T12:11:04.462Z</time></trkpt><trkpt lat="42.5545607" lon="12.3035917"><ele>181.0</ele><time>2026-04-04T12:11:05.473Z</time></trkpt><trkpt lat="42.554494" lon="12.3036471"><ele>181.5</ele><time>2026-04-04T12:11:06.477Z</time></trkpt><trkpt lat="42.5544213" lon="12.3037319"><ele>182.0</ele><time>2026-04-04T12:11:07.47Z</time></trkpt><trkpt lat="42.5543537" lon="12.3038305"><ele>179.8</ele><time>2026-04-04T12:11:08.474Z</time></trkpt><trkpt lat="42.5542952" lon="12.3039287"><ele>177.6</ele><time>2026-04-04T12:11:09.465Z</time></trkpt><trkpt lat="42.5542369" lon="12.3040261"><ele>175.4</ele><time>2026-04-04T12:11:10.482Z</time></trkpt><trkpt lat="42.5541822" lon="12.3041246"><ele>173.20000000000002</ele><time>2026-04-04T12:11:11.47Z</time></trkpt><trkpt lat="42.5541244" lon="12.3042331"><ele>171.0</ele><time>2026-04-04T12:11:12.481Z</time></trkpt><trkpt lat="42.5540571" lon="12.3043319"><ele>171.0</ele><time>2026-04-04T12:11:13.468Z</time></trkpt><trkpt lat="42.5539949" lon="12.3044233"><ele>171.0</ele><time>2026-04-04T12:11:14.478Z</time></trkpt><trkpt lat="42.5539379" lon="12.3044977"><ele>171.0</ele><time>2026-04-04T12:11:15.466Z</time></trkpt><trkpt lat="42.5538903" lon="12.304557"><ele>171.0</ele><time>2026-04-04T12:11:16.471Z</time></trkpt><trkpt lat="42.5538418" lon="12.304618"><ele>171.0</ele><time>2026-04-04T12:11:17.476Z</time></trkpt><trkpt lat="42.5537912" lon="12.3046996"><ele>171.0</ele><time>2026-04-04T12:11:18.474Z</time></trkpt><trkpt lat="42.5537495" lon="12.3048131"><ele>170.83333333333334</ele><time>2026-04-04T12:11:19.463Z</time></trkpt><trkpt lat="42.5537142" lon="12.3049292"><ele>170.66666666666666</ele><time>2026-04-04T12:11:20.48Z</time></trkpt><trkpt lat="42.553685" lon="12.305031"><ele>170.5</ele><time>2026-04-04T12:11:21.457Z</time></trkpt><trkpt lat="42.5536617" lon="12.3051262"><ele>170.33333333333331</ele><time>2026-04-04T12:11:22.462Z</time></trkpt><trkpt lat="42.5536443" lon="12.3052258"><ele>170.16666666666666</ele><time>2026-04-04T12:11:23.48Z</time></trkpt><trkpt lat="42.5536162" lon="12.3053625"><ele>170.0</ele><time>2026-04-04T12:11:25.471Z</time></trkpt><trkpt lat="42.5535476" lon="12.3054011"><ele>170.0</ele><time>2026-04-04T12:11:28.472Z</time></trkpt><trkpt lat="42.5534525" lon="12.3053687"><ele>170.0</ele><time>2026-04-04T12:11:31.478Z</time></trkpt><trkpt lat="42.553353" lon="12.3053125"><ele>170.0</ele><time>2026-04-04T12:11:33.473Z</time></trkpt><trkpt lat="42.5532692" lon="12.3051871"><ele>170.0</ele><time>2026-04-04T12:11:35.472Z</time></trkpt><trkpt lat="42.5532469" lon="12.3050913"><ele>170.0</ele><time>2026-04-04T12:11:36.474Z</time></trkpt><trkpt lat="42.5532149" lon="12.3049975"><ele>170.0</ele><time>2026-04-04T12:11:37.47Z</time></trkpt><trkpt lat="42.5531647" lon="12.3049109"><ele>170.0</ele><time>2026-04-04T12:11:38.476Z</time></trkpt><trkpt lat="42.5531109" lon="12.304822"><ele>170.0</ele><time>2026-04-04T12:11:39.475Z</time></trkpt><trkpt lat="42.5530553" lon="12.3047312"><ele>170.0</ele><time>2026-04-04T12:11:40.463Z</time></trkpt><trkpt lat="42.5529847" lon="12.3046533"><ele>170.0</ele><time>2026-04-04T12:11:41.471Z</time></trkpt><trkpt lat="42.5528851" lon="12.3045961"><ele>172.25</ele><time>2026-04-04T12:11:42.477Z</time></trkpt><trkpt lat="42.5527755" lon="12.30455"><ele>174.5</ele><time>2026-04-04T12:11:43.461Z</time></trkpt><trkpt lat="42.5526621" lon="12.3045054"><ele>176.75</ele><time>2026-04-04T12:11:44.474Z</time></trkpt><trkpt lat="42.5525466" lon="12.3044694"><ele>179.0</ele><time>2026-04-04T12:11:45.474Z</time></trkpt><trkpt lat="42.5524223" lon="12.3044186"><ele>179.0</ele><time>2026-04-04T12:11:46.474Z</time></trkpt><trkpt lat="42.5522828" lon="12.30435"><ele>179.0</ele><time>2026-04-04T12:11:47.473Z</time></trkpt><trkpt lat="42.5521379" lon="12.3042765"><ele>179.0</ele><time>2026-04-04T12:11:48.473Z</time></trkpt><trkpt lat="42.5520098" lon="12.3042095"><ele>179.0</ele><time>2026-04-04T12:11:49.466Z</time></trkpt><trkpt lat="42.5519099" lon="12.3041754"><ele>181.25</ele><time>2026-04-04T12:11:50.467Z</time></trkpt><trkpt lat="42.5518194" lon="12.3041716"><ele>183.5</ele><time>2026-04-04T12:11:51.471Z</time></trkpt><trkpt lat="42.5517125" lon="12.3042012"><ele>185.75</ele><time>2026-04-04T12:11:52.471Z</time></trkpt><trkpt lat="42.5515924" lon="12.3042666"><ele>188.0</ele><time>2026-04-04T12:11:53.459Z</time></trkpt><trkpt lat="42.5514545" lon="12.3043273"><ele>188.0</ele><time>2026-04-04T12:11:54.477Z</time></trkpt><trkpt lat="42.5513108" lon="12.3043853"><ele>188.0</ele><time>2026-04-04T12:11:55.471Z</time></trkpt><trkpt lat="42.5511694" lon="12.3044396"><ele>188.0</ele><time>2026-04-04T12:11:56.476Z</time></trkpt><trkpt lat="42.5510316" lon="12.3044904"><ele>188.0</ele><time>2026-04-04T12:11:57.475Z</time></trkpt><trkpt lat="42.5509029" lon="12.3045332"><ele>188.75</ele><time>2026-04-04T12:11:58.467Z</time></trkpt><trkpt lat="42.5507962" lon="12.3045724"><ele>189.5</ele><time>2026-04-04T12:11:59.464Z</time></trkpt><trkpt lat="42.5506977" lon="12.3046129"><ele>190.25</ele><time>2026-04-04T12:12:00.471Z</time></trkpt><trkpt lat="42.5505944" lon="12.3046833"><ele>191.0</ele><time>2026-04-04T12:12:01.466Z</time></trkpt><trkpt lat="42.5504746" lon="12.3047824"><ele>194.75</ele><time>2026-04-04T12:12:02.468Z</time></trkpt><trkpt lat="42.5503554" lon="12.304908"><ele>198.5</ele><time>2026-04-04T12:12:03.458Z</time></trkpt><trkpt lat="42.5502523" lon="12.3050197"><ele>202.25</ele><time>2026-04-04T12:12:04.469Z</time></trkpt><trkpt lat="42.5501762" lon="12.3051369"><ele>206.0</ele><time>2026-04-04T12:12:05.463Z</time></trkpt><trkpt lat="42.5501163" lon="12.3052472"><ele>206.00000000000003</ele><time>2026-04-04T12:12:06.475Z</time></trkpt><trkpt lat="42.5500855" lon="12.3053581"><ele>206.0</ele><time>2026-04-04T12:12:07.461Z</time></trkpt><trkpt lat="42.5500736" lon="12.3054552"><ele>206.0</ele><time>2026-04-04T12:12:08.461Z</time></trkpt><trkpt lat="42.5500699" lon="12.3055571"><ele>206.0</ele><time>2026-04-04T12:12:10.467Z</time></trkpt><trkpt lat="42.5499836" lon="12.3055632"><ele>206.00000000000003</ele><time>2026-04-04T12:12:12.466Z</time></trkpt><trkpt lat="42.5498971" lon="12.3055193"><ele>206.0</ele><time>2026-04-04T12:12:15.337Z</time></trkpt><trkpt lat="42.5498139" lon="12.305457"><ele>206.00000000000003</ele><time>2026-04-04T12:12:16.468Z</time></trkpt><trkpt lat="42.5497537" lon="12.3053669"><ele>206.0</ele><time>2026-04-04T12:12:18.476Z</time></trkpt><trkpt lat="42.5496777" lon="12.3053036"><ele>206.0</ele><time>2026-04-04T12:12:21.475Z</time></trkpt><trkpt lat="42.5497533" lon="12.3053726"><ele>206.0</ele><time>2026-04-04T12:12:26.464Z</time></trkpt><trkpt lat="42.5497926" lon="12.305444"><ele>206.00000000000003</ele><time>2026-04-04T12:12:28.465Z</time></trkpt><trkpt lat="42.5498423" lon="12.3055008"><ele>206.0</ele><time>2026-04-04T12:13:22.48Z</time></trkpt><trkpt lat="42.5499213" lon="12.3055667"><ele>206.0</ele><time>2026-04-04T12:13:25.477Z</time></trkpt><trkpt lat="42.5500346" lon="12.3055752"><ele>206.0</ele><time>2026-04-04T12:13:27.474Z</time></trkpt><trkpt lat="42.5501455" lon="12.3055435"><ele>206.0</ele><time>2026-04-04T12:13:29.48Z</time></trkpt><trkpt lat="42.5502092" lon="12.3055217"><ele>206.0</ele><time>2026-04-04T12:13:30.474Z</time></trkpt><trkpt lat="42.5502809" lon="12.3054905"><ele>206.0</ele><time>2026-04-04T12:13:31.466Z</time></trkpt><trkpt lat="42.5503657" lon="12.3054587"><ele>206.16666666666669</ele><time>2026-04-04T12:13:32.474Z</time></trkpt><trkpt lat="42.5504612" lon="12.3054326"><ele>206.33333333333334</ele><time>2026-04-04T12:13:33.471Z</time></trkpt><trkpt lat="42.5505614" lon="12.3054071"><ele>206.5</ele><time>2026-04-04T12:13:34.475Z</time></trkpt><trkpt lat="42.5506589" lon="12.3053891"><ele>206.66666666666669</ele><time>2026-04-04T12:13:35.467Z</time></trkpt><trkpt lat="42.5507408" lon="12.3053868"><ele>206.83333333333334</ele><time>2026-04-04T12:13:36.468Z</time></trkpt><trkpt lat="42.5508083" lon="12.3054014"><ele>207.0</ele><time>2026-04-04T12:13:37.474Z</time></trkpt><trkpt lat="42.5509274" lon="12.3054507"><ele>207.0</ele><time>2026-04-04T12:13:39.454Z</time></trkpt><trkpt lat="42.551026" lon="12.3055273"><ele>207.0</ele><time>2026-04-04T12:13:41.477Z</time></trkpt><trkpt lat="42.5511049" lon="12.3056147"><ele>207.0</ele><time>2026-04-04T12:13:43.471Z</time></trkpt><trkpt lat="42.5511777" lon="12.3057098"><ele>207.0</ele><time>2026-04-04T12:13:45.469Z</time></trkpt><trkpt lat="42.5512424" lon="12.3058073"><ele>207.0</ele><time>2026-04-04T12:13:47.478Z</time></trkpt><trkpt lat="42.5512963" lon="12.3059061"><ele>208.6</ele><time>2026-04-04T12:13:49.478Z</time></trkpt><trkpt lat="42.5513489" lon="12.3060306"><ele>210.2</ele><time>2026-04-04T12:13:51.483Z</time></trkpt><trkpt lat="42.5513968" lon="12.3061439"><ele>211.8</ele><time>2026-04-04T12:13:53.476Z</time></trkpt><trkpt lat="42.5514369" lon="12.3062631"><ele>213.4</ele><time>2026-04-04T12:13:55.476Z</time></trkpt><trkpt lat="42.5514824" lon="12.306395"><ele>215.0</ele><time>2026-04-04T12:13:57.486Z</time></trkpt><trkpt lat="42.5515124" lon="12.3065523"><ele>217.66666666666669</ele><time>2026-04-04T12:13:59.465Z</time></trkpt><trkpt lat="42.5515159" lon="12.3066421"><ele>220.33333333333334</ele><time>2026-04-04T12:14:00.478Z</time></trkpt><trkpt lat="42.5515121" lon="12.3067367"><ele>223.0</ele><time>2026-04-04T12:14:01.461Z</time></trkpt><trkpt lat="42.5514976" lon="12.3068352"><ele>225.66666666666669</ele><time>2026-04-04T12:14:02.48Z</time></trkpt><trkpt lat="42.5514661" lon="12.3069318"><ele>228.33333333333334</ele><time>2026-04-04T12:14:03.481Z</time></trkpt><trkpt lat="42.5514242" lon="12.3070289"><ele>231.0</ele><time>2026-04-04T12:14:04.475Z</time></trkpt><trkpt lat="42.5513743" lon="12.3071248"><ele>231.0</ele><time>2026-04-04T12:14:05.47Z</time></trkpt><trkpt lat="42.5513243" lon="12.3072245"><ele>231.00000000000003</ele><time>2026-04-04T12:14:06.469Z</time></trkpt><trkpt lat="42.5512812" lon="12.3073422"><ele>231.00000000000003</ele><time>2026-04-04T12:14:07.474Z</time></trkpt><trkpt lat="42.5512466" lon="12.307475"><ele>231.0</ele><time>2026-04-04T12:14:08.455Z</time></trkpt><trkpt lat="42.5512172" lon="12.3076245"><ele>231.0</ele><time>2026-04-04T12:14:09.459Z</time></trkpt><trkpt lat="42.5511927" lon="12.307782"><ele>234.8</ele><time>2026-04-04T12:14:10.472Z</time></trkpt><trkpt lat="42.5511699" lon="12.307946"><ele>238.60000000000002</ele><time>2026-04-04T12:14:11.456Z</time></trkpt><trkpt lat="42.5511492" lon="12.3081066"><ele>242.4</ele><time>2026-04-04T12:14:12.458Z</time></trkpt><trkpt lat="42.5511208" lon="12.3082429"><ele>246.2</ele><time>2026-04-04T12:14:13.468Z</time></trkpt><trkpt lat="42.5510839" lon="12.3083597"><ele>250.0</ele><time>2026-04-04T12:14:14.452Z</time></trkpt><trkpt lat="42.5510344" lon="12.3084722"><ele>250.6</ele><time>2026-04-04T12:14:15.459Z</time></trkpt><trkpt lat="42.5509734" lon="12.308579"><ele>251.2</ele><time>2026-04-04T12:14:16.455Z</time></trkpt><trkpt lat="42.5509032" lon="12.3086891"><ele>251.8</ele><time>2026-04-04T12:14:17.479Z</time></trkpt><trkpt lat="42.5508205" lon="12.3087907"><ele>252.4</ele><time>2026-04-04T12:14:18.484Z</time></trkpt><trkpt lat="42.5507399" lon="12.3088971"><ele>253.0</ele><time>2026-04-04T12:14:19.471Z</time></trkpt><trkpt lat="42.5506568" lon="12.3090032"><ele>253.0</ele><time>2026-04-04T12:14:20.483Z</time></trkpt><trkpt lat="42.5505767" lon="12.3091051"><ele>253.0</ele><time>2026-04-04T12:14:21.459Z</time></trkpt><trkpt lat="42.5505038" lon="12.3092006"><ele>253.0</ele><time>2026-04-04T12:14:22.486Z</time></trkpt><trkpt lat="42.5504434" lon="12.3092792"><ele>253.0</ele><time>2026-04-04T12:14:23.481Z</time></trkpt><trkpt lat="42.5503979" lon="12.3093599"><ele>253.0</ele><time>2026-04-04T12:14:24.474Z</time></trkpt><trkpt lat="42.5503548" lon="12.3095405"><ele>252.0</ele><time>2026-04-04T12:14:26.471Z</time></trkpt><trkpt lat="42.550357" lon="12.3096908"><ele>251.0</ele><time>2026-04-04T12:14:27.479Z</time></trkpt><trkpt lat="42.550382" lon="12.3098668"><ele>250.0</ele><time>2026-04-04T12:14:28.471Z</time></trkpt><trkpt lat="42.5503977" lon="12.3100355"><ele>249.0</ele><time>2026-04-04T12:14:29.474Z</time></trkpt><trkpt lat="42.5503985" lon="12.3101875"><ele>249.0</ele><time>2026-04-04T12:14:30.481Z</time></trkpt><trkpt lat="42.5503862" lon="12.3103143"><ele>248.99999999999997</ele><time>2026-04-04T12:14:31.472Z</time></trkpt><trkpt lat="42.5503577" lon="12.310418"><ele>248.99999999999997</ele><time>2026-04-04T12:14:32.481Z</time></trkpt><trkpt lat="42.5503176" lon="12.3105103"><ele>249.0</ele><time>2026-04-04T12:14:33.477Z</time></trkpt><trkpt lat="42.5502545" lon="12.3105957"><ele>249.0</ele><time>2026-04-04T12:14:34.478Z</time></trkpt><trkpt lat="42.5501728" lon="12.3107"><ele>253.0</ele><time>2026-04-04T12:14:35.475Z</time></trkpt><trkpt lat="42.550088" lon="12.3108143"><ele>257.0</ele><time>2026-04-04T12:14:36.486Z</time></trkpt><trkpt lat="42.5500257" lon="12.3109299"><ele>261.0</ele><time>2026-04-04T12:14:37.473Z</time></trkpt><trkpt lat="42.5499897" lon="12.3110537"><ele>265.0</ele><time>2026-04-04T12:14:38.47Z</time></trkpt><trkpt lat="42.5499771" lon="12.3111674"><ele>269.0</ele><time>2026-04-04T12:14:39.468Z</time></trkpt><trkpt lat="42.5499761" lon="12.3112792"><ele>268.2857142857143</ele><time>2026-04-04T12:14:40.456Z</time></trkpt><trkpt lat="42.5499288" lon="12.3114138"><ele>267.5714285714286</ele><time>2026-04-04T12:14:42.473Z</time></trkpt><trkpt lat="42.5498759" lon="12.3114702"><ele>266.8571428571429</ele><time>2026-04-04T12:14:43.478Z</time></trkpt><trkpt lat="42.5498295" lon="12.3115285"><ele>266.14285714285717</ele><time>2026-04-04T12:14:44.479Z</time></trkpt><trkpt lat="42.5497858" lon="12.3116031"><ele>265.42857142857144</ele><time>2026-04-04T12:14:45.478Z</time></trkpt><trkpt lat="42.5497459" lon="12.3116794"><ele>264.7142857142857</ele><time>2026-04-04T12:14:46.454Z</time></trkpt><trkpt lat="42.5497021" lon="12.3117521"><ele>264.0</ele><time>2026-04-04T12:14:47.458Z</time></trkpt><trkpt lat="42.5496504" lon="12.3118462"><ele>264.0</ele><time>2026-04-04T12:14:48.47Z</time></trkpt><trkpt lat="42.5496005" lon="12.3119596"><ele>264.0</ele><time>2026-04-04T12:14:49.47Z</time></trkpt><trkpt lat="42.5495545" lon="12.3120739"><ele>264.0</ele><time>2026-04-04T12:14:50.48Z</time></trkpt><trkpt lat="42.5495182" lon="12.3121729"><ele>264.0</ele><time>2026-04-04T12:14:51.476Z</time></trkpt><trkpt lat="42.5494955" lon="12.3122562"><ele>264.0</ele><time>2026-04-04T12:14:52.469Z</time></trkpt><trkpt lat="42.549468" lon="12.3123633"><ele>264.0</ele><time>2026-04-04T12:14:54.465Z</time></trkpt><trkpt lat="42.5494489" lon="12.3124558"><ele>263.8</ele><time>2026-04-04T12:14:57.48Z</time></trkpt><trkpt lat="42.5494944" lon="12.3125879"><ele>263.59999999999997</ele><time>2026-04-04T12:14:59.466Z</time></trkpt><trkpt lat="42.5495422" lon="12.3126679"><ele>263.4</ele><time>2026-04-04T12:15:00.464Z</time></trkpt><trkpt lat="42.5496003" lon="12.312758"><ele>263.2</ele><time>2026-04-04T12:15:01.477Z</time></trkpt><trkpt lat="42.5496604" lon="12.3128511"><ele>263.0</ele><time>2026-04-04T12:15:02.466Z</time></trkpt><trkpt lat="42.5497209" lon="12.3129468"><ele>263.4</ele><time>2026-04-04T12:15:03.484Z</time></trkpt><trkpt lat="42.5497872" lon="12.3130517"><ele>263.8</ele><time>2026-04-04T12:15:04.471Z</time></trkpt><trkpt lat="42.5498564" lon="12.3131608"><ele>264.2</ele><time>2026-04-04T12:15:05.465Z</time></trkpt><trkpt lat="42.549922" lon="12.3132712"><ele>264.6</ele><time>2026-04-04T12:15:06.477Z</time></trkpt><trkpt lat="42.5499893" lon="12.3133856"><ele>265.0</ele><time>2026-04-04T12:15:07.48Z</time></trkpt><trkpt lat="42.5500649" lon="12.313501"><ele>265.25</ele><time>2026-04-04T12:15:08.47Z</time></trkpt><trkpt lat="42.5501441" lon="12.3136105"><ele>265.5</ele><time>2026-04-04T12:15:09.475Z</time></trkpt><trkpt lat="42.5502319" lon="12.3137072"><ele>265.75</ele><time>2026-04-04T12:15:10.475Z</time></trkpt><trkpt lat="42.5503255" lon="12.3137992"><ele>266.0</ele><time>2026-04-04T12:15:11.483Z</time></trkpt><trkpt lat="42.5504331" lon="12.3138879"><ele>268.25</ele><time>2026-04-04T12:15:12.478Z</time></trkpt><trkpt lat="42.5505483" lon="12.3139684"><ele>270.5</ele><time>2026-04-04T12:15:13.483Z</time></trkpt><trkpt lat="42.5506638" lon="12.3140466"><ele>272.75</ele><time>2026-04-04T12:15:14.48Z</time></trkpt><trkpt lat="42.5507821" lon="12.3141285"><ele>275.0</ele><time>2026-04-04T12:15:15.465Z</time></trkpt><trkpt lat="42.5508958" lon="12.314214"><ele>275.0</ele><time>2026-04-04T12:15:16.471Z</time></trkpt><trkpt lat="42.5510104" lon="12.3142984"><ele>275.0</ele><time>2026-04-04T12:15:17.481Z</time></trkpt><trkpt lat="42.5511276" lon="12.314381"><ele>275.0</ele><time>2026-04-04T12:15:18.483Z</time></trkpt><trkpt lat="42.5512479" lon="12.3144577"><ele>275.0</ele><time>2026-04-04T12:15:19.481Z</time></trkpt><trkpt lat="42.5513702" lon="12.3145349"><ele>277.0</ele><time>2026-04-04T12:15:20.478Z</time></trkpt><trkpt lat="42.5514908" lon="12.3146201"><ele>279.0</ele><time>2026-04-04T12:15:21.483Z</time></trkpt><trkpt lat="42.5516121" lon="12.3147039"><ele>281.0</ele><time>2026-04-04T12:15:22.487Z</time></trkpt><trkpt lat="42.5517357" lon="12.314786"><ele>283.0</ele><time>2026-04-04T12:15:23.478Z</time></trkpt><trkpt lat="42.5518559" lon="12.314868"><ele>283.0</ele><time>2026-04-04T12:15:24.477Z</time></trkpt><trkpt lat="42.5519714" lon="12.3149468"><ele>283.0</ele><time>2026-04-04T12:15:25.48Z</time></trkpt><trkpt lat="42.552079" lon="12.3150266"><ele>283.0</ele><time>2026-04-04T12:15:26.482Z</time></trkpt><trkpt lat="42.5521801" lon="12.3151131"><ele>283.0</ele><time>2026-04-04T12:15:27.479Z</time></trkpt><trkpt lat="42.5522693" lon="12.3152174"><ele>285.0</ele><time>2026-04-04T12:15:28.484Z</time></trkpt><trkpt lat="42.5523453" lon="12.3153435"><ele>287.0</ele><time>2026-04-04T12:15:29.486Z</time></trkpt><trkpt lat="42.5524036" lon="12.3154917"><ele>289.0</ele><time>2026-04-04T12:15:30.481Z</time></trkpt><trkpt lat="42.5524505" lon="12.3156486"><ele>291.0</ele><time>2026-04-04T12:15:31.467Z</time></trkpt><trkpt lat="42.5524868" lon="12.3158065"><ele>291.25</ele><time>2026-04-04T12:15:32.486Z</time></trkpt><trkpt lat="42.5525062" lon="12.3159692"><ele>291.5</ele><time>2026-04-04T12:15:33.475Z</time></trkpt><trkpt lat="42.5525133" lon="12.3161444"><ele>291.75</ele><time>2026-04-04T12:15:34.486Z</time></trkpt><trkpt lat="42.5525084" lon="12.3163221"><ele>292.0</ele><time>2026-04-04T12:15:35.484Z</time></trkpt><trkpt lat="42.552489" lon="12.3164965"><ele>293.0</ele><time>2026-04-04T12:15:36.457Z</time></trkpt><trkpt lat="42.5524625" lon="12.3166732"><ele>294.0</ele><time>2026-04-04T12:15:37.467Z</time></trkpt><trkpt lat="42.5524404" lon="12.3168551"><ele>295.0</ele><time>2026-04-04T12:15:38.482Z</time></trkpt><trkpt lat="42.5524197" lon="12.3170363"><ele>296.0</ele><time>2026-04-04T12:15:39.476Z</time></trkpt><trkpt lat="42.5523918" lon="12.317218"><ele>298.0</ele><time>2026-04-04T12:15:40.48Z</time></trkpt><trkpt lat="42.5523688" lon="12.3174054"><ele>300.0</ele><time>2026-04-04T12:15:41.48Z</time></trkpt><trkpt lat="42.5523406" lon="12.3175915"><ele>302.0</ele><time>2026-04-04T12:15:42.484Z</time></trkpt><trkpt lat="42.5523184" lon="12.31778"><ele>304.0</ele><time>2026-04-04T12:15:43.483Z</time></trkpt><trkpt lat="42.5522986" lon="12.3179653"><ele>304.75</ele><time>2026-04-04T12:15:44.485Z</time></trkpt><trkpt lat="42.5522929" lon="12.3181435"><ele>305.5</ele><time>2026-04-04T12:15:45.476Z</time></trkpt><trkpt lat="42.5523027" lon="12.318313"><ele>306.25</ele><time>2026-04-04T12:15:46.47Z</time></trkpt><trkpt lat="42.5523469" lon="12.3184699"><ele>307.0</ele><time>2026-04-04T12:15:47.486Z</time></trkpt><trkpt lat="42.5524327" lon="12.3186041"><ele>307.0</ele><time>2026-04-04T12:15:48.483Z</time></trkpt><trkpt lat="42.5525362" lon="12.3187256"><ele>307.0</ele><time>2026-04-04T12:15:49.463Z</time></trkpt><trkpt lat="42.5526461" lon="12.3188325"><ele>307.0</ele><time>2026-04-04T12:15:50.478Z</time></trkpt><trkpt lat="42.5527556" lon="12.3189427"><ele>307.0</ele><time>2026-04-04T12:15:51.482Z</time></trkpt><trkpt lat="42.5528526" lon="12.3190647"><ele>307.66666666666663</ele><time>2026-04-04T12:15:52.48Z</time></trkpt><trkpt lat="42.5529327" lon="12.3191939"><ele>308.3333333333333</ele><time>2026-04-04T12:15:53.475Z</time></trkpt><trkpt lat="42.5529952" lon="12.3193371"><ele>309.0</ele><time>2026-04-04T12:15:55.308Z</time></trkpt><trkpt lat="42.5530842" lon="12.3196631"><ele>310.25</ele><time>2026-04-04T12:15:56.478Z</time></trkpt><trkpt lat="42.55313" lon="12.3198408"><ele>311.5</ele><time>2026-04-04T12:15:57.47Z</time></trkpt><trkpt lat="42.5531759" lon="12.3200038"><ele>312.75</ele><time>2026-04-04T12:15:58.48Z</time></trkpt><trkpt lat="42.553228" lon="12.3201504"><ele>314.0</ele><time>2026-04-04T12:15:59.47Z</time></trkpt><trkpt lat="42.553297" lon="12.320298"><ele>314.0</ele><time>2026-04-04T12:16:00.481Z</time></trkpt><trkpt lat="42.5533794" lon="12.3204292"><ele>314.0</ele><time>2026-04-04T12:16:01.473Z</time></trkpt><trkpt lat="42.5534782" lon="12.3205494"><ele>314.0</ele><time>2026-04-04T12:16:02.466Z</time></trkpt><trkpt lat="42.5535714" lon="12.3206692"><ele>314.0</ele><time>2026-04-04T12:16:03.461Z</time></trkpt><trkpt lat="42.5536614" lon="12.3207942"><ele>311.33333333333337</ele><time>2026-04-04T12:16:04.477Z</time></trkpt><trkpt lat="42.5537346" lon="12.3209559"><ele>308.6666666666667</ele><time>2026-04-04T12:16:05.473Z</time></trkpt><trkpt lat="42.5537892" lon="12.3211536"><ele>306.0</ele><time>2026-04-04T12:16:06.47Z</time></trkpt><trkpt lat="42.5538401" lon="12.321361"><ele>309.25</ele><time>2026-04-04T12:16:07.472Z</time></trkpt><trkpt lat="42.5539009" lon="12.3215417"><ele>312.5</ele><time>2026-04-04T12:16:08.474Z</time></trkpt><trkpt lat="42.5539717" lon="12.3217065"><ele>315.75</ele><time>2026-04-04T12:16:09.471Z</time></trkpt><trkpt lat="42.554054" lon="12.3218598"><ele>319.0</ele><time>2026-04-04T12:16:10.478Z</time></trkpt><trkpt lat="42.5541521" lon="12.3220022"><ele>319.0</ele><time>2026-04-04T12:16:11.479Z</time></trkpt><trkpt lat="42.554262" lon="12.3221362"><ele>319.0</ele><time>2026-04-04T12:16:12.48Z</time></trkpt><trkpt lat="42.5543787" lon="12.3222718"><ele>319.0</ele><time>2026-04-04T12:16:13.469Z</time></trkpt><trkpt lat="42.5544969" lon="12.3224108"><ele>318.5</ele><time>2026-04-04T12:16:14.484Z</time></trkpt><trkpt lat="42.5546073" lon="12.3225417"><ele>318.0</ele><time>2026-04-04T12:16:15.478Z</time></trkpt><trkpt lat="42.55471" lon="12.3226668"><ele>317.5</ele><time>2026-04-04T12:16:16.481Z</time></trkpt><trkpt lat="42.5548124" lon="12.3227891"><ele>317.0</ele><time>2026-04-04T12:16:17.477Z</time></trkpt><trkpt lat="42.5549143" lon="12.3229138"><ele>317.0</ele><time>2026-04-04T12:16:18.485Z</time></trkpt><trkpt lat="42.5550182" lon="12.3230378"><ele>317.0</ele><time>2026-04-04T12:16:19.478Z</time></trkpt><trkpt lat="42.5551279" lon="12.3231651"><ele>317.0</ele><time>2026-04-04T12:16:20.479Z</time></trkpt><trkpt lat="42.5552308" lon="12.3232864"><ele>317.0</ele><time>2026-04-04T12:16:21.481Z</time></trkpt><trkpt lat="42.5553424" lon="12.3233961"><ele>318.5</ele><time>2026-04-04T12:16:22.481Z</time></trkpt><trkpt lat="42.5554597" lon="12.323494"><ele>320.0</ele><time>2026-04-04T12:16:23.473Z</time></trkpt><trkpt lat="42.555586" lon="12.3235692"><ele>321.5</ele><time>2026-04-04T12:16:24.482Z</time></trkpt><trkpt lat="42.5557291" lon="12.3236092"><ele>323.0</ele><time>2026-04-04T12:16:25.47Z</time></trkpt><trkpt lat="42.5558869" lon="12.3236178"><ele>323.0</ele><time>2026-04-04T12:16:26.477Z</time></trkpt><trkpt lat="42.5560455" lon="12.3236215"><ele>323.0</ele><time>2026-04-04T12:16:27.486Z</time></trkpt><trkpt lat="42.5562068" lon="12.323625"><ele>323.0</ele><time>2026-04-04T12:16:28.474Z</time></trkpt><trkpt lat="42.5563706" lon="12.3236305"><ele>322.6666666666667</ele><time>2026-04-04T12:16:29.48Z</time></trkpt><trkpt lat="42.5565392" lon="12.3236397"><ele>322.3333333333333</ele><time>2026-04-04T12:16:30.473Z</time></trkpt><trkpt lat="42.5567058" lon="12.3236515"><ele>322.0</ele><time>2026-04-04T12:16:31.486Z</time></trkpt><trkpt lat="42.5568683" lon="12.3236604"><ele>322.0</ele><time>2026-04-04T12:16:32.478Z</time></trkpt><trkpt lat="42.5570301" lon="12.3236514"><ele>322.0</ele><time>2026-04-04T12:16:33.48Z</time></trkpt><trkpt lat="42.5571962" lon="12.3236333"><ele>322.0</ele><time>2026-04-04T12:16:34.469Z</time></trkpt><trkpt lat="42.557363" lon="12.3236101"><ele>321.0</ele><time>2026-04-04T12:16:35.475Z</time></trkpt><trkpt lat="42.5575313" lon="12.323577"><ele>320.0</ele><time>2026-04-04T12:16:36.48Z</time></trkpt><trkpt lat="42.5576955" lon="12.3235498"><ele>319.0</ele><time>2026-04-04T12:16:37.481Z</time></trkpt><trkpt lat="42.5578532" lon="12.3235266"><ele>317.0</ele><time>2026-04-04T12:16:38.474Z</time></trkpt><trkpt lat="42.5580117" lon="12.3235042"><ele>315.0</ele><time>2026-04-04T12:16:39.475Z</time></trkpt><trkpt lat="42.5581732" lon="12.3234792"><ele>313.0</ele><time>2026-04-04T12:16:40.472Z</time></trkpt><trkpt lat="42.5583384" lon="12.3234544"><ele>313.0</ele><time>2026-04-04T12:16:41.477Z</time></trkpt><trkpt lat="42.5584968" lon="12.3234377"><ele>313.0</ele><time>2026-04-04T12:16:42.486Z</time></trkpt><trkpt lat="42.5586435" lon="12.3234194"><ele>313.0</ele><time>2026-04-04T12:16:43.472Z</time></trkpt><trkpt lat="42.5587903" lon="12.3233952"><ele>312.3333333333333</ele><time>2026-04-04T12:16:44.482Z</time></trkpt><trkpt lat="42.5589372" lon="12.3233457"><ele>311.6666666666667</ele><time>2026-04-04T12:16:45.469Z</time></trkpt><trkpt lat="42.559079" lon="12.3232683"><ele>311.0</ele><time>2026-04-04T12:16:46.483Z</time></trkpt><trkpt lat="42.5592173" lon="12.3231688"><ele>311.33333333333337</ele><time>2026-04-04T12:16:47.486Z</time></trkpt><trkpt lat="42.5593523" lon="12.3230447"><ele>311.6666666666667</ele><time>2026-04-04T12:16:48.482Z</time></trkpt><trkpt lat="42.5594808" lon="12.3229103"><ele>312.0</ele><time>2026-04-04T12:16:49.479Z</time></trkpt><trkpt lat="42.5595984" lon="12.3227892"><ele>312.0</ele><time>2026-04-04T12:16:50.467Z</time></trkpt><trkpt lat="42.5597128" lon="12.3226668"><ele>312.0</ele><time>2026-04-04T12:16:51.477Z</time></trkpt><trkpt lat="42.559827" lon="12.3225479"><ele>312.0</ele><time>2026-04-04T12:16:52.48Z</time></trkpt><trkpt lat="42.5599494" lon="12.3224315"><ele>312.0</ele><time>2026-04-04T12:16:53.484Z</time></trkpt><trkpt lat="42.5600783" lon="12.3223275"><ele>312.0</ele><time>2026-04-04T12:16:54.481Z</time></trkpt><trkpt lat="42.56022" lon="12.322239"><ele>312.0</ele><time>2026-04-04T12:16:55.481Z</time></trkpt><trkpt lat="42.5603634" lon="12.3221594"><ele>312.0</ele><time>2026-04-04T12:16:56.484Z</time></trkpt><trkpt lat="42.5605035" lon="12.3220812"><ele>310.25</ele><time>2026-04-04T12:16:57.477Z</time></trkpt><trkpt lat="42.5606368" lon="12.3220069"><ele>308.5</ele><time>2026-04-04T12:16:58.479Z</time></trkpt><trkpt lat="42.5607638" lon="12.3219366"><ele>306.75</ele><time>2026-04-04T12:16:59.478Z</time></trkpt><trkpt lat="42.5608863" lon="12.3218692"><ele>305.0</ele><time>2026-04-04T12:17:00.482Z</time></trkpt><trkpt lat="42.5609961" lon="12.3218111"><ele>305.0</ele><time>2026-04-04T12:17:01.473Z</time></trkpt><trkpt lat="42.5610952" lon="12.3217512"><ele>305.0</ele><time>2026-04-04T12:17:02.462Z</time></trkpt><trkpt lat="42.5611983" lon="12.3216894"><ele>305.0</ele><time>2026-04-04T12:17:03.469Z</time></trkpt><trkpt lat="42.5612887" lon="12.3216386"><ele>305.0</ele><time>2026-04-04T12:17:04.474Z</time></trkpt><trkpt lat="42.5613673" lon="12.321599"><ele>305.0</ele><time>2026-04-04T12:17:05.477Z</time></trkpt><trkpt lat="42.5614322" lon="12.3215775"><ele>305.8</ele><time>2026-04-04T12:17:06.483Z</time></trkpt><trkpt lat="42.5615058" lon="12.3214829"><ele>306.6</ele><time>2026-04-04T12:17:08.476Z</time></trkpt><trkpt lat="42.5615384" lon="12.3213746"><ele>307.4</ele><time>2026-04-04T12:17:09.475Z</time></trkpt><trkpt lat="42.5615956" lon="12.3212661"><ele>308.2</ele><time>2026-04-04T12:17:10.477Z</time></trkpt><trkpt lat="42.5616742" lon="12.3211391"><ele>309.0</ele><time>2026-04-04T12:17:11.472Z</time></trkpt><trkpt lat="42.5617524" lon="12.3210053"><ele>309.0</ele><time>2026-04-04T12:17:12.477Z</time></trkpt><trkpt lat="42.5618213" lon="12.3208414"><ele>309.0</ele><time>2026-04-04T12:17:13.469Z</time></trkpt><trkpt lat="42.5618822" lon="12.3206673"><ele>309.0</ele><time>2026-04-04T12:17:14.451Z</time></trkpt><trkpt lat="42.5619402" lon="12.3204903"><ele>309.0</ele><time>2026-04-04T12:17:15.47Z</time></trkpt><trkpt lat="42.561995" lon="12.3203113"><ele>310.75</ele><time>2026-04-04T12:17:16.468Z</time></trkpt><trkpt lat="42.5620502" lon="12.3201334"><ele>312.5</ele><time>2026-04-04T12:17:17.465Z</time></trkpt><trkpt lat="42.5621041" lon="12.3199548"><ele>314.25</ele><time>2026-04-04T12:17:18.469Z</time></trkpt><trkpt lat="42.5621585" lon="12.3197759"><ele>316.0</ele><time>2026-04-04T12:17:19.469Z</time></trkpt><trkpt lat="42.5622144" lon="12.3195945"><ele>316.0</ele><time>2026-04-04T12:17:20.47Z</time></trkpt><trkpt lat="42.5622725" lon="12.3194112"><ele>316.0</ele><time>2026-04-04T12:17:21.467Z</time></trkpt><trkpt lat="42.5623338" lon="12.3192281"><ele>316.0</ele><time>2026-04-04T12:17:22.473Z</time></trkpt><trkpt lat="42.5623925" lon="12.3190444"><ele>316.0</ele><time>2026-04-04T12:17:23.457Z</time></trkpt><trkpt lat="42.5624584" lon="12.3188579"><ele>316.5</ele><time>2026-04-04T12:17:24.479Z</time></trkpt><trkpt lat="42.5625309" lon="12.3186688"><ele>317.0</ele><time>2026-04-04T12:17:25.471Z</time></trkpt><trkpt lat="42.5626017" lon="12.3184876"><ele>317.5</ele><time>2026-04-04T12:17:26.47Z</time></trkpt><trkpt lat="42.562665" lon="12.3183182"><ele>318.0</ele><time>2026-04-04T12:17:27.471Z</time></trkpt><trkpt lat="42.5627177" lon="12.3181428"><ele>319.0</ele><time>2026-04-04T12:17:28.474Z</time></trkpt><trkpt lat="42.5627521" lon="12.3179536"><ele>320.0</ele><time>2026-04-04T12:17:29.478Z</time></trkpt><trkpt lat="42.5627659" lon="12.3177393"><ele>321.0</ele><time>2026-04-04T12:17:30.48Z</time></trkpt><trkpt lat="42.5627815" lon="12.3175177"><ele>321.0</ele><time>2026-04-04T12:17:31.477Z</time></trkpt><trkpt lat="42.5627949" lon="12.317294"><ele>321.0</ele><time>2026-04-04T12:17:32.479Z</time></trkpt><trkpt lat="42.5628071" lon="12.3170822"><ele>321.0</ele><time>2026-04-04T12:17:33.476Z</time></trkpt><trkpt lat="42.5628186" lon="12.3168858"><ele>321.0</ele><time>2026-04-04T12:17:34.468Z</time></trkpt><trkpt lat="42.5628346" lon="12.3167033"><ele>321.0</ele><time>2026-04-04T12:17:35.477Z</time></trkpt><trkpt lat="42.5628405" lon="12.3165347"><ele>321.0</ele><time>2026-04-04T12:17:36.479Z</time></trkpt><trkpt lat="42.5628318" lon="12.3163694"><ele>321.0</ele><time>2026-04-04T12:17:37.482Z</time></trkpt><trkpt lat="42.5628112" lon="12.3161992"><ele>320.6</ele><time>2026-04-04T12:17:38.483Z</time></trkpt><trkpt lat="42.5627964" lon="12.3160389"><ele>320.20000000000005</ele><time>2026-04-04T12:17:39.48Z</time></trkpt><trkpt lat="42.562787" lon="12.315883"><ele>319.79999999999995</ele><time>2026-04-04T12:17:40.473Z</time></trkpt><trkpt lat="42.5627998" lon="12.315743"><ele>319.4</ele><time>2026-04-04T12:17:41.474Z</time></trkpt><trkpt lat="42.562816" lon="12.3156116"><ele>319.0</ele><time>2026-04-04T12:17:42.482Z</time></trkpt><trkpt lat="42.5628288" lon="12.3154878"><ele>318.16666666666663</ele><time>2026-04-04T12:17:43.474Z</time></trkpt><trkpt lat="42.5628384" lon="12.3153653"><ele>317.3333333333333</ele><time>2026-04-04T12:17:44.483Z</time></trkpt><trkpt lat="42.5628494" lon="12.3152524"><ele>316.5</ele><time>2026-04-04T12:17:45.473Z</time></trkpt><trkpt lat="42.5628606" lon="12.3151442"><ele>315.6666666666667</ele><time>2026-04-04T12:17:46.48Z</time></trkpt><trkpt lat="42.5628735" lon="12.3150458"><ele>314.83333333333337</ele><time>2026-04-04T12:17:47.473Z</time></trkpt><trkpt lat="42.5628892" lon="12.3149541"><ele>314.0</ele><time>2026-04-04T12:17:48.484Z</time></trkpt><trkpt lat="42.5629026" lon="12.3148602"><ele>316.1666666666667</ele><time>2026-04-04T12:17:49.479Z</time></trkpt><trkpt lat="42.5629204" lon="12.3147762"><ele>318.33333333333337</ele><time>2026-04-04T12:17:50.48Z</time></trkpt><trkpt lat="42.5629389" lon="12.3146941"><ele>320.5</ele><time>2026-04-04T12:17:51.477Z</time></trkpt><trkpt lat="42.5630039" lon="12.3145523"><ele>322.6666666666667</ele><time>2026-04-04T12:17:53.469Z</time></trkpt><trkpt lat="42.5630464" lon="12.3144839"><ele>324.8333333333333</ele><time>2026-04-04T12:17:54.475Z</time></trkpt><trkpt lat="42.5631297" lon="12.3143614"><ele>327.0</ele><time>2026-04-04T12:17:56.455Z</time></trkpt><trkpt lat="42.5631716" lon="12.3142946"><ele>327.0</ele><time>2026-04-04T12:17:57.479Z</time></trkpt><trkpt lat="42.5632088" lon="12.3142231"><ele>327.0</ele><time>2026-04-04T12:17:58.462Z</time></trkpt><trkpt lat="42.5632694" lon="12.3140966"><ele>327.0</ele><time>2026-04-04T12:18:00.449Z</time></trkpt><trkpt lat="42.5632992" lon="12.3139803"><ele>327.0</ele><time>2026-04-04T12:18:02.476Z</time></trkpt><trkpt lat="42.5632789" lon="12.3138655"><ele>327.0</ele><time>2026-04-04T12:18:04.476Z</time></trkpt><trkpt lat="42.5632106" lon="12.3137454"><ele>326.20000000000005</ele><time>2026-04-04T12:18:06.478Z</time></trkpt><trkpt lat="42.5631474" lon="12.3136682"><ele>325.4</ele><time>2026-04-04T12:18:07.466Z</time></trkpt><trkpt lat="42.5630609" lon="12.3135783"><ele>324.6</ele><time>2026-04-04T12:18:08.475Z</time></trkpt><trkpt lat="42.562964" lon="12.3134775"><ele>323.79999999999995</ele><time>2026-04-04T12:18:09.464Z</time></trkpt><trkpt lat="42.5628628" lon="12.3133686"><ele>323.0</ele><time>2026-04-04T12:18:10.475Z</time></trkpt><trkpt lat="42.5627608" lon="12.3132526"><ele>323.0</ele><time>2026-04-04T12:18:11.461Z</time></trkpt><trkpt lat="42.5626536" lon="12.3131254"><ele>323.0</ele><time>2026-04-04T12:18:12.477Z</time></trkpt><trkpt lat="42.5625402" lon="12.3129907"><ele>323.0</ele><time>2026-04-04T12:18:13.463Z</time></trkpt><trkpt lat="42.5624218" lon="12.3128554"><ele>323.0</ele><time>2026-04-04T12:18:14.478Z</time></trkpt><trkpt lat="42.5623114" lon="12.3127323"><ele>322.0</ele><time>2026-04-04T12:18:15.468Z</time></trkpt><trkpt lat="42.562212" lon="12.3126164"><ele>321.0</ele><time>2026-04-04T12:18:16.47Z</time></trkpt><trkpt lat="42.562112" lon="12.3125022"><ele>320.0</ele><time>2026-04-04T12:18:17.462Z</time></trkpt><trkpt lat="42.5620153" lon="12.3123906"><ele>319.0</ele><time>2026-04-04T12:18:18.469Z</time></trkpt><trkpt lat="42.5619198" lon="12.3122819"><ele>320.0</ele><time>2026-04-04T12:18:19.464Z</time></trkpt><trkpt lat="42.5618153" lon="12.3121636"><ele>321.0</ele><time>2026-04-04T12:18:20.469Z</time></trkpt><trkpt lat="42.5617136" lon="12.3120345"><ele>322.0</ele><time>2026-04-04T12:18:21.465Z</time></trkpt><trkpt lat="42.5616142" lon="12.311887"><ele>323.0</ele><time>2026-04-04T12:18:22.465Z</time></trkpt><trkpt lat="42.5615134" lon="12.3117424"><ele>323.0</ele><time>2026-04-04T12:18:23.464Z</time></trkpt><trkpt lat="42.5614224" lon="12.3115986"><ele>323.0</ele><time>2026-04-04T12:18:24.477Z</time></trkpt><trkpt lat="42.5613453" lon="12.3114623"><ele>323.0</ele><time>2026-04-04T12:18:25.473Z</time></trkpt><trkpt lat="42.5612637" lon="12.3113329"><ele>323.0</ele><time>2026-04-04T12:18:26.478Z</time></trkpt><trkpt lat="42.5611712" lon="12.311211"><ele>322.25</ele><time>2026-04-04T12:18:27.451Z</time></trkpt><trkpt lat="42.5610714" lon="12.311101"><ele>321.5</ele><time>2026-04-04T12:18:28.468Z</time></trkpt><trkpt lat="42.5609622" lon="12.3109845"><ele>320.75</ele><time>2026-04-04T12:18:29.477Z</time></trkpt><trkpt lat="42.5608482" lon="12.3108609"><ele>320.0</ele><time>2026-04-04T12:18:30.48Z</time></trkpt><trkpt lat="42.5607382" lon="12.310723"><ele>320.0</ele><time>2026-04-04T12:18:31.477Z</time></trkpt><trkpt lat="42.560641" lon="12.3106016"><ele>320.0</ele><time>2026-04-04T12:18:32.472Z</time></trkpt><trkpt lat="42.560549" lon="12.3104764"><ele>320.0</ele><time>2026-04-04T12:18:33.478Z</time></trkpt><trkpt lat="42.560459" lon="12.3103523"><ele>320.0</ele><time>2026-04-04T12:18:34.475Z</time></trkpt><trkpt lat="42.5603584" lon="12.310233"><ele>319.0</ele><time>2026-04-04T12:18:35.479Z</time></trkpt><trkpt lat="42.5602578" lon="12.3101284"><ele>318.0</ele><time>2026-04-04T12:18:36.481Z</time></trkpt><trkpt lat="42.5601675" lon="12.3100209"><ele>317.0</ele><time>2026-04-04T12:18:37.471Z</time></trkpt><trkpt lat="42.5600932" lon="12.3098995"><ele>316.0</ele><time>2026-04-04T12:18:38.472Z</time></trkpt><trkpt lat="42.5600264" lon="12.3097704"><ele>314.75</ele><time>2026-04-04T12:18:39.474Z</time></trkpt><trkpt lat="42.5599669" lon="12.3096296"><ele>313.5</ele><time>2026-04-04T12:18:40.473Z</time></trkpt><trkpt lat="42.5599049" lon="12.3094939"><ele>312.25</ele><time>2026-04-04T12:18:41.47Z</time></trkpt><trkpt lat="42.5598404" lon="12.3093561"><ele>311.0</ele><time>2026-04-04T12:18:42.479Z</time></trkpt><trkpt lat="42.5597816" lon="12.309215"><ele>311.0</ele><time>2026-04-04T12:18:43.485Z</time></trkpt><trkpt lat="42.559732" lon="12.3090784"><ele>311.0</ele><time>2026-04-04T12:18:44.476Z</time></trkpt><trkpt lat="42.559685" lon="12.3089468"><ele>311.0</ele><time>2026-04-04T12:18:45.483Z</time></trkpt><trkpt lat="42.5596439" lon="12.3088197"><ele>311.0</ele><time>2026-04-04T12:18:46.471Z</time></trkpt><trkpt lat="42.5596145" lon="12.3086973"><ele>311.0</ele><time>2026-04-04T12:18:47.477Z</time></trkpt><trkpt lat="42.5596131" lon="12.308583"><ele>308.6</ele><time>2026-04-04T12:18:48.477Z</time></trkpt><trkpt lat="42.5596304" lon="12.3084739"><ele>306.20000000000005</ele><time>2026-04-04T12:18:49.471Z</time></trkpt><trkpt lat="42.5596725" lon="12.3083753"><ele>303.79999999999995</ele><time>2026-04-04T12:18:50.478Z</time></trkpt><trkpt lat="42.5597414" lon="12.3082893"><ele>301.4</ele><time>2026-04-04T12:18:51.469Z</time></trkpt><trkpt lat="42.5598357" lon="12.3081973"><ele>299.0</ele><time>2026-04-04T12:18:52.471Z</time></trkpt><trkpt lat="42.5599438" lon="12.3081107"><ele>295.25</ele><time>2026-04-04T12:18:53.467Z</time></trkpt><trkpt lat="42.5600771" lon="12.308037"><ele>291.5</ele><time>2026-04-04T12:18:54.477Z</time></trkpt><trkpt lat="42.560217" lon="12.3079644"><ele>287.75</ele><time>2026-04-04T12:18:55.478Z</time></trkpt><trkpt lat="42.5603548" lon="12.3079007"><ele>284.0</ele><time>2026-04-04T12:18:56.455Z</time></trkpt><trkpt lat="42.5604807" lon="12.307844"><ele>284.0</ele><time>2026-04-04T12:18:57.453Z</time></trkpt><trkpt lat="42.5606016" lon="12.3077953"><ele>284.0</ele><time>2026-04-04T12:18:58.465Z</time></trkpt><trkpt lat="42.5607237" lon="12.3077473"><ele>284.0</ele><time>2026-04-04T12:18:59.466Z</time></trkpt><trkpt lat="42.5608388" lon="12.3076869"><ele>284.0</ele><time>2026-04-04T12:19:00.47Z</time></trkpt><trkpt lat="42.5609536" lon="12.3076075"><ele>284.0</ele><time>2026-04-04T12:19:01.45Z</time></trkpt><trkpt lat="42.5610696" lon="12.3074998"><ele>284.0</ele><time>2026-04-04T12:19:02.472Z</time></trkpt><trkpt lat="42.5611653" lon="12.3073799"><ele>284.0</ele><time>2026-04-04T12:19:03.464Z</time></trkpt><trkpt lat="42.5612494" lon="12.3072459"><ele>284.0</ele><time>2026-04-04T12:19:04.461Z</time></trkpt><trkpt lat="42.5613261" lon="12.3071001"><ele>283.0</ele><time>2026-04-04T12:19:05.462Z</time></trkpt><trkpt lat="42.5613984" lon="12.3069405"><ele>282.0</ele><time>2026-04-04T12:19:06.479Z</time></trkpt><trkpt lat="42.561467" lon="12.306766"><ele>281.0</ele><time>2026-04-04T12:19:07.459Z</time></trkpt><trkpt lat="42.5615297" lon="12.306588"><ele>280.0</ele><time>2026-04-04T12:19:08.472Z</time></trkpt><trkpt lat="42.5615831" lon="12.3064096"><ele>276.0</ele><time>2026-04-04T12:19:09.473Z</time></trkpt><trkpt lat="42.5616378" lon="12.3062414"><ele>272.0</ele><time>2026-04-04T12:19:10.471Z</time></trkpt><trkpt lat="42.5616939" lon="12.3060776"><ele>268.0</ele><time>2026-04-04T12:19:11.472Z</time></trkpt><trkpt lat="42.5617604" lon="12.305912"><ele>264.0</ele><time>2026-04-04T12:19:12.467Z</time></trkpt><trkpt lat="42.5618391" lon="12.3057496"><ele>264.0</ele><time>2026-04-04T12:19:13.478Z</time></trkpt><trkpt lat="42.5619226" lon="12.3055863"><ele>264.0</ele><time>2026-04-04T12:19:14.468Z</time></trkpt><trkpt lat="42.5620066" lon="12.305414"><ele>264.0</ele><time>2026-04-04T12:19:15.468Z</time></trkpt><trkpt lat="42.5620851" lon="12.3052439"><ele>264.0</ele><time>2026-04-04T12:19:16.455Z</time></trkpt><trkpt lat="42.5621569" lon="12.3050774"><ele>265.5</ele><time>2026-04-04T12:19:17.467Z</time></trkpt><trkpt lat="42.5622211" lon="12.3049292"><ele>267.0</ele><time>2026-04-04T12:19:18.478Z</time></trkpt><trkpt lat="42.5622764" lon="12.3047945"><ele>268.5</ele><time>2026-04-04T12:19:19.472Z</time></trkpt><trkpt lat="42.562329" lon="12.3046707"><ele>270.0</ele><time>2026-04-04T12:19:21.289Z</time></trkpt><trkpt lat="42.5624546" lon="12.3044496"><ele>268.5</ele><time>2026-04-04T12:19:22.462Z</time></trkpt><trkpt lat="42.5625395" lon="12.3043473"><ele>267.0</ele><time>2026-04-04T12:19:23.479Z</time></trkpt><trkpt lat="42.5626442" lon="12.3042563"><ele>265.5</ele><time>2026-04-04T12:19:24.478Z</time></trkpt><trkpt lat="42.56277" lon="12.3041744"><ele>264.0</ele><time>2026-04-04T12:19:25.467Z</time></trkpt><trkpt lat="42.5629022" lon="12.3040915"><ele>264.0</ele><time>2026-04-04T12:19:26.481Z</time></trkpt><trkpt lat="42.5630369" lon="12.3040002"><ele>264.0</ele><time>2026-04-04T12:19:27.478Z</time></trkpt><trkpt lat="42.5631687" lon="12.303916"><ele>264.0</ele><time>2026-04-04T12:19:28.479Z</time></trkpt><trkpt lat="42.563288" lon="12.3038362"><ele>264.0</ele><time>2026-04-04T12:19:29.477Z</time></trkpt><trkpt lat="42.5633983" lon="12.3037553"><ele>260.75</ele><time>2026-04-04T12:19:30.459Z</time></trkpt><trkpt lat="42.5635003" lon="12.3036785"><ele>257.5</ele><time>2026-04-04T12:19:31.475Z</time></trkpt><trkpt lat="42.5636045" lon="12.3036119"><ele>254.25</ele><time>2026-04-04T12:19:32.469Z</time></trkpt><trkpt lat="42.5637164" lon="12.3035422"><ele>251.0</ele><time>2026-04-04T12:19:33.449Z</time></trkpt><trkpt lat="42.5638376" lon="12.303464"><ele>251.0</ele><time>2026-04-04T12:19:34.461Z</time></trkpt><trkpt lat="42.5639568" lon="12.3033871"><ele>251.0</ele><time>2026-04-04T12:19:35.476Z</time></trkpt><trkpt lat="42.5640698" lon="12.3033089"><ele>251.0</ele><time>2026-04-04T12:19:36.471Z</time></trkpt><trkpt lat="42.5641802" lon="12.3032405"><ele>251.0</ele><time>2026-04-04T12:19:37.479Z</time></trkpt><trkpt lat="42.5642886" lon="12.3031825"><ele>251.0</ele><time>2026-04-04T12:19:38.458Z</time></trkpt><trkpt lat="42.5644026" lon="12.3031232"><ele>251.0</ele><time>2026-04-04T12:19:39.455Z</time></trkpt><trkpt lat="42.5645219" lon="12.3030688"><ele>251.0</ele><time>2026-04-04T12:19:40.463Z</time></trkpt><trkpt lat="42.564651" lon="12.3030124"><ele>251.0</ele><time>2026-04-04T12:19:41.458Z</time></trkpt><trkpt lat="42.5647779" lon="12.302962"><ele>249.25</ele><time>2026-04-04T12:19:42.457Z</time></trkpt><trkpt lat="42.56489" lon="12.3029118"><ele>247.5</ele><time>2026-04-04T12:19:43.454Z</time></trkpt><trkpt lat="42.5649892" lon="12.3028483"><ele>245.75</ele><time>2026-04-04T12:19:44.461Z</time></trkpt><trkpt lat="42.5650811" lon="12.3027729"><ele>244.0</ele><time>2026-04-04T12:19:45.455Z</time></trkpt><trkpt lat="42.5651615" lon="12.3026467"><ele>244.0</ele><time>2026-04-04T12:19:46.452Z</time></trkpt><trkpt lat="42.5652273" lon="12.3024875"><ele>244.0</ele><time>2026-04-04T12:19:47.467Z</time></trkpt><trkpt lat="42.5652955" lon="12.3023027"><ele>244.0</ele><time>2026-04-04T12:19:48.474Z</time></trkpt><trkpt lat="42.565368" lon="12.3021041"><ele>248.66666666666666</ele><time>2026-04-04T12:19:49.472Z</time></trkpt><trkpt lat="42.5654459" lon="12.3018942"><ele>253.33333333333331</ele><time>2026-04-04T12:19:50.466Z</time></trkpt><trkpt lat="42.565524" lon="12.3016922"><ele>258.0</ele><time>2026-04-04T12:19:51.479Z</time></trkpt><trkpt lat="42.5656047" lon="12.3015116"><ele>256.5</ele><time>2026-04-04T12:19:52.455Z</time></trkpt><trkpt lat="42.5656948" lon="12.3013492"><ele>255.0</ele><time>2026-04-04T12:19:53.463Z</time></trkpt><trkpt lat="42.5657808" lon="12.3011913"><ele>253.5</ele><time>2026-04-04T12:19:54.482Z</time></trkpt><trkpt lat="42.5658504" lon="12.3010425"><ele>252.0</ele><time>2026-04-04T12:19:55.481Z</time></trkpt><trkpt lat="42.5658877" lon="12.3009101"><ele>252.0</ele><time>2026-04-04T12:19:56.469Z</time></trkpt><trkpt lat="42.5658967" lon="12.3007642"><ele>252.0</ele><time>2026-04-04T12:19:57.469Z</time></trkpt><trkpt lat="42.5658799" lon="12.3006017"><ele>252.0</ele><time>2026-04-04T12:19:58.474Z</time></trkpt><trkpt lat="42.5658548" lon="12.3004224"><ele>252.0</ele><time>2026-04-04T12:19:59.469Z</time></trkpt><trkpt lat="42.565829" lon="12.3002515"><ele>252.0</ele><time>2026-04-04T12:20:00.476Z</time></trkpt><trkpt lat="42.5657978" lon="12.300098"><ele>252.0</ele><time>2026-04-04T12:20:01.48Z</time></trkpt><trkpt lat="42.5657627" lon="12.2999766"><ele>252.0</ele><time>2026-04-04T12:20:02.477Z</time></trkpt><trkpt lat="42.5657287" lon="12.2998816"><ele>252.0</ele><time>2026-04-04T12:20:03.476Z</time></trkpt><trkpt lat="42.5657044" lon="12.2997974"><ele>252.0</ele><time>2026-04-04T12:20:04.474Z</time></trkpt><trkpt lat="42.5656705" lon="12.2997081"><ele>252.0</ele><time>2026-04-04T12:20:05.476Z</time></trkpt><trkpt lat="42.5656126" lon="12.2996093"><ele>250.75</ele><time>2026-04-04T12:20:06.478Z</time></trkpt><trkpt lat="42.5655226" lon="12.2995116"><ele>249.5</ele><time>2026-04-04T12:20:07.477Z</time></trkpt><trkpt lat="42.5654149" lon="12.2994196"><ele>248.25</ele><time>2026-04-04T12:20:08.474Z</time></trkpt><trkpt lat="42.5652932" lon="12.2993134"><ele>247.0</ele><time>2026-04-04T12:20:09.463Z</time></trkpt><trkpt lat="42.5651768" lon="12.2991973"><ele>247.0</ele><time>2026-04-04T12:20:10.479Z</time></trkpt><trkpt lat="42.5650708" lon="12.2990833"><ele>247.0</ele><time>2026-04-04T12:20:11.473Z</time></trkpt><trkpt lat="42.5649783" lon="12.2989694"><ele>247.0</ele><time>2026-04-04T12:20:12.484Z</time></trkpt><trkpt lat="42.5649015" lon="12.2988623"><ele>247.0</ele><time>2026-04-04T12:20:13.482Z</time></trkpt><trkpt lat="42.5648359" lon="12.2987575"><ele>247.16666666666666</ele><time>2026-04-04T12:20:14.482Z</time></trkpt><trkpt lat="42.5647719" lon="12.2986604"><ele>247.33333333333331</ele><time>2026-04-04T12:20:15.477Z</time></trkpt><trkpt lat="42.5647129" lon="12.2985808"><ele>247.5</ele><time>2026-04-04T12:20:16.477Z</time></trkpt><trkpt lat="42.5646612" lon="12.2985045"><ele>247.66666666666669</ele><time>2026-04-04T12:20:17.483Z</time></trkpt><trkpt lat="42.5646227" lon="12.2984116"><ele>247.83333333333334</ele><time>2026-04-04T12:20:18.483Z</time></trkpt><trkpt lat="42.5645927" lon="12.2983099"><ele>248.0</ele><time>2026-04-04T12:20:19.453Z</time></trkpt><trkpt lat="42.5645617" lon="12.298202"><ele>248.00000000000003</ele><time>2026-04-04T12:20:20.479Z</time></trkpt><trkpt lat="42.5645337" lon="12.2980875"><ele>248.0</ele><time>2026-04-04T12:20:21.468Z</time></trkpt><trkpt lat="42.5645092" lon="12.297972"><ele>248.0</ele><time>2026-04-04T12:20:22.454Z</time></trkpt><trkpt lat="42.5644923" lon="12.2978515"><ele>248.0</ele><time>2026-04-04T12:20:23.453Z</time></trkpt><trkpt lat="42.5644804" lon="12.2977339"><ele>248.00000000000003</ele><time>2026-04-04T12:20:24.477Z</time></trkpt><trkpt lat="42.5644731" lon="12.2976226"><ele>248.0</ele><time>2026-04-04T12:20:25.45Z</time></trkpt><trkpt lat="42.5644732" lon="12.2975186"><ele>247.66666666666669</ele><time>2026-04-04T12:20:26.456Z</time></trkpt><trkpt lat="42.564479" lon="12.2974177"><ele>247.33333333333334</ele><time>2026-04-04T12:20:27.485Z</time></trkpt><trkpt lat="42.5644908" lon="12.2973159"><ele>247.0</ele><time>2026-04-04T12:20:28.454Z</time></trkpt><trkpt lat="42.5645108" lon="12.2972187"><ele>246.66666666666669</ele><time>2026-04-04T12:20:29.459Z</time></trkpt><trkpt lat="42.5645355" lon="12.2971166"><ele>246.33333333333334</ele><time>2026-04-04T12:20:30.461Z</time></trkpt><trkpt lat="42.5645742" lon="12.2970135"><ele>246.0</ele><time>2026-04-04T12:20:31.454Z</time></trkpt><trkpt lat="42.5646275" lon="12.2969124"><ele>245.8</ele><time>2026-04-04T12:20:32.466Z</time></trkpt><trkpt lat="42.564704" lon="12.2968152"><ele>245.60000000000002</ele><time>2026-04-04T12:20:33.464Z</time></trkpt><trkpt lat="42.5647892" lon="12.2967241"><ele>245.4</ele><time>2026-04-04T12:20:34.462Z</time></trkpt><trkpt lat="42.5648654" lon="12.2966357"><ele>245.2</ele><time>2026-04-04T12:20:35.47Z</time></trkpt><trkpt lat="42.5649336" lon="12.2965552"><ele>245.0</ele><time>2026-04-04T12:20:36.474Z</time></trkpt><trkpt lat="42.5650038" lon="12.2964833"><ele>245.0</ele><time>2026-04-04T12:20:37.456Z</time></trkpt><trkpt lat="42.5650867" lon="12.2964306"><ele>245.0</ele><time>2026-04-04T12:20:38.467Z</time></trkpt><trkpt lat="42.5651757" lon="12.2963892"><ele>245.0</ele><time>2026-04-04T12:20:39.466Z</time></trkpt><trkpt lat="42.5652535" lon="12.2963397"><ele>245.0</ele><time>2026-04-04T12:20:40.478Z</time></trkpt><trkpt lat="42.5653279" lon="12.2962843"><ele>245.0</ele><time>2026-04-04T12:20:41.478Z</time></trkpt><trkpt lat="42.5654144" lon="12.2962116"><ele>242.5</ele><time>2026-04-04T12:20:42.48Z</time></trkpt><trkpt lat="42.5655098" lon="12.2961142"><ele>240.0</ele><time>2026-04-04T12:20:43.47Z</time></trkpt><trkpt lat="42.5656195" lon="12.2960079"><ele>237.5</ele><time>2026-04-04T12:20:44.479Z</time></trkpt><trkpt lat="42.5657216" lon="12.2959115"><ele>235.0</ele><time>2026-04-04T12:20:45.479Z</time></trkpt><trkpt lat="42.5658014" lon="12.2958275"><ele>235.0</ele><time>2026-04-04T12:20:46.478Z</time></trkpt><trkpt lat="42.565864" lon="12.2957432"><ele>235.0</ele><time>2026-04-04T12:20:47.474Z</time></trkpt><trkpt lat="42.5659208" lon="12.295642"><ele>235.0</ele><time>2026-04-04T12:20:48.483Z</time></trkpt><trkpt lat="42.5659723" lon="12.2955129"><ele>235.0</ele><time>2026-04-04T12:20:49.471Z</time></trkpt><trkpt lat="42.5660055" lon="12.2953848"><ele>235.0</ele><time>2026-04-04T12:20:50.483Z</time></trkpt><trkpt lat="42.5660238" lon="12.2952571"><ele>234.66666666666666</ele><time>2026-04-04T12:20:51.473Z</time></trkpt><trkpt lat="42.566032" lon="12.2951254"><ele>234.33333333333331</ele><time>2026-04-04T12:20:52.484Z</time></trkpt><trkpt lat="42.5660381" lon="12.2949898"><ele>234.0</ele><time>2026-04-04T12:20:53.479Z</time></trkpt><trkpt lat="42.5660635" lon="12.2948666"><ele>233.66666666666669</ele><time>2026-04-04T12:20:54.47Z</time></trkpt><trkpt lat="42.5661082" lon="12.2947648"><ele>233.33333333333334</ele><time>2026-04-04T12:20:55.475Z</time></trkpt><trkpt lat="42.566145" lon="12.2946872"><ele>233.0</ele><time>2026-04-04T12:20:56.451Z</time></trkpt><trkpt lat="42.5661965" lon="12.2945524"><ele>233.0</ele><time>2026-04-04T12:20:58.488Z</time></trkpt><trkpt lat="42.5661988" lon="12.29445"><ele>233.0</ele><time>2026-04-04T12:21:01.465Z</time></trkpt><trkpt lat="42.5662049" lon="12.2943081"><ele>233.0</ele><time>2026-04-04T12:21:04.466Z</time></trkpt><trkpt lat="42.5661896" lon="12.2941945"><ele>233.0</ele><time>2026-04-04T12:21:05.481Z</time></trkpt><trkpt lat="42.5661653" lon="12.2940719"><ele>233.0</ele><time>2026-04-04T12:21:06.464Z</time></trkpt><trkpt lat="42.566122" lon="12.2939561"><ele>231.33333333333334</ele><time>2026-04-04T12:21:07.479Z</time></trkpt><trkpt lat="42.566079" lon="12.2938534"><ele>229.66666666666669</ele><time>2026-04-04T12:21:08.478Z</time></trkpt><trkpt lat="42.5660353" lon="12.2937526"><ele>228.0</ele><time>2026-04-04T12:21:09.481Z</time></trkpt><trkpt lat="42.5659907" lon="12.2936579"><ele>226.33333333333331</ele><time>2026-04-04T12:21:10.475Z</time></trkpt><trkpt lat="42.5659407" lon="12.2935694"><ele>224.66666666666666</ele><time>2026-04-04T12:21:11.484Z</time></trkpt><trkpt lat="42.5658892" lon="12.2934968"><ele>223.0</ele><time>2026-04-04T12:21:12.47Z</time></trkpt><trkpt lat="42.5658334" lon="12.2934366"><ele>222.99999999999997</ele><time>2026-04-04T12:21:13.48Z</time></trkpt><trkpt lat="42.565775" lon="12.2933843"><ele>223.0</ele><time>2026-04-04T12:21:14.478Z</time></trkpt><trkpt lat="42.5657256" lon="12.2933283"><ele>223.0</ele><time>2026-04-04T12:21:15.475Z</time></trkpt><trkpt lat="42.565638" lon="12.2932061"><ele>223.0</ele><time>2026-04-04T12:21:17.45Z</time></trkpt><trkpt lat="42.565599" lon="12.2931278"><ele>222.99999999999997</ele><time>2026-04-04T12:21:18.484Z</time></trkpt><trkpt lat="42.5655662" lon="12.2930312"><ele>223.0</ele><time>2026-04-04T12:21:19.485Z</time></trkpt><trkpt lat="42.565526" lon="12.2929326"><ele>221.16666666666666</ele><time>2026-04-04T12:21:20.48Z</time></trkpt><trkpt lat="42.5654745" lon="12.2928414"><ele>219.33333333333331</ele><time>2026-04-04T12:21:21.482Z</time></trkpt><trkpt lat="42.5654249" lon="12.2927507"><ele>217.5</ele><time>2026-04-04T12:21:22.459Z</time></trkpt><trkpt lat="42.5653781" lon="12.2926625"><ele>215.66666666666669</ele><time>2026-04-04T12:21:23.47Z</time></trkpt><trkpt lat="42.5653385" lon="12.2925702"><ele>213.83333333333334</ele><time>2026-04-04T12:21:24.472Z</time></trkpt><trkpt lat="42.5652953" lon="12.2924657"><ele>212.0</ele><time>2026-04-04T12:21:25.458Z</time></trkpt><trkpt lat="42.5652418" lon="12.2923466"><ele>210.39999999999998</ele><time>2026-04-04T12:21:26.471Z</time></trkpt><trkpt lat="42.5651851" lon="12.2922268"><ele>208.79999999999998</ele><time>2026-04-04T12:21:27.47Z</time></trkpt><trkpt lat="42.5651247" lon="12.2921197"><ele>207.2</ele><time>2026-04-04T12:21:28.478Z</time></trkpt><trkpt lat="42.5650765" lon="12.2920318"><ele>205.6</ele><time>2026-04-04T12:21:29.469Z</time></trkpt><trkpt lat="42.5650186" lon="12.2919176"><ele>204.0</ele><time>2026-04-04T12:21:31.473Z</time></trkpt><trkpt lat="42.5649933" lon="12.2917303"><ele>204.0</ele><time>2026-04-04T12:21:33.476Z</time></trkpt><trkpt lat="42.5649817" lon="12.291588"><ele>204.0</ele><time>2026-04-04T12:21:34.48Z</time></trkpt><trkpt lat="42.5649632" lon="12.2914417"><ele>204.0</ele><time>2026-04-04T12:21:35.478Z</time></trkpt><trkpt lat="42.5649473" lon="12.2913135"><ele>204.0</ele><time>2026-04-04T12:21:36.479Z</time></trkpt><trkpt lat="42.5649289" lon="12.2912213"><ele>204.0</ele><time>2026-04-04T12:21:37.467Z</time></trkpt><trkpt lat="42.5648101" lon="12.2909735"><ele>203.2</ele><time>2026-04-04T12:21:40.47Z</time></trkpt><trkpt lat="42.5647514" lon="12.2908651"><ele>202.39999999999998</ele><time>2026-04-04T12:21:41.457Z</time></trkpt><trkpt lat="42.5647131" lon="12.2907314"><ele>201.6</ele><time>2026-04-04T12:21:42.458Z</time></trkpt><trkpt lat="42.5646952" lon="12.2905969"><ele>200.8</ele><time>2026-04-04T12:21:43.454Z</time></trkpt><trkpt lat="42.5646909" lon="12.2904803"><ele>200.0</ele><time>2026-04-04T12:21:44.467Z</time></trkpt><trkpt lat="42.5646684" lon="12.2903636"><ele>199.16666666666669</ele><time>2026-04-04T12:21:45.454Z</time></trkpt><trkpt lat="42.5646411" lon="12.2902484"><ele>198.33333333333334</ele><time>2026-04-04T12:21:46.468Z</time></trkpt><trkpt lat="42.5646276" lon="12.2901396"><ele>197.5</ele><time>2026-04-04T12:21:47.472Z</time></trkpt><trkpt lat="42.5646239" lon="12.2900445"><ele>196.66666666666669</ele><time>2026-04-04T12:21:48.473Z</time></trkpt><trkpt lat="42.564611" lon="12.289954"><ele>195.83333333333334</ele><time>2026-04-04T12:21:49.475Z</time></trkpt><trkpt lat="42.564576" lon="12.289864"><ele>195.0</ele><time>2026-04-04T12:21:50.488Z</time></trkpt><trkpt lat="42.5645257" lon="12.2897781"><ele>198.66666666666666</ele><time>2026-04-04T12:21:51.473Z</time></trkpt><trkpt lat="42.5644683" lon="12.2896894"><ele>202.33333333333331</ele><time>2026-04-04T12:21:52.448Z</time></trkpt><trkpt lat="42.5644118" lon="12.2896157"><ele>206.0</ele><time>2026-04-04T12:21:53.468Z</time></trkpt><trkpt lat="42.564359" lon="12.2895592"><ele>209.66666666666666</ele><time>2026-04-04T12:21:54.477Z</time></trkpt><trkpt lat="42.5642668" lon="12.2895243"><ele>213.33333333333331</ele><time>2026-04-04T12:21:56.461Z</time></trkpt><trkpt lat="42.5643466" lon="12.2895632"><ele>217.0</ele><time>2026-04-04T12:23:51.47Z</time></trkpt><trkpt lat="42.5644123" lon="12.2896582"><ele>217.0</ele><time>2026-04-04T12:24:03.469Z</time></trkpt><trkpt lat="42.5644691" lon="12.2897099"><ele>217.0</ele><time>2026-04-04T12:24:11.451Z</time></trkpt><trkpt lat="42.5644718" lon="12.2896114"><ele>217.0</ele><time>2026-04-04T12:24:36.473Z</time></trkpt><trkpt lat="42.5644278" lon="12.2895255"><ele>217.0</ele><time>2026-04-04T12:24:46.475Z</time></trkpt><trkpt lat="42.5644053" lon="12.2894441"><ele>217.0</ele><time>2026-04-04T12:24:54.461Z</time></trkpt><trkpt lat="42.5643755" lon="12.2893669"><ele>217.0</ele><time>2026-04-04T12:25:03.455Z</time></trkpt><trkpt lat="42.564357" lon="12.2892832"><ele>217.0</ele><time>2026-04-04T12:25:12.465Z</time></trkpt></trkseg><trkseg><trkpt lat="42.5620989" lon="12.2888639"><ele>197.00000000000003</ele><time>2026-04-04T12:52:22.394Z</time></trkpt><trkpt lat="42.5621537" lon="12.2889081"><ele>197.0</ele><time>2026-04-04T12:52:23.411Z</time></trkpt><trkpt lat="42.5622306" lon="12.2889673"><ele>197.0</ele><time>2026-04-04T12:52:24.39Z</time></trkpt><trkpt lat="42.5623164" lon="12.2890316"><ele>197.0</ele><time>2026-04-04T12:52:25.409Z</time></trkpt><trkpt lat="42.5624014" lon="12.2891019"><ele>197.00000000000003</ele><time>2026-04-04T12:52:26.388Z</time></trkpt><trkpt lat="42.5624836" lon="12.2891609"><ele>197.0</ele><time>2026-04-04T12:52:27.411Z</time></trkpt><trkpt lat="42.5625712" lon="12.2891962"><ele>197.50000000000003</ele><time>2026-04-04T12:52:28.393Z</time></trkpt><trkpt lat="42.5626566" lon="12.2891996"><ele>198.0</ele><time>2026-04-04T12:52:29.398Z</time></trkpt><trkpt lat="42.5627299" lon="12.2891767"><ele>198.5</ele><time>2026-04-04T12:52:30.392Z</time></trkpt><trkpt lat="42.5628048" lon="12.2891308"><ele>199.0</ele><time>2026-04-04T12:52:31.392Z</time></trkpt><trkpt lat="42.5628823" lon="12.2890903"><ele>199.50000000000003</ele><time>2026-04-04T12:52:32.41Z</time></trkpt><trkpt lat="42.5629621" lon="12.2890515"><ele>200.0</ele><time>2026-04-04T12:52:33.386Z</time></trkpt><trkpt lat="42.5630461" lon="12.2890172"><ele>201.33333333333334</ele><time>2026-04-04T12:52:34.412Z</time></trkpt><trkpt lat="42.5631362" lon="12.2889914"><ele>202.66666666666669</ele><time>2026-04-04T12:52:35.389Z</time></trkpt><trkpt lat="42.5632238" lon="12.2889619"><ele>204.0</ele><time>2026-04-04T12:52:36.383Z</time></trkpt><trkpt lat="42.5633074" lon="12.2889334"><ele>205.33333333333331</ele><time>2026-04-04T12:52:37.387Z</time></trkpt><trkpt lat="42.5633807" lon="12.2889281"><ele>206.66666666666666</ele><time>2026-04-04T12:52:38.391Z</time></trkpt><trkpt lat="42.5634479" lon="12.2889746"><ele>208.0</ele><time>2026-04-04T12:52:39.406Z</time></trkpt><trkpt lat="42.5635137" lon="12.2890524"><ele>208.0</ele><time>2026-04-04T12:52:40.396Z</time></trkpt><trkpt lat="42.563575" lon="12.2891499"><ele>208.0</ele><time>2026-04-04T12:52:41.392Z</time></trkpt><trkpt lat="42.5636409" lon="12.2892547"><ele>208.0</ele><time>2026-04-04T12:52:42.406Z</time></trkpt><trkpt lat="42.5637172" lon="12.2893529"><ele>208.0</ele><time>2026-04-04T12:52:43.403Z</time></trkpt><trkpt lat="42.563797" lon="12.2894207"><ele>208.0</ele><time>2026-04-04T12:52:44.389Z</time></trkpt><trkpt lat="42.5638806" lon="12.2894676"><ele>209.8</ele><time>2026-04-04T12:52:45.407Z</time></trkpt><trkpt lat="42.5639718" lon="12.2895016"><ele>211.60000000000002</ele><time>2026-04-04T12:52:46.402Z</time></trkpt><trkpt lat="42.5640653" lon="12.2895252"><ele>213.39999999999998</ele><time>2026-04-04T12:52:47.406Z</time></trkpt><trkpt lat="42.5641576" lon="12.2895372"><ele>215.2</ele><time>2026-04-04T12:52:48.407Z</time></trkpt><trkpt lat="42.5642507" lon="12.2895333"><ele>217.0</ele><time>2026-04-04T12:52:49.398Z</time></trkpt><trkpt lat="42.5643251" lon="12.2895343"><ele>216.99999999999997</ele><time>2026-04-04T12:52:50.385Z</time></trkpt><trkpt lat="42.5643876" lon="12.289556"><ele>217.0</ele><time>2026-04-04T12:52:51.382Z</time></trkpt><trkpt lat="42.5644748" lon="12.2896525"><ele>217.0</ele><time>2026-04-04T12:52:53.388Z</time></trkpt><trkpt lat="42.5645232" lon="12.2897226"><ele>217.0</ele><time>2026-04-04T12:52:55.398Z</time></trkpt><trkpt lat="42.5645209" lon="12.2896115"><ele>216.99999999999997</ele><time>2026-04-04T12:52:59.394Z</time></trkpt><trkpt lat="42.5644499" lon="12.2895165"><ele>217.0</ele><time>2026-04-04T12:53:02.044Z</time></trkpt><trkpt lat="42.5643997" lon="12.2894053"><ele>216.99999999999997</ele><time>2026-04-04T12:53:04.045Z</time></trkpt><trkpt lat="42.5643624" lon="12.2893241"><ele>217.0</ele><time>2026-04-04T12:53:04.997Z</time></trkpt><trkpt lat="42.5643271" lon="12.2892424"><ele>217.0</ele><time>2026-04-04T12:53:06.059Z</time></trkpt><trkpt lat="42.5642678" lon="12.2891253"><ele>217.0</ele><time>2026-04-04T12:53:07.987Z</time></trkpt><trkpt lat="42.564238" lon="12.289049"><ele>216.99999999999997</ele><time>2026-04-04T12:53:10.035Z</time></trkpt><trkpt lat="42.5641601" lon="12.2889464"><ele>217.0</ele><time>2026-04-04T12:53:11.999Z</time></trkpt><trkpt lat="42.5641122" lon="12.2888843"><ele>215.33333333333331</ele><time>2026-04-04T12:53:12.992Z</time></trkpt><trkpt lat="42.5640351" lon="12.2887841"><ele>213.66666666666666</ele><time>2026-04-04T12:53:14.987Z</time></trkpt><trkpt lat="42.5639796" lon="12.2886781"><ele>212.0</ele><time>2026-04-04T12:53:16.977Z</time></trkpt><trkpt lat="42.5639338" lon="12.2885639"><ele>210.33333333333331</ele><time>2026-04-04T12:53:18.982Z</time></trkpt><trkpt lat="42.5638957" lon="12.2884951"><ele>208.66666666666666</ele><time>2026-04-04T12:53:20.985Z</time></trkpt><trkpt lat="42.5638215" lon="12.2885072"><ele>207.0</ele><time>2026-04-04T12:53:24.997Z</time></trkpt><trkpt lat="42.5638928" lon="12.288517"><ele>207.0</ele><time>2026-04-04T12:53:46.974Z</time></trkpt><trkpt lat="42.5639582" lon="12.2886061"><ele>207.0</ele><time>2026-04-04T12:53:50.977Z</time></trkpt><trkpt lat="42.5640081" lon="12.2887476"><ele>207.0</ele><time>2026-04-04T12:53:52.956Z</time></trkpt><trkpt lat="42.5640885" lon="12.2888662"><ele>207.0</ele><time>2026-04-04T12:53:54.973Z</time></trkpt><trkpt lat="42.5641805" lon="12.2889705"><ele>207.0</ele><time>2026-04-04T12:53:56.973Z</time></trkpt><trkpt lat="42.5642598" lon="12.289082"><ele>205.83333333333334</ele><time>2026-04-04T12:53:58.975Z</time></trkpt><trkpt lat="42.5643227" lon="12.2891972"><ele>204.66666666666669</ele><time>2026-04-04T12:54:00.959Z</time></trkpt><trkpt lat="42.5643631" lon="12.289264"><ele>203.5</ele><time>2026-04-04T12:54:02.954Z</time></trkpt><trkpt lat="42.5644396" lon="12.2892251"><ele>202.33333333333334</ele><time>2026-04-04T12:54:04.974Z</time></trkpt><trkpt lat="42.5645443" lon="12.2891345"><ele>201.16666666666669</ele><time>2026-04-04T12:54:06.978Z</time></trkpt><trkpt lat="42.5646051" lon="12.2890837"><ele>200.0</ele><time>2026-04-04T12:54:08.013Z</time></trkpt><trkpt lat="42.5646706" lon="12.2890338"><ele>200.00000000000003</ele><time>2026-04-04T12:54:08.969Z</time></trkpt><trkpt lat="42.5647291" lon="12.2889952"><ele>200.0</ele><time>2026-04-04T12:54:10.006Z</time></trkpt><trkpt lat="42.5648072" lon="12.2889126"><ele>200.0</ele><time>2026-04-04T12:54:11.977Z</time></trkpt><trkpt lat="42.5648705" lon="12.2888215"><ele>200.0</ele><time>2026-04-04T12:54:13.969Z</time></trkpt><trkpt lat="42.5649511" lon="12.2887533"><ele>200.00000000000003</ele><time>2026-04-04T12:54:16.005Z</time></trkpt><trkpt lat="42.5650279" lon="12.2887031"><ele>200.0</ele><time>2026-04-04T12:54:17.951Z</time></trkpt><trkpt lat="42.5651125" lon="12.2886456"><ele>198.16666666666669</ele><time>2026-04-04T12:54:21.005Z</time></trkpt><trkpt lat="42.5651778" lon="12.2885974"><ele>196.33333333333334</ele><time>2026-04-04T12:54:23.007Z</time></trkpt><trkpt lat="42.5652363" lon="12.2885228"><ele>194.5</ele><time>2026-04-04T12:54:25.007Z</time></trkpt><trkpt lat="42.5652952" lon="12.2884398"><ele>192.66666666666669</ele><time>2026-04-04T12:54:26.976Z</time></trkpt><trkpt lat="42.5653486" lon="12.2883846"><ele>190.83333333333334</ele><time>2026-04-04T12:54:28.96Z</time></trkpt><trkpt lat="42.5654095" lon="12.288334"><ele>189.0</ele><time>2026-04-04T12:54:31.042Z</time></trkpt><trkpt lat="42.5654723" lon="12.2882855"><ele>186.33333333333334</ele><time>2026-04-04T12:54:32.99Z</time></trkpt><trkpt lat="42.5655139" lon="12.2882057"><ele>183.66666666666666</ele><time>2026-04-04T12:54:35.039Z</time></trkpt><trkpt lat="42.5655691" lon="12.288144"><ele>181.0</ele><time>2026-04-04T12:54:36.98Z</time></trkpt><trkpt lat="42.5656431" lon="12.2880637"><ele>178.33333333333331</ele><time>2026-04-04T12:54:39.032Z</time></trkpt><trkpt lat="42.5657021" lon="12.2879705"><ele>175.66666666666666</ele><time>2026-04-04T12:54:41.001Z</time></trkpt><trkpt lat="42.5657782" lon="12.2879299"><ele>173.0</ele><time>2026-04-04T12:54:43.985Z</time></trkpt><trkpt lat="42.565695" lon="12.2879867"><ele>173.0</ele><time>2026-04-04T12:55:04.99Z</time></trkpt><trkpt lat="42.5656377" lon="12.288083"><ele>173.0</ele><time>2026-04-04T12:55:06.99Z</time></trkpt><trkpt lat="42.565544" lon="12.2881779"><ele>173.0</ele><time>2026-04-04T12:55:08.996Z</time></trkpt><trkpt lat="42.565462" lon="12.2882726"><ele>173.0</ele><time>2026-04-04T12:55:11.036Z</time></trkpt><trkpt lat="42.5653932" lon="12.2883671"><ele>173.0</ele><time>2026-04-04T12:55:13.008Z</time></trkpt><trkpt lat="42.565302" lon="12.2884322"><ele>177.0</ele><time>2026-04-04T12:55:15.032Z</time></trkpt><trkpt lat="42.5652087" lon="12.2885375"><ele>181.0</ele><time>2026-04-04T12:55:16.969Z</time></trkpt><trkpt lat="42.5651181" lon="12.2886356"><ele>185.0</ele><time>2026-04-04T12:55:19.045Z</time></trkpt><trkpt lat="42.5650155" lon="12.2887032"><ele>189.0</ele><time>2026-04-04T12:55:21.053Z</time></trkpt><trkpt lat="42.5649135" lon="12.2887758"><ele>189.0</ele><time>2026-04-04T12:55:22.976Z</time></trkpt><trkpt lat="42.564827" lon="12.2888875"><ele>189.0</ele><time>2026-04-04T12:55:24.997Z</time></trkpt><trkpt lat="42.5647853" lon="12.2889523"><ele>189.0</ele><time>2026-04-04T12:55:26.009Z</time></trkpt><trkpt lat="42.5647214" lon="12.289004"><ele>189.0</ele><time>2026-04-04T12:55:26.977Z</time></trkpt><trkpt lat="42.5646483" lon="12.2890635"><ele>189.0</ele><time>2026-04-04T12:55:27.974Z</time></trkpt><trkpt lat="42.5645709" lon="12.2891171"><ele>189.0</ele><time>2026-04-04T12:55:28.977Z</time></trkpt><trkpt lat="42.5644917" lon="12.2891746"><ele>194.6</ele><time>2026-04-04T12:55:30.007Z</time></trkpt><trkpt lat="42.5644222" lon="12.2892195"><ele>200.2</ele><time>2026-04-04T12:55:30.985Z</time></trkpt><trkpt lat="42.5643556" lon="12.2893064"><ele>205.79999999999998</ele><time>2026-04-04T12:55:32.963Z</time></trkpt><trkpt lat="42.5644002" lon="12.2894479"><ele>211.39999999999998</ele><time>2026-04-04T12:55:34.971Z</time></trkpt><trkpt lat="42.5644613" lon="12.2895811"><ele>217.0</ele><time>2026-04-04T12:55:36.955Z</time></trkpt><trkpt lat="42.5645077" lon="12.2896986"><ele>212.6</ele><time>2026-04-04T12:55:38.971Z</time></trkpt><trkpt lat="42.564546" lon="12.2898511"><ele>208.2</ele><time>2026-04-04T12:55:40.981Z</time></trkpt><trkpt lat="42.5645844" lon="12.2899477"><ele>203.8</ele><time>2026-04-04T12:55:41.96Z</time></trkpt><trkpt lat="42.5646083" lon="12.2900494"><ele>199.4</ele><time>2026-04-04T12:55:42.982Z</time></trkpt><trkpt lat="42.564615" lon="12.2901742"><ele>195.0</ele><time>2026-04-04T12:55:43.985Z</time></trkpt><trkpt lat="42.5646212" lon="12.2903113"><ele>195.0</ele><time>2026-04-04T12:55:44.97Z</time></trkpt><trkpt lat="42.5646401" lon="12.2904247"><ele>195.0</ele><time>2026-04-04T12:55:45.96Z</time></trkpt><trkpt lat="42.5646669" lon="12.2905295"><ele>195.0</ele><time>2026-04-04T12:55:46.963Z</time></trkpt><trkpt lat="42.5646819" lon="12.2906517"><ele>195.0</ele><time>2026-04-04T12:55:47.977Z</time></trkpt><trkpt lat="42.5647033" lon="12.2907926"><ele>195.0</ele><time>2026-04-04T12:55:49.036Z</time></trkpt><trkpt lat="42.5647496" lon="12.2909393"><ele>196.0</ele><time>2026-04-04T12:55:50.046Z</time></trkpt><trkpt lat="42.5648151" lon="12.2910581"><ele>197.0</ele><time>2026-04-04T12:55:51.024Z</time></trkpt><trkpt lat="42.564877" lon="12.2911511"><ele>198.0</ele><time>2026-04-04T12:55:52.01Z</time></trkpt><trkpt lat="42.5649193" lon="12.2912448"><ele>199.0</ele><time>2026-04-04T12:55:53.005Z</time></trkpt><trkpt lat="42.5649352" lon="12.2913625"><ele>200.0</ele><time>2026-04-04T12:55:54.042Z</time></trkpt><trkpt lat="42.5649534" lon="12.2915219"><ele>201.0</ele><time>2026-04-04T12:55:55.036Z</time></trkpt><trkpt lat="42.5649769" lon="12.291706"><ele>202.0</ele><time>2026-04-04T12:55:56.054Z</time></trkpt><trkpt lat="42.5649965" lon="12.2918601"><ele>203.0</ele><time>2026-04-04T12:55:57.014Z</time></trkpt><trkpt lat="42.5650196" lon="12.2919862"><ele>204.0</ele><time>2026-04-04T12:55:58.005Z</time></trkpt><trkpt lat="42.5650678" lon="12.2921085"><ele>204.0</ele><time>2026-04-04T12:55:59.031Z</time></trkpt><trkpt lat="42.5651317" lon="12.2922292"><ele>204.0</ele><time>2026-04-04T12:56:00.055Z</time></trkpt><trkpt lat="42.5651978" lon="12.2923547"><ele>204.0</ele><time>2026-04-04T12:56:01.032Z</time></trkpt><trkpt lat="42.5652666" lon="12.2924863"><ele>204.0</ele><time>2026-04-04T12:56:02.012Z</time></trkpt><trkpt lat="42.5653293" lon="12.2926188"><ele>205.0</ele><time>2026-04-04T12:56:03.017Z</time></trkpt><trkpt lat="42.5653817" lon="12.292739"><ele>206.0</ele><time>2026-04-04T12:56:04.048Z</time></trkpt><trkpt lat="42.56547" lon="12.2929299"><ele>207.0</ele><time>2026-04-04T12:56:06.047Z</time></trkpt><trkpt lat="42.5655271" lon="12.2930407"><ele>208.0</ele><time>2026-04-04T12:56:06.983Z</time></trkpt><trkpt lat="42.5655965" lon="12.293172"><ele>211.0</ele><time>2026-04-04T12:56:07.971Z</time></trkpt><trkpt lat="42.5656614" lon="12.293289"><ele>214.0</ele><time>2026-04-04T12:56:09.042Z</time></trkpt><trkpt lat="42.5657283" lon="12.2933781"><ele>217.0</ele><time>2026-04-04T12:56:10.039Z</time></trkpt><trkpt lat="42.5657962" lon="12.2934673"><ele>220.0</ele><time>2026-04-04T12:56:11.041Z</time></trkpt><trkpt lat="42.5658712" lon="12.2935522"><ele>223.0</ele><time>2026-04-04T12:56:11.973Z</time></trkpt><trkpt lat="42.5659501" lon="12.293638"><ele>223.0</ele><time>2026-04-04T12:56:12.971Z</time></trkpt><trkpt lat="42.5660149" lon="12.2937326"><ele>223.0</ele><time>2026-04-04T12:56:13.971Z</time></trkpt><trkpt lat="42.5660755" lon="12.2938418"><ele>223.0</ele><time>2026-04-04T12:56:14.981Z</time></trkpt><trkpt lat="42.5661221" lon="12.2939546"><ele>223.0</ele><time>2026-04-04T12:56:15.958Z</time></trkpt><trkpt lat="42.5661627" lon="12.2940736"><ele>223.0</ele><time>2026-04-04T12:56:16.96Z</time></trkpt><trkpt lat="42.566185" lon="12.2941821"><ele>223.85714285714286</ele><time>2026-04-04T12:56:17.981Z</time></trkpt><trkpt lat="42.5661945" lon="12.2942914"><ele>224.71428571428572</ele><time>2026-04-04T12:56:19.037Z</time></trkpt><trkpt lat="42.566198" lon="12.2943998"><ele>225.57142857142856</ele><time>2026-04-04T12:56:19.994Z</time></trkpt><trkpt lat="42.5661906" lon="12.2945075"><ele>226.42857142857144</ele><time>2026-04-04T12:56:20.984Z</time></trkpt><trkpt lat="42.5661718" lon="12.2946023"><ele>227.2857142857143</ele><time>2026-04-04T12:56:21.995Z</time></trkpt><trkpt lat="42.5661469" lon="12.2946816"><ele>228.14285714285714</ele><time>2026-04-04T12:56:22.993Z</time></trkpt><trkpt lat="42.5661181" lon="12.2947617"><ele>229.0</ele><time>2026-04-04T12:56:24.002Z</time></trkpt><trkpt lat="42.566085" lon="12.2948415"><ele>230.49999999999997</ele><time>2026-04-04T12:56:24.98Z</time></trkpt><trkpt lat="42.5660487" lon="12.2949216"><ele>232.0</ele><time>2026-04-04T12:56:25.997Z</time></trkpt><trkpt lat="42.5660221" lon="12.2950068"><ele>233.5</ele><time>2026-04-04T12:56:26.984Z</time></trkpt><trkpt lat="42.5660079" lon="12.2951123"><ele>235.0</ele><time>2026-04-04T12:56:28.064Z</time></trkpt><trkpt lat="42.5659948" lon="12.2952314"><ele>236.49999999999997</ele><time>2026-04-04T12:56:28.987Z</time></trkpt><trkpt lat="42.5659814" lon="12.2953486"><ele>238.0</ele><time>2026-04-04T12:56:30.031Z</time></trkpt><trkpt lat="42.5659595" lon="12.295462"><ele>237.99999999999997</ele><time>2026-04-04T12:56:30.993Z</time></trkpt><trkpt lat="42.565925" lon="12.2955762"><ele>238.0</ele><time>2026-04-04T12:56:31.992Z</time></trkpt><trkpt lat="42.5658852" lon="12.2956816"><ele>238.0</ele><time>2026-04-04T12:56:33.003Z</time></trkpt><trkpt lat="42.5658369" lon="12.2957719"><ele>238.0</ele><time>2026-04-04T12:56:34.005Z</time></trkpt><trkpt lat="42.5657788" lon="12.2958519"><ele>237.99999999999997</ele><time>2026-04-04T12:56:35.028Z</time></trkpt><trkpt lat="42.5657081" lon="12.2959242"><ele>238.0</ele><time>2026-04-04T12:56:36.053Z</time></trkpt><trkpt lat="42.5656202" lon="12.2959974"><ele>237.25</ele><time>2026-04-04T12:56:36.987Z</time></trkpt><trkpt lat="42.565522" lon="12.2960927"><ele>236.5</ele><time>2026-04-04T12:56:37.991Z</time></trkpt><trkpt lat="42.5654244" lon="12.2961858"><ele>235.75</ele><time>2026-04-04T12:56:39.038Z</time></trkpt><trkpt lat="42.565334" lon="12.2962742"><ele>235.0</ele><time>2026-04-04T12:56:39.986Z</time></trkpt><trkpt lat="42.5652435" lon="12.2963465"><ele>237.0</ele><time>2026-04-04T12:56:41.02Z</time></trkpt><trkpt lat="42.5651473" lon="12.2964074"><ele>239.0</ele><time>2026-04-04T12:56:41.993Z</time></trkpt><trkpt lat="42.5650522" lon="12.2964641"><ele>241.0</ele><time>2026-04-04T12:56:42.976Z</time></trkpt><trkpt lat="42.5649625" lon="12.2965153"><ele>243.0</ele><time>2026-04-04T12:56:43.979Z</time></trkpt><trkpt lat="42.5648887" lon="12.2965715"><ele>245.0</ele><time>2026-04-04T12:56:44.98Z</time></trkpt><trkpt lat="42.5648203" lon="12.2966474"><ele>245.0</ele><time>2026-04-04T12:56:45.992Z</time></trkpt><trkpt lat="42.564746" lon="12.2967363"><ele>245.0</ele><time>2026-04-04T12:56:46.994Z</time></trkpt><trkpt lat="42.5646745" lon="12.2968317"><ele>245.0</ele><time>2026-04-04T12:56:47.99Z</time></trkpt><trkpt lat="42.5646113" lon="12.2969262"><ele>245.0</ele><time>2026-04-04T12:56:48.995Z</time></trkpt><trkpt lat="42.5645553" lon="12.2970264"><ele>245.0</ele><time>2026-04-04T12:56:50.003Z</time></trkpt><trkpt lat="42.56452" lon="12.2971559"><ele>244.8</ele><time>2026-04-04T12:56:51.007Z</time></trkpt><trkpt lat="42.5644886" lon="12.2972925"><ele>244.6</ele><time>2026-04-04T12:56:51.992Z</time></trkpt><trkpt lat="42.5644634" lon="12.2974225"><ele>244.39999999999998</ele><time>2026-04-04T12:56:52.979Z</time></trkpt><trkpt lat="42.5644524" lon="12.2975531"><ele>244.2</ele><time>2026-04-04T12:56:53.994Z</time></trkpt><trkpt lat="42.5644534" lon="12.2976885"><ele>244.0</ele><time>2026-04-04T12:56:55Z</time></trkpt><trkpt lat="42.5644707" lon="12.2978227"><ele>244.0</ele><time>2026-04-04T12:56:56Z</time></trkpt><trkpt lat="42.5644981" lon="12.2979496"><ele>243.99999999999997</ele><time>2026-04-04T12:56:56.993Z</time></trkpt><trkpt lat="42.5645262" lon="12.2980782"><ele>243.99999999999997</ele><time>2026-04-04T12:56:58.006Z</time></trkpt><trkpt lat="42.5645616" lon="12.2982147"><ele>244.0</ele><time>2026-04-04T12:56:58.996Z</time></trkpt><trkpt lat="42.5646021" lon="12.2983472"><ele>244.0</ele><time>2026-04-04T12:56:59.988Z</time></trkpt><trkpt lat="42.5646401" lon="12.2984577"><ele>244.6</ele><time>2026-04-04T12:57:01.003Z</time></trkpt><trkpt lat="42.5646897" lon="12.298565"><ele>245.2</ele><time>2026-04-04T12:57:01.986Z</time></trkpt><trkpt lat="42.5647513" lon="12.2986725"><ele>245.79999999999998</ele><time>2026-04-04T12:57:02.997Z</time></trkpt><trkpt lat="42.5648252" lon="12.2987799"><ele>246.39999999999998</ele><time>2026-04-04T12:57:03.993Z</time></trkpt><trkpt lat="42.564907" lon="12.2988933"><ele>247.0</ele><time>2026-04-04T12:57:04.995Z</time></trkpt><trkpt lat="42.564998" lon="12.2990133"><ele>247.0</ele><time>2026-04-04T12:57:05.998Z</time></trkpt><trkpt lat="42.5650931" lon="12.2991304"><ele>247.0</ele><time>2026-04-04T12:57:07.006Z</time></trkpt><trkpt lat="42.5651909" lon="12.2992344"><ele>247.0</ele><time>2026-04-04T12:57:08.002Z</time></trkpt><trkpt lat="42.5652842" lon="12.2993229"><ele>247.0</ele><time>2026-04-04T12:57:09.041Z</time></trkpt><trkpt lat="42.5653775" lon="12.2994104"><ele>246.8</ele><time>2026-04-04T12:57:10.047Z</time></trkpt><trkpt lat="42.5654684" lon="12.2994917"><ele>246.6</ele><time>2026-04-04T12:57:11.035Z</time></trkpt><trkpt lat="42.5655558" lon="12.2995691"><ele>246.40000000000003</ele><time>2026-04-04T12:57:11.998Z</time></trkpt><trkpt lat="42.5656321" lon="12.2996501"><ele>246.20000000000002</ele><time>2026-04-04T12:57:13.001Z</time></trkpt><trkpt lat="42.565691" lon="12.2997551"><ele>246.0</ele><time>2026-04-04T12:57:14.04Z</time></trkpt><trkpt lat="42.5657317" lon="12.2998825"><ele>247.5</ele><time>2026-04-04T12:57:14.986Z</time></trkpt><trkpt lat="42.565765" lon="12.3000218"><ele>249.0</ele><time>2026-04-04T12:57:16.034Z</time></trkpt><trkpt lat="42.5657938" lon="12.3001694"><ele>250.5</ele><time>2026-04-04T12:57:16.983Z</time></trkpt><trkpt lat="42.5658124" lon="12.3003282"><ele>252.0</ele><time>2026-04-04T12:57:17.963Z</time></trkpt><trkpt lat="42.5658277" lon="12.3004958"><ele>252.0</ele><time>2026-04-04T12:57:18.991Z</time></trkpt><trkpt lat="42.5658418" lon="12.3006545"><ele>252.0</ele><time>2026-04-04T12:57:19.997Z</time></trkpt><trkpt lat="42.5658465" lon="12.3008014"><ele>252.0</ele><time>2026-04-04T12:57:20.972Z</time></trkpt><trkpt lat="42.5658385" lon="12.300943"><ele>252.0</ele><time>2026-04-04T12:57:21.976Z</time></trkpt><trkpt lat="42.5658033" lon="12.3010907"><ele>252.0</ele><time>2026-04-04T12:57:22.97Z</time></trkpt><trkpt lat="42.5657486" lon="12.3012397"><ele>252.0</ele><time>2026-04-04T12:57:23.993Z</time></trkpt><trkpt lat="42.5656727" lon="12.3013897"><ele>252.0</ele><time>2026-04-04T12:57:24.97Z</time></trkpt><trkpt lat="42.5655907" lon="12.3015436"><ele>252.0</ele><time>2026-04-04T12:57:25.999Z</time></trkpt><trkpt lat="42.5655166" lon="12.3016937"><ele>252.0</ele><time>2026-04-04T12:57:26.983Z</time></trkpt><trkpt lat="42.565447" lon="12.3018497"><ele>253.5</ele><time>2026-04-04T12:57:27.959Z</time></trkpt><trkpt lat="42.5653776" lon="12.3020189"><ele>255.0</ele><time>2026-04-04T12:57:28.995Z</time></trkpt><trkpt lat="42.5653121" lon="12.3021928"><ele>256.5</ele><time>2026-04-04T12:57:29.995Z</time></trkpt><trkpt lat="42.5652495" lon="12.3023572"><ele>258.0</ele><time>2026-04-04T12:57:30.973Z</time></trkpt><trkpt lat="42.5651891" lon="12.3025127"><ele>255.2</ele><time>2026-04-04T12:57:31.983Z</time></trkpt><trkpt lat="42.5651252" lon="12.3026475"><ele>252.4</ele><time>2026-04-04T12:57:32.975Z</time></trkpt><trkpt lat="42.5650583" lon="12.302762"><ele>249.59999999999997</ele><time>2026-04-04T12:57:34.044Z</time></trkpt><trkpt lat="42.5649778" lon="12.3028554"><ele>246.79999999999998</ele><time>2026-04-04T12:57:34.994Z</time></trkpt><trkpt lat="42.5648798" lon="12.3029394"><ele>244.0</ele><time>2026-04-04T12:57:35.979Z</time></trkpt><trkpt lat="42.5647636" lon="12.3030076"><ele>244.0</ele><time>2026-04-04T12:57:36.964Z</time></trkpt><trkpt lat="42.5646362" lon="12.3030709"><ele>244.0</ele><time>2026-04-04T12:57:37.972Z</time></trkpt><trkpt lat="42.5644953" lon="12.3031317"><ele>244.0</ele><time>2026-04-04T12:57:38.965Z</time></trkpt><trkpt lat="42.5643453" lon="12.3032035"><ele>244.0</ele><time>2026-04-04T12:57:39.961Z</time></trkpt><trkpt lat="42.564199" lon="12.3032789"><ele>244.75</ele><time>2026-04-04T12:57:40.967Z</time></trkpt><trkpt lat="42.5640592" lon="12.3033554"><ele>245.5</ele><time>2026-04-04T12:57:41.97Z</time></trkpt><trkpt lat="42.5639231" lon="12.3034348"><ele>246.25</ele><time>2026-04-04T12:57:42.977Z</time></trkpt><trkpt lat="42.5637872" lon="12.3035152"><ele>247.0</ele><time>2026-04-04T12:57:43.97Z</time></trkpt><trkpt lat="42.5636511" lon="12.3035999"><ele>247.0</ele><time>2026-04-04T12:57:44.969Z</time></trkpt><trkpt lat="42.5635183" lon="12.3036875"><ele>247.0</ele><time>2026-04-04T12:57:45.978Z</time></trkpt><trkpt lat="42.5633849" lon="12.3037788"><ele>247.0</ele><time>2026-04-04T12:57:46.973Z</time></trkpt><trkpt lat="42.5632501" lon="12.3038691"><ele>247.0</ele><time>2026-04-04T12:57:47.975Z</time></trkpt><trkpt lat="42.5631126" lon="12.303961"><ele>249.75</ele><time>2026-04-04T12:57:48.978Z</time></trkpt><trkpt lat="42.562977" lon="12.3040485"><ele>252.5</ele><time>2026-04-04T12:57:49.992Z</time></trkpt><trkpt lat="42.5628415" lon="12.3041298"><ele>255.25</ele><time>2026-04-04T12:57:50.956Z</time></trkpt><trkpt lat="42.5627206" lon="12.3042117"><ele>258.0</ele><time>2026-04-04T12:57:51.971Z</time></trkpt><trkpt lat="42.5626127" lon="12.3042972"><ele>258.0</ele><time>2026-04-04T12:57:52.958Z</time></trkpt><trkpt lat="42.5625141" lon="12.3043894"><ele>258.0</ele><time>2026-04-04T12:57:53.984Z</time></trkpt><trkpt lat="42.5624261" lon="12.304499"><ele>258.0</ele><time>2026-04-04T12:57:54.997Z</time></trkpt><trkpt lat="42.56235" lon="12.3046234"><ele>258.0</ele><time>2026-04-04T12:57:56.024Z</time></trkpt><trkpt lat="42.5622826" lon="12.3047566"><ele>256.8</ele><time>2026-04-04T12:57:56.977Z</time></trkpt><trkpt lat="42.5622198" lon="12.3048903"><ele>255.60000000000002</ele><time>2026-04-04T12:57:58.005Z</time></trkpt><trkpt lat="42.5621694" lon="12.3050175"><ele>254.39999999999998</ele><time>2026-04-04T12:57:59.008Z</time></trkpt><trkpt lat="42.5621249" lon="12.3051331"><ele>253.2</ele><time>2026-04-04T12:57:59.998Z</time></trkpt><trkpt lat="42.5620835" lon="12.3052267"><ele>252.0</ele><time>2026-04-04T12:58:00.986Z</time></trkpt><trkpt lat="42.5620166" lon="12.3053197"><ele>255.0</ele><time>2026-04-04T12:58:02.969Z</time></trkpt><trkpt lat="42.5620687" lon="12.3052611"><ele>258.0</ele><time>2026-04-04T12:58:06.983Z</time></trkpt><trkpt lat="42.5620919" lon="12.3051721"><ele>261.0</ele><time>2026-04-04T12:58:07.972Z</time></trkpt><trkpt lat="42.5621115" lon="12.3050773"><ele>264.0</ele><time>2026-04-04T12:58:08.994Z</time></trkpt><trkpt lat="42.5621296" lon="12.3049905"><ele>267.0</ele><time>2026-04-04T12:58:09.966Z</time></trkpt><trkpt lat="42.562151" lon="12.3049099"><ele>270.0</ele><time>2026-04-04T12:58:11.006Z</time></trkpt><trkpt lat="42.5621785" lon="12.3047549"><ele>267.0</ele><time>2026-04-04T12:58:12.977Z</time></trkpt><trkpt lat="42.56212" lon="12.3045842"><ele>264.0</ele><time>2026-04-04T12:58:14.996Z</time></trkpt><trkpt lat="42.5620525" lon="12.3044795"><ele>261.0</ele><time>2026-04-04T12:58:15.996Z</time></trkpt><trkpt lat="42.5619814" lon="12.3043539"><ele>258.0</ele><time>2026-04-04T12:58:16.974Z</time></trkpt><trkpt lat="42.5619075" lon="12.3042149"><ele>254.5</ele><time>2026-04-04T12:58:17.957Z</time></trkpt><trkpt lat="42.5618302" lon="12.3040733"><ele>251.0</ele><time>2026-04-04T12:58:18.979Z</time></trkpt><trkpt lat="42.5617516" lon="12.3039322"><ele>247.5</ele><time>2026-04-04T12:58:19.982Z</time></trkpt><trkpt lat="42.5616782" lon="12.303792"><ele>244.0</ele><time>2026-04-04T12:58:20.981Z</time></trkpt><trkpt lat="42.5616055" lon="12.3036615"><ele>243.49999999999997</ele><time>2026-04-04T12:58:21.98Z</time></trkpt><trkpt lat="42.5615503" lon="12.3035564"><ele>243.0</ele><time>2026-04-04T12:58:23.039Z</time></trkpt><trkpt lat="42.5615133" lon="12.3034673"><ele>242.5</ele><time>2026-04-04T12:58:24.035Z</time></trkpt><trkpt lat="42.5614991" lon="12.303373"><ele>242.0</ele><time>2026-04-04T12:58:25.041Z</time></trkpt><trkpt lat="42.5615105" lon="12.3032651"><ele>241.49999999999997</ele><time>2026-04-04T12:58:26.011Z</time></trkpt><trkpt lat="42.5615423" lon="12.3031713"><ele>241.0</ele><time>2026-04-04T12:58:27Z</time></trkpt><trkpt lat="42.5615598" lon="12.3030865"><ele>239.20000000000002</ele><time>2026-04-04T12:58:28.002Z</time></trkpt><trkpt lat="42.5614879" lon="12.3029496"><ele>237.40000000000003</ele><time>2026-04-04T12:58:30Z</time></trkpt><trkpt lat="42.5614012" lon="12.3029103"><ele>235.6</ele><time>2026-04-04T12:58:31.023Z</time></trkpt><trkpt lat="42.5612999" lon="12.3028752"><ele>233.8</ele><time>2026-04-04T12:58:32.001Z</time></trkpt><trkpt lat="42.5612105" lon="12.3028511"><ele>232.0</ele><time>2026-04-04T12:58:33.001Z</time></trkpt><trkpt lat="42.5611445" lon="12.3028551"><ele>230.2</ele><time>2026-04-04T12:58:34.008Z</time></trkpt><trkpt lat="42.5610337" lon="12.3029747"><ele>228.39999999999998</ele><time>2026-04-04T12:58:36Z</time></trkpt><trkpt lat="42.5609726" lon="12.3030644"><ele>226.60000000000002</ele><time>2026-04-04T12:58:37.001Z</time></trkpt><trkpt lat="42.5609153" lon="12.3031489"><ele>224.8</ele><time>2026-04-04T12:58:37.982Z</time></trkpt><trkpt lat="42.5608622" lon="12.3032175"><ele>223.0</ele><time>2026-04-04T12:58:39Z</time></trkpt><trkpt lat="42.5608057" lon="12.3032581"><ele>222.99999999999997</ele><time>2026-04-04T12:58:40.015Z</time></trkpt><trkpt lat="42.560739" lon="12.3032294"><ele>223.0</ele><time>2026-04-04T12:58:41.043Z</time></trkpt><trkpt lat="42.560661" lon="12.3031652"><ele>223.0</ele><time>2026-04-04T12:58:41.993Z</time></trkpt><trkpt lat="42.5605844" lon="12.3030988"><ele>223.0</ele><time>2026-04-04T12:58:43.001Z</time></trkpt><trkpt lat="42.5605192" lon="12.3030258"><ele>222.99999999999997</ele><time>2026-04-04T12:58:43.99Z</time></trkpt><trkpt lat="42.5604643" lon="12.302955"><ele>223.0</ele><time>2026-04-04T12:58:44.985Z</time></trkpt><trkpt lat="42.5604079" lon="12.3028903"><ele>218.83333333333331</ele><time>2026-04-04T12:58:46.039Z</time></trkpt><trkpt lat="42.5603427" lon="12.3028314"><ele>214.66666666666666</ele><time>2026-04-04T12:58:47.01Z</time></trkpt><trkpt lat="42.5602756" lon="12.3027773"><ele>210.5</ele><time>2026-04-04T12:58:48.01Z</time></trkpt><trkpt lat="42.5602085" lon="12.3027249"><ele>206.33333333333331</ele><time>2026-04-04T12:58:49.007Z</time></trkpt><trkpt lat="42.5601397" lon="12.3026684"><ele>202.16666666666666</ele><time>2026-04-04T12:58:49.996Z</time></trkpt><trkpt lat="42.5600731" lon="12.3026031"><ele>198.0</ele><time>2026-04-04T12:58:51.038Z</time></trkpt><trkpt lat="42.5600074" lon="12.3025373"><ele>198.0</ele><time>2026-04-04T12:58:51.997Z</time></trkpt><trkpt lat="42.5599396" lon="12.3024713"><ele>198.0</ele><time>2026-04-04T12:58:52.999Z</time></trkpt><trkpt lat="42.5598792" lon="12.302403"><ele>198.0</ele><time>2026-04-04T12:58:54.041Z</time></trkpt><trkpt lat="42.5598257" lon="12.3023396"><ele>198.0</ele><time>2026-04-04T12:58:55.035Z</time></trkpt><trkpt lat="42.559772" lon="12.3022804"><ele>198.0</ele><time>2026-04-04T12:58:56.041Z</time></trkpt><trkpt lat="42.5597107" lon="12.3022224"><ele>198.0</ele><time>2026-04-04T12:58:56.979Z</time></trkpt><trkpt lat="42.5596455" lon="12.3021559"><ele>196.4</ele><time>2026-04-04T12:58:57.976Z</time></trkpt><trkpt lat="42.5595754" lon="12.3020837"><ele>194.8</ele><time>2026-04-04T12:58:59.04Z</time></trkpt><trkpt lat="42.5595071" lon="12.3020006"><ele>193.2</ele><time>2026-04-04T12:59:00.048Z</time></trkpt><trkpt lat="42.5594329" lon="12.3019049"><ele>191.6</ele><time>2026-04-04T12:59:01.04Z</time></trkpt><trkpt lat="42.5593529" lon="12.3018054"><ele>190.0</ele><time>2026-04-04T12:59:01.983Z</time></trkpt><trkpt lat="42.559261" lon="12.3016919"><ele>187.25</ele><time>2026-04-04T12:59:02.969Z</time></trkpt><trkpt lat="42.5591685" lon="12.3015813"><ele>184.5</ele><time>2026-04-04T12:59:04.037Z</time></trkpt><trkpt lat="42.5590684" lon="12.3014787"><ele>181.75</ele><time>2026-04-04T12:59:05.035Z</time></trkpt><trkpt lat="42.5589538" lon="12.3013674"><ele>179.0</ele><time>2026-04-04T12:59:06.038Z</time></trkpt><trkpt lat="42.5588342" lon="12.3012485"><ele>177.25</ele><time>2026-04-04T12:59:07.004Z</time></trkpt><trkpt lat="42.5587293" lon="12.3011363"><ele>175.5</ele><time>2026-04-04T12:59:07.994Z</time></trkpt><trkpt lat="42.5586338" lon="12.3010254"><ele>173.75</ele><time>2026-04-04T12:59:09.004Z</time></trkpt><trkpt lat="42.5585386" lon="12.3009241"><ele>172.0</ele><time>2026-04-04T12:59:09.996Z</time></trkpt><trkpt lat="42.5584521" lon="12.3008275"><ele>171.0</ele><time>2026-04-04T12:59:11.002Z</time></trkpt><trkpt lat="42.5583709" lon="12.3007408"><ele>170.0</ele><time>2026-04-04T12:59:11.994Z</time></trkpt><trkpt lat="42.5582938" lon="12.3006588"><ele>169.0</ele><time>2026-04-04T12:59:13Z</time></trkpt><trkpt lat="42.5582201" lon="12.3005822"><ele>168.0</ele><time>2026-04-04T12:59:13.986Z</time></trkpt><trkpt lat="42.5581499" lon="12.300517"><ele>167.0</ele><time>2026-04-04T12:59:15.036Z</time></trkpt><trkpt lat="42.5580812" lon="12.30047"><ele>167.0</ele><time>2026-04-04T12:59:15.998Z</time></trkpt><trkpt lat="42.5580088" lon="12.3004549"><ele>167.0</ele><time>2026-04-04T12:59:17.008Z</time></trkpt><trkpt lat="42.5579279" lon="12.3004608"><ele>167.0</ele><time>2026-04-04T12:59:17.994Z</time></trkpt><trkpt lat="42.5578354" lon="12.3004903"><ele>167.0</ele><time>2026-04-04T12:59:19.005Z</time></trkpt><trkpt lat="42.5577557" lon="12.3005322"><ele>167.0</ele><time>2026-04-04T12:59:20.001Z</time></trkpt><trkpt lat="42.5576795" lon="12.3005583"><ele>167.0</ele><time>2026-04-04T12:59:21.062Z</time></trkpt><trkpt lat="42.5575992" lon="12.3005618"><ele>166.2</ele><time>2026-04-04T12:59:21.999Z</time></trkpt><trkpt lat="42.5575021" lon="12.3005593"><ele>165.39999999999998</ele><time>2026-04-04T12:59:23.002Z</time></trkpt><trkpt lat="42.5573973" lon="12.3005722"><ele>164.60000000000002</ele><time>2026-04-04T12:59:24.039Z</time></trkpt><trkpt lat="42.5572995" lon="12.3005958"><ele>163.8</ele><time>2026-04-04T12:59:25.037Z</time></trkpt><trkpt lat="42.5571936" lon="12.3006233"><ele>163.0</ele><time>2026-04-04T12:59:26.039Z</time></trkpt><trkpt lat="42.5570822" lon="12.3006443"><ele>162.4</ele><time>2026-04-04T12:59:27.01Z</time></trkpt><trkpt lat="42.5569626" lon="12.3006588"><ele>161.8</ele><time>2026-04-04T12:59:27.999Z</time></trkpt><trkpt lat="42.5568471" lon="12.300666"><ele>161.2</ele><time>2026-04-04T12:59:29.042Z</time></trkpt><trkpt lat="42.5567484" lon="12.3006808"><ele>160.6</ele><time>2026-04-04T12:59:30.055Z</time></trkpt><trkpt lat="42.5566799" lon="12.3007053"><ele>160.0</ele><time>2026-04-04T12:59:31.036Z</time></trkpt><trkpt lat="42.5565878" lon="12.3007861"><ele>160.0</ele><time>2026-04-04T12:59:33.002Z</time></trkpt><trkpt lat="42.5565034" lon="12.3009013"><ele>160.0</ele><time>2026-04-04T12:59:35.039Z</time></trkpt><trkpt lat="42.5564517" lon="12.3009704"><ele>160.0</ele><time>2026-04-04T12:59:36.036Z</time></trkpt><trkpt lat="42.5563957" lon="12.3010559"><ele>160.0</ele><time>2026-04-04T12:59:37.008Z</time></trkpt><trkpt lat="42.5563389" lon="12.3011552"><ele>160.0</ele><time>2026-04-04T12:59:38.003Z</time></trkpt><trkpt lat="42.556286" lon="12.301266"><ele>160.0</ele><time>2026-04-04T12:59:38.992Z</time></trkpt><trkpt lat="42.556233" lon="12.3013715"><ele>160.0</ele><time>2026-04-04T12:59:40.031Z</time></trkpt><trkpt lat="42.5561744" lon="12.301477"><ele>160.0</ele><time>2026-04-04T12:59:41.039Z</time></trkpt><trkpt lat="42.5561086" lon="12.3015657"><ele>160.0</ele><time>2026-04-04T12:59:42.006Z</time></trkpt><trkpt lat="42.5560146" lon="12.3016212"><ele>160.0</ele><time>2026-04-04T12:59:43.001Z</time></trkpt><trkpt lat="42.5558956" lon="12.3016658"><ele>162.25</ele><time>2026-04-04T12:59:44.061Z</time></trkpt><trkpt lat="42.5557599" lon="12.3016803"><ele>164.5</ele><time>2026-04-04T12:59:45.038Z</time></trkpt><trkpt lat="42.5556208" lon="12.3016797"><ele>166.75</ele><time>2026-04-04T12:59:46.06Z</time></trkpt><trkpt lat="42.5554882" lon="12.3016727"><ele>169.0</ele><time>2026-04-04T12:59:47.006Z</time></trkpt><trkpt lat="42.5553561" lon="12.3016629"><ele>170.39999999999998</ele><time>2026-04-04T12:59:48.004Z</time></trkpt><trkpt lat="42.5552444" lon="12.3016705"><ele>171.8</ele><time>2026-04-04T12:59:48.977Z</time></trkpt><trkpt lat="42.5551516" lon="12.3016982"><ele>173.2</ele><time>2026-04-04T12:59:50.007Z</time></trkpt><trkpt lat="42.5550786" lon="12.301754"><ele>174.60000000000002</ele><time>2026-04-04T12:59:51.008Z</time></trkpt><trkpt lat="42.5550263" lon="12.3018453"><ele>176.0</ele><time>2026-04-04T12:59:52.007Z</time></trkpt><trkpt lat="42.5550073" lon="12.3019593"><ele>176.0</ele><time>2026-04-04T12:59:53.037Z</time></trkpt><trkpt lat="42.5550047" lon="12.3020923"><ele>176.0</ele><time>2026-04-04T12:59:53.995Z</time></trkpt><trkpt lat="42.5550115" lon="12.3022562"><ele>176.0</ele><time>2026-04-04T12:59:55.043Z</time></trkpt><trkpt lat="42.5550197" lon="12.3024336"><ele>176.0</ele><time>2026-04-04T12:59:56.035Z</time></trkpt><trkpt lat="42.5550266" lon="12.3025984"><ele>176.5</ele><time>2026-04-04T12:59:56.973Z</time></trkpt><trkpt lat="42.5550332" lon="12.3027463"><ele>177.0</ele><time>2026-04-04T12:59:57.97Z</time></trkpt><trkpt lat="42.5550387" lon="12.3028685"><ele>177.5</ele><time>2026-04-04T12:59:58.972Z</time></trkpt><trkpt lat="42.5550346" lon="12.3029748"><ele>178.0</ele><time>2026-04-04T12:59:59.982Z</time></trkpt><trkpt lat="42.5550066" lon="12.3030721"><ele>178.5</ele><time>2026-04-04T13:00:00.981Z</time></trkpt><trkpt lat="42.5549582" lon="12.3031685"><ele>179.0</ele><time>2026-04-04T13:00:01.964Z</time></trkpt><trkpt lat="42.5549068" lon="12.3032605"><ele>179.5</ele><time>2026-04-04T13:00:02.979Z</time></trkpt><trkpt lat="42.5548604" lon="12.3033456"><ele>180.0</ele><time>2026-04-04T13:00:04.04Z</time></trkpt><trkpt lat="42.5548193" lon="12.303427"><ele>180.5</ele><time>2026-04-04T13:00:05.003Z</time></trkpt><trkpt lat="42.5547339" lon="12.3035247"><ele>181.0</ele><time>2026-04-04T13:00:06.991Z</time></trkpt><trkpt lat="42.5546681" lon="12.3035502"><ele>181.5</ele><time>2026-04-04T13:00:07.986Z</time></trkpt><trkpt lat="42.5546063" lon="12.3035797"><ele>182.0</ele><time>2026-04-04T13:00:09.005Z</time></trkpt><trkpt lat="42.5545438" lon="12.3036233"><ele>179.8</ele><time>2026-04-04T13:00:09.985Z</time></trkpt><trkpt lat="42.5544744" lon="12.3036957"><ele>177.6</ele><time>2026-04-04T13:00:10.997Z</time></trkpt><trkpt lat="42.5544062" lon="12.3037844"><ele>175.4</ele><time>2026-04-04T13:00:11.991Z</time></trkpt><trkpt lat="42.5543433" lon="12.303876"><ele>173.20000000000002</ele><time>2026-04-04T13:00:13.005Z</time></trkpt><trkpt lat="42.5542805" lon="12.3039725"><ele>171.0</ele><time>2026-04-04T13:00:13.996Z</time></trkpt><trkpt lat="42.5542061" lon="12.3040872"><ele>171.0</ele><time>2026-04-04T13:00:15.007Z</time></trkpt><trkpt lat="42.5541308" lon="12.3042107"><ele>171.0</ele><time>2026-04-04T13:00:15.98Z</time></trkpt><trkpt lat="42.5540522" lon="12.3043267"><ele>171.0</ele><time>2026-04-04T13:00:16.99Z</time></trkpt><trkpt lat="42.5539767" lon="12.3044358"><ele>171.0</ele><time>2026-04-04T13:00:18.009Z</time></trkpt><trkpt lat="42.5539179" lon="12.3045198"><ele>171.0</ele><time>2026-04-04T13:00:19.023Z</time></trkpt><trkpt lat="42.5538716" lon="12.3045889"><ele>171.0</ele><time>2026-04-04T13:00:20.02Z</time></trkpt><trkpt lat="42.5538275" lon="12.3046598"><ele>171.0</ele><time>2026-04-04T13:00:21.022Z</time></trkpt><trkpt lat="42.5537841" lon="12.3047393"><ele>171.0</ele><time>2026-04-04T13:00:21.997Z</time></trkpt><trkpt lat="42.5537403" lon="12.3048458"><ele>171.0</ele><time>2026-04-04T13:00:23.004Z</time></trkpt><trkpt lat="42.5536989" lon="12.3049657"><ele>171.0</ele><time>2026-04-04T13:00:24.017Z</time></trkpt><trkpt lat="42.5536655" lon="12.305074"><ele>171.0</ele><time>2026-04-04T13:00:24.994Z</time></trkpt><trkpt lat="42.5536441" lon="12.3051732"><ele>170.83333333333334</ele><time>2026-04-04T13:00:26.036Z</time></trkpt><trkpt lat="42.553629" lon="12.305263"><ele>170.66666666666666</ele><time>2026-04-04T13:00:27.005Z</time></trkpt><trkpt lat="42.5535823" lon="12.3053721"><ele>170.5</ele><time>2026-04-04T13:00:28.996Z</time></trkpt><trkpt lat="42.5535129" lon="12.3053758"><ele>170.33333333333331</ele><time>2026-04-04T13:00:30.994Z</time></trkpt><trkpt lat="42.5534347" lon="12.305349"><ele>170.16666666666666</ele><time>2026-04-04T13:00:32.995Z</time></trkpt><trkpt lat="42.5533792" lon="12.305297"><ele>170.0</ele><time>2026-04-04T13:00:34.021Z</time></trkpt><trkpt lat="42.5533269" lon="12.3052309"><ele>170.0</ele><time>2026-04-04T13:00:34.996Z</time></trkpt><trkpt lat="42.5532824" lon="12.3051383"><ele>170.0</ele><time>2026-04-04T13:00:36.019Z</time></trkpt><trkpt lat="42.553245" lon="12.3050296"><ele>170.0</ele><time>2026-04-04T13:00:37.004Z</time></trkpt><trkpt lat="42.5532004" lon="12.3049233"><ele>170.0</ele><time>2026-04-04T13:00:38.006Z</time></trkpt><trkpt lat="42.5531283" lon="12.3048084"><ele>170.0</ele><time>2026-04-04T13:00:39.001Z</time></trkpt><trkpt lat="42.5530424" lon="12.3047098"><ele>169.5</ele><time>2026-04-04T13:00:39.992Z</time></trkpt><trkpt lat="42.5529501" lon="12.3046344"><ele>169.0</ele><time>2026-04-04T13:00:41.002Z</time></trkpt><trkpt lat="42.5528419" lon="12.304579"><ele>168.5</ele><time>2026-04-04T13:00:41.996Z</time></trkpt><trkpt lat="42.5527318" lon="12.3045306"><ele>168.0</ele><time>2026-04-04T13:00:43.035Z</time></trkpt><trkpt lat="42.5526139" lon="12.3044858"><ele>170.75</ele><time>2026-04-04T13:00:44.036Z</time></trkpt><trkpt lat="42.5524895" lon="12.3044373"><ele>173.5</ele><time>2026-04-04T13:00:45.041Z</time></trkpt><trkpt lat="42.5523606" lon="12.30438"><ele>176.25</ele><time>2026-04-04T13:00:46.043Z</time></trkpt><trkpt lat="42.5522223" lon="12.3043189"><ele>179.0</ele><time>2026-04-04T13:00:47.004Z</time></trkpt><trkpt lat="42.5520863" lon="12.3042516"><ele>181.25</ele><time>2026-04-04T13:00:48.007Z</time></trkpt><trkpt lat="42.5519666" lon="12.3041992"><ele>183.5</ele><time>2026-04-04T13:00:49.002Z</time></trkpt><trkpt lat="42.5518586" lon="12.3041816"><ele>185.75</ele><time>2026-04-04T13:00:49.999Z</time></trkpt><trkpt lat="42.5517484" lon="12.3041975"><ele>188.0</ele><time>2026-04-04T13:00:50.996Z</time></trkpt><trkpt lat="42.551624" lon="12.3042423"><ele>188.0</ele><time>2026-04-04T13:00:52.001Z</time></trkpt><trkpt lat="42.5514885" lon="12.304304"><ele>188.0</ele><time>2026-04-04T13:00:53.004Z</time></trkpt><trkpt lat="42.5513507" lon="12.3043739"><ele>188.0</ele><time>2026-04-04T13:00:54.041Z</time></trkpt><trkpt lat="42.5512162" lon="12.3044366"><ele>188.0</ele><time>2026-04-04T13:00:54.985Z</time></trkpt><trkpt lat="42.551087" lon="12.3044872"><ele>188.75</ele><time>2026-04-04T13:00:55.978Z</time></trkpt><trkpt lat="42.5509611" lon="12.3045287"><ele>189.5</ele><time>2026-04-04T13:00:56.972Z</time></trkpt><trkpt lat="42.5508416" lon="12.3045688"><ele>190.25</ele><time>2026-04-04T13:00:57.972Z</time></trkpt><trkpt lat="42.5507317" lon="12.3046126"><ele>191.0</ele><time>2026-04-04T13:00:58.982Z</time></trkpt><trkpt lat="42.5506246" lon="12.3046712"><ele>194.75</ele><time>2026-04-04T13:00:59.976Z</time></trkpt><trkpt lat="42.5505063" lon="12.3047668"><ele>198.5</ele><time>2026-04-04T13:01:01.063Z</time></trkpt><trkpt lat="42.5503921" lon="12.3048793"><ele>202.25</ele><time>2026-04-04T13:01:02.006Z</time></trkpt><trkpt lat="42.5502942" lon="12.3049883"><ele>206.0</ele><time>2026-04-04T13:01:03.005Z</time></trkpt><trkpt lat="42.5502207" lon="12.3050882"><ele>206.00000000000003</ele><time>2026-04-04T13:01:04.042Z</time></trkpt><trkpt lat="42.5501629" lon="12.3051914"><ele>206.0</ele><time>2026-04-04T13:01:05.04Z</time></trkpt><trkpt lat="42.5501183" lon="12.3052964"><ele>206.0</ele><time>2026-04-04T13:01:06.046Z</time></trkpt><trkpt lat="42.5500964" lon="12.3053838"><ele>206.0</ele><time>2026-04-04T13:01:06.986Z</time></trkpt><trkpt lat="42.5501104" lon="12.3054979"><ele>206.00000000000003</ele><time>2026-04-04T13:01:08.962Z</time></trkpt><trkpt lat="42.5502041" lon="12.3054989"><ele>206.0</ele><time>2026-04-04T13:01:11.016Z</time></trkpt><trkpt lat="42.5502844" lon="12.3054701"><ele>206.20000000000002</ele><time>2026-04-04T13:01:11.963Z</time></trkpt><trkpt lat="42.5503846" lon="12.3054373"><ele>206.4</ele><time>2026-04-04T13:01:12.979Z</time></trkpt><trkpt lat="42.5504947" lon="12.3054036"><ele>206.6</ele><time>2026-04-04T13:01:13.984Z</time></trkpt><trkpt lat="42.5506009" lon="12.305382"><ele>206.8</ele><time>2026-04-04T13:01:15.039Z</time></trkpt><trkpt lat="42.550696" lon="12.3053712"><ele>207.0</ele><time>2026-04-04T13:01:15.976Z</time></trkpt><trkpt lat="42.5507852" lon="12.3053732"><ele>207.0</ele><time>2026-04-04T13:01:16.969Z</time></trkpt><trkpt lat="42.5508673" lon="12.3053912"><ele>207.0</ele><time>2026-04-04T13:01:17.981Z</time></trkpt><trkpt lat="42.5509434" lon="12.3054321"><ele>207.0</ele><time>2026-04-04T13:01:18.957Z</time></trkpt><trkpt lat="42.5510138" lon="12.3054894"><ele>207.0</ele><time>2026-04-04T13:01:19.965Z</time></trkpt><trkpt lat="42.5510767" lon="12.3055561"><ele>207.0</ele><time>2026-04-04T13:01:20.965Z</time></trkpt><trkpt lat="42.5511395" lon="12.3056295"><ele>207.0</ele><time>2026-04-04T13:01:21.963Z</time></trkpt><trkpt lat="42.5512008" lon="12.3057048"><ele>208.6</ele><time>2026-04-04T13:01:22.982Z</time></trkpt><trkpt lat="42.551256" lon="12.305792"><ele>210.2</ele><time>2026-04-04T13:01:23.97Z</time></trkpt><trkpt lat="42.5513128" lon="12.3058985"><ele>211.8</ele><time>2026-04-04T13:01:24.981Z</time></trkpt><trkpt lat="42.5513684" lon="12.3060138"><ele>213.4</ele><time>2026-04-04T13:01:25.963Z</time></trkpt><trkpt lat="42.5514169" lon="12.3061365"><ele>215.0</ele><time>2026-04-04T13:01:26.958Z</time></trkpt><trkpt lat="42.551463" lon="12.3062605"><ele>215.00000000000003</ele><time>2026-04-04T13:01:27.975Z</time></trkpt><trkpt lat="42.5515035" lon="12.3063853"><ele>215.0</ele><time>2026-04-04T13:01:28.981Z</time></trkpt><trkpt lat="42.5515331" lon="12.3065007"><ele>215.0</ele><time>2026-04-04T13:01:29.98Z</time></trkpt><trkpt lat="42.5515416" lon="12.3066115"><ele>215.0</ele><time>2026-04-04T13:01:30.984Z</time></trkpt><trkpt lat="42.5515359" lon="12.3067171"><ele>215.00000000000003</ele><time>2026-04-04T13:01:31.973Z</time></trkpt><trkpt lat="42.5515164" lon="12.3068106"><ele>215.0</ele><time>2026-04-04T13:01:33.013Z</time></trkpt><trkpt lat="42.5514893" lon="12.3069052"><ele>217.66666666666669</ele><time>2026-04-04T13:01:34.039Z</time></trkpt><trkpt lat="42.5514536" lon="12.3070027"><ele>220.33333333333334</ele><time>2026-04-04T13:01:35.014Z</time></trkpt><trkpt lat="42.5514134" lon="12.3070989"><ele>223.0</ele><time>2026-04-04T13:01:35.976Z</time></trkpt><trkpt lat="42.5513674" lon="12.3071946"><ele>225.66666666666669</ele><time>2026-04-04T13:01:36.981Z</time></trkpt><trkpt lat="42.5513159" lon="12.3073032"><ele>228.33333333333334</ele><time>2026-04-04T13:01:37.981Z</time></trkpt><trkpt lat="42.5512697" lon="12.3074362"><ele>231.0</ele><time>2026-04-04T13:01:38.974Z</time></trkpt><trkpt lat="42.5512368" lon="12.3075902"><ele>233.0</ele><time>2026-04-04T13:01:39.976Z</time></trkpt><trkpt lat="42.5512089" lon="12.3077599"><ele>235.0</ele><time>2026-04-04T13:01:40.981Z</time></trkpt><trkpt lat="42.5511863" lon="12.3079255"><ele>237.0</ele><time>2026-04-04T13:01:41.973Z</time></trkpt><trkpt lat="42.5511609" lon="12.3080742"><ele>239.0</ele><time>2026-04-04T13:01:42.976Z</time></trkpt><trkpt lat="42.5511353" lon="12.3082084"><ele>242.0</ele><time>2026-04-04T13:01:44.025Z</time></trkpt><trkpt lat="42.5510941" lon="12.3083327"><ele>244.99999999999997</ele><time>2026-04-04T13:01:44.986Z</time></trkpt><trkpt lat="42.5510425" lon="12.3084542"><ele>247.99999999999997</ele><time>2026-04-04T13:01:45.984Z</time></trkpt><trkpt lat="42.5509861" lon="12.3085722"><ele>251.0</ele><time>2026-04-04T13:01:46.973Z</time></trkpt><trkpt lat="42.55092" lon="12.3086807"><ele>254.0</ele><time>2026-04-04T13:01:47.977Z</time></trkpt><trkpt lat="42.5508444" lon="12.3087848"><ele>254.0</ele><time>2026-04-04T13:01:48.983Z</time></trkpt><trkpt lat="42.5507652" lon="12.3088903"><ele>253.99999999999997</ele><time>2026-04-04T13:01:49.973Z</time></trkpt><trkpt lat="42.5506838" lon="12.3089954"><ele>253.99999999999997</ele><time>2026-04-04T13:01:51.014Z</time></trkpt><trkpt lat="42.5506052" lon="12.3091052"><ele>254.0</ele><time>2026-04-04T13:01:51.981Z</time></trkpt><trkpt lat="42.5505297" lon="12.309204"><ele>254.0</ele><time>2026-04-04T13:01:52.983Z</time></trkpt><trkpt lat="42.5504666" lon="12.3092851"><ele>253.79999999999998</ele><time>2026-04-04T13:01:53.974Z</time></trkpt><trkpt lat="42.5504144" lon="12.3093692"><ele>253.59999999999997</ele><time>2026-04-04T13:01:55.046Z</time></trkpt><trkpt lat="42.5503753" lon="12.3094584"><ele>253.4</ele><time>2026-04-04T13:01:56.041Z</time></trkpt><trkpt lat="42.5503571" lon="12.3095752"><ele>253.2</ele><time>2026-04-04T13:01:56.978Z</time></trkpt><trkpt lat="42.5503663" lon="12.3097233"><ele>253.0</ele><time>2026-04-04T13:01:57.968Z</time></trkpt><trkpt lat="42.5503885" lon="12.3098643"><ele>252.2</ele><time>2026-04-04T13:01:59.04Z</time></trkpt><trkpt lat="42.5503975" lon="12.3100016"><ele>251.4</ele><time>2026-04-04T13:01:59.996Z</time></trkpt><trkpt lat="42.5503967" lon="12.310142"><ele>250.59999999999997</ele><time>2026-04-04T13:02:01.04Z</time></trkpt><trkpt lat="42.5503873" lon="12.310271"><ele>249.79999999999998</ele><time>2026-04-04T13:02:01.995Z</time></trkpt><trkpt lat="42.5503726" lon="12.3103805"><ele>249.0</ele><time>2026-04-04T13:02:03.006Z</time></trkpt><trkpt lat="42.5503436" lon="12.3104693"><ele>253.0</ele><time>2026-04-04T13:02:03.993Z</time></trkpt><trkpt lat="42.5502984" lon="12.3105496"><ele>257.0</ele><time>2026-04-04T13:02:05.04Z</time></trkpt><trkpt lat="42.550226" lon="12.3106393"><ele>261.0</ele><time>2026-04-04T13:02:06.039Z</time></trkpt><trkpt lat="42.5501463" lon="12.3107483"><ele>265.0</ele><time>2026-04-04T13:02:06.993Z</time></trkpt><trkpt lat="42.5500776" lon="12.3108674"><ele>269.0</ele><time>2026-04-04T13:02:08.007Z</time></trkpt><trkpt lat="42.5500275" lon="12.3109893"><ele>269.0</ele><time>2026-04-04T13:02:09.038Z</time></trkpt><trkpt lat="42.5499973" lon="12.3111147"><ele>269.0</ele><time>2026-04-04T13:02:10.037Z</time></trkpt><trkpt lat="42.5499874" lon="12.3112231"><ele>269.0</ele><time>2026-04-04T13:02:11.029Z</time></trkpt><trkpt lat="42.5499799" lon="12.3113204"><ele>269.0</ele><time>2026-04-04T13:02:11.967Z</time></trkpt><trkpt lat="42.5499325" lon="12.3114107"><ele>269.0</ele><time>2026-04-04T13:02:12.975Z</time></trkpt><trkpt lat="42.5498514" lon="12.3115013"><ele>269.0</ele><time>2026-04-04T13:02:14.052Z</time></trkpt><trkpt lat="42.5497637" lon="12.3116239"><ele>269.25</ele><time>2026-04-04T13:02:15.013Z</time></trkpt><trkpt lat="42.5496817" lon="12.3117857"><ele>269.5</ele><time>2026-04-04T13:02:16.046Z</time></trkpt><trkpt lat="42.5496078" lon="12.3119495"><ele>269.75</ele><time>2026-04-04T13:02:16.975Z</time></trkpt><trkpt lat="42.5495602" lon="12.3120785"><ele>270.0</ele><time>2026-04-04T13:02:17.981Z</time></trkpt><trkpt lat="42.5495262" lon="12.3121828"><ele>270.0</ele><time>2026-04-04T13:02:18.959Z</time></trkpt><trkpt lat="42.549503" lon="12.3122756"><ele>270.0</ele><time>2026-04-04T13:02:19.962Z</time></trkpt><trkpt lat="42.5494666" lon="12.3123872"><ele>270.0</ele><time>2026-04-04T13:02:21.973Z</time></trkpt><trkpt lat="42.5494013" lon="12.3123792"><ele>270.0</ele><time>2026-04-04T13:02:24.035Z</time></trkpt><trkpt lat="42.5493473" lon="12.312313"><ele>270.0</ele><time>2026-04-04T13:02:25.009Z</time></trkpt><trkpt lat="42.549292" lon="12.3122243"><ele>270.0</ele><time>2026-04-04T13:02:25.995Z</time></trkpt><trkpt lat="42.549222" lon="12.3121339"><ele>270.0</ele><time>2026-04-04T13:02:26.986Z</time></trkpt><trkpt lat="42.5491438" lon="12.3120473"><ele>270.0</ele><time>2026-04-04T13:02:27.996Z</time></trkpt><trkpt lat="42.5490592" lon="12.3119644"><ele>270.0</ele><time>2026-04-04T13:02:28.995Z</time></trkpt><trkpt lat="42.5489694" lon="12.3118872"><ele>270.0</ele><time>2026-04-04T13:02:29.997Z</time></trkpt><trkpt lat="42.5488738" lon="12.3118133"><ele>270.0</ele><time>2026-04-04T13:02:31Z</time></trkpt><trkpt lat="42.5487815" lon="12.3117475"><ele>268.2</ele><time>2026-04-04T13:02:31.983Z</time></trkpt><trkpt lat="42.5486923" lon="12.3116843"><ele>266.4</ele><time>2026-04-04T13:02:33Z</time></trkpt><trkpt lat="42.5486079" lon="12.3116229"><ele>264.6</ele><time>2026-04-04T13:02:34.041Z</time></trkpt><trkpt lat="42.5485251" lon="12.3115634"><ele>262.8</ele><time>2026-04-04T13:02:34.993Z</time></trkpt><trkpt lat="42.548445" lon="12.3115036"><ele>261.0</ele><time>2026-04-04T13:02:36.009Z</time></trkpt><trkpt lat="42.5483677" lon="12.3114389"><ele>263.2</ele><time>2026-04-04T13:02:36.993Z</time></trkpt><trkpt lat="42.5482955" lon="12.3113664"><ele>265.40000000000003</ele><time>2026-04-04T13:02:38.001Z</time></trkpt><trkpt lat="42.5482252" lon="12.3112925"><ele>267.6</ele><time>2026-04-04T13:02:38.996Z</time></trkpt><trkpt lat="42.5481471" lon="12.3112124"><ele>269.8</ele><time>2026-04-04T13:02:40.019Z</time></trkpt><trkpt lat="42.5480619" lon="12.3111282"><ele>272.0</ele><time>2026-04-04T13:02:41.014Z</time></trkpt><trkpt lat="42.5479749" lon="12.3110477"><ele>272.0</ele><time>2026-04-04T13:02:41.986Z</time></trkpt><trkpt lat="42.54789" lon="12.3109687"><ele>272.0</ele><time>2026-04-04T13:02:42.995Z</time></trkpt><trkpt lat="42.5477934" lon="12.3109013"><ele>272.0</ele><time>2026-04-04T13:02:43.999Z</time></trkpt><trkpt lat="42.547692" lon="12.3108495"><ele>272.0</ele><time>2026-04-04T13:02:44.993Z</time></trkpt><trkpt lat="42.5475915" lon="12.3108074"><ele>272.0</ele><time>2026-04-04T13:02:46.021Z</time></trkpt><trkpt lat="42.5474895" lon="12.3107759"><ele>269.4</ele><time>2026-04-04T13:02:46.997Z</time></trkpt><trkpt lat="42.5473871" lon="12.3107712"><ele>266.79999999999995</ele><time>2026-04-04T13:02:47.991Z</time></trkpt><trkpt lat="42.5472851" lon="12.3107953"><ele>264.2</ele><time>2026-04-04T13:02:48.988Z</time></trkpt><trkpt lat="42.5471815" lon="12.3108434"><ele>261.59999999999997</ele><time>2026-04-04T13:02:50.001Z</time></trkpt><trkpt lat="42.5470753" lon="12.3109039"><ele>259.0</ele><time>2026-04-04T13:02:50.991Z</time></trkpt><trkpt lat="42.5469736" lon="12.310964"><ele>258.4</ele><time>2026-04-04T13:02:51.995Z</time></trkpt><trkpt lat="42.5468754" lon="12.3110184"><ele>257.79999999999995</ele><time>2026-04-04T13:02:52.996Z</time></trkpt><trkpt lat="42.5467757" lon="12.3110626"><ele>257.20000000000005</ele><time>2026-04-04T13:02:54.01Z</time></trkpt><trkpt lat="42.5466705" lon="12.3110819"><ele>256.6</ele><time>2026-04-04T13:02:55.016Z</time></trkpt><trkpt lat="42.5465662" lon="12.3110753"><ele>256.0</ele><time>2026-04-04T13:02:56.016Z</time></trkpt><trkpt lat="42.54646" lon="12.3110545"><ele>256.0</ele><time>2026-04-04T13:02:56.995Z</time></trkpt><trkpt lat="42.5463475" lon="12.3110214"><ele>256.0</ele><time>2026-04-04T13:02:58.004Z</time></trkpt><trkpt lat="42.5462324" lon="12.3109872"><ele>256.0</ele><time>2026-04-04T13:02:58.994Z</time></trkpt><trkpt lat="42.5461183" lon="12.3109509"><ele>256.0</ele><time>2026-04-04T13:03:00.001Z</time></trkpt><trkpt lat="42.5460083" lon="12.3109184"><ele>254.8</ele><time>2026-04-04T13:03:00.999Z</time></trkpt><trkpt lat="42.5459052" lon="12.3108889"><ele>253.60000000000002</ele><time>2026-04-04T13:03:01.997Z</time></trkpt><trkpt lat="42.5458014" lon="12.3108573"><ele>252.4</ele><time>2026-04-04T13:03:03.016Z</time></trkpt><trkpt lat="42.5456922" lon="12.3108303"><ele>251.2</ele><time>2026-04-04T13:03:04.054Z</time></trkpt><trkpt lat="42.5455789" lon="12.3107978"><ele>250.0</ele><time>2026-04-04T13:03:04.984Z</time></trkpt><trkpt lat="42.5454654" lon="12.3107645"><ele>247.6</ele><time>2026-04-04T13:03:06.002Z</time></trkpt><trkpt lat="42.5453543" lon="12.310732"><ele>245.2</ele><time>2026-04-04T13:03:07.008Z</time></trkpt><trkpt lat="42.5452493" lon="12.3107027"><ele>242.8</ele><time>2026-04-04T13:03:07.998Z</time></trkpt><trkpt lat="42.5451462" lon="12.3106718"><ele>240.4</ele><time>2026-04-04T13:03:09.007Z</time></trkpt><trkpt lat="42.5450471" lon="12.3106402"><ele>238.0</ele><time>2026-04-04T13:03:10.005Z</time></trkpt><trkpt lat="42.5449499" lon="12.3106069"><ele>239.60000000000002</ele><time>2026-04-04T13:03:10.997Z</time></trkpt><trkpt lat="42.5448536" lon="12.310563"><ele>241.20000000000002</ele><time>2026-04-04T13:03:11.976Z</time></trkpt><trkpt lat="42.5447621" lon="12.3104968"><ele>242.8</ele><time>2026-04-04T13:03:13.005Z</time></trkpt><trkpt lat="42.5446806" lon="12.310411"><ele>244.4</ele><time>2026-04-04T13:03:13.992Z</time></trkpt><trkpt lat="42.5446051" lon="12.3103054"><ele>246.0</ele><time>2026-04-04T13:03:15.004Z</time></trkpt><trkpt lat="42.5445503" lon="12.3101687"><ele>242.0</ele><time>2026-04-04T13:03:15.999Z</time></trkpt><trkpt lat="42.5445298" lon="12.3100051"><ele>238.0</ele><time>2026-04-04T13:03:16.985Z</time></trkpt><trkpt lat="42.5445161" lon="12.3098392"><ele>234.0</ele><time>2026-04-04T13:03:17.994Z</time></trkpt><trkpt lat="42.5445002" lon="12.3096845"><ele>230.0</ele><time>2026-04-04T13:03:19.005Z</time></trkpt><trkpt lat="42.5444891" lon="12.3095327"><ele>229.8</ele><time>2026-04-04T13:03:19.976Z</time></trkpt><trkpt lat="42.5444756" lon="12.3093797"><ele>229.6</ele><time>2026-04-04T13:03:20.994Z</time></trkpt><trkpt lat="42.5444595" lon="12.3092366"><ele>229.39999999999998</ele><time>2026-04-04T13:03:21.984Z</time></trkpt><trkpt lat="42.5444451" lon="12.3090958"><ele>229.2</ele><time>2026-04-04T13:03:22.991Z</time></trkpt><trkpt lat="42.5444278" lon="12.3089537"><ele>229.0</ele><time>2026-04-04T13:03:24.001Z</time></trkpt><trkpt lat="42.5443956" lon="12.3088107"><ele>229.0</ele><time>2026-04-04T13:03:25.002Z</time></trkpt><trkpt lat="42.5443445" lon="12.3086703"><ele>229.0</ele><time>2026-04-04T13:03:26.004Z</time></trkpt><trkpt lat="42.5442675" lon="12.3085399"><ele>229.0</ele><time>2026-04-04T13:03:27.011Z</time></trkpt><trkpt lat="42.5441732" lon="12.3084282"><ele>229.0</ele><time>2026-04-04T13:03:27.985Z</time></trkpt><trkpt lat="42.5440625" lon="12.3083268"><ele>229.0</ele><time>2026-04-04T13:03:29.034Z</time></trkpt><trkpt lat="42.5439523" lon="12.308231"><ele>229.0</ele><time>2026-04-04T13:03:30.006Z</time></trkpt><trkpt lat="42.5438411" lon="12.3081367"><ele>229.0</ele><time>2026-04-04T13:03:31Z</time></trkpt><trkpt lat="42.5437288" lon="12.3080377"><ele>229.0</ele><time>2026-04-04T13:03:31.974Z</time></trkpt><trkpt lat="42.5436121" lon="12.3079409"><ele>227.75</ele><time>2026-04-04T13:03:32.996Z</time></trkpt><trkpt lat="42.5435031" lon="12.3078497"><ele>226.5</ele><time>2026-04-04T13:03:34.05Z</time></trkpt><trkpt lat="42.5433983" lon="12.3077631"><ele>225.25</ele><time>2026-04-04T13:03:35.042Z</time></trkpt><trkpt lat="42.543295" lon="12.3076752"><ele>224.0</ele><time>2026-04-04T13:03:35.999Z</time></trkpt><trkpt lat="42.5431918" lon="12.3075829"><ele>224.0</ele><time>2026-04-04T13:03:36.998Z</time></trkpt><trkpt lat="42.5430863" lon="12.3074821"><ele>224.0</ele><time>2026-04-04T13:03:37.996Z</time></trkpt><trkpt lat="42.5429771" lon="12.3073842"><ele>224.0</ele><time>2026-04-04T13:03:38.996Z</time></trkpt><trkpt lat="42.5428687" lon="12.3072885"><ele>224.0</ele><time>2026-04-04T13:03:39.999Z</time></trkpt><trkpt lat="42.5427704" lon="12.3072027"><ele>223.39999999999998</ele><time>2026-04-04T13:03:41.004Z</time></trkpt><trkpt lat="42.5426777" lon="12.307124"><ele>222.79999999999998</ele><time>2026-04-04T13:03:42.016Z</time></trkpt><trkpt lat="42.5425834" lon="12.3070652"><ele>222.20000000000002</ele><time>2026-04-04T13:03:43.036Z</time></trkpt><trkpt lat="42.5424833" lon="12.3070237"><ele>221.60000000000002</ele><time>2026-04-04T13:03:44.041Z</time></trkpt><trkpt lat="42.5423757" lon="12.3069991"><ele>221.0</ele><time>2026-04-04T13:03:45.031Z</time></trkpt><trkpt lat="42.5422624" lon="12.3069982"><ele>221.0</ele><time>2026-04-04T13:03:45.976Z</time></trkpt><trkpt lat="42.5421397" lon="12.3070267"><ele>221.0</ele><time>2026-04-04T13:03:46.98Z</time></trkpt><trkpt lat="42.5420199" lon="12.3070608"><ele>221.0</ele><time>2026-04-04T13:03:47.985Z</time></trkpt><trkpt lat="42.5418982" lon="12.3071001"><ele>221.0</ele><time>2026-04-04T13:03:48.979Z</time></trkpt><trkpt lat="42.5417913" lon="12.3071399"><ele>223.25</ele><time>2026-04-04T13:03:49.973Z</time></trkpt><trkpt lat="42.5416777" lon="12.3071748"><ele>225.5</ele><time>2026-04-04T13:03:50.981Z</time></trkpt><trkpt lat="42.54157" lon="12.3071932"><ele>227.75</ele><time>2026-04-04T13:03:51.971Z</time></trkpt><trkpt lat="42.5414511" lon="12.3071991"><ele>230.0</ele><time>2026-04-04T13:03:52.979Z</time></trkpt><trkpt lat="42.5413341" lon="12.3071801"><ele>230.0</ele><time>2026-04-04T13:03:53.976Z</time></trkpt><trkpt lat="42.5412193" lon="12.3071518"><ele>230.0</ele><time>2026-04-04T13:03:54.983Z</time></trkpt><trkpt lat="42.5410985" lon="12.3071209"><ele>230.0</ele><time>2026-04-04T13:03:55.976Z</time></trkpt><trkpt lat="42.5409745" lon="12.3071021"><ele>230.0</ele><time>2026-04-04T13:03:57.041Z</time></trkpt><trkpt lat="42.540851" lon="12.3070897"><ele>229.0</ele><time>2026-04-04T13:03:58.04Z</time></trkpt><trkpt lat="42.540727" lon="12.3070855"><ele>228.0</ele><time>2026-04-04T13:03:58.971Z</time></trkpt><trkpt lat="42.5406053" lon="12.3071029"><ele>227.0</ele><time>2026-04-04T13:03:59.965Z</time></trkpt><trkpt lat="42.5404872" lon="12.3071708"><ele>226.0</ele><time>2026-04-04T13:04:00.968Z</time></trkpt><trkpt lat="42.5403806" lon="12.3072729"><ele>223.75</ele><time>2026-04-04T13:04:01.985Z</time></trkpt><trkpt lat="42.5402854" lon="12.3073768"><ele>221.5</ele><time>2026-04-04T13:04:02.97Z</time></trkpt><trkpt lat="42.5401928" lon="12.3074853"><ele>219.25</ele><time>2026-04-04T13:04:03.984Z</time></trkpt><trkpt lat="42.540101" lon="12.3075869"><ele>217.0</ele><time>2026-04-04T13:04:04.981Z</time></trkpt><trkpt lat="42.5400111" lon="12.3076783"><ele>217.0</ele><time>2026-04-04T13:04:05.968Z</time></trkpt><trkpt lat="42.5399219" lon="12.3077571"><ele>217.0</ele><time>2026-04-04T13:04:07.014Z</time></trkpt><trkpt lat="42.5398293" lon="12.3078096"><ele>217.0</ele><time>2026-04-04T13:04:08.039Z</time></trkpt><trkpt lat="42.5397346" lon="12.3078374"><ele>217.0</ele><time>2026-04-04T13:04:08.99Z</time></trkpt><trkpt lat="42.5396301" lon="12.3078116"><ele>217.0</ele><time>2026-04-04T13:04:10.001Z</time></trkpt><trkpt lat="42.539526" lon="12.3077517"><ele>215.5</ele><time>2026-04-04T13:04:11.01Z</time></trkpt><trkpt lat="42.5394254" lon="12.3076677"><ele>214.0</ele><time>2026-04-04T13:04:12.001Z</time></trkpt><trkpt lat="42.5393282" lon="12.3075695"><ele>212.5</ele><time>2026-04-04T13:04:12.998Z</time></trkpt><trkpt lat="42.5392355" lon="12.3074693"><ele>211.0</ele><time>2026-04-04T13:04:14.028Z</time></trkpt><trkpt lat="42.539145" lon="12.3073713"><ele>211.0</ele><time>2026-04-04T13:04:15.003Z</time></trkpt><trkpt lat="42.53905" lon="12.3072776"><ele>211.0</ele><time>2026-04-04T13:04:15.988Z</time></trkpt><trkpt lat="42.5389651" lon="12.3071883"><ele>211.0</ele><time>2026-04-04T13:04:16.993Z</time></trkpt><trkpt lat="42.5388863" lon="12.3070954"><ele>211.0</ele><time>2026-04-04T13:04:18.004Z</time></trkpt><trkpt lat="42.5388098" lon="12.3070089"><ele>211.0</ele><time>2026-04-04T13:04:19.008Z</time></trkpt><trkpt lat="42.5387273" lon="12.3069224"><ele>210.5</ele><time>2026-04-04T13:04:20.007Z</time></trkpt><trkpt lat="42.5386373" lon="12.3068385"><ele>210.0</ele><time>2026-04-04T13:04:21.005Z</time></trkpt><trkpt lat="42.5385395" lon="12.306771"><ele>209.5</ele><time>2026-04-04T13:04:22.07Z</time></trkpt><trkpt lat="42.5384323" lon="12.3067155"><ele>209.0</ele><time>2026-04-04T13:04:23.006Z</time></trkpt><trkpt lat="42.5383179" lon="12.3066717"><ele>209.0</ele><time>2026-04-04T13:04:24.033Z</time></trkpt><trkpt lat="42.5382016" lon="12.3066365"><ele>209.0</ele><time>2026-04-04T13:04:24.976Z</time></trkpt><trkpt lat="42.5380881" lon="12.3066084"><ele>209.0</ele><time>2026-04-04T13:04:26.013Z</time></trkpt><trkpt lat="42.5379782" lon="12.3065792"><ele>209.0</ele><time>2026-04-04T13:04:26.971Z</time></trkpt><trkpt lat="42.5378659" lon="12.3065507"><ele>206.25</ele><time>2026-04-04T13:04:27.981Z</time></trkpt><trkpt lat="42.5377502" lon="12.306521"><ele>203.5</ele><time>2026-04-04T13:04:28.992Z</time></trkpt><trkpt lat="42.5376388" lon="12.3064932"><ele>200.75</ele><time>2026-04-04T13:04:29.972Z</time></trkpt><trkpt lat="42.5375242" lon="12.3064671"><ele>198.0</ele><time>2026-04-04T13:04:30.971Z</time></trkpt><trkpt lat="42.5374122" lon="12.3064431"><ele>198.0</ele><time>2026-04-04T13:04:31.996Z</time></trkpt><trkpt lat="42.537294" lon="12.3064159"><ele>198.0</ele><time>2026-04-04T13:04:33.002Z</time></trkpt><trkpt lat="42.5371691" lon="12.3063886"><ele>198.0</ele><time>2026-04-04T13:04:33.991Z</time></trkpt><trkpt lat="42.5370463" lon="12.3063573"><ele>198.0</ele><time>2026-04-04T13:04:34.973Z</time></trkpt><trkpt lat="42.5369283" lon="12.3063305"><ele>197.16666666666666</ele><time>2026-04-04T13:04:35.984Z</time></trkpt><trkpt lat="42.5368225" lon="12.3063059"><ele>196.33333333333331</ele><time>2026-04-04T13:04:37.053Z</time></trkpt><trkpt lat="42.5367378" lon="12.3062754"><ele>195.5</ele><time>2026-04-04T13:04:37.972Z</time></trkpt><trkpt lat="42.5366715" lon="12.3062487"><ele>194.66666666666666</ele><time>2026-04-04T13:04:38.988Z</time></trkpt><trkpt lat="42.5366088" lon="12.3062364"><ele>193.83333333333331</ele><time>2026-04-04T13:04:39.982Z</time></trkpt><trkpt lat="42.5365353" lon="12.3062306"><ele>193.0</ele><time>2026-04-04T13:04:40.982Z</time></trkpt><trkpt lat="42.53645" lon="12.3062109"><ele>193.0</ele><time>2026-04-04T13:04:42.012Z</time></trkpt><trkpt lat="42.5363581" lon="12.306177"><ele>193.0</ele><time>2026-04-04T13:04:43.021Z</time></trkpt><trkpt lat="42.5362642" lon="12.3061559"><ele>193.0</ele><time>2026-04-04T13:04:44.015Z</time></trkpt><trkpt lat="42.5361662" lon="12.3061432"><ele>193.0</ele><time>2026-04-04T13:04:44.978Z</time></trkpt><trkpt lat="42.536062" lon="12.3061351"><ele>193.0</ele><time>2026-04-04T13:04:45.984Z</time></trkpt><trkpt lat="42.5359557" lon="12.3061277"><ele>190.60000000000002</ele><time>2026-04-04T13:04:47.018Z</time></trkpt><trkpt lat="42.5358472" lon="12.3061244"><ele>188.20000000000002</ele><time>2026-04-04T13:04:48.025Z</time></trkpt><trkpt lat="42.5357436" lon="12.3061224"><ele>185.8</ele><time>2026-04-04T13:04:49.013Z</time></trkpt><trkpt lat="42.535645" lon="12.3061226"><ele>183.4</ele><time>2026-04-04T13:04:49.982Z</time></trkpt><trkpt lat="42.5355507" lon="12.3061212"><ele>181.0</ele><time>2026-04-04T13:04:50.979Z</time></trkpt><trkpt lat="42.5354602" lon="12.3061132"><ele>179.66666666666669</ele><time>2026-04-04T13:04:51.975Z</time></trkpt><trkpt lat="42.535372" lon="12.3061002"><ele>178.33333333333334</ele><time>2026-04-04T13:04:52.968Z</time></trkpt><trkpt lat="42.5352879" lon="12.3060907"><ele>177.0</ele><time>2026-04-04T13:04:53.986Z</time></trkpt><trkpt lat="42.5352107" lon="12.3060853"><ele>175.66666666666666</ele><time>2026-04-04T13:04:54.977Z</time></trkpt><trkpt lat="42.5351366" lon="12.3060791"><ele>174.33333333333331</ele><time>2026-04-04T13:04:55.98Z</time></trkpt><trkpt lat="42.5350614" lon="12.3060702"><ele>173.0</ele><time>2026-04-04T13:04:56.987Z</time></trkpt><trkpt lat="42.534987" lon="12.3060631"><ele>173.0</ele><time>2026-04-04T13:04:57.994Z</time></trkpt><trkpt lat="42.5349122" lon="12.3060528"><ele>173.0</ele><time>2026-04-04T13:04:58.988Z</time></trkpt><trkpt lat="42.5348344" lon="12.3060445"><ele>173.0</ele><time>2026-04-04T13:04:59.979Z</time></trkpt><trkpt lat="42.5347492" lon="12.3060424"><ele>173.0</ele><time>2026-04-04T13:05:00.986Z</time></trkpt><trkpt lat="42.5346625" lon="12.3060374"><ele>173.0</ele><time>2026-04-04T13:05:01.981Z</time></trkpt><trkpt lat="42.534578" lon="12.306033"><ele>173.0</ele><time>2026-04-04T13:05:02.987Z</time></trkpt><trkpt lat="42.5344932" lon="12.3060294"><ele>172.16666666666666</ele><time>2026-04-04T13:05:04.042Z</time></trkpt><trkpt lat="42.5344038" lon="12.3060243"><ele>171.33333333333331</ele><time>2026-04-04T13:05:05.002Z</time></trkpt><trkpt lat="42.5343181" lon="12.3060202"><ele>170.5</ele><time>2026-04-04T13:05:06.001Z</time></trkpt><trkpt lat="42.5342378" lon="12.3060165"><ele>169.66666666666666</ele><time>2026-04-04T13:05:07.037Z</time></trkpt><trkpt lat="42.5341546" lon="12.3060142"><ele>168.83333333333334</ele><time>2026-04-04T13:05:08.033Z</time></trkpt><trkpt lat="42.5340783" lon="12.3060122"><ele>168.0</ele><time>2026-04-04T13:05:09.037Z</time></trkpt><trkpt lat="42.5339974" lon="12.3060102"><ele>168.0</ele><time>2026-04-04T13:05:09.968Z</time></trkpt><trkpt lat="42.5339204" lon="12.3060081"><ele>168.0</ele><time>2026-04-04T13:05:10.968Z</time></trkpt><trkpt lat="42.533845" lon="12.3060044"><ele>168.0</ele><time>2026-04-04T13:05:12.038Z</time></trkpt><trkpt lat="42.5337739" lon="12.3060014"><ele>168.0</ele><time>2026-04-04T13:05:12.999Z</time></trkpt><trkpt lat="42.5337083" lon="12.3059983"><ele>168.0</ele><time>2026-04-04T13:05:14.037Z</time></trkpt><trkpt lat="42.5335838" lon="12.3059596"><ele>168.0</ele><time>2026-04-04T13:05:15.973Z</time></trkpt><trkpt lat="42.5335144" lon="12.3059124"><ele>167.5</ele><time>2026-04-04T13:05:16.962Z</time></trkpt><trkpt lat="42.5334411" lon="12.305859"><ele>167.0</ele><time>2026-04-04T13:05:17.974Z</time></trkpt><trkpt lat="42.5333687" lon="12.3058045"><ele>166.5</ele><time>2026-04-04T13:05:19.028Z</time></trkpt><trkpt lat="42.5332948" lon="12.3057531"><ele>166.0</ele><time>2026-04-04T13:05:19.979Z</time></trkpt><trkpt lat="42.5332219" lon="12.3057037"><ele>165.5</ele><time>2026-04-04T13:05:20.983Z</time></trkpt><trkpt lat="42.5331279" lon="12.305663"><ele>165.0</ele><time>2026-04-04T13:05:22.018Z</time></trkpt><trkpt lat="42.5330254" lon="12.3056381"><ele>165.0</ele><time>2026-04-04T13:05:23.019Z</time></trkpt><trkpt lat="42.5329229" lon="12.3056143"><ele>165.0</ele><time>2026-04-04T13:05:24.04Z</time></trkpt><trkpt lat="42.5328178" lon="12.3055855"><ele>165.0</ele><time>2026-04-04T13:05:25.006Z</time></trkpt><trkpt lat="42.5327112" lon="12.305553"><ele>165.0</ele><time>2026-04-04T13:05:25.997Z</time></trkpt><trkpt lat="42.532598" lon="12.3055155"><ele>165.0</ele><time>2026-04-04T13:05:26.996Z</time></trkpt><trkpt lat="42.5324835" lon="12.3054726"><ele>162.0</ele><time>2026-04-04T13:05:28.033Z</time></trkpt><trkpt lat="42.5323698" lon="12.30543"><ele>159.0</ele><time>2026-04-04T13:05:29.036Z</time></trkpt><trkpt lat="42.5322623" lon="12.3053943"><ele>156.0</ele><time>2026-04-04T13:05:29.993Z</time></trkpt><trkpt lat="42.5321546" lon="12.3053696"><ele>153.0</ele><time>2026-04-04T13:05:31.008Z</time></trkpt><trkpt lat="42.532042" lon="12.3053468"><ele>152.0</ele><time>2026-04-04T13:05:32.013Z</time></trkpt><trkpt lat="42.5319254" lon="12.3053235"><ele>151.0</ele><time>2026-04-04T13:05:33.001Z</time></trkpt><trkpt lat="42.5318105" lon="12.3053073"><ele>150.0</ele><time>2026-04-04T13:05:34.004Z</time></trkpt><trkpt lat="42.5316982" lon="12.3053029"><ele>149.0</ele><time>2026-04-04T13:05:35.006Z</time></trkpt><trkpt lat="42.5315958" lon="12.3053003"><ele>148.0</ele><time>2026-04-04T13:05:35.993Z</time></trkpt><trkpt lat="42.5315011" lon="12.3053069"><ele>148.0</ele><time>2026-04-04T13:05:37.049Z</time></trkpt><trkpt lat="42.5314097" lon="12.3053192"><ele>148.0</ele><time>2026-04-04T13:05:38.058Z</time></trkpt><trkpt lat="42.5313227" lon="12.3053332"><ele>148.0</ele><time>2026-04-04T13:05:39.035Z</time></trkpt><trkpt lat="42.5312336" lon="12.3053467"><ele>148.0</ele><time>2026-04-04T13:05:39.993Z</time></trkpt><trkpt lat="42.5311434" lon="12.305359"><ele>148.0</ele><time>2026-04-04T13:05:41.011Z</time></trkpt><trkpt lat="42.5310503" lon="12.3053654"><ele>147.33333333333334</ele><time>2026-04-04T13:05:42.002Z</time></trkpt><trkpt lat="42.5309568" lon="12.3053772"><ele>146.66666666666669</ele><time>2026-04-04T13:05:42.997Z</time></trkpt><trkpt lat="42.5308696" lon="12.3053999"><ele>146.0</ele><time>2026-04-04T13:05:43.989Z</time></trkpt><trkpt lat="42.5307863" lon="12.3054226"><ele>145.33333333333334</ele><time>2026-04-04T13:05:45Z</time></trkpt><trkpt lat="42.5307017" lon="12.3054375"><ele>144.66666666666666</ele><time>2026-04-04T13:05:45.988Z</time></trkpt><trkpt lat="42.530614" lon="12.3054519"><ele>144.0</ele><time>2026-04-04T13:05:46.998Z</time></trkpt><trkpt lat="42.5305266" lon="12.3054617"><ele>144.0</ele><time>2026-04-04T13:05:47.975Z</time></trkpt><trkpt lat="42.5304369" lon="12.3054606"><ele>144.0</ele><time>2026-04-04T13:05:48.992Z</time></trkpt><trkpt lat="42.5303421" lon="12.3054551"><ele>144.0</ele><time>2026-04-04T13:05:49.999Z</time></trkpt><trkpt lat="42.530249" lon="12.3054527"><ele>144.0</ele><time>2026-04-04T13:05:50.99Z</time></trkpt><trkpt lat="42.5301538" lon="12.3054548"><ele>144.0</ele><time>2026-04-04T13:05:52.006Z</time></trkpt><trkpt lat="42.5300576" lon="12.3054586"><ele>143.0</ele><time>2026-04-04T13:05:52.991Z</time></trkpt><trkpt lat="42.5299588" lon="12.3054657"><ele>142.0</ele><time>2026-04-04T13:05:53.995Z</time></trkpt><trkpt lat="42.5298598" lon="12.3054782"><ele>141.0</ele><time>2026-04-04T13:05:54.991Z</time></trkpt><trkpt lat="42.5297635" lon="12.3054974"><ele>140.0</ele><time>2026-04-04T13:05:56.001Z</time></trkpt><trkpt lat="42.5296658" lon="12.3055169"><ele>139.0</ele><time>2026-04-04T13:05:57.003Z</time></trkpt><trkpt lat="42.5295627" lon="12.3055448"><ele>138.0</ele><time>2026-04-04T13:05:57.997Z</time></trkpt><trkpt lat="42.5294557" lon="12.3055646"><ele>137.0</ele><time>2026-04-04T13:05:58.998Z</time></trkpt><trkpt lat="42.5293552" lon="12.3055781"><ele>136.0</ele><time>2026-04-04T13:06:00.006Z</time></trkpt><trkpt lat="42.5292563" lon="12.3055883"><ele>135.0</ele><time>2026-04-04T13:06:01.002Z</time></trkpt><trkpt lat="42.5291583" lon="12.3055963"><ele>134.0</ele><time>2026-04-04T13:06:01.992Z</time></trkpt><trkpt lat="42.5290612" lon="12.3055979"><ele>134.0</ele><time>2026-04-04T13:06:03.009Z</time></trkpt><trkpt lat="42.52896" lon="12.3055816"><ele>134.0</ele><time>2026-04-04T13:06:04.005Z</time></trkpt><trkpt lat="42.5288616" lon="12.3055489"><ele>134.0</ele><time>2026-04-04T13:06:05.005Z</time></trkpt><trkpt lat="42.528772" lon="12.3054964"><ele>134.0</ele><time>2026-04-04T13:06:06.003Z</time></trkpt><trkpt lat="42.528687" lon="12.3054368"><ele>134.0</ele><time>2026-04-04T13:06:06.993Z</time></trkpt><trkpt lat="42.5285986" lon="12.3053772"><ele>133.2</ele><time>2026-04-04T13:06:07.989Z</time></trkpt><trkpt lat="42.5285083" lon="12.3053135"><ele>132.4</ele><time>2026-04-04T13:06:09.001Z</time></trkpt><trkpt lat="42.5284146" lon="12.3052382"><ele>131.6</ele><time>2026-04-04T13:06:10.006Z</time></trkpt><trkpt lat="42.5283208" lon="12.3051576"><ele>130.8</ele><time>2026-04-04T13:06:10.994Z</time></trkpt><trkpt lat="42.5282252" lon="12.3050795"><ele>130.0</ele><time>2026-04-04T13:06:12.002Z</time></trkpt><trkpt lat="42.5281273" lon="12.3050053"><ele>130.0</ele><time>2026-04-04T13:06:13Z</time></trkpt><trkpt lat="42.5280275" lon="12.3049318"><ele>130.0</ele><time>2026-04-04T13:06:14.009Z</time></trkpt><trkpt lat="42.5279243" lon="12.3048539"><ele>130.0</ele><time>2026-04-04T13:06:14.993Z</time></trkpt><trkpt lat="42.5278217" lon="12.3047753"><ele>130.0</ele><time>2026-04-04T13:06:16.008Z</time></trkpt><trkpt lat="42.5277251" lon="12.3047062"><ele>128.75</ele><time>2026-04-04T13:06:16.991Z</time></trkpt><trkpt lat="42.5276182" lon="12.3046388"><ele>127.5</ele><time>2026-04-04T13:06:18.008Z</time></trkpt><trkpt lat="42.5275054" lon="12.3045786"><ele>126.25</ele><time>2026-04-04T13:06:19.039Z</time></trkpt><trkpt lat="42.5273891" lon="12.3045292"><ele>125.0</ele><time>2026-04-04T13:06:20Z</time></trkpt><trkpt lat="42.5272701" lon="12.3044944"><ele>125.0</ele><time>2026-04-04T13:06:21.008Z</time></trkpt><trkpt lat="42.52715" lon="12.3044737"><ele>125.0</ele><time>2026-04-04T13:06:22.004Z</time></trkpt><trkpt lat="42.5270318" lon="12.3044572"><ele>125.0</ele><time>2026-04-04T13:06:22.998Z</time></trkpt><trkpt lat="42.5269141" lon="12.3044437"><ele>125.0</ele><time>2026-04-04T13:06:24.006Z</time></trkpt><trkpt lat="42.5268005" lon="12.3044282"><ele>126.0</ele><time>2026-04-04T13:06:25Z</time></trkpt><trkpt lat="42.5266914" lon="12.3044048"><ele>127.0</ele><time>2026-04-04T13:06:26.011Z</time></trkpt><trkpt lat="42.5265874" lon="12.3043898"><ele>128.0</ele><time>2026-04-04T13:06:26.997Z</time></trkpt><trkpt lat="42.5264865" lon="12.3043817"><ele>129.0</ele><time>2026-04-04T13:06:28.038Z</time></trkpt><trkpt lat="42.5263767" lon="12.3043749"><ele>130.0</ele><time>2026-04-04T13:06:29.057Z</time></trkpt><trkpt lat="42.5262653" lon="12.304377"><ele>129.4</ele><time>2026-04-04T13:06:29.996Z</time></trkpt><trkpt lat="42.5261568" lon="12.3043707"><ele>128.8</ele><time>2026-04-04T13:06:31.004Z</time></trkpt><trkpt lat="42.5260475" lon="12.3043625"><ele>128.2</ele><time>2026-04-04T13:06:32Z</time></trkpt><trkpt lat="42.525951" lon="12.3043518"><ele>127.6</ele><time>2026-04-04T13:06:33Z</time></trkpt><trkpt lat="42.5258554" lon="12.304343"><ele>127.0</ele><time>2026-04-04T13:06:34Z</time></trkpt><trkpt lat="42.5257544" lon="12.3043343"><ele>127.0</ele><time>2026-04-04T13:06:34.999Z</time></trkpt><trkpt lat="42.5256551" lon="12.3043268"><ele>126.99999999999999</ele><time>2026-04-04T13:06:36.035Z</time></trkpt><trkpt lat="42.5255581" lon="12.3043174"><ele>126.99999999999999</ele><time>2026-04-04T13:06:37.036Z</time></trkpt><trkpt lat="42.5254625" lon="12.3043077"><ele>127.0</ele><time>2026-04-04T13:06:38.053Z</time></trkpt><trkpt lat="42.525365" lon="12.3042926"><ele>127.0</ele><time>2026-04-04T13:06:39.044Z</time></trkpt><trkpt lat="42.5252676" lon="12.3042693"><ele>126.19999999999999</ele><time>2026-04-04T13:06:40.003Z</time></trkpt><trkpt lat="42.5251726" lon="12.3042483"><ele>125.39999999999999</ele><time>2026-04-04T13:06:41.001Z</time></trkpt><trkpt lat="42.525072" lon="12.304229"><ele>124.60000000000001</ele><time>2026-04-04T13:06:42.015Z</time></trkpt><trkpt lat="42.5249696" lon="12.3042082"><ele>123.80000000000001</ele><time>2026-04-04T13:06:43.015Z</time></trkpt><trkpt lat="42.5248653" lon="12.304192"><ele>123.0</ele><time>2026-04-04T13:06:44.007Z</time></trkpt><trkpt lat="42.5247562" lon="12.3041682"><ele>123.0</ele><time>2026-04-04T13:06:45.012Z</time></trkpt><trkpt lat="42.5246422" lon="12.3041444"><ele>123.00000000000001</ele><time>2026-04-04T13:06:46.024Z</time></trkpt><trkpt lat="42.5245296" lon="12.3041216"><ele>123.00000000000001</ele><time>2026-04-04T13:06:47.012Z</time></trkpt><trkpt lat="42.5244202" lon="12.3041061"><ele>123.0</ele><time>2026-04-04T13:06:48.01Z</time></trkpt><trkpt lat="42.5243128" lon="12.3040868"><ele>123.0</ele><time>2026-04-04T13:06:49.02Z</time></trkpt><trkpt lat="42.5242061" lon="12.3040679"><ele>122.0</ele><time>2026-04-04T13:06:50.01Z</time></trkpt><trkpt lat="42.5241064" lon="12.3040519"><ele>121.00000000000001</ele><time>2026-04-04T13:06:51.017Z</time></trkpt><trkpt lat="42.5240051" lon="12.3040377"><ele>120.00000000000001</ele><time>2026-04-04T13:06:52.038Z</time></trkpt><trkpt lat="42.5239085" lon="12.3040211"><ele>119.0</ele><time>2026-04-04T13:06:52.996Z</time></trkpt><trkpt lat="42.5238141" lon="12.3040029"><ele>118.0</ele><time>2026-04-04T13:06:54.011Z</time></trkpt><trkpt lat="42.5237229" lon="12.3039865"><ele>117.0</ele><time>2026-04-04T13:06:55.008Z</time></trkpt><trkpt lat="42.5236318" lon="12.3039677"><ele>116.00000000000001</ele><time>2026-04-04T13:06:55.998Z</time></trkpt><trkpt lat="42.5235324" lon="12.3039487"><ele>115.00000000000001</ele><time>2026-04-04T13:06:56.994Z</time></trkpt><trkpt lat="42.5234271" lon="12.3039303"><ele>114.0</ele><time>2026-04-04T13:06:57.984Z</time></trkpt><trkpt lat="42.5233222" lon="12.303907"><ele>113.0</ele><time>2026-04-04T13:06:59Z</time></trkpt><trkpt lat="42.5232237" lon="12.3038761"><ele>112.83333333333333</ele><time>2026-04-04T13:06:59.99Z</time></trkpt><trkpt lat="42.5231423" lon="12.3038313"><ele>112.66666666666666</ele><time>2026-04-04T13:07:00.998Z</time></trkpt><trkpt lat="42.5230802" lon="12.3037542"><ele>112.5</ele><time>2026-04-04T13:07:02.005Z</time></trkpt><trkpt lat="42.5230403" lon="12.3036599"><ele>112.33333333333334</ele><time>2026-04-04T13:07:03.003Z</time></trkpt><trkpt lat="42.5230133" lon="12.3035472"><ele>112.16666666666667</ele><time>2026-04-04T13:07:03.994Z</time></trkpt><trkpt lat="42.5229968" lon="12.303416"><ele>112.0</ele><time>2026-04-04T13:07:04.993Z</time></trkpt><trkpt lat="42.5229767" lon="12.3032596"><ele>112.0</ele><time>2026-04-04T13:07:05.995Z</time></trkpt><trkpt lat="42.5229582" lon="12.303091"><ele>112.0</ele><time>2026-04-04T13:07:07.061Z</time></trkpt><trkpt lat="42.5229348" lon="12.3029195"><ele>112.0</ele><time>2026-04-04T13:07:08.04Z</time></trkpt><trkpt lat="42.5229135" lon="12.3027589"><ele>112.0</ele><time>2026-04-04T13:07:09.035Z</time></trkpt><trkpt lat="42.522892" lon="12.3026003"><ele>109.19999999999999</ele><time>2026-04-04T13:07:10Z</time></trkpt><trkpt lat="42.5228716" lon="12.3024442"><ele>106.39999999999999</ele><time>2026-04-04T13:07:11.008Z</time></trkpt><trkpt lat="42.5228524" lon="12.3022943"><ele>103.6</ele><time>2026-04-04T13:07:12.035Z</time></trkpt><trkpt lat="42.522831" lon="12.3021512"><ele>100.80000000000001</ele><time>2026-04-04T13:07:13.035Z</time></trkpt><trkpt lat="42.5228095" lon="12.3020104"><ele>98.0</ele><time>2026-04-04T13:07:13.988Z</time></trkpt><trkpt lat="42.5227886" lon="12.301877"><ele>97.80000000000001</ele><time>2026-04-04T13:07:14.994Z</time></trkpt><trkpt lat="42.5227644" lon="12.301746"><ele>97.6</ele><time>2026-04-04T13:07:16.001Z</time></trkpt><trkpt lat="42.5227351" lon="12.3016186"><ele>97.4</ele><time>2026-04-04T13:07:17.04Z</time></trkpt><trkpt lat="42.5227025" lon="12.3015206"><ele>97.19999999999999</ele><time>2026-04-04T13:07:18.042Z</time></trkpt><trkpt lat="42.5226459" lon="12.3013834"><ele>97.0</ele><time>2026-04-04T13:07:19.973Z</time></trkpt><trkpt lat="42.5225684" lon="12.301235"><ele>97.00000000000001</ele><time>2026-04-04T13:07:22.008Z</time></trkpt><trkpt lat="42.5225195" lon="12.3011512"><ele>97.0</ele><time>2026-04-04T13:07:23.011Z</time></trkpt><trkpt lat="42.5224669" lon="12.3010626"><ele>97.0</ele><time>2026-04-04T13:07:24.006Z</time></trkpt><trkpt lat="42.5224075" lon="12.3009737"><ele>97.0</ele><time>2026-04-04T13:07:24.974Z</time></trkpt><trkpt lat="42.5223457" lon="12.3008821"><ele>97.00000000000001</ele><time>2026-04-04T13:07:25.98Z</time></trkpt><trkpt lat="42.5222791" lon="12.3007919"><ele>97.0</ele><time>2026-04-04T13:07:27.012Z</time></trkpt><trkpt lat="42.5222079" lon="12.3007019"><ele>97.0</ele><time>2026-04-04T13:07:28.014Z</time></trkpt><trkpt lat="42.5221373" lon="12.3006135"><ele>97.0</ele><time>2026-04-04T13:07:29.011Z</time></trkpt><trkpt lat="42.5220724" lon="12.3005193"><ele>97.0</ele><time>2026-04-04T13:07:29.98Z</time></trkpt><trkpt lat="42.5220099" lon="12.3004219"><ele>97.0</ele><time>2026-04-04T13:07:30.975Z</time></trkpt><trkpt lat="42.5219474" lon="12.3003232"><ele>97.0</ele><time>2026-04-04T13:07:32.011Z</time></trkpt><trkpt lat="42.5218916" lon="12.3002091"><ele>95.6</ele><time>2026-04-04T13:07:33.036Z</time></trkpt><trkpt lat="42.5218356" lon="12.3000878"><ele>94.19999999999999</ele><time>2026-04-04T13:07:34.039Z</time></trkpt><trkpt lat="42.5217849" lon="12.2999645"><ele>92.8</ele><time>2026-04-04T13:07:35.002Z</time></trkpt><trkpt lat="42.5217414" lon="12.2998484"><ele>91.4</ele><time>2026-04-04T13:07:35.993Z</time></trkpt><trkpt lat="42.5217021" lon="12.2997434"><ele>90.0</ele><time>2026-04-04T13:07:37.005Z</time></trkpt><trkpt lat="42.5216649" lon="12.2996407"><ele>90.0</ele><time>2026-04-04T13:07:38.005Z</time></trkpt><trkpt lat="42.5216265" lon="12.2995418"><ele>90.0</ele><time>2026-04-04T13:07:39.004Z</time></trkpt><trkpt lat="42.5215772" lon="12.2994515"><ele>90.0</ele><time>2026-04-04T13:07:39.989Z</time></trkpt><trkpt lat="42.5215165" lon="12.2993669"><ele>90.0</ele><time>2026-04-04T13:07:41.034Z</time></trkpt><trkpt lat="42.5214556" lon="12.29929"><ele>90.0</ele><time>2026-04-04T13:07:42.078Z</time></trkpt><trkpt lat="42.5213908" lon="12.2992223"><ele>90.0</ele><time>2026-04-04T13:07:42.999Z</time></trkpt><trkpt lat="42.5213224" lon="12.2991586"><ele>90.0</ele><time>2026-04-04T13:07:44.001Z</time></trkpt><trkpt lat="42.5212556" lon="12.299101"><ele>90.0</ele><time>2026-04-04T13:07:45Z</time></trkpt><trkpt lat="42.5211925" lon="12.2990446"><ele>90.0</ele><time>2026-04-04T13:07:46.009Z</time></trkpt><trkpt lat="42.5211266" lon="12.2989895"><ele>90.0</ele><time>2026-04-04T13:07:46.998Z</time></trkpt><trkpt lat="42.5210504" lon="12.2989388"><ele>90.0</ele><time>2026-04-04T13:07:47.999Z</time></trkpt><trkpt lat="42.5209689" lon="12.2988886"><ele>90.0</ele><time>2026-04-04T13:07:49.039Z</time></trkpt><trkpt lat="42.5208818" lon="12.2988425"><ele>89.83333333333333</ele><time>2026-04-04T13:07:49.997Z</time></trkpt><trkpt lat="42.5207942" lon="12.2987949"><ele>89.66666666666667</ele><time>2026-04-04T13:07:50.991Z</time></trkpt><trkpt lat="42.5207096" lon="12.2987488"><ele>89.5</ele><time>2026-04-04T13:07:52.037Z</time></trkpt><trkpt lat="42.5206273" lon="12.2987093"><ele>89.33333333333334</ele><time>2026-04-04T13:07:53.038Z</time></trkpt><trkpt lat="42.5205433" lon="12.298668"><ele>89.16666666666667</ele><time>2026-04-04T13:07:54.038Z</time></trkpt><trkpt lat="42.520465" lon="12.2986317"><ele>89.0</ele><time>2026-04-04T13:07:54.965Z</time></trkpt><trkpt lat="42.5203877" lon="12.2985993"><ele>89.0</ele><time>2026-04-04T13:07:55.987Z</time></trkpt><trkpt lat="42.5203114" lon="12.298563"><ele>89.0</ele><time>2026-04-04T13:07:57.039Z</time></trkpt><trkpt lat="42.5202341" lon="12.2985236"><ele>89.0</ele><time>2026-04-04T13:07:58.033Z</time></trkpt><trkpt lat="42.5201578" lon="12.2984802"><ele>89.0</ele><time>2026-04-04T13:07:58.963Z</time></trkpt><trkpt lat="42.5200905" lon="12.298435"><ele>89.0</ele><time>2026-04-04T13:07:59.978Z</time></trkpt><trkpt lat="42.5200206" lon="12.2983901"><ele>89.0</ele><time>2026-04-04T13:08:00.973Z</time></trkpt><trkpt lat="42.5199483" lon="12.2983335"><ele>89.0</ele><time>2026-04-04T13:08:01.987Z</time></trkpt><trkpt lat="42.5198722" lon="12.2982686"><ele>89.0</ele><time>2026-04-04T13:08:03.035Z</time></trkpt><trkpt lat="42.5197974" lon="12.2981943"><ele>89.0</ele><time>2026-04-04T13:08:04.036Z</time></trkpt><trkpt lat="42.5197275" lon="12.2981002"><ele>89.0</ele><time>2026-04-04T13:08:05.006Z</time></trkpt><trkpt lat="42.5196569" lon="12.2979998"><ele>89.0</ele><time>2026-04-04T13:08:06.009Z</time></trkpt><trkpt lat="42.5195837" lon="12.2978956"><ele>89.2</ele><time>2026-04-04T13:08:07.035Z</time></trkpt><trkpt lat="42.5195123" lon="12.2977801"><ele>89.4</ele><time>2026-04-04T13:08:07.993Z</time></trkpt><trkpt lat="42.519445" lon="12.297666"><ele>89.6</ele><time>2026-04-04T13:08:09.039Z</time></trkpt><trkpt lat="42.519388" lon="12.2975608"><ele>89.8</ele><time>2026-04-04T13:08:10.003Z</time></trkpt><trkpt lat="42.5193311" lon="12.297452"><ele>90.0</ele><time>2026-04-04T13:08:10.994Z</time></trkpt><trkpt lat="42.5192733" lon="12.2973304"><ele>89.75</ele><time>2026-04-04T13:08:12.04Z</time></trkpt><trkpt lat="42.519206" lon="12.297203"><ele>89.5</ele><time>2026-04-04T13:08:13.039Z</time></trkpt><trkpt lat="42.5191366" lon="12.2970637"><ele>89.25</ele><time>2026-04-04T13:08:14.037Z</time></trkpt><trkpt lat="42.5190685" lon="12.2969166"><ele>89.0</ele><time>2026-04-04T13:08:14.972Z</time></trkpt><trkpt lat="42.5190014" lon="12.296776"><ele>89.0</ele><time>2026-04-04T13:08:15.972Z</time></trkpt><trkpt lat="42.5189402" lon="12.2966436"><ele>89.0</ele><time>2026-04-04T13:08:16.971Z</time></trkpt><trkpt lat="42.5188853" lon="12.2965234"><ele>89.0</ele><time>2026-04-04T13:08:17.977Z</time></trkpt><trkpt lat="42.5188297" lon="12.296415"><ele>89.0</ele><time>2026-04-04T13:08:18.966Z</time></trkpt><trkpt lat="42.5187773" lon="12.2963112"><ele>89.0</ele><time>2026-04-04T13:08:19.98Z</time></trkpt><trkpt lat="42.5187303" lon="12.2962134"><ele>88.83333333333334</ele><time>2026-04-04T13:08:21.026Z</time></trkpt><trkpt lat="42.5186906" lon="12.2961148"><ele>88.66666666666667</ele><time>2026-04-04T13:08:22.04Z</time></trkpt><trkpt lat="42.5186469" lon="12.2960244"><ele>88.5</ele><time>2026-04-04T13:08:23.05Z</time></trkpt><trkpt lat="42.5186138" lon="12.2959391"><ele>88.33333333333333</ele><time>2026-04-04T13:08:24.038Z</time></trkpt><trkpt lat="42.5185845" lon="12.295858"><ele>88.16666666666666</ele><time>2026-04-04T13:08:24.98Z</time></trkpt><trkpt lat="42.5185384" lon="12.2957158"><ele>88.0</ele><time>2026-04-04T13:08:26.975Z</time></trkpt><trkpt lat="42.5185169" lon="12.2956336"><ele>88.0</ele><time>2026-04-04T13:08:29.974Z</time></trkpt><trkpt lat="42.5184573" lon="12.2955921"><ele>88.0</ele><time>2026-04-04T13:08:38.033Z</time></trkpt><trkpt lat="42.5183453" lon="12.2956317"><ele>88.0</ele><time>2026-04-04T13:08:39.993Z</time></trkpt><trkpt lat="42.518269" lon="12.2956839"><ele>88.0</ele><time>2026-04-04T13:08:41.065Z</time></trkpt><trkpt lat="42.5181719" lon="12.2957386"><ele>88.0</ele><time>2026-04-04T13:08:42.056Z</time></trkpt><trkpt lat="42.5180741" lon="12.2957881"><ele>88.0</ele><time>2026-04-04T13:08:43.037Z</time></trkpt><trkpt lat="42.5179716" lon="12.2958402"><ele>88.0</ele><time>2026-04-04T13:08:44.057Z</time></trkpt><trkpt lat="42.5178594" lon="12.2958913"><ele>88.0</ele><time>2026-04-04T13:08:45.001Z</time></trkpt><trkpt lat="42.5177441" lon="12.2959521"><ele>88.0</ele><time>2026-04-04T13:08:46Z</time></trkpt><trkpt lat="42.5176344" lon="12.2960209"><ele>87.5</ele><time>2026-04-04T13:08:47.041Z</time></trkpt><trkpt lat="42.5175348" lon="12.296106"><ele>87.0</ele><time>2026-04-04T13:08:47.995Z</time></trkpt><trkpt lat="42.5174387" lon="12.2961924"><ele>86.5</ele><time>2026-04-04T13:08:49.043Z</time></trkpt><trkpt lat="42.5173395" lon="12.2962779"><ele>86.0</ele><time>2026-04-04T13:08:49.997Z</time></trkpt><trkpt lat="42.5172315" lon="12.2963623"><ele>86.25</ele><time>2026-04-04T13:08:50.996Z</time></trkpt><trkpt lat="42.5171259" lon="12.2964463"><ele>86.5</ele><time>2026-04-04T13:08:51.994Z</time></trkpt><trkpt lat="42.517023" lon="12.2965332"><ele>86.75</ele><time>2026-04-04T13:08:53.039Z</time></trkpt><trkpt lat="42.5169166" lon="12.2966179"><ele>87.0</ele><time>2026-04-04T13:08:54.04Z</time></trkpt><trkpt lat="42.516809" lon="12.2967035"><ele>87.0</ele><time>2026-04-04T13:08:54.978Z</time></trkpt><trkpt lat="42.5167124" lon="12.2967902"><ele>87.0</ele><time>2026-04-04T13:08:55.978Z</time></trkpt><trkpt lat="42.5166231" lon="12.2968762"><ele>87.0</ele><time>2026-04-04T13:08:56.974Z</time></trkpt><trkpt lat="42.5165327" lon="12.2969642"><ele>87.0</ele><time>2026-04-04T13:08:58.039Z</time></trkpt><trkpt lat="42.5164421" lon="12.2970529"><ele>87.0</ele><time>2026-04-04T13:08:59.039Z</time></trkpt><trkpt lat="42.5163516" lon="12.2971414"><ele>87.0</ele><time>2026-04-04T13:09:00.04Z</time></trkpt><trkpt lat="42.5162641" lon="12.2972279"><ele>87.0</ele><time>2026-04-04T13:09:00.975Z</time></trkpt><trkpt lat="42.5161807" lon="12.297311"><ele>87.0</ele><time>2026-04-04T13:09:01.981Z</time></trkpt><trkpt lat="42.5161029" lon="12.2973905"><ele>87.0</ele><time>2026-04-04T13:09:03.069Z</time></trkpt><trkpt lat="42.5160248" lon="12.2974686"><ele>87.0</ele><time>2026-04-04T13:09:04.043Z</time></trkpt><trkpt lat="42.5159555" lon="12.2975357"><ele>86.8</ele><time>2026-04-04T13:09:05.039Z</time></trkpt><trkpt lat="42.5158967" lon="12.297591"><ele>86.6</ele><time>2026-04-04T13:09:05.982Z</time></trkpt><trkpt lat="42.5158077" lon="12.297678"><ele>86.39999999999999</ele><time>2026-04-04T13:09:07.983Z</time></trkpt><trkpt lat="42.5157565" lon="12.2977603"><ele>86.19999999999999</ele><time>2026-04-04T13:09:09.983Z</time></trkpt><trkpt lat="42.5157611" lon="12.2978666"><ele>86.0</ele><time>2026-04-04T13:09:12.051Z</time></trkpt><trkpt lat="42.5158212" lon="12.297998"><ele>86.0</ele><time>2026-04-04T13:09:14.039Z</time></trkpt><trkpt lat="42.5158683" lon="12.2980876"><ele>86.0</ele><time>2026-04-04T13:09:14.979Z</time></trkpt><trkpt lat="42.5159173" lon="12.2981924"><ele>86.0</ele><time>2026-04-04T13:09:15.962Z</time></trkpt><trkpt lat="42.5159711" lon="12.2983053"><ele>86.0</ele><time>2026-04-04T13:09:16.97Z</time></trkpt><trkpt lat="42.5160209" lon="12.2984093"><ele>86.0</ele><time>2026-04-04T13:09:17.97Z</time></trkpt><trkpt lat="42.5160707" lon="12.2985123"><ele>86.0</ele><time>2026-04-04T13:09:18.966Z</time></trkpt><trkpt lat="42.5161266" lon="12.2986205"><ele>86.0</ele><time>2026-04-04T13:09:20.009Z</time></trkpt><trkpt lat="42.5161829" lon="12.2987317"><ele>86.0</ele><time>2026-04-04T13:09:20.986Z</time></trkpt><trkpt lat="42.5162338" lon="12.2988418"><ele>86.0</ele><time>2026-04-04T13:09:21.971Z</time></trkpt><trkpt lat="42.5162828" lon="12.2989516"><ele>86.0</ele><time>2026-04-04T13:09:22.969Z</time></trkpt><trkpt lat="42.5163283" lon="12.2990613"><ele>85.4</ele><time>2026-04-04T13:09:23.992Z</time></trkpt><trkpt lat="42.516375" lon="12.2991738"><ele>84.8</ele><time>2026-04-04T13:09:25.003Z</time></trkpt><trkpt lat="42.516421" lon="12.299285"><ele>84.2</ele><time>2026-04-04T13:09:25.967Z</time></trkpt><trkpt lat="42.516468" lon="12.2993942"><ele>83.60000000000001</ele><time>2026-04-04T13:09:26.981Z</time></trkpt><trkpt lat="42.5165145" lon="12.2995022"><ele>83.0</ele><time>2026-04-04T13:09:27.97Z</time></trkpt><trkpt lat="42.5165611" lon="12.299615"><ele>83.0</ele><time>2026-04-04T13:09:29.036Z</time></trkpt><trkpt lat="42.5166075" lon="12.2997257"><ele>83.0</ele><time>2026-04-04T13:09:30.04Z</time></trkpt><trkpt lat="42.516645" lon="12.2998359"><ele>83.0</ele><time>2026-04-04T13:09:30.981Z</time></trkpt><trkpt lat="42.5166739" lon="12.2999531"><ele>83.0</ele><time>2026-04-04T13:09:31.984Z</time></trkpt><trkpt lat="42.5166989" lon="12.3000736"><ele>83.0</ele><time>2026-04-04T13:09:33.041Z</time></trkpt><trkpt lat="42.5167145" lon="12.3001876"><ele>83.2</ele><time>2026-04-04T13:09:34.042Z</time></trkpt><trkpt lat="42.51673" lon="12.3003108"><ele>83.4</ele><time>2026-04-04T13:09:35.038Z</time></trkpt><trkpt lat="42.5167523" lon="12.3004468"><ele>83.60000000000001</ele><time>2026-04-04T13:09:35.995Z</time></trkpt><trkpt lat="42.5167904" lon="12.3005914"><ele>83.80000000000001</ele><time>2026-04-04T13:09:37.008Z</time></trkpt><trkpt lat="42.5168383" lon="12.3007392"><ele>84.0</ele><time>2026-04-04T13:09:38.051Z</time></trkpt><trkpt lat="42.5168979" lon="12.300888"><ele>84.0</ele><time>2026-04-04T13:09:39.038Z</time></trkpt><trkpt lat="42.5169538" lon="12.3010441"><ele>84.0</ele><time>2026-04-04T13:09:40.034Z</time></trkpt><trkpt lat="42.5170131" lon="12.3012067"><ele>84.0</ele><time>2026-04-04T13:09:40.967Z</time></trkpt><trkpt lat="42.5170602" lon="12.3013883"><ele>84.0</ele><time>2026-04-04T13:09:41.971Z</time></trkpt><trkpt lat="42.517107" lon="12.3015993"><ele>87.33333333333333</ele><time>2026-04-04T13:09:43.041Z</time></trkpt><trkpt lat="42.517152" lon="12.301809"><ele>90.66666666666666</ele><time>2026-04-04T13:09:44.041Z</time></trkpt><trkpt lat="42.5172003" lon="12.3020227"><ele>94.0</ele><time>2026-04-04T13:09:45.038Z</time></trkpt><trkpt lat="42.5172392" lon="12.3022158"><ele>96.0</ele><time>2026-04-04T13:09:46Z</time></trkpt><trkpt lat="42.5172718" lon="12.3023899"><ele>98.0</ele><time>2026-04-04T13:09:46.999Z</time></trkpt><trkpt lat="42.5172963" lon="12.3025681"><ele>100.0</ele><time>2026-04-04T13:09:47.996Z</time></trkpt><trkpt lat="42.5173187" lon="12.3027383"><ele>102.0</ele><time>2026-04-04T13:09:48.987Z</time></trkpt><trkpt lat="42.5173449" lon="12.302893"><ele>102.0</ele><time>2026-04-04T13:09:49.998Z</time></trkpt><trkpt lat="42.5173836" lon="12.3030403"><ele>102.0</ele><time>2026-04-04T13:09:51.009Z</time></trkpt><trkpt lat="42.5174308" lon="12.3031913"><ele>102.0</ele><time>2026-04-04T13:09:51.986Z</time></trkpt><trkpt lat="42.5174835" lon="12.3033347"><ele>102.0</ele><time>2026-04-04T13:09:52.984Z</time></trkpt><trkpt lat="42.5175461" lon="12.3034603"><ele>102.75</ele><time>2026-04-04T13:09:54.009Z</time></trkpt><trkpt lat="42.5176103" lon="12.3035732"><ele>103.5</ele><time>2026-04-04T13:09:54.975Z</time></trkpt><trkpt lat="42.5176912" lon="12.3036903"><ele>104.25</ele><time>2026-04-04T13:09:55.988Z</time></trkpt><trkpt lat="42.5177844" lon="12.3038062"><ele>105.0</ele><time>2026-04-04T13:09:56.995Z</time></trkpt><trkpt lat="42.5178836" lon="12.3039216"><ele>106.2</ele><time>2026-04-04T13:09:57.982Z</time></trkpt><trkpt lat="42.5179665" lon="12.3040212"><ele>107.4</ele><time>2026-04-04T13:09:58.998Z</time></trkpt><trkpt lat="42.5180332" lon="12.304108"><ele>108.6</ele><time>2026-04-04T13:10:00.008Z</time></trkpt><trkpt lat="42.5180915" lon="12.3041964"><ele>109.8</ele><time>2026-04-04T13:10:00.982Z</time></trkpt><trkpt lat="42.5181488" lon="12.3043174"><ele>111.0</ele><time>2026-04-04T13:10:01.988Z</time></trkpt><trkpt lat="42.5182082" lon="12.3044682"><ele>111.0</ele><time>2026-04-04T13:10:03.031Z</time></trkpt><trkpt lat="42.5182618" lon="12.3046159"><ele>111.0</ele><time>2026-04-04T13:10:04.003Z</time></trkpt><trkpt lat="42.5183092" lon="12.3047536"><ele>111.0</ele><time>2026-04-04T13:10:04.997Z</time></trkpt><trkpt lat="42.5183468" lon="12.3048769"><ele>111.0</ele><time>2026-04-04T13:10:05.999Z</time></trkpt><trkpt lat="42.5183854" lon="12.3049978"><ele>111.0</ele><time>2026-04-04T13:10:06.994Z</time></trkpt><trkpt lat="42.5184334" lon="12.3051212"><ele>111.6</ele><time>2026-04-04T13:10:08.006Z</time></trkpt><trkpt lat="42.5184801" lon="12.305235"><ele>112.19999999999999</ele><time>2026-04-04T13:10:09.054Z</time></trkpt><trkpt lat="42.5185242" lon="12.305341"><ele>112.80000000000001</ele><time>2026-04-04T13:10:10.063Z</time></trkpt><trkpt lat="42.5185689" lon="12.3054598"><ele>113.4</ele><time>2026-04-04T13:10:11.004Z</time></trkpt><trkpt lat="42.5186067" lon="12.305586"><ele>114.0</ele><time>2026-04-04T13:10:11.995Z</time></trkpt><trkpt lat="42.5186336" lon="12.3057153"><ele>115.0</ele><time>2026-04-04T13:10:13.038Z</time></trkpt><trkpt lat="42.5186576" lon="12.3058465"><ele>116.0</ele><time>2026-04-04T13:10:14.04Z</time></trkpt><trkpt lat="42.5186947" lon="12.3059767"><ele>117.0</ele><time>2026-04-04T13:10:15.035Z</time></trkpt><trkpt lat="42.5187401" lon="12.306108"><ele>118.0</ele><time>2026-04-04T13:10:15.998Z</time></trkpt><trkpt lat="42.5187863" lon="12.3062277"><ele>119.0</ele><time>2026-04-04T13:10:17.001Z</time></trkpt><trkpt lat="42.5188318" lon="12.3063413"><ele>120.6</ele><time>2026-04-04T13:10:18.066Z</time></trkpt><trkpt lat="42.5188671" lon="12.3064573"><ele>122.2</ele><time>2026-04-04T13:10:19.039Z</time></trkpt><trkpt lat="42.5189056" lon="12.3065891"><ele>123.79999999999998</ele><time>2026-04-04T13:10:20.061Z</time></trkpt><trkpt lat="42.5189466" lon="12.3067238"><ele>125.39999999999999</ele><time>2026-04-04T13:10:21.001Z</time></trkpt><trkpt lat="42.5189922" lon="12.3068484"><ele>127.0</ele><time>2026-04-04T13:10:22.061Z</time></trkpt><trkpt lat="42.5190438" lon="12.3069686"><ele>127.0</ele><time>2026-04-04T13:10:23.064Z</time></trkpt><trkpt lat="42.5190881" lon="12.3070918"><ele>126.99999999999999</ele><time>2026-04-04T13:10:24.07Z</time></trkpt><trkpt lat="42.5191323" lon="12.307211"><ele>126.99999999999999</ele><time>2026-04-04T13:10:25.033Z</time></trkpt><trkpt lat="42.5191819" lon="12.3073268"><ele>127.0</ele><time>2026-04-04T13:10:26.026Z</time></trkpt><trkpt lat="42.5192243" lon="12.3074385"><ele>127.0</ele><time>2026-04-04T13:10:27.002Z</time></trkpt><trkpt lat="42.519276" lon="12.3075566"><ele>127.6</ele><time>2026-04-04T13:10:28.007Z</time></trkpt><trkpt lat="42.519334" lon="12.3076796"><ele>128.2</ele><time>2026-04-04T13:10:29.062Z</time></trkpt><trkpt lat="42.5193805" lon="12.3078017"><ele>128.8</ele><time>2026-04-04T13:10:30.058Z</time></trkpt><trkpt lat="42.5194215" lon="12.3079145"><ele>129.4</ele><time>2026-04-04T13:10:30.981Z</time></trkpt><trkpt lat="42.5194641" lon="12.3080222"><ele>130.0</ele><time>2026-04-04T13:10:31.983Z</time></trkpt><trkpt lat="42.5195022" lon="12.3081305"><ele>130.4</ele><time>2026-04-04T13:10:32.999Z</time></trkpt><trkpt lat="42.5195381" lon="12.3082406"><ele>130.8</ele><time>2026-04-04T13:10:34.042Z</time></trkpt><trkpt lat="42.5195703" lon="12.3083599"><ele>131.2</ele><time>2026-04-04T13:10:35.039Z</time></trkpt><trkpt lat="42.519604" lon="12.3084894"><ele>131.6</ele><time>2026-04-04T13:10:35.982Z</time></trkpt><trkpt lat="42.5196376" lon="12.3086196"><ele>132.0</ele><time>2026-04-04T13:10:36.975Z</time></trkpt><trkpt lat="42.519666" lon="12.3087502"><ele>132.0</ele><time>2026-04-04T13:10:37.97Z</time></trkpt><trkpt lat="42.5196916" lon="12.3088777"><ele>132.0</ele><time>2026-04-04T13:10:38.978Z</time></trkpt><trkpt lat="42.5197154" lon="12.3090109"><ele>132.0</ele><time>2026-04-04T13:10:39.986Z</time></trkpt><trkpt lat="42.5197528" lon="12.309144"><ele>132.0</ele><time>2026-04-04T13:10:40.973Z</time></trkpt><trkpt lat="42.5197954" lon="12.3092802"><ele>132.0</ele><time>2026-04-04T13:10:42.037Z</time></trkpt><trkpt lat="42.5198388" lon="12.3094216"><ele>132.83333333333334</ele><time>2026-04-04T13:10:42.954Z</time></trkpt><trkpt lat="42.5198886" lon="12.3095508"><ele>133.66666666666666</ele><time>2026-04-04T13:10:43.962Z</time></trkpt><trkpt lat="42.5199307" lon="12.3096482"><ele>134.5</ele><time>2026-04-04T13:10:44.98Z</time></trkpt><trkpt lat="42.5199671" lon="12.3097429"><ele>135.33333333333331</ele><time>2026-04-04T13:10:45.971Z</time></trkpt><trkpt lat="42.5199899" lon="12.3098356"><ele>136.16666666666666</ele><time>2026-04-04T13:10:46.965Z</time></trkpt><trkpt lat="42.5199988" lon="12.3099312"><ele>137.0</ele><time>2026-04-04T13:10:47.978Z</time></trkpt><trkpt lat="42.5200023" lon="12.3100575"><ele>138.75</ele><time>2026-04-04T13:10:48.971Z</time></trkpt><trkpt lat="42.520009" lon="12.310197"><ele>140.5</ele><time>2026-04-04T13:10:49.966Z</time></trkpt><trkpt lat="42.5200298" lon="12.3103393"><ele>142.25</ele><time>2026-04-04T13:10:50.964Z</time></trkpt><trkpt lat="42.5200627" lon="12.3104921"><ele>144.0</ele><time>2026-04-04T13:10:51.961Z</time></trkpt><trkpt lat="42.5201057" lon="12.3106572"><ele>146.25</ele><time>2026-04-04T13:10:53.01Z</time></trkpt><trkpt lat="42.5201565" lon="12.3108214"><ele>148.5</ele><time>2026-04-04T13:10:53.966Z</time></trkpt><trkpt lat="42.5202072" lon="12.3109872"><ele>150.75</ele><time>2026-04-04T13:10:54.974Z</time></trkpt><trkpt lat="42.5202509" lon="12.3111385"><ele>153.0</ele><time>2026-04-04T13:10:55.977Z</time></trkpt><trkpt lat="42.5202929" lon="12.3112697"><ele>153.0</ele><time>2026-04-04T13:10:56.979Z</time></trkpt><trkpt lat="42.5203384" lon="12.311402"><ele>153.0</ele><time>2026-04-04T13:10:57.965Z</time></trkpt><trkpt lat="42.5204004" lon="12.3115477"><ele>153.0</ele><time>2026-04-04T13:10:59.001Z</time></trkpt><trkpt lat="42.5204754" lon="12.3116935"><ele>153.0</ele><time>2026-04-04T13:11:00.009Z</time></trkpt><trkpt lat="42.5205508" lon="12.3118263"><ele>153.8</ele><time>2026-04-04T13:11:00.963Z</time></trkpt><trkpt lat="42.5206224" lon="12.3119329"><ele>154.60000000000002</ele><time>2026-04-04T13:11:01.975Z</time></trkpt><trkpt lat="42.5207009" lon="12.3120301"><ele>155.39999999999998</ele><time>2026-04-04T13:11:02.989Z</time></trkpt><trkpt lat="42.520781" lon="12.3121096"><ele>156.2</ele><time>2026-04-04T13:11:04.038Z</time></trkpt><trkpt lat="42.5208573" lon="12.3121698"><ele>157.0</ele><time>2026-04-04T13:11:05.031Z</time></trkpt><trkpt lat="42.5209184" lon="12.3122274"><ele>158.5</ele><time>2026-04-04T13:11:05.99Z</time></trkpt><trkpt lat="42.5209611" lon="12.3122978"><ele>160.0</ele><time>2026-04-04T13:11:07.002Z</time></trkpt><trkpt lat="42.5209822" lon="12.3123973"><ele>161.5</ele><time>2026-04-04T13:11:08.029Z</time></trkpt><trkpt lat="42.5209895" lon="12.31251"><ele>163.0</ele><time>2026-04-04T13:11:09.043Z</time></trkpt><trkpt lat="42.5209927" lon="12.3126463"><ele>164.5</ele><time>2026-04-04T13:11:10.039Z</time></trkpt><trkpt lat="42.5210025" lon="12.3127725"><ele>166.0</ele><time>2026-04-04T13:11:10.991Z</time></trkpt><trkpt lat="42.521025" lon="12.3128974"><ele>166.0</ele><time>2026-04-04T13:11:11.998Z</time></trkpt><trkpt lat="42.5210565" lon="12.3130196"><ele>166.0</ele><time>2026-04-04T13:11:13.022Z</time></trkpt><trkpt lat="42.5210949" lon="12.3131418"><ele>166.0</ele><time>2026-04-04T13:11:14.031Z</time></trkpt><trkpt lat="42.5211298" lon="12.3132603"><ele>166.0</ele><time>2026-04-04T13:11:15.036Z</time></trkpt><trkpt lat="42.5211676" lon="12.3133484"><ele>166.0</ele><time>2026-04-04T13:11:15.99Z</time></trkpt><trkpt lat="42.5211888" lon="12.3134367"><ele>166.0</ele><time>2026-04-04T13:11:18.036Z</time></trkpt><trkpt lat="42.5212283" lon="12.3135556"><ele>167.8</ele><time>2026-04-04T13:11:20.973Z</time></trkpt><trkpt lat="42.5212831" lon="12.3136223"><ele>169.60000000000002</ele><time>2026-04-04T13:11:21.965Z</time></trkpt><trkpt lat="42.5213517" lon="12.3136823"><ele>171.4</ele><time>2026-04-04T13:11:23.038Z</time></trkpt><trkpt lat="42.5214315" lon="12.3137384"><ele>173.2</ele><time>2026-04-04T13:11:24.038Z</time></trkpt><trkpt lat="42.5215196" lon="12.313799"><ele>175.0</ele><time>2026-04-04T13:11:25.041Z</time></trkpt><trkpt lat="42.5216186" lon="12.3138673"><ele>173.5</ele><time>2026-04-04T13:11:25.983Z</time></trkpt><trkpt lat="42.5217279" lon="12.3139308"><ele>172.0</ele><time>2026-04-04T13:11:26.973Z</time></trkpt><trkpt lat="42.5218528" lon="12.3139869"><ele>170.5</ele><time>2026-04-04T13:11:27.961Z</time></trkpt><trkpt lat="42.5219847" lon="12.3140406"><ele>169.0</ele><time>2026-04-04T13:11:28.951Z</time></trkpt><trkpt lat="42.5221163" lon="12.314085"><ele>169.0</ele><time>2026-04-04T13:11:29.962Z</time></trkpt><trkpt lat="42.522243" lon="12.3141252"><ele>169.0</ele><time>2026-04-04T13:11:30.969Z</time></trkpt><trkpt lat="42.5223665" lon="12.3141672"><ele>169.0</ele><time>2026-04-04T13:11:32.043Z</time></trkpt><trkpt lat="42.5224909" lon="12.3142129"><ele>169.0</ele><time>2026-04-04T13:11:33.045Z</time></trkpt><trkpt lat="42.5226126" lon="12.3142515"><ele>169.0</ele><time>2026-04-04T13:11:34.04Z</time></trkpt><trkpt lat="42.5227364" lon="12.3142904"><ele>169.0</ele><time>2026-04-04T13:11:34.991Z</time></trkpt><trkpt lat="42.5228521" lon="12.3143287"><ele>169.0</ele><time>2026-04-04T13:11:35.982Z</time></trkpt><trkpt lat="42.5229581" lon="12.314369"><ele>169.0</ele><time>2026-04-04T13:11:36.973Z</time></trkpt><trkpt lat="42.5230588" lon="12.3144046"><ele>168.2</ele><time>2026-04-04T13:11:37.973Z</time></trkpt><trkpt lat="42.5231561" lon="12.3144334"><ele>167.39999999999998</ele><time>2026-04-04T13:11:38.97Z</time></trkpt><trkpt lat="42.5232559" lon="12.31446"><ele>166.6</ele><time>2026-04-04T13:11:39.978Z</time></trkpt><trkpt lat="42.5233561" lon="12.3144901"><ele>165.8</ele><time>2026-04-04T13:11:40.966Z</time></trkpt><trkpt lat="42.5234503" lon="12.3145209"><ele>165.0</ele><time>2026-04-04T13:11:41.963Z</time></trkpt><trkpt lat="42.523535" lon="12.3145485"><ele>165.0</ele><time>2026-04-04T13:11:43.011Z</time></trkpt><trkpt lat="42.5236118" lon="12.3145774"><ele>165.0</ele><time>2026-04-04T13:11:43.978Z</time></trkpt><trkpt lat="42.5236828" lon="12.3146137"><ele>165.0</ele><time>2026-04-04T13:11:45.048Z</time></trkpt><trkpt lat="42.5237496" lon="12.3146625"><ele>165.0</ele><time>2026-04-04T13:11:45.996Z</time></trkpt><trkpt lat="42.5238062" lon="12.3147492"><ele>165.0</ele><time>2026-04-04T13:11:47Z</time></trkpt><trkpt lat="42.5238569" lon="12.3148594"><ele>165.0</ele><time>2026-04-04T13:11:48.06Z</time></trkpt><trkpt lat="42.5239165" lon="12.3149874"><ele>164.0</ele><time>2026-04-04T13:11:49.039Z</time></trkpt><trkpt lat="42.5239757" lon="12.3151153"><ele>163.0</ele><time>2026-04-04T13:11:50.036Z</time></trkpt><trkpt lat="42.5240417" lon="12.3152382"><ele>162.0</ele><time>2026-04-04T13:11:50.964Z</time></trkpt><trkpt lat="42.5241085" lon="12.3153654"><ele>161.0</ele><time>2026-04-04T13:11:51.979Z</time></trkpt><trkpt lat="42.5241721" lon="12.3154877"><ele>160.0</ele><time>2026-04-04T13:11:53.04Z</time></trkpt><trkpt lat="42.5242311" lon="12.3156121"><ele>158.4</ele><time>2026-04-04T13:11:54.041Z</time></trkpt><trkpt lat="42.5242881" lon="12.3157338"><ele>156.8</ele><time>2026-04-04T13:11:55.039Z</time></trkpt><trkpt lat="42.5243443" lon="12.3158583"><ele>155.2</ele><time>2026-04-04T13:11:55.968Z</time></trkpt><trkpt lat="42.5244049" lon="12.3159854"><ele>153.6</ele><time>2026-04-04T13:11:56.975Z</time></trkpt><trkpt lat="42.5244643" lon="12.3161109"><ele>152.0</ele><time>2026-04-04T13:11:57.968Z</time></trkpt><trkpt lat="42.5245243" lon="12.3162339"><ele>151.25</ele><time>2026-04-04T13:11:58.99Z</time></trkpt><trkpt lat="42.5245872" lon="12.316362"><ele>150.5</ele><time>2026-04-04T13:11:59.971Z</time></trkpt><trkpt lat="42.5246553" lon="12.3164904"><ele>149.75</ele><time>2026-04-04T13:12:00.982Z</time></trkpt><trkpt lat="42.524733" lon="12.3166204"><ele>149.0</ele><time>2026-04-04T13:12:01.964Z</time></trkpt><trkpt lat="42.5248065" lon="12.3167554"><ele>149.0</ele><time>2026-04-04T13:12:02.994Z</time></trkpt><trkpt lat="42.5248725" lon="12.3168861"><ele>149.0</ele><time>2026-04-04T13:12:03.992Z</time></trkpt><trkpt lat="42.5249351" lon="12.3170159"><ele>149.0</ele><time>2026-04-04T13:12:04.993Z</time></trkpt><trkpt lat="42.5249988" lon="12.317142"><ele>149.0</ele><time>2026-04-04T13:12:05.978Z</time></trkpt><trkpt lat="42.5250669" lon="12.3172714"><ele>147.0</ele><time>2026-04-04T13:12:06.978Z</time></trkpt><trkpt lat="42.5251329" lon="12.317407"><ele>145.0</ele><time>2026-04-04T13:12:07.98Z</time></trkpt><trkpt lat="42.5252063" lon="12.3175494"><ele>143.0</ele><time>2026-04-04T13:12:08.971Z</time></trkpt><trkpt lat="42.5252788" lon="12.3176924"><ele>141.0</ele><time>2026-04-04T13:12:09.968Z</time></trkpt><trkpt lat="42.5253463" lon="12.3178297"><ele>140.5</ele><time>2026-04-04T13:12:10.979Z</time></trkpt><trkpt lat="42.5254154" lon="12.3179674"><ele>140.0</ele><time>2026-04-04T13:12:11.982Z</time></trkpt><trkpt lat="42.5254878" lon="12.3181022"><ele>139.5</ele><time>2026-04-04T13:12:12.962Z</time></trkpt><trkpt lat="42.5255652" lon="12.3182402"><ele>139.0</ele><time>2026-04-04T13:12:14.041Z</time></trkpt><trkpt lat="42.5256341" lon="12.3183747"><ele>139.0</ele><time>2026-04-04T13:12:15.039Z</time></trkpt><trkpt lat="42.5256982" lon="12.3185072"><ele>139.0</ele><time>2026-04-04T13:12:15.999Z</time></trkpt><trkpt lat="42.5257604" lon="12.3186393"><ele>139.0</ele><time>2026-04-04T13:12:17.006Z</time></trkpt><trkpt lat="42.5258296" lon="12.3187647"><ele>139.0</ele><time>2026-04-04T13:12:17.99Z</time></trkpt><trkpt lat="42.5259025" lon="12.3188913"><ele>139.8</ele><time>2026-04-04T13:12:18.976Z</time></trkpt><trkpt lat="42.5259745" lon="12.3190186"><ele>140.60000000000002</ele><time>2026-04-04T13:12:20.006Z</time></trkpt><trkpt lat="42.5260421" lon="12.319143"><ele>141.4</ele><time>2026-04-04T13:12:21.003Z</time></trkpt><trkpt lat="42.5261048" lon="12.3192626"><ele>142.20000000000002</ele><time>2026-04-04T13:12:22.046Z</time></trkpt><trkpt lat="42.5261672" lon="12.3193771"><ele>143.0</ele><time>2026-04-04T13:12:23.049Z</time></trkpt><trkpt lat="42.526232" lon="12.3194883"><ele>143.0</ele><time>2026-04-04T13:12:24.039Z</time></trkpt><trkpt lat="42.5262944" lon="12.3195957"><ele>143.0</ele><time>2026-04-04T13:12:24.973Z</time></trkpt><trkpt lat="42.526356" lon="12.3197039"><ele>143.0</ele><time>2026-04-04T13:12:25.977Z</time></trkpt><trkpt lat="42.5264111" lon="12.3198097"><ele>143.0</ele><time>2026-04-04T13:12:26.989Z</time></trkpt><trkpt lat="42.5264586" lon="12.3199147"><ele>143.0</ele><time>2026-04-04T13:12:27.976Z</time></trkpt><trkpt lat="42.5264974" lon="12.3200268"><ele>141.16666666666666</ele><time>2026-04-04T13:12:28.981Z</time></trkpt><trkpt lat="42.5265113" lon="12.3201371"><ele>139.33333333333331</ele><time>2026-04-04T13:12:30.011Z</time></trkpt><trkpt lat="42.5265036" lon="12.3202507"><ele>137.5</ele><time>2026-04-04T13:12:30.965Z</time></trkpt><trkpt lat="42.5264834" lon="12.3203538"><ele>135.66666666666666</ele><time>2026-04-04T13:12:31.983Z</time></trkpt><trkpt lat="42.5264459" lon="12.3204544"><ele>133.83333333333334</ele><time>2026-04-04T13:12:33.015Z</time></trkpt><trkpt lat="42.5263878" lon="12.3205532"><ele>132.0</ele><time>2026-04-04T13:12:34.041Z</time></trkpt><trkpt lat="42.5263094" lon="12.320656"><ele>129.5</ele><time>2026-04-04T13:12:34.988Z</time></trkpt><trkpt lat="42.526215" lon="12.3207548"><ele>127.0</ele><time>2026-04-04T13:12:36.005Z</time></trkpt><trkpt lat="42.5261123" lon="12.3208435"><ele>124.5</ele><time>2026-04-04T13:12:37.006Z</time></trkpt><trkpt lat="42.5260115" lon="12.3209324"><ele>122.0</ele><time>2026-04-04T13:12:38.043Z</time></trkpt><trkpt lat="42.5259101" lon="12.321011"><ele>122.0</ele><time>2026-04-04T13:12:39.047Z</time></trkpt><trkpt lat="42.5258087" lon="12.3210881"><ele>122.0</ele><time>2026-04-04T13:12:40.056Z</time></trkpt><trkpt lat="42.5257043" lon="12.3211683"><ele>122.0</ele><time>2026-04-04T13:12:40.967Z</time></trkpt><trkpt lat="42.525598" lon="12.321256"><ele>122.0</ele><time>2026-04-04T13:12:41.969Z</time></trkpt><trkpt lat="42.5254924" lon="12.3213433"><ele>122.0</ele><time>2026-04-04T13:12:42.987Z</time></trkpt><trkpt lat="42.5253882" lon="12.3214226"><ele>122.0</ele><time>2026-04-04T13:12:43.981Z</time></trkpt><trkpt lat="42.5252895" lon="12.3215078"><ele>122.0</ele><time>2026-04-04T13:12:44.984Z</time></trkpt><trkpt lat="42.5251923" lon="12.3215948"><ele>122.0</ele><time>2026-04-04T13:12:45.978Z</time></trkpt><trkpt lat="42.5250954" lon="12.3216838"><ele>122.0</ele><time>2026-04-04T13:12:46.97Z</time></trkpt><trkpt lat="42.5249985" lon="12.3217743"><ele>121.99999999999999</ele><time>2026-04-04T13:12:48.025Z</time></trkpt><trkpt lat="42.5249031" lon="12.3218546"><ele>121.99999999999999</ele><time>2026-04-04T13:12:48.998Z</time></trkpt><trkpt lat="42.5248111" lon="12.3219268"><ele>122.0</ele><time>2026-04-04T13:12:49.992Z</time></trkpt><trkpt lat="42.5247167" lon="12.3220054"><ele>122.0</ele><time>2026-04-04T13:12:50.975Z</time></trkpt><trkpt lat="42.5246228" lon="12.3220881"><ele>122.19999999999999</ele><time>2026-04-04T13:12:51.986Z</time></trkpt><trkpt lat="42.5245376" lon="12.322165"><ele>122.39999999999999</ele><time>2026-04-04T13:12:53.019Z</time></trkpt><trkpt lat="42.5244658" lon="12.3222437"><ele>122.60000000000001</ele><time>2026-04-04T13:12:54.043Z</time></trkpt><trkpt lat="42.5244056" lon="12.3223413"><ele>122.80000000000001</ele><time>2026-04-04T13:12:55.071Z</time></trkpt><trkpt lat="42.524362" lon="12.3224554"><ele>123.0</ele><time>2026-04-04T13:12:56.016Z</time></trkpt><trkpt lat="42.5243458" lon="12.322585"><ele>124.0</ele><time>2026-04-04T13:12:57.011Z</time></trkpt><trkpt lat="42.5243527" lon="12.322714"><ele>125.00000000000001</ele><time>2026-04-04T13:12:58.009Z</time></trkpt><trkpt lat="42.5243773" lon="12.3228389"><ele>126.00000000000001</ele><time>2026-04-04T13:12:59.009Z</time></trkpt><trkpt lat="42.5244168" lon="12.322964"><ele>127.0</ele><time>2026-04-04T13:13:00.016Z</time></trkpt><trkpt lat="42.5244826" lon="12.3230833"><ele>128.0</ele><time>2026-04-04T13:13:00.996Z</time></trkpt><trkpt lat="42.5245591" lon="12.3231761"><ele>129.4</ele><time>2026-04-04T13:13:02.019Z</time></trkpt><trkpt lat="42.5246452" lon="12.3232408"><ele>130.8</ele><time>2026-04-04T13:13:03.056Z</time></trkpt><trkpt lat="42.5247362" lon="12.3232789"><ele>132.2</ele><time>2026-04-04T13:13:04.07Z</time></trkpt><trkpt lat="42.5248365" lon="12.3233061"><ele>133.6</ele><time>2026-04-04T13:13:05.03Z</time></trkpt><trkpt lat="42.5249409" lon="12.3233309"><ele>135.0</ele><time>2026-04-04T13:13:05.998Z</time></trkpt><trkpt lat="42.5250556" lon="12.3233624"><ele>135.0</ele><time>2026-04-04T13:13:07.006Z</time></trkpt><trkpt lat="42.5251781" lon="12.3233947"><ele>135.0</ele><time>2026-04-04T13:13:08.019Z</time></trkpt><trkpt lat="42.5252811" lon="12.3234368"><ele>135.0</ele><time>2026-04-04T13:13:09.018Z</time></trkpt><trkpt lat="42.5253647" lon="12.3234874"><ele>135.0</ele><time>2026-04-04T13:13:10.01Z</time></trkpt><trkpt lat="42.5254296" lon="12.3235493"><ele>135.0</ele><time>2026-04-04T13:13:11.019Z</time></trkpt><trkpt lat="42.5254847" lon="12.3236316"><ele>135.8</ele><time>2026-04-04T13:13:12.046Z</time></trkpt><trkpt lat="42.5255248" lon="12.323741"><ele>136.6</ele><time>2026-04-04T13:13:13.033Z</time></trkpt><trkpt lat="42.5255406" lon="12.323867"><ele>137.4</ele><time>2026-04-04T13:13:14.029Z</time></trkpt><trkpt lat="42.5255437" lon="12.3239978"><ele>138.2</ele><time>2026-04-04T13:13:15.008Z</time></trkpt><trkpt lat="42.525548" lon="12.3241229"><ele>139.0</ele><time>2026-04-04T13:13:16.011Z</time></trkpt><trkpt lat="42.5255478" lon="12.3242307"><ele>139.0</ele><time>2026-04-04T13:13:17.007Z</time></trkpt><trkpt lat="42.525523" lon="12.3243387"><ele>139.0</ele><time>2026-04-04T13:13:18.023Z</time></trkpt><trkpt lat="42.5254759" lon="12.324437"><ele>139.0</ele><time>2026-04-04T13:13:19.021Z</time></trkpt><trkpt lat="42.5254079" lon="12.3245091"><ele>139.0</ele><time>2026-04-04T13:13:20.01Z</time></trkpt><trkpt lat="42.525325" lon="12.3245425"><ele>139.0</ele><time>2026-04-04T13:13:21.017Z</time></trkpt><trkpt lat="42.5252223" lon="12.3245358"><ele>139.0</ele><time>2026-04-04T13:13:22.017Z</time></trkpt><trkpt lat="42.5250999" lon="12.3245089"><ele>140.75</ele><time>2026-04-04T13:13:23.034Z</time></trkpt><trkpt lat="42.5249735" lon="12.3244759"><ele>142.5</ele><time>2026-04-04T13:13:24Z</time></trkpt><trkpt lat="42.5248494" lon="12.3244423"><ele>144.25</ele><time>2026-04-04T13:13:25.056Z</time></trkpt><trkpt lat="42.5247242" lon="12.3244112"><ele>146.0</ele><time>2026-04-04T13:13:26.022Z</time></trkpt><trkpt lat="42.5245927" lon="12.3243825"><ele>147.25</ele><time>2026-04-04T13:13:27.028Z</time></trkpt><trkpt lat="42.5244661" lon="12.3243553"><ele>148.5</ele><time>2026-04-04T13:13:28.05Z</time></trkpt><trkpt lat="42.5243434" lon="12.3243233"><ele>149.75</ele><time>2026-04-04T13:13:29.076Z</time></trkpt><trkpt lat="42.5242241" lon="12.3242867"><ele>151.0</ele><time>2026-04-04T13:13:30.031Z</time></trkpt><trkpt lat="42.5241006" lon="12.3242595"><ele>151.0</ele><time>2026-04-04T13:13:31.02Z</time></trkpt><trkpt lat="42.5239826" lon="12.3242325"><ele>151.0</ele><time>2026-04-04T13:13:32.015Z</time></trkpt><trkpt lat="42.5238785" lon="12.324209"><ele>151.0</ele><time>2026-04-04T13:13:33.052Z</time></trkpt><trkpt lat="42.5237765" lon="12.324182"><ele>151.0</ele><time>2026-04-04T13:13:34.043Z</time></trkpt><trkpt lat="42.5236851" lon="12.324159"><ele>151.0</ele><time>2026-04-04T13:13:35.041Z</time></trkpt><trkpt lat="42.5235993" lon="12.3241475"><ele>151.83333333333334</ele><time>2026-04-04T13:13:35.974Z</time></trkpt><trkpt lat="42.5235172" lon="12.3241441"><ele>152.66666666666669</ele><time>2026-04-04T13:13:36.971Z</time></trkpt><trkpt lat="42.5234334" lon="12.3241618"><ele>153.5</ele><time>2026-04-04T13:13:38.026Z</time></trkpt><trkpt lat="42.5233551" lon="12.3241907"><ele>154.33333333333334</ele><time>2026-04-04T13:13:39.034Z</time></trkpt><trkpt lat="42.5232835" lon="12.324244"><ele>155.16666666666666</ele><time>2026-04-04T13:13:40.039Z</time></trkpt><trkpt lat="42.5232144" lon="12.3243171"><ele>156.0</ele><time>2026-04-04T13:13:40.972Z</time></trkpt><trkpt lat="42.5231558" lon="12.3244276"><ele>156.0</ele><time>2026-04-04T13:13:41.974Z</time></trkpt><trkpt lat="42.5230985" lon="12.3245697"><ele>156.0</ele><time>2026-04-04T13:13:43.042Z</time></trkpt><trkpt lat="42.5230477" lon="12.3247219"><ele>156.0</ele><time>2026-04-04T13:13:43.958Z</time></trkpt><trkpt lat="42.522991" lon="12.3248839"><ele>156.0</ele><time>2026-04-04T13:13:44.982Z</time></trkpt><trkpt lat="42.5229377" lon="12.3250452"><ele>155.0</ele><time>2026-04-04T13:13:45.952Z</time></trkpt><trkpt lat="42.5228864" lon="12.3252013"><ele>154.0</ele><time>2026-04-04T13:13:46.982Z</time></trkpt><trkpt lat="42.5228315" lon="12.3253415"><ele>153.0</ele><time>2026-04-04T13:13:47.971Z</time></trkpt><trkpt lat="42.5227786" lon="12.3254843"><ele>152.0</ele><time>2026-04-04T13:13:48.97Z</time></trkpt><trkpt lat="42.5227221" lon="12.3256284"><ele>153.6</ele><time>2026-04-04T13:13:49.98Z</time></trkpt><trkpt lat="42.5226679" lon="12.3257719"><ele>155.2</ele><time>2026-04-04T13:13:50.977Z</time></trkpt><trkpt lat="42.5226227" lon="12.3258996"><ele>156.8</ele><time>2026-04-04T13:13:51.968Z</time></trkpt><trkpt lat="42.5225765" lon="12.3260229"><ele>158.4</ele><time>2026-04-04T13:13:52.971Z</time></trkpt><trkpt lat="42.5225256" lon="12.3261432"><ele>160.0</ele><time>2026-04-04T13:13:54.012Z</time></trkpt><trkpt lat="42.5224777" lon="12.3262639"><ele>160.0</ele><time>2026-04-04T13:13:54.995Z</time></trkpt><trkpt lat="42.5224323" lon="12.3263784"><ele>160.0</ele><time>2026-04-04T13:13:55.963Z</time></trkpt><trkpt lat="42.5223913" lon="12.3264983"><ele>160.0</ele><time>2026-04-04T13:13:56.981Z</time></trkpt><trkpt lat="42.5223506" lon="12.3266179"><ele>160.0</ele><time>2026-04-04T13:13:57.967Z</time></trkpt><trkpt lat="42.5223064" lon="12.3267263"><ele>160.0</ele><time>2026-04-04T13:13:58.976Z</time></trkpt><trkpt lat="42.5222536" lon="12.3268359"><ele>159.2</ele><time>2026-04-04T13:13:59.968Z</time></trkpt><trkpt lat="42.5221984" lon="12.3269407"><ele>158.4</ele><time>2026-04-04T13:14:00.97Z</time></trkpt><trkpt lat="42.5221304" lon="12.3270452"><ele>157.6</ele><time>2026-04-04T13:14:01.972Z</time></trkpt><trkpt lat="42.5220548" lon="12.3271415"><ele>156.8</ele><time>2026-04-04T13:14:02.993Z</time></trkpt><trkpt lat="42.5219767" lon="12.3272356"><ele>156.0</ele><time>2026-04-04T13:14:04.006Z</time></trkpt><trkpt lat="42.5219007" lon="12.3273295"><ele>158.4</ele><time>2026-04-04T13:14:04.964Z</time></trkpt><trkpt lat="42.5218166" lon="12.3274184"><ele>160.8</ele><time>2026-04-04T13:14:05.969Z</time></trkpt><trkpt lat="42.5217329" lon="12.327507"><ele>163.20000000000002</ele><time>2026-04-04T13:14:06.978Z</time></trkpt><trkpt lat="42.5216532" lon="12.3275832"><ele>165.6</ele><time>2026-04-04T13:14:07.973Z</time></trkpt><trkpt lat="42.5215694" lon="12.3276506"><ele>168.0</ele><time>2026-04-04T13:14:08.964Z</time></trkpt><trkpt lat="42.5214862" lon="12.3277137"><ele>168.0</ele><time>2026-04-04T13:14:09.971Z</time></trkpt><trkpt lat="42.5213916" lon="12.3277775"><ele>168.0</ele><time>2026-04-04T13:14:10.974Z</time></trkpt><trkpt lat="42.5212993" lon="12.3278381"><ele>168.0</ele><time>2026-04-04T13:14:11.966Z</time></trkpt><trkpt lat="42.5212027" lon="12.327895"><ele>168.0</ele><time>2026-04-04T13:14:12.977Z</time></trkpt><trkpt lat="42.5211074" lon="12.3279425"><ele>168.0</ele><time>2026-04-04T13:14:14.011Z</time></trkpt><trkpt lat="42.5210155" lon="12.3279718"><ele>166.8</ele><time>2026-04-04T13:14:14.992Z</time></trkpt><trkpt lat="42.5209249" lon="12.3279894"><ele>165.60000000000002</ele><time>2026-04-04T13:14:15.974Z</time></trkpt><trkpt lat="42.5208303" lon="12.3279915"><ele>164.39999999999998</ele><time>2026-04-04T13:14:16.975Z</time></trkpt><trkpt lat="42.5207288" lon="12.327964"><ele>163.2</ele><time>2026-04-04T13:14:18.001Z</time></trkpt><trkpt lat="42.5206259" lon="12.3278999"><ele>162.0</ele><time>2026-04-04T13:14:18.995Z</time></trkpt><trkpt lat="42.5205175" lon="12.3278093"><ele>162.0</ele><time>2026-04-04T13:14:19.994Z</time></trkpt><trkpt lat="42.5204105" lon="12.3276936"><ele>162.0</ele><time>2026-04-04T13:14:20.983Z</time></trkpt><trkpt lat="42.5203034" lon="12.3275758"><ele>162.0</ele><time>2026-04-04T13:14:21.95Z</time></trkpt><trkpt lat="42.5201927" lon="12.327453"><ele>162.0</ele><time>2026-04-04T13:14:23Z</time></trkpt><trkpt lat="42.5200803" lon="12.3273298"><ele>162.75</ele><time>2026-04-04T13:14:24.033Z</time></trkpt><trkpt lat="42.5199653" lon="12.3272053"><ele>163.5</ele><time>2026-04-04T13:14:25.023Z</time></trkpt><trkpt lat="42.5198579" lon="12.327087"><ele>164.25</ele><time>2026-04-04T13:14:25.997Z</time></trkpt><trkpt lat="42.5197557" lon="12.3269829"><ele>165.0</ele><time>2026-04-04T13:14:27.012Z</time></trkpt><trkpt lat="42.5196656" lon="12.3268885"><ele>165.0</ele><time>2026-04-04T13:14:28.038Z</time></trkpt><trkpt lat="42.5195848" lon="12.3268011"><ele>165.0</ele><time>2026-04-04T13:14:29.037Z</time></trkpt><trkpt lat="42.5195088" lon="12.3267146"><ele>165.0</ele><time>2026-04-04T13:14:30.038Z</time></trkpt><trkpt lat="42.5194303" lon="12.3266288"><ele>165.0</ele><time>2026-04-04T13:14:30.984Z</time></trkpt><trkpt lat="42.5193454" lon="12.3265414"><ele>165.0</ele><time>2026-04-04T13:14:31.961Z</time></trkpt><trkpt lat="42.5192591" lon="12.326447"><ele>166.8</ele><time>2026-04-04T13:14:33.039Z</time></trkpt><trkpt lat="42.5191753" lon="12.3263515"><ele>168.6</ele><time>2026-04-04T13:14:34.034Z</time></trkpt><trkpt lat="42.5190917" lon="12.3262624"><ele>170.39999999999998</ele><time>2026-04-04T13:14:35.038Z</time></trkpt><trkpt lat="42.5190137" lon="12.3261771"><ele>172.2</ele><time>2026-04-04T13:14:35.99Z</time></trkpt><trkpt lat="42.5189347" lon="12.3260974"><ele>174.0</ele><time>2026-04-04T13:14:37.001Z</time></trkpt><trkpt lat="42.518864" lon="12.3260324"><ele>174.0</ele><time>2026-04-04T13:14:38.003Z</time></trkpt><trkpt lat="42.5188007" lon="12.3259937"><ele>174.0</ele><time>2026-04-04T13:14:38.996Z</time></trkpt><trkpt lat="42.5187306" lon="12.3259908"><ele>174.0</ele><time>2026-04-04T13:14:39.999Z</time></trkpt><trkpt lat="42.5186641" lon="12.3259996"><ele>174.0</ele><time>2026-04-04T13:14:40.995Z</time></trkpt><trkpt lat="42.5186007" lon="12.3260085"><ele>174.0</ele><time>2026-04-04T13:14:42.04Z</time></trkpt><trkpt lat="42.5185344" lon="12.3259924"><ele>174.0</ele><time>2026-04-04T13:14:43.038Z</time></trkpt><trkpt lat="42.5184668" lon="12.3259602"><ele>174.0</ele><time>2026-04-04T13:14:44.033Z</time></trkpt><trkpt lat="42.5184054" lon="12.3259288"><ele>174.2</ele><time>2026-04-04T13:14:45.035Z</time></trkpt><trkpt lat="42.5183391" lon="12.3258116"><ele>174.39999999999998</ele><time>2026-04-04T13:14:46.995Z</time></trkpt><trkpt lat="42.5183439" lon="12.3257214"><ele>174.6</ele><time>2026-04-04T13:14:47.993Z</time></trkpt><trkpt lat="42.5183708" lon="12.3256162"><ele>174.8</ele><time>2026-04-04T13:14:48.996Z</time></trkpt><trkpt lat="42.5184203" lon="12.3254997"><ele>175.0</ele><time>2026-04-04T13:14:49.99Z</time></trkpt><trkpt lat="42.5184739" lon="12.3253848"><ele>175.0</ele><time>2026-04-04T13:14:50.997Z</time></trkpt><trkpt lat="42.5185294" lon="12.3252751"><ele>175.0</ele><time>2026-04-04T13:14:52.006Z</time></trkpt><trkpt lat="42.5185787" lon="12.3251682"><ele>175.0</ele><time>2026-04-04T13:14:53.042Z</time></trkpt><trkpt lat="42.5186256" lon="12.3250626"><ele>175.0</ele><time>2026-04-04T13:14:54.007Z</time></trkpt><trkpt lat="42.5186724" lon="12.3249606"><ele>175.0</ele><time>2026-04-04T13:14:55.006Z</time></trkpt><trkpt lat="42.5187213" lon="12.3248667"><ele>174.0</ele><time>2026-04-04T13:14:55.988Z</time></trkpt><trkpt lat="42.5187744" lon="12.3247928"><ele>173.0</ele><time>2026-04-04T13:14:56.996Z</time></trkpt><trkpt lat="42.5188269" lon="12.3247301"><ele>172.0</ele><time>2026-04-04T13:14:58.003Z</time></trkpt><trkpt lat="42.5189058" lon="12.3246283"><ele>171.0</ele><time>2026-04-04T13:15:00.066Z</time></trkpt><trkpt lat="42.5189134" lon="12.3244975"><ele>170.0</ele><time>2026-04-04T13:15:01.999Z</time></trkpt><trkpt lat="42.5188616" lon="12.3243886"><ele>169.0</ele><time>2026-04-04T13:15:04.033Z</time></trkpt><trkpt lat="42.5188578" lon="12.3242722"><ele>167.39999999999998</ele><time>2026-04-04T13:15:05.997Z</time></trkpt><trkpt lat="42.5189298" lon="12.3241307"><ele>165.8</ele><time>2026-04-04T13:15:08.036Z</time></trkpt><trkpt lat="42.5189899" lon="12.3240397"><ele>164.2</ele><time>2026-04-04T13:15:09.036Z</time></trkpt><trkpt lat="42.5190497" lon="12.3239405"><ele>162.60000000000002</ele><time>2026-04-04T13:15:10.038Z</time></trkpt><trkpt lat="42.5191116" lon="12.3238429"><ele>161.0</ele><time>2026-04-04T13:15:10.974Z</time></trkpt><trkpt lat="42.5191753" lon="12.3237464"><ele>159.20000000000002</ele><time>2026-04-04T13:15:11.974Z</time></trkpt><trkpt lat="42.5192411" lon="12.3236516"><ele>157.4</ele><time>2026-04-04T13:15:13.039Z</time></trkpt><trkpt lat="42.5193013" lon="12.3235547"><ele>155.6</ele><time>2026-04-04T13:15:14.044Z</time></trkpt><trkpt lat="42.5193559" lon="12.3234619"><ele>153.8</ele><time>2026-04-04T13:15:15.039Z</time></trkpt><trkpt lat="42.5194094" lon="12.3233652"><ele>152.0</ele><time>2026-04-04T13:15:15.963Z</time></trkpt><trkpt lat="42.5194601" lon="12.3232748"><ele>152.0</ele><time>2026-04-04T13:15:17.011Z</time></trkpt><trkpt lat="42.5194954" lon="12.3231812"><ele>152.0</ele><time>2026-04-04T13:15:17.979Z</time></trkpt><trkpt lat="42.519519" lon="12.3230855"><ele>152.0</ele><time>2026-04-04T13:15:18.972Z</time></trkpt><trkpt lat="42.519537" lon="12.3229751"><ele>152.0</ele><time>2026-04-04T13:15:19.977Z</time></trkpt><trkpt lat="42.5195357" lon="12.3228556"><ele>152.0</ele><time>2026-04-04T13:15:20.972Z</time></trkpt><trkpt lat="42.5195284" lon="12.3227277"><ele>152.0</ele><time>2026-04-04T13:15:21.986Z</time></trkpt><trkpt lat="42.5195254" lon="12.3226088"><ele>150.66666666666666</ele><time>2026-04-04T13:15:22.985Z</time></trkpt><trkpt lat="42.5195291" lon="12.3224943"><ele>149.33333333333331</ele><time>2026-04-04T13:15:23.985Z</time></trkpt><trkpt lat="42.5195379" lon="12.3223868"><ele>148.0</ele><time>2026-04-04T13:15:24.987Z</time></trkpt><trkpt lat="42.5195454" lon="12.322283"><ele>146.66666666666666</ele><time>2026-04-04T13:15:25.977Z</time></trkpt><trkpt lat="42.5195501" lon="12.32218"><ele>145.33333333333334</ele><time>2026-04-04T13:15:26.98Z</time></trkpt><trkpt lat="42.5195487" lon="12.3220737"><ele>144.0</ele><time>2026-04-04T13:15:27.981Z</time></trkpt><trkpt lat="42.5195362" lon="12.3219759"><ele>142.25</ele><time>2026-04-04T13:15:28.972Z</time></trkpt><trkpt lat="42.5195068" lon="12.3218725"><ele>140.5</ele><time>2026-04-04T13:15:29.974Z</time></trkpt><trkpt lat="42.519445" lon="12.321744"><ele>138.75</ele><time>2026-04-04T13:15:30.985Z</time></trkpt><trkpt lat="42.5193448" lon="12.3215972"><ele>137.0</ele><time>2026-04-04T13:15:32.039Z</time></trkpt><trkpt lat="42.5192393" lon="12.3214512"><ele>135.25</ele><time>2026-04-04T13:15:32.979Z</time></trkpt><trkpt lat="42.5191428" lon="12.3213222"><ele>133.5</ele><time>2026-04-04T13:15:34.038Z</time></trkpt><trkpt lat="42.5190472" lon="12.3212032"><ele>131.75</ele><time>2026-04-04T13:15:35.004Z</time></trkpt><trkpt lat="42.5189627" lon="12.3210986"><ele>130.0</ele><time>2026-04-04T13:15:36.004Z</time></trkpt><trkpt lat="42.5188861" lon="12.3210034"><ele>130.0</ele><time>2026-04-04T13:15:37.005Z</time></trkpt><trkpt lat="42.5188068" lon="12.320913"><ele>130.0</ele><time>2026-04-04T13:15:37.983Z</time></trkpt><trkpt lat="42.5187337" lon="12.3208239"><ele>130.0</ele><time>2026-04-04T13:15:38.996Z</time></trkpt><trkpt lat="42.5186564" lon="12.3207457"><ele>130.0</ele><time>2026-04-04T13:15:39.995Z</time></trkpt><trkpt lat="42.5185724" lon="12.320677"><ele>130.0</ele><time>2026-04-04T13:15:41Z</time></trkpt><trkpt lat="42.5184935" lon="12.3206141"><ele>129.16666666666669</ele><time>2026-04-04T13:15:41.999Z</time></trkpt><trkpt lat="42.5184247" lon="12.32055"><ele>128.33333333333334</ele><time>2026-04-04T13:15:43.034Z</time></trkpt><trkpt lat="42.5183673" lon="12.3204814"><ele>127.5</ele><time>2026-04-04T13:15:44.005Z</time></trkpt><trkpt lat="42.5183291" lon="12.320409"><ele>126.66666666666666</ele><time>2026-04-04T13:15:45.002Z</time></trkpt><trkpt lat="42.5183121" lon="12.3203058"><ele>125.83333333333333</ele><time>2026-04-04T13:15:45.987Z</time></trkpt><trkpt lat="42.5183089" lon="12.3201865"><ele>125.0</ele><time>2026-04-04T13:15:46.987Z</time></trkpt><trkpt lat="42.5183066" lon="12.3200718"><ele>124.99999999999999</ele><time>2026-04-04T13:15:48Z</time></trkpt><trkpt lat="42.5183042" lon="12.3199618"><ele>125.0</ele><time>2026-04-04T13:15:49.035Z</time></trkpt><trkpt lat="42.5182996" lon="12.3198549"><ele>125.0</ele><time>2026-04-04T13:15:50.044Z</time></trkpt><trkpt lat="42.5182873" lon="12.319752"><ele>125.0</ele><time>2026-04-04T13:15:50.994Z</time></trkpt><trkpt lat="42.5182628" lon="12.319653"><ele>124.99999999999999</ele><time>2026-04-04T13:15:51.997Z</time></trkpt><trkpt lat="42.518238" lon="12.3195496"><ele>125.0</ele><time>2026-04-04T13:15:53.036Z</time></trkpt><trkpt lat="42.5182186" lon="12.3194376"><ele>123.66666666666666</ele><time>2026-04-04T13:15:54.019Z</time></trkpt><trkpt lat="42.5182009" lon="12.3193262"><ele>122.33333333333333</ele><time>2026-04-04T13:15:55.065Z</time></trkpt><trkpt lat="42.5181841" lon="12.319221"><ele>121.0</ele><time>2026-04-04T13:15:55.998Z</time></trkpt><trkpt lat="42.5181678" lon="12.3191188"><ele>119.66666666666666</ele><time>2026-04-04T13:15:56.998Z</time></trkpt><trkpt lat="42.5181455" lon="12.3190253"><ele>118.33333333333333</ele><time>2026-04-04T13:15:58.057Z</time></trkpt><trkpt lat="42.5180978" lon="12.3189454"><ele>117.0</ele><time>2026-04-04T13:15:59.062Z</time></trkpt><trkpt lat="42.5180327" lon="12.3188724"><ele>116.19999999999999</ele><time>2026-04-04T13:16:00.044Z</time></trkpt><trkpt lat="42.517945" lon="12.3188166"><ele>115.39999999999999</ele><time>2026-04-04T13:16:01.005Z</time></trkpt><trkpt lat="42.517842" lon="12.3187686"><ele>114.60000000000001</ele><time>2026-04-04T13:16:02Z</time></trkpt><trkpt lat="42.5177451" lon="12.3187274"><ele>113.80000000000001</ele><time>2026-04-04T13:16:03.038Z</time></trkpt><trkpt lat="42.5176568" lon="12.3186705"><ele>113.0</ele><time>2026-04-04T13:16:04.039Z</time></trkpt><trkpt lat="42.5175666" lon="12.3185973"><ele>113.0</ele><time>2026-04-04T13:16:05.03Z</time></trkpt><trkpt lat="42.5174754" lon="12.3185223"><ele>113.00000000000001</ele><time>2026-04-04T13:16:05.998Z</time></trkpt><trkpt lat="42.517387" lon="12.3184679"><ele>113.00000000000001</ele><time>2026-04-04T13:16:07.007Z</time></trkpt><trkpt lat="42.517288" lon="12.3184267"><ele>113.0</ele><time>2026-04-04T13:16:08.04Z</time></trkpt><trkpt lat="42.5171625" lon="12.3183886"><ele>113.0</ele><time>2026-04-04T13:16:09.057Z</time></trkpt><trkpt lat="42.5170335" lon="12.3183682"><ele>113.0</ele><time>2026-04-04T13:16:10.044Z</time></trkpt><trkpt lat="42.5168994" lon="12.3183492"><ele>113.0</ele><time>2026-04-04T13:16:11.005Z</time></trkpt><trkpt lat="42.5167587" lon="12.3183371"><ele>113.0</ele><time>2026-04-04T13:16:12Z</time></trkpt><trkpt lat="42.5166125" lon="12.3183356"><ele>113.0</ele><time>2026-04-04T13:16:13.063Z</time></trkpt><trkpt lat="42.5164913" lon="12.3183282"><ele>113.0</ele><time>2026-04-04T13:16:14.069Z</time></trkpt><trkpt lat="42.5163937" lon="12.3183175"><ele>113.00000000000001</ele><time>2026-04-04T13:16:15.064Z</time></trkpt><trkpt lat="42.5163079" lon="12.3183092"><ele>113.00000000000001</ele><time>2026-04-04T13:16:15.997Z</time></trkpt><trkpt lat="42.5162394" lon="12.3183061"><ele>113.0</ele><time>2026-04-04T13:16:16.997Z</time></trkpt><trkpt lat="42.5161278" lon="12.318296"><ele>113.0</ele><time>2026-04-04T13:16:19.005Z</time></trkpt><trkpt lat="42.5160068" lon="12.3182815"><ele>113.66666666666666</ele><time>2026-04-04T13:16:20.978Z</time></trkpt><trkpt lat="42.5159336" lon="12.318276"><ele>114.33333333333333</ele><time>2026-04-04T13:16:22.04Z</time></trkpt><trkpt lat="42.5158569" lon="12.3182735"><ele>115.0</ele><time>2026-04-04T13:16:23.072Z</time></trkpt><trkpt lat="42.5157772" lon="12.3182735"><ele>115.66666666666666</ele><time>2026-04-04T13:16:24.063Z</time></trkpt><trkpt lat="42.5156861" lon="12.318266"><ele>116.33333333333333</ele><time>2026-04-04T13:16:25.06Z</time></trkpt><trkpt lat="42.5155743" lon="12.3182469"><ele>117.0</ele><time>2026-04-04T13:16:25.993Z</time></trkpt><trkpt lat="42.5154355" lon="12.3182239"><ele>118.0</ele><time>2026-04-04T13:16:26.995Z</time></trkpt><trkpt lat="42.5152879" lon="12.3182013"><ele>119.0</ele><time>2026-04-04T13:16:27.995Z</time></trkpt><trkpt lat="42.5151554" lon="12.318185"><ele>120.0</ele><time>2026-04-04T13:16:28.998Z</time></trkpt><trkpt lat="42.5150358" lon="12.3181814"><ele>121.0</ele><time>2026-04-04T13:16:30.008Z</time></trkpt><trkpt lat="42.5149175" lon="12.3181954"><ele>121.0</ele><time>2026-04-04T13:16:31Z</time></trkpt><trkpt lat="42.5148002" lon="12.3182172"><ele>121.0</ele><time>2026-04-04T13:16:31.993Z</time></trkpt><trkpt lat="42.5146873" lon="12.3182444"><ele>121.0</ele><time>2026-04-04T13:16:33.055Z</time></trkpt><trkpt lat="42.5145607" lon="12.3182686"><ele>121.0</ele><time>2026-04-04T13:16:34.056Z</time></trkpt><trkpt lat="42.5144296" lon="12.3182938"><ele>123.0</ele><time>2026-04-04T13:16:35.037Z</time></trkpt><trkpt lat="42.5142936" lon="12.3183248"><ele>125.0</ele><time>2026-04-04T13:16:36.004Z</time></trkpt><trkpt lat="42.5141708" lon="12.3183566"><ele>127.0</ele><time>2026-04-04T13:16:37.004Z</time></trkpt><trkpt lat="42.514053" lon="12.3183873"><ele>129.0</ele><time>2026-04-04T13:16:38.026Z</time></trkpt><trkpt lat="42.5139471" lon="12.3184113"><ele>129.0</ele><time>2026-04-04T13:16:39.029Z</time></trkpt><trkpt lat="42.5138598" lon="12.3184268"><ele>129.0</ele><time>2026-04-04T13:16:39.967Z</time></trkpt><trkpt lat="42.5137762" lon="12.3184354"><ele>129.0</ele><time>2026-04-04T13:16:40.971Z</time></trkpt><trkpt lat="42.5136876" lon="12.3184348"><ele>129.0</ele><time>2026-04-04T13:16:41.963Z</time></trkpt><trkpt lat="42.513598" lon="12.3184284"><ele>129.0</ele><time>2026-04-04T13:16:42.964Z</time></trkpt><trkpt lat="42.5135071" lon="12.3184139"><ele>129.0</ele><time>2026-04-04T13:16:44.014Z</time></trkpt><trkpt lat="42.5134252" lon="12.3184012"><ele>130.0</ele><time>2026-04-04T13:16:44.993Z</time></trkpt><trkpt lat="42.5133433" lon="12.3183948"><ele>131.0</ele><time>2026-04-04T13:16:46.012Z</time></trkpt><trkpt lat="42.5132757" lon="12.3183845"><ele>132.0</ele><time>2026-04-04T13:16:46.974Z</time></trkpt><trkpt lat="42.5131722" lon="12.3183298"><ele>133.0</ele><time>2026-04-04T13:16:48.968Z</time></trkpt><trkpt lat="42.51312" lon="12.3182615"><ele>134.0</ele><time>2026-04-04T13:16:49.996Z</time></trkpt><trkpt lat="42.5130674" lon="12.3181827"><ele>135.0</ele><time>2026-04-04T13:16:50.992Z</time></trkpt><trkpt lat="42.5130183" lon="12.3181012"><ele>134.28571428571428</ele><time>2026-04-04T13:16:51.967Z</time></trkpt><trkpt lat="42.5129628" lon="12.318024"><ele>133.57142857142856</ele><time>2026-04-04T13:16:52.967Z</time></trkpt><trkpt lat="42.5129127" lon="12.3179422"><ele>132.85714285714286</ele><time>2026-04-04T13:16:53.95Z</time></trkpt><trkpt lat="42.5128631" lon="12.3178578"><ele>132.14285714285714</ele><time>2026-04-04T13:16:54.956Z</time></trkpt><trkpt lat="42.5128243" lon="12.3177717"><ele>131.42857142857144</ele><time>2026-04-04T13:16:55.975Z</time></trkpt><trkpt lat="42.5127979" lon="12.3176883"><ele>130.71428571428572</ele><time>2026-04-04T13:16:56.954Z</time></trkpt><trkpt lat="42.5127592" lon="12.3176168"><ele>130.0</ele><time>2026-04-04T13:16:57.969Z</time></trkpt><trkpt lat="42.5126495" lon="12.3175256"><ele>130.0</ele><time>2026-04-04T13:16:59.955Z</time></trkpt><trkpt lat="42.5125754" lon="12.3175002"><ele>130.0</ele><time>2026-04-04T13:17:00.967Z</time></trkpt><trkpt lat="42.512487" lon="12.3174858"><ele>130.0</ele><time>2026-04-04T13:17:01.961Z</time></trkpt><trkpt lat="42.5123931" lon="12.3174737"><ele>130.0</ele><time>2026-04-04T13:17:02.958Z</time></trkpt><trkpt lat="42.5122998" lon="12.3174673"><ele>130.0</ele><time>2026-04-04T13:17:04.037Z</time></trkpt><trkpt lat="42.5122066" lon="12.3174722"><ele>130.0</ele><time>2026-04-04T13:17:05.028Z</time></trkpt><trkpt lat="42.5121195" lon="12.3174869"><ele>131.16666666666669</ele><time>2026-04-04T13:17:06.037Z</time></trkpt><trkpt lat="42.5120462" lon="12.3175003"><ele>132.33333333333334</ele><time>2026-04-04T13:17:06.99Z</time></trkpt><trkpt lat="42.5119785" lon="12.317505"><ele>133.5</ele><time>2026-04-04T13:17:07.994Z</time></trkpt><trkpt lat="42.5119083" lon="12.3175021"><ele>134.66666666666666</ele><time>2026-04-04T13:17:08.99Z</time></trkpt><trkpt lat="42.511831" lon="12.3174924"><ele>135.83333333333331</ele><time>2026-04-04T13:17:09.996Z</time></trkpt><trkpt lat="42.511746" lon="12.3174829"><ele>137.0</ele><time>2026-04-04T13:17:10.986Z</time></trkpt><trkpt lat="42.5116517" lon="12.3174754"><ele>137.0</ele><time>2026-04-04T13:17:11.995Z</time></trkpt><trkpt lat="42.5115573" lon="12.3174651"><ele>137.0</ele><time>2026-04-04T13:17:12.998Z</time></trkpt><trkpt lat="42.5114616" lon="12.3174594"><ele>137.0</ele><time>2026-04-04T13:17:14.022Z</time></trkpt><trkpt lat="42.5113674" lon="12.3174565"><ele>137.0</ele><time>2026-04-04T13:17:14.991Z</time></trkpt><trkpt lat="42.511272" lon="12.3174417"><ele>137.0</ele><time>2026-04-04T13:17:15.985Z</time></trkpt><trkpt lat="42.5111814" lon="12.3174198"><ele>138.0</ele><time>2026-04-04T13:17:17Z</time></trkpt><trkpt lat="42.5110984" lon="12.3174049"><ele>139.0</ele><time>2026-04-04T13:17:17.988Z</time></trkpt><trkpt lat="42.511017" lon="12.3173837"><ele>140.0</ele><time>2026-04-04T13:17:18.997Z</time></trkpt><trkpt lat="42.5109258" lon="12.3173577"><ele>141.0</ele><time>2026-04-04T13:17:19.997Z</time></trkpt><trkpt lat="42.5108346" lon="12.3173274"><ele>142.0</ele><time>2026-04-04T13:17:21.014Z</time></trkpt><trkpt lat="42.5107478" lon="12.3173019"><ele>143.0</ele><time>2026-04-04T13:17:21.999Z</time></trkpt><trkpt lat="42.5106585" lon="12.3172728"><ele>143.0</ele><time>2026-04-04T13:17:22.991Z</time></trkpt><trkpt lat="42.5105629" lon="12.3172378"><ele>143.0</ele><time>2026-04-04T13:17:24.035Z</time></trkpt><trkpt lat="42.5104706" lon="12.3172019"><ele>143.0</ele><time>2026-04-04T13:17:25.033Z</time></trkpt><trkpt lat="42.5103731" lon="12.3171566"><ele>143.0</ele><time>2026-04-04T13:17:26.04Z</time></trkpt><trkpt lat="42.5102737" lon="12.3170967"><ele>143.0</ele><time>2026-04-04T13:17:26.996Z</time></trkpt><trkpt lat="42.5101776" lon="12.3170365"><ele>142.33333333333331</ele><time>2026-04-04T13:17:28.012Z</time></trkpt><trkpt lat="42.5100893" lon="12.3169873"><ele>141.66666666666666</ele><time>2026-04-04T13:17:28.996Z</time></trkpt><trkpt lat="42.5100011" lon="12.3169518"><ele>141.0</ele><time>2026-04-04T13:17:30.058Z</time></trkpt><trkpt lat="42.5099139" lon="12.3169208"><ele>140.33333333333334</ele><time>2026-04-04T13:17:31.002Z</time></trkpt><trkpt lat="42.5098285" lon="12.3168997"><ele>139.66666666666669</ele><time>2026-04-04T13:17:32.015Z</time></trkpt><trkpt lat="42.509747" lon="12.3168791"><ele>139.0</ele><time>2026-04-04T13:17:33.002Z</time></trkpt><trkpt lat="42.5096737" lon="12.3168382"><ele>139.0</ele><time>2026-04-04T13:17:34.012Z</time></trkpt><trkpt lat="42.5096004" lon="12.316777"><ele>139.0</ele><time>2026-04-04T13:17:35.051Z</time></trkpt><trkpt lat="42.509525" lon="12.3166901"><ele>139.0</ele><time>2026-04-04T13:17:36.032Z</time></trkpt><trkpt lat="42.5094615" lon="12.316569"><ele>139.0</ele><time>2026-04-04T13:17:37.012Z</time></trkpt><trkpt lat="42.5094017" lon="12.3164378"><ele>139.0</ele><time>2026-04-04T13:17:38.008Z</time></trkpt><trkpt lat="42.5093487" lon="12.3163333"><ele>141.2</ele><time>2026-04-04T13:17:39.012Z</time></trkpt><trkpt lat="42.5093096" lon="12.3162558"><ele>143.4</ele><time>2026-04-04T13:17:40.01Z</time></trkpt><trkpt lat="42.5092399" lon="12.3161305"><ele>145.6</ele><time>2026-04-04T13:17:42.016Z</time></trkpt><trkpt lat="42.509164" lon="12.3160175"><ele>147.8</ele><time>2026-04-04T13:17:44.056Z</time></trkpt><trkpt lat="42.5090806" lon="12.3159101"><ele>150.0</ele><time>2026-04-04T13:17:46.02Z</time></trkpt><trkpt lat="42.5090291" lon="12.3158581"><ele>150.0</ele><time>2026-04-04T13:17:47.023Z</time></trkpt><trkpt lat="42.5089785" lon="12.3158011"><ele>150.0</ele><time>2026-04-04T13:17:48.006Z</time></trkpt><trkpt lat="42.5089204" lon="12.3157457"><ele>150.0</ele><time>2026-04-04T13:17:49.016Z</time></trkpt><trkpt lat="42.5088589" lon="12.3156965"><ele>150.0</ele><time>2026-04-04T13:17:50.009Z</time></trkpt><trkpt lat="42.5087907" lon="12.3156435"><ele>150.0</ele><time>2026-04-04T13:17:51.019Z</time></trkpt><trkpt lat="42.5087215" lon="12.3155841"><ele>150.0</ele><time>2026-04-04T13:17:52.022Z</time></trkpt><trkpt lat="42.5086538" lon="12.3155227"><ele>147.5</ele><time>2026-04-04T13:17:53.049Z</time></trkpt><trkpt lat="42.5085841" lon="12.3154585"><ele>145.0</ele><time>2026-04-04T13:17:54.008Z</time></trkpt><trkpt lat="42.5085214" lon="12.3153942"><ele>142.5</ele><time>2026-04-04T13:17:55.049Z</time></trkpt><trkpt lat="42.508456" lon="12.3153439"><ele>140.0</ele><time>2026-04-04T13:17:56.079Z</time></trkpt><trkpt lat="42.5083876" lon="12.3153126"><ele>137.5</ele><time>2026-04-04T13:17:57.009Z</time></trkpt><trkpt lat="42.5083158" lon="12.315279"><ele>135.0</ele><time>2026-04-04T13:17:58.012Z</time></trkpt><trkpt lat="42.508231" lon="12.3152619"><ele>135.0</ele><time>2026-04-04T13:17:59.018Z</time></trkpt><trkpt lat="42.5081521" lon="12.3152583"><ele>135.0</ele><time>2026-04-04T13:18:00.019Z</time></trkpt><trkpt lat="42.5080758" lon="12.3152488"><ele>135.0</ele><time>2026-04-04T13:18:01.012Z</time></trkpt><trkpt lat="42.5080006" lon="12.3152376"><ele>135.0</ele><time>2026-04-04T13:18:02.01Z</time></trkpt><trkpt lat="42.5079371" lon="12.3152283"><ele>135.0</ele><time>2026-04-04T13:18:03.008Z</time></trkpt><trkpt lat="42.5078267" lon="12.3152294"><ele>135.0</ele><time>2026-04-04T13:18:05.055Z</time></trkpt><trkpt lat="42.507719" lon="12.3152266"><ele>134.33333333333334</ele><time>2026-04-04T13:18:07.005Z</time></trkpt><trkpt lat="42.5076434" lon="12.3152238"><ele>133.66666666666666</ele><time>2026-04-04T13:18:08.011Z</time></trkpt><trkpt lat="42.5075592" lon="12.3152189"><ele>133.0</ele><time>2026-04-04T13:18:09.036Z</time></trkpt><trkpt lat="42.5074692" lon="12.3152215"><ele>132.33333333333331</ele><time>2026-04-04T13:18:10.051Z</time></trkpt><trkpt lat="42.5073741" lon="12.3152328"><ele>131.66666666666666</ele><time>2026-04-04T13:18:11.053Z</time></trkpt><trkpt lat="42.5072789" lon="12.3152337"><ele>131.0</ele><time>2026-04-04T13:18:12.011Z</time></trkpt><trkpt lat="42.5071934" lon="12.3152249"><ele>131.0</ele><time>2026-04-04T13:18:13.009Z</time></trkpt><trkpt lat="42.5071171" lon="12.3152025"><ele>131.0</ele><time>2026-04-04T13:18:14.052Z</time></trkpt><trkpt lat="42.5070477" lon="12.3151579"><ele>131.0</ele><time>2026-04-04T13:18:15.062Z</time></trkpt><trkpt lat="42.5069866" lon="12.3150872"><ele>131.0</ele><time>2026-04-04T13:18:16.057Z</time></trkpt><trkpt lat="42.5069286" lon="12.3150001"><ele>131.0</ele><time>2026-04-04T13:18:17Z</time></trkpt><trkpt lat="42.5068681" lon="12.3149091"><ele>131.0</ele><time>2026-04-04T13:18:18.064Z</time></trkpt><trkpt lat="42.5067934" lon="12.3148294"><ele>130.8</ele><time>2026-04-04T13:18:19.013Z</time></trkpt><trkpt lat="42.5067008" lon="12.314769"><ele>130.6</ele><time>2026-04-04T13:18:20.086Z</time></trkpt><trkpt lat="42.5066047" lon="12.3147217"><ele>130.4</ele><time>2026-04-04T13:18:21.005Z</time></trkpt><trkpt lat="42.5065116" lon="12.314689"><ele>130.2</ele><time>2026-04-04T13:18:22.025Z</time></trkpt><trkpt lat="42.506418" lon="12.3146572"><ele>130.0</ele><time>2026-04-04T13:18:23.017Z</time></trkpt><trkpt lat="42.5063262" lon="12.3146214"><ele>129.16666666666669</ele><time>2026-04-04T13:18:24.042Z</time></trkpt><trkpt lat="42.5062324" lon="12.31458"><ele>128.33333333333334</ele><time>2026-04-04T13:18:25.049Z</time></trkpt><trkpt lat="42.5061483" lon="12.3145419"><ele>127.5</ele><time>2026-04-04T13:18:25.99Z</time></trkpt><trkpt lat="42.5060704" lon="12.3144976"><ele>126.66666666666666</ele><time>2026-04-04T13:18:26.987Z</time></trkpt><trkpt lat="42.5060074" lon="12.3144351"><ele>125.83333333333333</ele><time>2026-04-04T13:18:27.983Z</time></trkpt><trkpt lat="42.5059398" lon="12.3143731"><ele>125.0</ele><time>2026-04-04T13:18:28.96Z</time></trkpt><trkpt lat="42.5058699" lon="12.3143142"><ele>125.0</ele><time>2026-04-04T13:18:29.985Z</time></trkpt><trkpt lat="42.5057867" lon="12.3142698"><ele>125.0</ele><time>2026-04-04T13:18:30.974Z</time></trkpt><trkpt lat="42.5056886" lon="12.3142248"><ele>125.0</ele><time>2026-04-04T13:18:31.987Z</time></trkpt><trkpt lat="42.5055827" lon="12.314173"><ele>125.0</ele><time>2026-04-04T13:18:32.976Z</time></trkpt><trkpt lat="42.5054764" lon="12.3141304"><ele>125.0</ele><time>2026-04-04T13:18:33.984Z</time></trkpt><trkpt lat="42.5053828" lon="12.3140939"><ele>124.0</ele><time>2026-04-04T13:18:35.039Z</time></trkpt><trkpt lat="42.5052981" lon="12.3140625"><ele>123.0</ele><time>2026-04-04T13:18:36.052Z</time></trkpt><trkpt lat="42.5052147" lon="12.3140409"><ele>122.0</ele><time>2026-04-04T13:18:36.998Z</time></trkpt><trkpt lat="42.5051208" lon="12.3140262"><ele>121.0</ele><time>2026-04-04T13:18:37.993Z</time></trkpt><trkpt lat="42.5050263" lon="12.3140415"><ele>120.0</ele><time>2026-04-04T13:18:38.99Z</time></trkpt><trkpt lat="42.5049302" lon="12.3140708"><ele>120.0</ele><time>2026-04-04T13:18:40Z</time></trkpt><trkpt lat="42.5048504" lon="12.3141041"><ele>120.0</ele><time>2026-04-04T13:18:41.001Z</time></trkpt><trkpt lat="42.5047845" lon="12.3141288"><ele>120.0</ele><time>2026-04-04T13:18:41.999Z</time></trkpt><trkpt lat="42.5046666" lon="12.3141599"><ele>120.0</ele><time>2026-04-04T13:18:43.994Z</time></trkpt><trkpt lat="42.5045642" lon="12.3141651"><ele>120.0</ele><time>2026-04-04T13:18:46.04Z</time></trkpt><trkpt lat="42.504407" lon="12.314169"><ele>119.5</ele><time>2026-04-04T13:18:47.998Z</time></trkpt><trkpt lat="42.50429" lon="12.3141985"><ele>119.0</ele><time>2026-04-04T13:18:49.035Z</time></trkpt><trkpt lat="42.5041605" lon="12.3142385"><ele>118.5</ele><time>2026-04-04T13:18:50.046Z</time></trkpt><trkpt lat="42.5040319" lon="12.3142788"><ele>118.0</ele><time>2026-04-04T13:18:51.025Z</time></trkpt><trkpt lat="42.5039268" lon="12.314343"><ele>118.0</ele><time>2026-04-04T13:18:51.999Z</time></trkpt><trkpt lat="42.503843" lon="12.3144432"><ele>118.0</ele><time>2026-04-04T13:18:52.995Z</time></trkpt><trkpt lat="42.5037783" lon="12.3145685"><ele>118.0</ele><time>2026-04-04T13:18:54.027Z</time></trkpt><trkpt lat="42.5037447" lon="12.3147127"><ele>118.0</ele><time>2026-04-04T13:18:55.028Z</time></trkpt><trkpt lat="42.5037292" lon="12.3148753"><ele>121.25</ele><time>2026-04-04T13:18:55.981Z</time></trkpt><trkpt lat="42.5037319" lon="12.3150594"><ele>124.5</ele><time>2026-04-04T13:18:56.996Z</time></trkpt><trkpt lat="42.5037401" lon="12.3152516"><ele>127.75</ele><time>2026-04-04T13:18:57.991Z</time></trkpt><trkpt lat="42.5037389" lon="12.3154633"><ele>131.0</ele><time>2026-04-04T13:18:59.01Z</time></trkpt><trkpt lat="42.5037293" lon="12.3156671"><ele>131.5</ele><time>2026-04-04T13:19:00.075Z</time></trkpt><trkpt lat="42.503693" lon="12.3158478"><ele>132.0</ele><time>2026-04-04T13:19:01.017Z</time></trkpt><trkpt lat="42.5036367" lon="12.3160253"><ele>132.5</ele><time>2026-04-04T13:19:01.987Z</time></trkpt><trkpt lat="42.5035646" lon="12.3162004"><ele>133.0</ele><time>2026-04-04T13:19:02.985Z</time></trkpt><trkpt lat="42.5034852" lon="12.316374"><ele>133.5</ele><time>2026-04-04T13:19:03.985Z</time></trkpt><trkpt lat="42.5034011" lon="12.3165389"><ele>134.0</ele><time>2026-04-04T13:19:05.054Z</time></trkpt><trkpt lat="42.503324" lon="12.316689"><ele>134.5</ele><time>2026-04-04T13:19:06.043Z</time></trkpt><trkpt lat="42.5032529" lon="12.3168391"><ele>135.0</ele><time>2026-04-04T13:19:06.981Z</time></trkpt><trkpt lat="42.5031902" lon="12.3169923"><ele>135.0</ele><time>2026-04-04T13:19:07.978Z</time></trkpt><trkpt lat="42.5031284" lon="12.3171579"><ele>135.0</ele><time>2026-04-04T13:19:09.04Z</time></trkpt><trkpt lat="42.5030772" lon="12.3173299"><ele>135.0</ele><time>2026-04-04T13:19:10.042Z</time></trkpt><trkpt lat="42.5030315" lon="12.3175088"><ele>135.0</ele><time>2026-04-04T13:19:10.973Z</time></trkpt><trkpt lat="42.5029896" lon="12.3176756"><ele>135.75</ele><time>2026-04-04T13:19:11.966Z</time></trkpt><trkpt lat="42.5029626" lon="12.3178307"><ele>136.5</ele><time>2026-04-04T13:19:12.971Z</time></trkpt><trkpt lat="42.5029509" lon="12.317977"><ele>137.25</ele><time>2026-04-04T13:19:13.974Z</time></trkpt><trkpt lat="42.5029512" lon="12.3181367"><ele>138.0</ele><time>2026-04-04T13:19:14.978Z</time></trkpt><trkpt lat="42.5029623" lon="12.3183017"><ele>138.0</ele><time>2026-04-04T13:19:16.038Z</time></trkpt><trkpt lat="42.5029771" lon="12.3184756"><ele>138.0</ele><time>2026-04-04T13:19:17.002Z</time></trkpt><trkpt lat="42.5029789" lon="12.3186561"><ele>138.0</ele><time>2026-04-04T13:19:17.996Z</time></trkpt><trkpt lat="42.5029609" lon="12.3188443"><ele>138.0</ele><time>2026-04-04T13:19:18.998Z</time></trkpt><trkpt lat="42.5029067" lon="12.3190311"><ele>138.0</ele><time>2026-04-04T13:19:19.996Z</time></trkpt><trkpt lat="42.5028214" lon="12.3191972"><ele>138.0</ele><time>2026-04-04T13:19:21.006Z</time></trkpt><trkpt lat="42.5027262" lon="12.3193352"><ele>138.0</ele><time>2026-04-04T13:19:22.002Z</time></trkpt><trkpt lat="42.5026407" lon="12.3194758"><ele>138.0</ele><time>2026-04-04T13:19:23.001Z</time></trkpt><trkpt lat="42.502563" lon="12.3196307"><ele>140.0</ele><time>2026-04-04T13:19:23.99Z</time></trkpt><trkpt lat="42.5024915" lon="12.3197985"><ele>142.0</ele><time>2026-04-04T13:19:25.04Z</time></trkpt><trkpt lat="42.5024314" lon="12.3199731"><ele>144.0</ele><time>2026-04-04T13:19:26.042Z</time></trkpt><trkpt lat="42.5023884" lon="12.3201603"><ele>146.0</ele><time>2026-04-04T13:19:26.973Z</time></trkpt><trkpt lat="42.5023662" lon="12.3203531"><ele>146.0</ele><time>2026-04-04T13:19:27.982Z</time></trkpt><trkpt lat="42.5023624" lon="12.3205621"><ele>146.0</ele><time>2026-04-04T13:19:28.978Z</time></trkpt><trkpt lat="42.5023803" lon="12.3207626"><ele>146.0</ele><time>2026-04-04T13:19:29.977Z</time></trkpt><trkpt lat="42.502399" lon="12.3209485"><ele>146.0</ele><time>2026-04-04T13:19:30.979Z</time></trkpt><trkpt lat="42.5023843" lon="12.3211201"><ele>148.0</ele><time>2026-04-04T13:19:31.983Z</time></trkpt><trkpt lat="42.5023295" lon="12.3213032"><ele>150.0</ele><time>2026-04-04T13:19:33.012Z</time></trkpt><trkpt lat="42.5022488" lon="12.321477"><ele>152.0</ele><time>2026-04-04T13:19:34.042Z</time></trkpt><trkpt lat="42.5021506" lon="12.3216456"><ele>149.33333333333331</ele><time>2026-04-04T13:19:35.036Z</time></trkpt><trkpt lat="42.5020486" lon="12.3218231"><ele>146.66666666666666</ele><time>2026-04-04T13:19:36.037Z</time></trkpt><trkpt lat="42.5019479" lon="12.3219991"><ele>144.0</ele><time>2026-04-04T13:19:36.966Z</time></trkpt><trkpt lat="42.5018654" lon="12.3221602"><ele>146.25</ele><time>2026-04-04T13:19:37.975Z</time></trkpt><trkpt lat="42.5017975" lon="12.3222963"><ele>148.5</ele><time>2026-04-04T13:19:39.041Z</time></trkpt><trkpt lat="42.501737" lon="12.3224345"><ele>150.75</ele><time>2026-04-04T13:19:40.041Z</time></trkpt><trkpt lat="42.5016895" lon="12.3225795"><ele>153.0</ele><time>2026-04-04T13:19:41.041Z</time></trkpt><trkpt lat="42.501657" lon="12.3227168"><ele>153.0</ele><time>2026-04-04T13:19:41.968Z</time></trkpt><trkpt lat="42.5016609" lon="12.3228309"><ele>153.0</ele><time>2026-04-04T13:19:42.97Z</time></trkpt><trkpt lat="42.5016728" lon="12.322922"><ele>153.0</ele><time>2026-04-04T13:19:44.039Z</time></trkpt><trkpt lat="42.5016419" lon="12.323074"><ele>153.0</ele><time>2026-04-04T13:19:46.014Z</time></trkpt><trkpt lat="42.5015791" lon="12.3231737"><ele>153.0</ele><time>2026-04-04T13:19:46.996Z</time></trkpt><trkpt lat="42.5014923" lon="12.3232908"><ele>154.75</ele><time>2026-04-04T13:19:47.994Z</time></trkpt><trkpt lat="42.5013945" lon="12.323391"><ele>156.5</ele><time>2026-04-04T13:19:49.037Z</time></trkpt><trkpt lat="42.5012786" lon="12.3234558"><ele>158.25</ele><time>2026-04-04T13:19:50.042Z</time></trkpt><trkpt lat="42.5011419" lon="12.3234796"><ele>160.0</ele><time>2026-04-04T13:19:51.04Z</time></trkpt><trkpt lat="42.5009965" lon="12.323478"><ele>156.0</ele><time>2026-04-04T13:19:51.971Z</time></trkpt><trkpt lat="42.5008537" lon="12.3234667"><ele>152.0</ele><time>2026-04-04T13:19:52.977Z</time></trkpt><trkpt lat="42.5007117" lon="12.3234407"><ele>148.0</ele><time>2026-04-04T13:19:53.978Z</time></trkpt><trkpt lat="42.5005873" lon="12.3234099"><ele>144.0</ele><time>2026-04-04T13:19:54.976Z</time></trkpt><trkpt lat="42.5004643" lon="12.3233811"><ele>142.5</ele><time>2026-04-04T13:19:55.969Z</time></trkpt><trkpt lat="42.5003476" lon="12.3233463"><ele>141.0</ele><time>2026-04-04T13:19:56.966Z</time></trkpt><trkpt lat="42.5002334" lon="12.3233095"><ele>139.5</ele><time>2026-04-04T13:19:57.97Z</time></trkpt><trkpt lat="42.500125" lon="12.3232721"><ele>138.0</ele><time>2026-04-04T13:19:59.04Z</time></trkpt><trkpt lat="42.5000188" lon="12.323231"><ele>138.0</ele><time>2026-04-04T13:19:59.988Z</time></trkpt><trkpt lat="42.499916" lon="12.3231919"><ele>138.0</ele><time>2026-04-04T13:20:00.991Z</time></trkpt><trkpt lat="42.499821" lon="12.3231569"><ele>138.0</ele><time>2026-04-04T13:20:01.989Z</time></trkpt><trkpt lat="42.4997266" lon="12.3231246"><ele>138.0</ele><time>2026-04-04T13:20:03.002Z</time></trkpt><trkpt lat="42.4996246" lon="12.3230995"><ele>138.0</ele><time>2026-04-04T13:20:03.999Z</time></trkpt><trkpt lat="42.4995143" lon="12.3230748"><ele>135.33333333333334</ele><time>2026-04-04T13:20:05.056Z</time></trkpt><trkpt lat="42.4993815" lon="12.3230494"><ele>132.66666666666669</ele><time>2026-04-04T13:20:05.991Z</time></trkpt><trkpt lat="42.4992265" lon="12.3230245"><ele>130.0</ele><time>2026-04-04T13:20:06.991Z</time></trkpt><trkpt lat="42.4990662" lon="12.3230054"><ele>130.0</ele><time>2026-04-04T13:20:08.008Z</time></trkpt><trkpt lat="42.498914" lon="12.3229884"><ele>130.0</ele><time>2026-04-04T13:20:08.998Z</time></trkpt><trkpt lat="42.4987681" lon="12.3229683"><ele>130.0</ele><time>2026-04-04T13:20:09.995Z</time></trkpt><trkpt lat="42.4986164" lon="12.3229466"><ele>128.5</ele><time>2026-04-04T13:20:10.99Z</time></trkpt><trkpt lat="42.4984756" lon="12.3229297"><ele>127.0</ele><time>2026-04-04T13:20:12.002Z</time></trkpt><trkpt lat="42.4983399" lon="12.322909"><ele>125.5</ele><time>2026-04-04T13:20:13.002Z</time></trkpt><trkpt lat="42.4982064" lon="12.3228927"><ele>124.0</ele><time>2026-04-04T13:20:14.036Z</time></trkpt><trkpt lat="42.4980745" lon="12.3228869"><ele>124.0</ele><time>2026-04-04T13:20:15.039Z</time></trkpt><trkpt lat="42.4979319" lon="12.3228802"><ele>124.0</ele><time>2026-04-04T13:20:16.044Z</time></trkpt><trkpt lat="42.4977708" lon="12.3228578"><ele>124.0</ele><time>2026-04-04T13:20:16.974Z</time></trkpt><trkpt lat="42.4976003" lon="12.3228193"><ele>122.75</ele><time>2026-04-04T13:20:17.974Z</time></trkpt><trkpt lat="42.4974468" lon="12.3227854"><ele>121.5</ele><time>2026-04-04T13:20:18.977Z</time></trkpt><trkpt lat="42.4973179" lon="12.3227617"><ele>120.25</ele><time>2026-04-04T13:20:19.977Z</time></trkpt><trkpt lat="42.4971995" lon="12.3227567"><ele>119.0</ele><time>2026-04-04T13:20:20.978Z</time></trkpt><trkpt lat="42.4970866" lon="12.3227561"><ele>116.25</ele><time>2026-04-04T13:20:21.968Z</time></trkpt><trkpt lat="42.4969716" lon="12.322732"><ele>113.5</ele><time>2026-04-04T13:20:23.041Z</time></trkpt><trkpt lat="42.4968576" lon="12.3226749"><ele>110.75</ele><time>2026-04-04T13:20:24.037Z</time></trkpt><trkpt lat="42.496739" lon="12.3226182"><ele>108.0</ele><time>2026-04-04T13:20:25.034Z</time></trkpt><trkpt lat="42.4966253" lon="12.3225606"><ele>108.0</ele><time>2026-04-04T13:20:26.038Z</time></trkpt><trkpt lat="42.4965204" lon="12.3225092"><ele>108.00000000000001</ele><time>2026-04-04T13:20:26.966Z</time></trkpt><trkpt lat="42.4964208" lon="12.3224696"><ele>108.00000000000001</ele><time>2026-04-04T13:20:27.976Z</time></trkpt><trkpt lat="42.4963207" lon="12.3224425"><ele>108.0</ele><time>2026-04-04T13:20:28.968Z</time></trkpt><trkpt lat="42.4962218" lon="12.3224094"><ele>108.0</ele><time>2026-04-04T13:20:30.036Z</time></trkpt><trkpt lat="42.4961175" lon="12.3223887"><ele>105.66666666666667</ele><time>2026-04-04T13:20:31.04Z</time></trkpt><trkpt lat="42.4960234" lon="12.3223707"><ele>103.33333333333333</ele><time>2026-04-04T13:20:31.98Z</time></trkpt><trkpt lat="42.4959315" lon="12.3223522"><ele>101.0</ele><time>2026-04-04T13:20:33.036Z</time></trkpt><trkpt lat="42.495847" lon="12.3223391"><ele>98.66666666666666</ele><time>2026-04-04T13:20:34.036Z</time></trkpt><trkpt lat="42.4957692" lon="12.3223282"><ele>96.33333333333333</ele><time>2026-04-04T13:20:35.036Z</time></trkpt><trkpt lat="42.4956981" lon="12.3223246"><ele>94.0</ele><time>2026-04-04T13:20:36.04Z</time></trkpt><trkpt lat="42.4956322" lon="12.3223281"><ele>94.0</ele><time>2026-04-04T13:20:36.973Z</time></trkpt><trkpt lat="42.4955152" lon="12.3223467"><ele>94.0</ele><time>2026-04-04T13:20:39.045Z</time></trkpt><trkpt lat="42.4954282" lon="12.3223565"><ele>94.0</ele><time>2026-04-04T13:20:40.981Z</time></trkpt><trkpt lat="42.4953879" lon="12.3224639"><ele>94.0</ele><time>2026-04-04T13:20:44.038Z</time></trkpt><trkpt lat="42.4953906" lon="12.3225493"><ele>94.0</ele><time>2026-04-04T13:20:45.037Z</time></trkpt><trkpt lat="42.4953996" lon="12.3226417"><ele>94.0</ele><time>2026-04-04T13:20:46.04Z</time></trkpt><trkpt lat="42.4954131" lon="12.3227492"><ele>94.0</ele><time>2026-04-04T13:20:46.974Z</time></trkpt><trkpt lat="42.4954333" lon="12.3228749"><ele>94.0</ele><time>2026-04-04T13:20:47.972Z</time></trkpt><trkpt lat="42.4954738" lon="12.3230012"><ele>94.0</ele><time>2026-04-04T13:20:49.038Z</time></trkpt><trkpt lat="42.4955139" lon="12.3231262"><ele>94.0</ele><time>2026-04-04T13:20:49.971Z</time></trkpt><trkpt lat="42.4955489" lon="12.3232714"><ele>94.0</ele><time>2026-04-04T13:20:50.971Z</time></trkpt><trkpt lat="42.4955798" lon="12.3234256"><ele>94.0</ele><time>2026-04-04T13:20:51.98Z</time></trkpt><trkpt lat="42.4956051" lon="12.3235765"><ele>94.0</ele><time>2026-04-04T13:20:52.988Z</time></trkpt><trkpt lat="42.4956301" lon="12.32371"><ele>94.0</ele><time>2026-04-04T13:20:53.973Z</time></trkpt><trkpt lat="42.4956538" lon="12.32384"><ele>94.0</ele><time>2026-04-04T13:20:55.047Z</time></trkpt><trkpt lat="42.4956732" lon="12.3239651"><ele>94.0</ele><time>2026-04-04T13:20:56.042Z</time></trkpt><trkpt lat="42.4956952" lon="12.3240894"><ele>92.5</ele><time>2026-04-04T13:20:56.988Z</time></trkpt><trkpt lat="42.4957188" lon="12.3242035"><ele>91.0</ele><time>2026-04-04T13:20:57.975Z</time></trkpt><trkpt lat="42.4957402" lon="12.3243083"><ele>89.5</ele><time>2026-04-04T13:20:58.977Z</time></trkpt><trkpt lat="42.4957525" lon="12.3244107"><ele>88.0</ele><time>2026-04-04T13:20:59.992Z</time></trkpt><trkpt lat="42.4957587" lon="12.3245098"><ele>86.5</ele><time>2026-04-04T13:21:00.985Z</time></trkpt><trkpt lat="42.4957615" lon="12.3246037"><ele>85.0</ele><time>2026-04-04T13:21:01.982Z</time></trkpt><trkpt lat="42.4957582" lon="12.324706"><ele>83.6</ele><time>2026-04-04T13:21:02.991Z</time></trkpt><trkpt lat="42.4957535" lon="12.3248257"><ele>82.2</ele><time>2026-04-04T13:21:04.034Z</time></trkpt><trkpt lat="42.4957527" lon="12.3249604"><ele>80.8</ele><time>2026-04-04T13:21:05.039Z</time></trkpt><trkpt lat="42.4957633" lon="12.3250955"><ele>79.4</ele><time>2026-04-04T13:21:06.036Z</time></trkpt><trkpt lat="42.4957727" lon="12.3252242"><ele>78.0</ele><time>2026-04-04T13:21:06.989Z</time></trkpt><trkpt lat="42.4957786" lon="12.3253449"><ele>78.0</ele><time>2026-04-04T13:21:07.976Z</time></trkpt><trkpt lat="42.495775" lon="12.3254578"><ele>78.0</ele><time>2026-04-04T13:21:09.019Z</time></trkpt><trkpt lat="42.4957595" lon="12.3255599"><ele>78.0</ele><time>2026-04-04T13:21:10.041Z</time></trkpt><trkpt lat="42.4957403" lon="12.3256547"><ele>78.0</ele><time>2026-04-04T13:21:11.023Z</time></trkpt><trkpt lat="42.4957173" lon="12.3257415"><ele>78.0</ele><time>2026-04-04T13:21:12.04Z</time></trkpt><trkpt lat="42.4956693" lon="12.3258766"><ele>78.0</ele><time>2026-04-04T13:21:13.979Z</time></trkpt><trkpt lat="42.4956489" lon="12.3260041"><ele>76.4</ele><time>2026-04-04T13:21:16.038Z</time></trkpt><trkpt lat="42.4956598" lon="12.326096"><ele>74.8</ele><time>2026-04-04T13:21:17.04Z</time></trkpt><trkpt lat="42.4956895" lon="12.3262269"><ele>73.2</ele><time>2026-04-04T13:21:17.967Z</time></trkpt><trkpt lat="42.4957334" lon="12.3263808"><ele>71.6</ele><time>2026-04-04T13:21:18.983Z</time></trkpt><trkpt lat="42.4957868" lon="12.3265223"><ele>70.0</ele><time>2026-04-04T13:21:19.962Z</time></trkpt><trkpt lat="42.4958371" lon="12.326649"><ele>68.83333333333333</ele><time>2026-04-04T13:21:21.039Z</time></trkpt><trkpt lat="42.4958852" lon="12.3267518"><ele>67.66666666666666</ele><time>2026-04-04T13:21:22.037Z</time></trkpt><trkpt lat="42.4959357" lon="12.3268268"><ele>66.5</ele><time>2026-04-04T13:21:22.977Z</time></trkpt><trkpt lat="42.4959661" lon="12.326902"><ele>65.33333333333333</ele><time>2026-04-04T13:21:23.971Z</time></trkpt><trkpt lat="42.4959799" lon="12.3269988"><ele>64.16666666666667</ele><time>2026-04-04T13:21:25.037Z</time></trkpt><trkpt lat="42.4959887" lon="12.3271003"><ele>63.0</ele><time>2026-04-04T13:21:26.038Z</time></trkpt><trkpt lat="42.4960064" lon="12.327214"><ele>63.666666666666664</ele><time>2026-04-04T13:21:27.056Z</time></trkpt><trkpt lat="42.4960293" lon="12.3273374"><ele>64.33333333333333</ele><time>2026-04-04T13:21:27.992Z</time></trkpt><trkpt lat="42.4960443" lon="12.3274545"><ele>65.0</ele><time>2026-04-04T13:21:28.99Z</time></trkpt><trkpt lat="42.4960544" lon="12.3275629"><ele>65.66666666666666</ele><time>2026-04-04T13:21:29.984Z</time></trkpt><trkpt lat="42.4960734" lon="12.3276693"><ele>66.33333333333333</ele><time>2026-04-04T13:21:30.994Z</time></trkpt><trkpt lat="42.4960991" lon="12.3277734"><ele>67.0</ele><time>2026-04-04T13:21:31.991Z</time></trkpt><trkpt lat="42.4961244" lon="12.3278705"><ele>67.0</ele><time>2026-04-04T13:21:33.004Z</time></trkpt><trkpt lat="42.4961549" lon="12.3279678"><ele>67.0</ele><time>2026-04-04T13:21:33.987Z</time></trkpt><trkpt lat="42.4961964" lon="12.3280619"><ele>67.0</ele><time>2026-04-04T13:21:35.002Z</time></trkpt><trkpt lat="42.4962314" lon="12.3281566"><ele>67.0</ele><time>2026-04-04T13:21:36.04Z</time></trkpt><trkpt lat="42.4962538" lon="12.328252"><ele>67.0</ele><time>2026-04-04T13:21:37.04Z</time></trkpt><trkpt lat="42.4962636" lon="12.328356"><ele>67.0</ele><time>2026-04-04T13:21:37.995Z</time></trkpt><trkpt lat="42.4962592" lon="12.3284654"><ele>68.83333333333333</ele><time>2026-04-04T13:21:38.995Z</time></trkpt><trkpt lat="42.4962496" lon="12.3285901"><ele>70.66666666666666</ele><time>2026-04-04T13:21:39.986Z</time></trkpt><trkpt lat="42.4962449" lon="12.3287203"><ele>72.5</ele><time>2026-04-04T13:21:40.992Z</time></trkpt><trkpt lat="42.4962339" lon="12.3288257"><ele>74.33333333333333</ele><time>2026-04-04T13:21:41.985Z</time></trkpt><trkpt lat="42.4962303" lon="12.3289173"><ele>76.16666666666667</ele><time>2026-04-04T13:21:42.988Z</time></trkpt><trkpt lat="42.496232" lon="12.3290138"><ele>78.0</ele><time>2026-04-04T13:21:43.988Z</time></trkpt><trkpt lat="42.4962381" lon="12.3291143"><ele>80.0</ele><time>2026-04-04T13:21:44.987Z</time></trkpt><trkpt lat="42.4962421" lon="12.32922"><ele>82.0</ele><time>2026-04-04T13:21:46.042Z</time></trkpt><trkpt lat="42.4962427" lon="12.3293144"><ele>84.0</ele><time>2026-04-04T13:21:47.045Z</time></trkpt><trkpt lat="42.4962064" lon="12.3294335"><ele>86.0</ele><time>2026-04-04T13:21:48.98Z</time></trkpt><trkpt lat="42.4960756" lon="12.3294481"><ele>88.0</ele><time>2026-04-04T13:21:50.971Z</time></trkpt><trkpt lat="42.4960071" lon="12.3294342"><ele>90.0</ele><time>2026-04-04T13:21:51.975Z</time></trkpt><trkpt lat="42.4959327" lon="12.3294882"><ele>90.0</ele><time>2026-04-04T13:21:54.04Z</time></trkpt><trkpt lat="42.4959677" lon="12.3296399"><ele>90.0</ele><time>2026-04-04T13:21:56.039Z</time></trkpt><trkpt lat="42.4959993" lon="12.3297196"><ele>90.0</ele><time>2026-04-04T13:21:57.037Z</time></trkpt><trkpt lat="42.4960194" lon="12.3298175"><ele>90.0</ele><time>2026-04-04T13:21:57.975Z</time></trkpt><trkpt lat="42.496006" lon="12.3299329"><ele>90.0</ele><time>2026-04-04T13:21:58.97Z</time></trkpt><trkpt lat="42.4959819" lon="12.3300627"><ele>90.0</ele><time>2026-04-04T13:22:00.009Z</time></trkpt><trkpt lat="42.4959705" lon="12.3302022"><ele>91.5</ele><time>2026-04-04T13:22:00.979Z</time></trkpt><trkpt lat="42.4959664" lon="12.3303153"><ele>93.0</ele><time>2026-04-04T13:22:02.036Z</time></trkpt><trkpt lat="42.4960068" lon="12.3304196"><ele>94.5</ele><time>2026-04-04T13:22:03.973Z</time></trkpt><trkpt lat="42.4959651" lon="12.3305257"><ele>96.0</ele><time>2026-04-04T13:22:06.977Z</time></trkpt><trkpt lat="42.4958855" lon="12.3305674"><ele>97.5</ele><time>2026-04-04T13:22:09.04Z</time></trkpt><trkpt lat="42.4958543" lon="12.3307032"><ele>99.0</ele><time>2026-04-04T13:22:11.041Z</time></trkpt><trkpt lat="42.4958477" lon="12.3307928"><ele>100.33333333333333</ele><time>2026-04-04T13:22:12.058Z</time></trkpt><trkpt lat="42.495837" lon="12.3308846"><ele>101.66666666666666</ele><time>2026-04-04T13:22:12.995Z</time></trkpt><trkpt lat="42.4958403" lon="12.330973"><ele>103.0</ele><time>2026-04-04T13:22:14.006Z</time></trkpt><trkpt lat="42.4958658" lon="12.3310564"><ele>104.33333333333333</ele><time>2026-04-04T13:22:15.032Z</time></trkpt><trkpt lat="42.4958999" lon="12.3311493"><ele>105.66666666666666</ele><time>2026-04-04T13:22:16.045Z</time></trkpt><trkpt lat="42.495919" lon="12.3312643"><ele>107.0</ele><time>2026-04-04T13:22:17.047Z</time></trkpt><trkpt lat="42.4959303" lon="12.3314089"><ele>108.0</ele><time>2026-04-04T13:22:17.98Z</time></trkpt><trkpt lat="42.4959478" lon="12.3315462"><ele>108.99999999999999</ele><time>2026-04-04T13:22:18.982Z</time></trkpt><trkpt lat="42.4959734" lon="12.3316762"><ele>109.99999999999999</ele><time>2026-04-04T13:22:20.04Z</time></trkpt><trkpt lat="42.4960065" lon="12.3317922"><ele>111.0</ele><time>2026-04-04T13:22:20.985Z</time></trkpt><trkpt lat="42.496063" lon="12.3318883"><ele>112.0</ele><time>2026-04-04T13:22:21.981Z</time></trkpt><trkpt lat="42.4961295" lon="12.3319709"><ele>112.0</ele><time>2026-04-04T13:22:22.985Z</time></trkpt><trkpt lat="42.4961993" lon="12.3320479"><ele>111.99999999999999</ele><time>2026-04-04T13:22:23.987Z</time></trkpt><trkpt lat="42.4962841" lon="12.3321301"><ele>111.99999999999999</ele><time>2026-04-04T13:22:24.987Z</time></trkpt><trkpt lat="42.4963811" lon="12.3322254"><ele>112.0</ele><time>2026-04-04T13:22:26.045Z</time></trkpt><trkpt lat="42.4964677" lon="12.3323566"><ele>112.0</ele><time>2026-04-04T13:22:27.039Z</time></trkpt><trkpt lat="42.4965491" lon="12.3324971"><ele>115.5</ele><time>2026-04-04T13:22:27.997Z</time></trkpt><trkpt lat="42.4966314" lon="12.3326335"><ele>119.0</ele><time>2026-04-04T13:22:29.004Z</time></trkpt><trkpt lat="42.4967103" lon="12.332766"><ele>122.5</ele><time>2026-04-04T13:22:29.994Z</time></trkpt><trkpt lat="42.4967885" lon="12.3328901"><ele>126.0</ele><time>2026-04-04T13:22:30.993Z</time></trkpt><trkpt lat="42.4968649" lon="12.3330004"><ele>127.4</ele><time>2026-04-04T13:22:32.001Z</time></trkpt><trkpt lat="42.4969434" lon="12.3330887"><ele>128.8</ele><time>2026-04-04T13:22:33.004Z</time></trkpt><trkpt lat="42.4970204" lon="12.3331612"><ele>130.20000000000002</ele><time>2026-04-04T13:22:33.991Z</time></trkpt><trkpt lat="42.497089" lon="12.3332333"><ele>131.6</ele><time>2026-04-04T13:22:35.041Z</time></trkpt><trkpt lat="42.4971681" lon="12.3332827"><ele>133.0</ele><time>2026-04-04T13:22:36.057Z</time></trkpt><trkpt lat="42.4972641" lon="12.3332985"><ele>134.4</ele><time>2026-04-04T13:22:37.041Z</time></trkpt><trkpt lat="42.4973538" lon="12.3332783"><ele>135.8</ele><time>2026-04-04T13:22:37.974Z</time></trkpt><trkpt lat="42.4974477" lon="12.3332157"><ele>137.2</ele><time>2026-04-04T13:22:38.974Z</time></trkpt><trkpt lat="42.4975478" lon="12.3331203"><ele>138.6</ele><time>2026-04-04T13:22:39.972Z</time></trkpt><trkpt lat="42.4976411" lon="12.3330027"><ele>140.0</ele><time>2026-04-04T13:22:40.984Z</time></trkpt><trkpt lat="42.4977124" lon="12.3329038"><ele>140.0</ele><time>2026-04-04T13:22:41.987Z</time></trkpt><trkpt lat="42.4977903" lon="12.3328181"><ele>140.0</ele><time>2026-04-04T13:22:42.986Z</time></trkpt><trkpt lat="42.4978941" lon="12.3327528"><ele>140.0</ele><time>2026-04-04T13:22:44.043Z</time></trkpt><trkpt lat="42.4979981" lon="12.3327115"><ele>140.0</ele><time>2026-04-04T13:22:45.034Z</time></trkpt><trkpt lat="42.4980856" lon="12.3326897"><ele>140.0</ele><time>2026-04-04T13:22:46.04Z</time></trkpt><trkpt lat="42.4981642" lon="12.3326577"><ele>143.5</ele><time>2026-04-04T13:22:47.045Z</time></trkpt><trkpt lat="42.4982582" lon="12.3325918"><ele>147.0</ele><time>2026-04-04T13:22:47.975Z</time></trkpt><trkpt lat="42.4983541" lon="12.3324895"><ele>150.5</ele><time>2026-04-04T13:22:49.038Z</time></trkpt><trkpt lat="42.4984389" lon="12.3323842"><ele>154.0</ele><time>2026-04-04T13:22:50.042Z</time></trkpt><trkpt lat="42.4985127" lon="12.3322787"><ele>153.4</ele><time>2026-04-04T13:22:51.043Z</time></trkpt><trkpt lat="42.4985946" lon="12.3321894"><ele>152.8</ele><time>2026-04-04T13:22:52.041Z</time></trkpt><trkpt lat="42.4987001" lon="12.3321161"><ele>152.2</ele><time>2026-04-04T13:22:52.972Z</time></trkpt><trkpt lat="42.4988111" lon="12.3320409"><ele>151.6</ele><time>2026-04-04T13:22:53.974Z</time></trkpt><trkpt lat="42.4989043" lon="12.3319947"><ele>151.0</ele><time>2026-04-04T13:22:55.038Z</time></trkpt><trkpt lat="42.4989721" lon="12.3319753"><ele>151.0</ele><time>2026-04-04T13:22:56.039Z</time></trkpt><trkpt lat="42.4990663" lon="12.332043"><ele>151.0</ele><time>2026-04-04T13:22:57.992Z</time></trkpt><trkpt lat="42.4990969" lon="12.3321236"><ele>151.0</ele><time>2026-04-04T13:22:58.999Z</time></trkpt><trkpt lat="42.499122" lon="12.3322249"><ele>151.0</ele><time>2026-04-04T13:23:00.04Z</time></trkpt><trkpt lat="42.4991478" lon="12.3323381"><ele>151.0</ele><time>2026-04-04T13:23:01.051Z</time></trkpt><trkpt lat="42.4991812" lon="12.3324707"><ele>151.0</ele><time>2026-04-04T13:23:02.039Z</time></trkpt><trkpt lat="42.4992229" lon="12.3326198"><ele>153.0</ele><time>2026-04-04T13:23:02.974Z</time></trkpt><trkpt lat="42.4992651" lon="12.3327697"><ele>155.0</ele><time>2026-04-04T13:23:03.973Z</time></trkpt><trkpt lat="42.4992944" lon="12.3329177"><ele>157.0</ele><time>2026-04-04T13:23:05.036Z</time></trkpt><trkpt lat="42.499321" lon="12.3330655"><ele>159.0</ele><time>2026-04-04T13:23:05.993Z</time></trkpt><trkpt lat="42.4993359" lon="12.3332227"><ele>161.4</ele><time>2026-04-04T13:23:07.037Z</time></trkpt><trkpt lat="42.4993411" lon="12.3333881"><ele>163.8</ele><time>2026-04-04T13:23:07.996Z</time></trkpt><trkpt lat="42.4993392" lon="12.3335492"><ele>166.20000000000002</ele><time>2026-04-04T13:23:09.003Z</time></trkpt><trkpt lat="42.4993346" lon="12.3336835"><ele>168.60000000000002</ele><time>2026-04-04T13:23:10.037Z</time></trkpt><trkpt lat="42.4993447" lon="12.3337885"><ele>171.0</ele><time>2026-04-04T13:23:10.979Z</time></trkpt><trkpt lat="42.4993749" lon="12.3338691"><ele>173.0</ele><time>2026-04-04T13:23:11.969Z</time></trkpt><trkpt lat="42.4994311" lon="12.3340054"><ele>175.0</ele><time>2026-04-04T13:23:13.963Z</time></trkpt><trkpt lat="42.4994324" lon="12.3341099"><ele>177.0</ele><time>2026-04-04T13:23:14.969Z</time></trkpt><trkpt lat="42.4994454" lon="12.3342547"><ele>179.0</ele><time>2026-04-04T13:23:15.974Z</time></trkpt><trkpt lat="42.4994673" lon="12.3343943"><ele>181.0</ele><time>2026-04-04T13:23:17.111Z</time></trkpt><trkpt lat="42.4994871" lon="12.3345105"><ele>181.0</ele><time>2026-04-04T13:23:18.11Z</time></trkpt><trkpt lat="42.4995244" lon="12.3345907"><ele>181.0</ele><time>2026-04-04T13:23:20.116Z</time></trkpt><trkpt lat="42.4995874" lon="12.3346338"><ele>181.0</ele><time>2026-04-04T13:23:23.128Z</time></trkpt><trkpt lat="42.4997028" lon="12.3346077"><ele>181.0</ele><time>2026-04-04T13:23:25.114Z</time></trkpt><trkpt lat="42.4997954" lon="12.3345649"><ele>181.0</ele><time>2026-04-04T13:23:26.154Z</time></trkpt><trkpt lat="42.4998912" lon="12.3345062"><ele>182.20000000000002</ele><time>2026-04-04T13:23:27.14Z</time></trkpt><trkpt lat="42.4999771" lon="12.3344377"><ele>183.4</ele><time>2026-04-04T13:23:28.128Z</time></trkpt><trkpt lat="42.5000687" lon="12.3343485"><ele>184.6</ele><time>2026-04-04T13:23:29.131Z</time></trkpt><trkpt lat="42.5001621" lon="12.3342612"><ele>185.8</ele><time>2026-04-04T13:23:30.125Z</time></trkpt><trkpt lat="42.5002472" lon="12.3341779"><ele>187.0</ele><time>2026-04-04T13:23:31.118Z</time></trkpt><trkpt lat="42.5003163" lon="12.3340866"><ele>187.0</ele><time>2026-04-04T13:23:32.133Z</time></trkpt><trkpt lat="42.5003679" lon="12.3339937"><ele>187.0</ele><time>2026-04-04T13:23:33.124Z</time></trkpt><trkpt lat="42.5003964" lon="12.3338702"><ele>187.0</ele><time>2026-04-04T13:23:34.126Z</time></trkpt><trkpt lat="42.5004225" lon="12.333741"><ele>187.0</ele><time>2026-04-04T13:23:35.186Z</time></trkpt><trkpt lat="42.5004502" lon="12.3336138"><ele>187.0</ele><time>2026-04-04T13:23:36.13Z</time></trkpt><trkpt lat="42.5004675" lon="12.3334933"><ele>185.83333333333334</ele><time>2026-04-04T13:23:37.045Z</time></trkpt><trkpt lat="42.5004874" lon="12.3333878"><ele>184.66666666666669</ele><time>2026-04-04T13:23:38.006Z</time></trkpt><trkpt lat="42.5005077" lon="12.3332933"><ele>183.5</ele><time>2026-04-04T13:23:39.006Z</time></trkpt><trkpt lat="42.5005938" lon="12.3331853"><ele>182.33333333333334</ele><time>2026-04-04T13:23:40.965Z</time></trkpt><trkpt lat="42.5006637" lon="12.3331662"><ele>181.16666666666666</ele><time>2026-04-04T13:23:42.028Z</time></trkpt><trkpt lat="42.5007412" lon="12.3331626"><ele>180.0</ele><time>2026-04-04T13:23:42.974Z</time></trkpt><trkpt lat="42.5008277" lon="12.3331761"><ele>180.0</ele><time>2026-04-04T13:23:43.968Z</time></trkpt><trkpt lat="42.5009226" lon="12.333183"><ele>180.0</ele><time>2026-04-04T13:23:44.955Z</time></trkpt><trkpt lat="42.5010155" lon="12.3331948"><ele>180.0</ele><time>2026-04-04T13:23:45.951Z</time></trkpt><trkpt lat="42.5011079" lon="12.3332108"><ele>180.0</ele><time>2026-04-04T13:23:46.995Z</time></trkpt><trkpt lat="42.5011995" lon="12.3332277"><ele>180.0</ele><time>2026-04-04T13:23:47.961Z</time></trkpt><trkpt lat="42.5012909" lon="12.3332435"><ele>180.5</ele><time>2026-04-04T13:23:48.97Z</time></trkpt><trkpt lat="42.5013824" lon="12.3332622"><ele>181.0</ele><time>2026-04-04T13:23:49.964Z</time></trkpt><trkpt lat="42.5014687" lon="12.3332778"><ele>181.5</ele><time>2026-04-04T13:23:50.989Z</time></trkpt><trkpt lat="42.5015574" lon="12.3332946"><ele>182.0</ele><time>2026-04-04T13:23:51.993Z</time></trkpt><trkpt lat="42.5016471" lon="12.3332958"><ele>182.5</ele><time>2026-04-04T13:23:52.964Z</time></trkpt><trkpt lat="42.5017312" lon="12.3332871"><ele>183.0</ele><time>2026-04-04T13:23:53.969Z</time></trkpt><trkpt lat="42.5018194" lon="12.3332726"><ele>183.0</ele><time>2026-04-04T13:23:54.958Z</time></trkpt><trkpt lat="42.5019081" lon="12.3332575"><ele>183.0</ele><time>2026-04-04T13:23:55.963Z</time></trkpt><trkpt lat="42.5019958" lon="12.3332375"><ele>183.0</ele><time>2026-04-04T13:23:56.973Z</time></trkpt><trkpt lat="42.5020834" lon="12.3332169"><ele>183.0</ele><time>2026-04-04T13:23:57.964Z</time></trkpt><trkpt lat="42.5021709" lon="12.3331936"><ele>183.0</ele><time>2026-04-04T13:23:58.976Z</time></trkpt><trkpt lat="42.5022482" lon="12.3331711"><ele>183.0</ele><time>2026-04-04T13:23:59.971Z</time></trkpt><trkpt lat="42.5023223" lon="12.3331467"><ele>182.66666666666666</ele><time>2026-04-04T13:24:00.971Z</time></trkpt><trkpt lat="42.5023875" lon="12.3331161"><ele>182.33333333333334</ele><time>2026-04-04T13:24:01.976Z</time></trkpt><trkpt lat="42.5024821" lon="12.3330704"><ele>182.0</ele><time>2026-04-04T13:24:03.979Z</time></trkpt><trkpt lat="42.5024813" lon="12.332953"><ele>181.66666666666669</ele><time>2026-04-04T13:24:07.043Z</time></trkpt><trkpt lat="42.5024616" lon="12.3328699"><ele>181.33333333333334</ele><time>2026-04-04T13:24:08.98Z</time></trkpt><trkpt lat="42.5025031" lon="12.3327995"><ele>181.0</ele><time>2026-04-04T13:24:10.97Z</time></trkpt><trkpt lat="42.502527" lon="12.332708"><ele>181.0</ele><time>2026-04-04T13:24:12.973Z</time></trkpt><trkpt lat="42.5025777" lon="12.3326478"><ele>181.0</ele><time>2026-04-04T13:24:16.034Z</time></trkpt></trkseg></trk></gpx>